<?xml version="1.0" encoding="UTF-8" standalone="no" ?>
<gpx xmlns="http://www.topografix.com/GPX/1/1" xmlns:xsi="http://www.w3.org/2001/XMLSchema-instance" xsi:schemaLocation="http://www.topografix.com/GPX/1/1 http://www.topografix.com/GPX/1/1/gpx.xsd" version="1.1" creator="VisuGPX - https://www.visugpx.com">
  <metadata>
    <name>83-D-Puget ville</name>
    <desc><![CDATA[83-D-Puget ville : Les crêtes de terre blanche
2022-11-13]]></desc>
  </metadata>
  <trk>
    <name><![CDATA[2022-11-13-D-Puget ville]]></name>
    <extensions>
      <line xmlns="http://www.topografix.com/GPX/gpx_style/0/2">
        <width>4</width>
      </line>
    </extensions>
    <trkseg>
      <trkpt lat="43.29292" lon="6.13576">
        <ele>210</ele>
        <time>2022-11-13T08:33:06.000Z</time>
      </trkpt>
      <trkpt lat="43.29292" lon="6.13576">
        <ele>210</ele>
        <time>2022-11-13T08:33:07.000Z</time>
      </trkpt>
      <trkpt lat="43.29292" lon="6.13576">
        <ele>210</ele>
        <time>2022-11-13T08:33:15.000Z</time>
      </trkpt>
      <trkpt lat="43.29292" lon="6.13576">
        <ele>210.1</ele>
        <time>2022-11-13T08:33:16.000Z</time>
      </trkpt>
      <trkpt lat="43.29292" lon="6.13576">
        <ele>209.8</ele>
        <time>2022-11-13T08:33:33.000Z</time>
      </trkpt>
      <trkpt lat="43.29293" lon="6.13576">
        <ele>210</ele>
        <time>2022-11-13T08:33:35.000Z</time>
      </trkpt>
      <trkpt lat="43.29293" lon="6.13575">
        <ele>210.2</ele>
        <time>2022-11-13T08:33:36.000Z</time>
      </trkpt>
      <trkpt lat="43.29293" lon="6.13575">
        <ele>210.1</ele>
        <time>2022-11-13T08:33:38.000Z</time>
      </trkpt>
      <trkpt lat="43.29293" lon="6.13576">
        <ele>210.1</ele>
        <time>2022-11-13T08:33:39.000Z</time>
      </trkpt>
      <trkpt lat="43.29295" lon="6.13574">
        <ele>209.6</ele>
        <time>2022-11-13T08:33:49.000Z</time>
      </trkpt>
      <trkpt lat="43.29295" lon="6.13574">
        <ele>209.6</ele>
        <time>2022-11-13T08:34:31.000Z</time>
      </trkpt>
      <trkpt lat="43.29295" lon="6.13574">
        <ele>209.6</ele>
        <time>2022-11-13T08:34:31.000Z</time>
      </trkpt>
      <trkpt lat="43.29295" lon="6.13574">
        <ele>209.7</ele>
        <time>2022-11-13T08:34:32.000Z</time>
      </trkpt>
      <trkpt lat="43.29295" lon="6.13574">
        <ele>210</ele>
        <time>2022-11-13T08:34:48.000Z</time>
      </trkpt>
      <trkpt lat="43.29295" lon="6.13574">
        <ele>210</ele>
        <time>2022-11-13T08:34:49.000Z</time>
      </trkpt>
      <trkpt lat="43.29295" lon="6.13574">
        <ele>210</ele>
        <time>2022-11-13T08:34:54.000Z</time>
      </trkpt>
      <trkpt lat="43.29296" lon="6.13576">
        <ele>209.9</ele>
        <time>2022-11-13T08:34:59.000Z</time>
      </trkpt>
      <trkpt lat="43.29296" lon="6.13576">
        <ele>209.7</ele>
        <time>2022-11-13T08:35:01.000Z</time>
      </trkpt>
      <trkpt lat="43.29296" lon="6.13576">
        <ele>209.5</ele>
        <time>2022-11-13T08:35:02.000Z</time>
      </trkpt>
      <trkpt lat="43.29296" lon="6.13576">
        <ele>209.3</ele>
        <time>2022-11-13T08:35:07.000Z</time>
      </trkpt>
      <trkpt lat="43.29296" lon="6.13576">
        <ele>209.3</ele>
        <time>2022-11-13T08:35:09.000Z</time>
      </trkpt>
      <trkpt lat="43.29295" lon="6.13576">
        <ele>209.5</ele>
        <time>2022-11-13T08:35:11.000Z</time>
      </trkpt>
      <trkpt lat="43.29295" lon="6.13576">
        <ele>209.4</ele>
        <time>2022-11-13T08:35:13.000Z</time>
      </trkpt>
      <trkpt lat="43.29295" lon="6.13577">
        <ele>209.3</ele>
        <time>2022-11-13T08:35:14.000Z</time>
      </trkpt>
      <trkpt lat="43.29295" lon="6.13577">
        <ele>209.4</ele>
        <time>2022-11-13T08:35:19.000Z</time>
      </trkpt>
      <trkpt lat="43.29294" lon="6.13576">
        <ele>209.4</ele>
        <time>2022-11-13T08:35:21.000Z</time>
      </trkpt>
      <trkpt lat="43.29299" lon="6.13565">
        <ele>209.6</ele>
        <time>2022-11-13T08:35:37.000Z</time>
      </trkpt>
      <trkpt lat="43.293" lon="6.13557">
        <ele>210.1</ele>
        <time>2022-11-13T08:35:47.000Z</time>
      </trkpt>
      <trkpt lat="43.293" lon="6.13556">
        <ele>210.1</ele>
        <time>2022-11-13T08:35:49.000Z</time>
      </trkpt>
      <trkpt lat="43.29309" lon="6.13557">
        <ele>210.8</ele>
        <time>2022-11-13T08:36:01.000Z</time>
      </trkpt>
      <trkpt lat="43.29318" lon="6.13552">
        <ele>211.4</ele>
        <time>2022-11-13T08:36:09.000Z</time>
      </trkpt>
      <trkpt lat="43.29326" lon="6.13548">
        <ele>212.2</ele>
        <time>2022-11-13T08:36:18.000Z</time>
      </trkpt>
      <trkpt lat="43.29336" lon="6.13544">
        <ele>212.9</ele>
        <time>2022-11-13T08:36:29.000Z</time>
      </trkpt>
      <trkpt lat="43.29345" lon="6.1354">
        <ele>213.3</ele>
        <time>2022-11-13T08:36:39.000Z</time>
      </trkpt>
      <trkpt lat="43.29354" lon="6.13536">
        <ele>213.9</ele>
        <time>2022-11-13T08:36:49.000Z</time>
      </trkpt>
      <trkpt lat="43.29363" lon="6.13537">
        <ele>214.5</ele>
        <time>2022-11-13T08:37:06.000Z</time>
      </trkpt>
      <trkpt lat="43.29367" lon="6.13535">
        <ele>215.1</ele>
        <time>2022-11-13T08:37:15.000Z</time>
      </trkpt>
      <trkpt lat="43.29367" lon="6.13535">
        <ele>215</ele>
        <time>2022-11-13T08:37:17.000Z</time>
      </trkpt>
      <trkpt lat="43.29375" lon="6.13543">
        <ele>215.5</ele>
        <time>2022-11-13T08:37:32.000Z</time>
      </trkpt>
      <trkpt lat="43.29382" lon="6.13553">
        <ele>215.2</ele>
        <time>2022-11-13T08:37:41.000Z</time>
      </trkpt>
      <trkpt lat="43.29389" lon="6.13563">
        <ele>215.2</ele>
        <time>2022-11-13T08:37:50.000Z</time>
      </trkpt>
      <trkpt lat="43.29396" lon="6.13571">
        <ele>215.1</ele>
        <time>2022-11-13T08:37:59.000Z</time>
      </trkpt>
      <trkpt lat="43.29402" lon="6.13582">
        <ele>215.2</ele>
        <time>2022-11-13T08:38:07.000Z</time>
      </trkpt>
      <trkpt lat="43.29407" lon="6.13592">
        <ele>215.4</ele>
        <time>2022-11-13T08:38:14.000Z</time>
      </trkpt>
      <trkpt lat="43.29412" lon="6.13604">
        <ele>215.7</ele>
        <time>2022-11-13T08:38:23.000Z</time>
      </trkpt>
      <trkpt lat="43.29416" lon="6.13616">
        <ele>216</ele>
        <time>2022-11-13T08:38:31.000Z</time>
      </trkpt>
      <trkpt lat="43.2942" lon="6.13628">
        <ele>216.2</ele>
        <time>2022-11-13T08:38:41.000Z</time>
      </trkpt>
      <trkpt lat="43.29423" lon="6.13641">
        <ele>216.1</ele>
        <time>2022-11-13T08:38:49.000Z</time>
      </trkpt>
      <trkpt lat="43.29426" lon="6.13653">
        <ele>216.3</ele>
        <time>2022-11-13T08:38:57.000Z</time>
      </trkpt>
      <trkpt lat="43.29429" lon="6.13666">
        <ele>216.5</ele>
        <time>2022-11-13T08:39:08.000Z</time>
      </trkpt>
      <trkpt lat="43.2943" lon="6.13678">
        <ele>216.7</ele>
        <time>2022-11-13T08:39:16.000Z</time>
      </trkpt>
      <trkpt lat="43.29431" lon="6.13692">
        <ele>216.2</ele>
        <time>2022-11-13T08:39:24.000Z</time>
      </trkpt>
      <trkpt lat="43.29429" lon="6.13705">
        <ele>216.3</ele>
        <time>2022-11-13T08:39:33.000Z</time>
      </trkpt>
      <trkpt lat="43.29427" lon="6.13718">
        <ele>215.2</ele>
        <time>2022-11-13T08:39:42.000Z</time>
      </trkpt>
      <trkpt lat="43.29423" lon="6.13731">
        <ele>214.6</ele>
        <time>2022-11-13T08:39:51.000Z</time>
      </trkpt>
      <trkpt lat="43.29419" lon="6.13742">
        <ele>214</ele>
        <time>2022-11-13T08:39:59.000Z</time>
      </trkpt>
      <trkpt lat="43.29415" lon="6.13755">
        <ele>213.7</ele>
        <time>2022-11-13T08:40:07.000Z</time>
      </trkpt>
      <trkpt lat="43.29413" lon="6.13769">
        <ele>213.5</ele>
        <time>2022-11-13T08:40:15.000Z</time>
      </trkpt>
      <trkpt lat="43.29414" lon="6.13782">
        <ele>213</ele>
        <time>2022-11-13T08:40:23.000Z</time>
      </trkpt>
      <trkpt lat="43.29416" lon="6.13795">
        <ele>212.5</ele>
        <time>2022-11-13T08:40:30.000Z</time>
      </trkpt>
      <trkpt lat="43.29419" lon="6.13807">
        <ele>212.4</ele>
        <time>2022-11-13T08:40:37.000Z</time>
      </trkpt>
      <trkpt lat="43.29422" lon="6.1382">
        <ele>212.4</ele>
        <time>2022-11-13T08:40:45.000Z</time>
      </trkpt>
      <trkpt lat="43.29426" lon="6.13832">
        <ele>211.9</ele>
        <time>2022-11-13T08:40:53.000Z</time>
      </trkpt>
      <trkpt lat="43.29426" lon="6.13831">
        <ele>212</ele>
        <time>2022-11-13T08:40:55.000Z</time>
      </trkpt>
      <trkpt lat="43.29426" lon="6.13832">
        <ele>212.1</ele>
        <time>2022-11-13T08:40:56.000Z</time>
      </trkpt>
      <trkpt lat="43.2943" lon="6.13843">
        <ele>212</ele>
        <time>2022-11-13T08:41:03.000Z</time>
      </trkpt>
      <trkpt lat="43.29433" lon="6.13857">
        <ele>211.9</ele>
        <time>2022-11-13T08:41:10.000Z</time>
      </trkpt>
      <trkpt lat="43.29434" lon="6.13869">
        <ele>211.6</ele>
        <time>2022-11-13T08:41:17.000Z</time>
      </trkpt>
      <trkpt lat="43.29437" lon="6.13882">
        <ele>211.7</ele>
        <time>2022-11-13T08:41:26.000Z</time>
      </trkpt>
      <trkpt lat="43.2944" lon="6.13894">
        <ele>211.7</ele>
        <time>2022-11-13T08:41:34.000Z</time>
      </trkpt>
      <trkpt lat="43.29443" lon="6.13906">
        <ele>211.9</ele>
        <time>2022-11-13T08:41:42.000Z</time>
      </trkpt>
      <trkpt lat="43.29445" lon="6.1392">
        <ele>211.8</ele>
        <time>2022-11-13T08:41:50.000Z</time>
      </trkpt>
      <trkpt lat="43.29447" lon="6.13932">
        <ele>211.7</ele>
        <time>2022-11-13T08:42:00.000Z</time>
      </trkpt>
      <trkpt lat="43.29449" lon="6.13944">
        <ele>211.8</ele>
        <time>2022-11-13T08:42:14.000Z</time>
      </trkpt>
      <trkpt lat="43.2945" lon="6.13949">
        <ele>211.9</ele>
        <time>2022-11-13T08:42:20.000Z</time>
      </trkpt>
      <trkpt lat="43.2945" lon="6.13949">
        <ele>212.1</ele>
        <time>2022-11-13T08:42:21.000Z</time>
      </trkpt>
      <trkpt lat="43.29451" lon="6.13962">
        <ele>212.5</ele>
        <time>2022-11-13T08:42:33.000Z</time>
      </trkpt>
      <trkpt lat="43.29449" lon="6.13975">
        <ele>212.5</ele>
        <time>2022-11-13T08:42:41.000Z</time>
      </trkpt>
      <trkpt lat="43.2945" lon="6.13988">
        <ele>212.6</ele>
        <time>2022-11-13T08:42:49.000Z</time>
      </trkpt>
      <trkpt lat="43.29449" lon="6.14001">
        <ele>212.6</ele>
        <time>2022-11-13T08:42:58.000Z</time>
      </trkpt>
      <trkpt lat="43.29449" lon="6.14015">
        <ele>212.8</ele>
        <time>2022-11-13T08:43:08.000Z</time>
      </trkpt>
      <trkpt lat="43.2945" lon="6.14028">
        <ele>213.1</ele>
        <time>2022-11-13T08:43:16.000Z</time>
      </trkpt>
      <trkpt lat="43.29449" lon="6.14042">
        <ele>212.9</ele>
        <time>2022-11-13T08:43:24.000Z</time>
      </trkpt>
      <trkpt lat="43.29448" lon="6.14054">
        <ele>212.6</ele>
        <time>2022-11-13T08:43:31.000Z</time>
      </trkpt>
      <trkpt lat="43.29452" lon="6.14065">
        <ele>212.9</ele>
        <time>2022-11-13T08:43:40.000Z</time>
      </trkpt>
      <trkpt lat="43.29456" lon="6.14078">
        <ele>213.7</ele>
        <time>2022-11-13T08:43:51.000Z</time>
      </trkpt>
      <trkpt lat="43.29462" lon="6.1409">
        <ele>214.1</ele>
        <time>2022-11-13T08:43:59.000Z</time>
      </trkpt>
      <trkpt lat="43.29468" lon="6.14101">
        <ele>214.9</ele>
        <time>2022-11-13T08:44:08.000Z</time>
      </trkpt>
      <trkpt lat="43.29473" lon="6.14113">
        <ele>215</ele>
        <time>2022-11-13T08:44:16.000Z</time>
      </trkpt>
      <trkpt lat="43.29478" lon="6.14123">
        <ele>214.7</ele>
        <time>2022-11-13T08:44:24.000Z</time>
      </trkpt>
      <trkpt lat="43.29485" lon="6.14131">
        <ele>213.9</ele>
        <time>2022-11-13T08:44:33.000Z</time>
      </trkpt>
      <trkpt lat="43.29493" lon="6.1414">
        <ele>213.5</ele>
        <time>2022-11-13T08:44:42.000Z</time>
      </trkpt>
      <trkpt lat="43.29499" lon="6.14149">
        <ele>212.6</ele>
        <time>2022-11-13T08:44:54.000Z</time>
      </trkpt>
      <trkpt lat="43.29504" lon="6.1416">
        <ele>212.1</ele>
        <time>2022-11-13T08:45:05.000Z</time>
      </trkpt>
      <trkpt lat="43.29509" lon="6.14172">
        <ele>211.2</ele>
        <time>2022-11-13T08:45:15.000Z</time>
      </trkpt>
      <trkpt lat="43.29509" lon="6.14184">
        <ele>212.3</ele>
        <time>2022-11-13T08:45:25.000Z</time>
      </trkpt>
      <trkpt lat="43.29508" lon="6.14197">
        <ele>213.3</ele>
        <time>2022-11-13T08:45:34.000Z</time>
      </trkpt>
      <trkpt lat="43.29508" lon="6.1421">
        <ele>214.1</ele>
        <time>2022-11-13T08:45:43.000Z</time>
      </trkpt>
      <trkpt lat="43.29509" lon="6.14223">
        <ele>214.6</ele>
        <time>2022-11-13T08:45:54.000Z</time>
      </trkpt>
      <trkpt lat="43.2951" lon="6.14237">
        <ele>214.6</ele>
        <time>2022-11-13T08:46:01.000Z</time>
      </trkpt>
      <trkpt lat="43.29512" lon="6.14249">
        <ele>214.4</ele>
        <time>2022-11-13T08:46:10.000Z</time>
      </trkpt>
      <trkpt lat="43.29514" lon="6.14261">
        <ele>214.9</ele>
        <time>2022-11-13T08:46:30.000Z</time>
      </trkpt>
      <trkpt lat="43.29513" lon="6.14264">
        <ele>214.6</ele>
        <time>2022-11-13T08:46:38.000Z</time>
      </trkpt>
      <trkpt lat="43.29514" lon="6.14264">
        <ele>214.7</ele>
        <time>2022-11-13T08:46:43.000Z</time>
      </trkpt>
      <trkpt lat="43.29514" lon="6.14264">
        <ele>214.5</ele>
        <time>2022-11-13T08:46:44.000Z</time>
      </trkpt>
      <trkpt lat="43.29513" lon="6.14264">
        <ele>214.5</ele>
        <time>2022-11-13T08:46:45.000Z</time>
      </trkpt>
      <trkpt lat="43.29514" lon="6.14278">
        <ele>214.2</ele>
        <time>2022-11-13T08:46:58.000Z</time>
      </trkpt>
      <trkpt lat="43.29519" lon="6.14289">
        <ele>214.3</ele>
        <time>2022-11-13T08:47:06.000Z</time>
      </trkpt>
      <trkpt lat="43.29519" lon="6.14301">
        <ele>214.3</ele>
        <time>2022-11-13T08:47:17.000Z</time>
      </trkpt>
      <trkpt lat="43.29517" lon="6.14304">
        <ele>214.2</ele>
        <time>2022-11-13T08:47:28.000Z</time>
      </trkpt>
      <trkpt lat="43.29517" lon="6.14304">
        <ele>213.9</ele>
        <time>2022-11-13T08:47:31.000Z</time>
      </trkpt>
      <trkpt lat="43.29519" lon="6.14304">
        <ele>214.3</ele>
        <time>2022-11-13T08:47:36.000Z</time>
      </trkpt>
      <trkpt lat="43.29519" lon="6.14304">
        <ele>214.4</ele>
        <time>2022-11-13T08:47:37.000Z</time>
      </trkpt>
      <trkpt lat="43.29521" lon="6.14303">
        <ele>214.1</ele>
        <time>2022-11-13T08:47:47.000Z</time>
      </trkpt>
      <trkpt lat="43.29521" lon="6.14303">
        <ele>214.2</ele>
        <time>2022-11-13T08:47:51.000Z</time>
      </trkpt>
      <trkpt lat="43.29518" lon="6.14315">
        <ele>214.4</ele>
        <time>2022-11-13T08:48:05.000Z</time>
      </trkpt>
      <trkpt lat="43.29518" lon="6.14328">
        <ele>214.7</ele>
        <time>2022-11-13T08:48:17.000Z</time>
      </trkpt>
      <trkpt lat="43.29519" lon="6.14341">
        <ele>214.9</ele>
        <time>2022-11-13T08:48:28.000Z</time>
      </trkpt>
      <trkpt lat="43.29522" lon="6.14348">
        <ele>214.8</ele>
        <time>2022-11-13T08:48:41.000Z</time>
      </trkpt>
      <trkpt lat="43.29521" lon="6.14348">
        <ele>214.8</ele>
        <time>2022-11-13T08:48:45.000Z</time>
      </trkpt>
      <trkpt lat="43.29531" lon="6.14347">
        <ele>215.4</ele>
        <time>2022-11-13T08:49:01.000Z</time>
      </trkpt>
      <trkpt lat="43.2954" lon="6.14344">
        <ele>216</ele>
        <time>2022-11-13T08:49:08.000Z</time>
      </trkpt>
      <trkpt lat="43.2955" lon="6.14349">
        <ele>216.4</ele>
        <time>2022-11-13T08:49:14.000Z</time>
      </trkpt>
      <trkpt lat="43.29559" lon="6.14346">
        <ele>217.4</ele>
        <time>2022-11-13T08:49:26.000Z</time>
      </trkpt>
      <trkpt lat="43.29565" lon="6.14342">
        <ele>218</ele>
        <time>2022-11-13T08:49:39.000Z</time>
      </trkpt>
      <trkpt lat="43.29566" lon="6.14342">
        <ele>217.9</ele>
        <time>2022-11-13T08:49:40.000Z</time>
      </trkpt>
      <trkpt lat="43.29566" lon="6.14342">
        <ele>218</ele>
        <time>2022-11-13T08:49:41.000Z</time>
      </trkpt>
      <trkpt lat="43.29566" lon="6.14341">
        <ele>218.1</ele>
        <time>2022-11-13T08:49:44.000Z</time>
      </trkpt>
      <trkpt lat="43.29566" lon="6.14341">
        <ele>218.2</ele>
        <time>2022-11-13T08:49:45.000Z</time>
      </trkpt>
      <trkpt lat="43.29566" lon="6.14341">
        <ele>218.1</ele>
        <time>2022-11-13T08:49:49.000Z</time>
      </trkpt>
      <trkpt lat="43.29575" lon="6.14342">
        <ele>218.9</ele>
        <time>2022-11-13T08:50:04.000Z</time>
      </trkpt>
      <trkpt lat="43.29579" lon="6.14338">
        <ele>219.4</ele>
        <time>2022-11-13T08:50:13.000Z</time>
      </trkpt>
      <trkpt lat="43.29579" lon="6.14337">
        <ele>219.6</ele>
        <time>2022-11-13T08:50:17.000Z</time>
      </trkpt>
      <trkpt lat="43.29583" lon="6.14327">
        <ele>219.8</ele>
        <time>2022-11-13T08:50:27.000Z</time>
      </trkpt>
      <trkpt lat="43.29584" lon="6.14327">
        <ele>220.1</ele>
        <time>2022-11-13T08:50:32.000Z</time>
      </trkpt>
      <trkpt lat="43.29588" lon="6.14315">
        <ele>220.3</ele>
        <time>2022-11-13T08:50:40.000Z</time>
      </trkpt>
      <trkpt lat="43.29593" lon="6.14304">
        <ele>221</ele>
        <time>2022-11-13T08:50:48.000Z</time>
      </trkpt>
      <trkpt lat="43.29597" lon="6.14292">
        <ele>220.9</ele>
        <time>2022-11-13T08:50:57.000Z</time>
      </trkpt>
      <trkpt lat="43.29602" lon="6.14282">
        <ele>221.2</ele>
        <time>2022-11-13T08:51:05.000Z</time>
      </trkpt>
      <trkpt lat="43.29603" lon="6.14279">
        <ele>221</ele>
        <time>2022-11-13T08:51:10.000Z</time>
      </trkpt>
      <trkpt lat="43.29603" lon="6.14279">
        <ele>221</ele>
        <time>2022-11-13T08:51:15.000Z</time>
      </trkpt>
      <trkpt lat="43.29609" lon="6.1427">
        <ele>221.3</ele>
        <time>2022-11-13T08:51:23.000Z</time>
      </trkpt>
      <trkpt lat="43.29615" lon="6.14259">
        <ele>221.4</ele>
        <time>2022-11-13T08:51:31.000Z</time>
      </trkpt>
      <trkpt lat="43.29621" lon="6.14249">
        <ele>221.6</ele>
        <time>2022-11-13T08:51:40.000Z</time>
      </trkpt>
      <trkpt lat="43.29629" lon="6.14241">
        <ele>221.8</ele>
        <time>2022-11-13T08:51:50.000Z</time>
      </trkpt>
      <trkpt lat="43.29637" lon="6.14234">
        <ele>221.8</ele>
        <time>2022-11-13T08:51:57.000Z</time>
      </trkpt>
      <trkpt lat="43.29645" lon="6.14228">
        <ele>222.5</ele>
        <time>2022-11-13T08:52:06.000Z</time>
      </trkpt>
      <trkpt lat="43.29654" lon="6.14225">
        <ele>222.4</ele>
        <time>2022-11-13T08:52:13.000Z</time>
      </trkpt>
      <trkpt lat="43.29663" lon="6.1422">
        <ele>222.7</ele>
        <time>2022-11-13T08:52:21.000Z</time>
      </trkpt>
      <trkpt lat="43.29671" lon="6.14214">
        <ele>223</ele>
        <time>2022-11-13T08:52:29.000Z</time>
      </trkpt>
      <trkpt lat="43.2968" lon="6.14211">
        <ele>223.9</ele>
        <time>2022-11-13T08:52:38.000Z</time>
      </trkpt>
      <trkpt lat="43.29688" lon="6.14206">
        <ele>223.8</ele>
        <time>2022-11-13T08:52:46.000Z</time>
      </trkpt>
      <trkpt lat="43.29697" lon="6.14202">
        <ele>223.9</ele>
        <time>2022-11-13T08:52:53.000Z</time>
      </trkpt>
      <trkpt lat="43.29706" lon="6.14198">
        <ele>224</ele>
        <time>2022-11-13T08:53:02.000Z</time>
      </trkpt>
      <trkpt lat="43.29716" lon="6.14196">
        <ele>224.2</ele>
        <time>2022-11-13T08:53:09.000Z</time>
      </trkpt>
      <trkpt lat="43.29725" lon="6.14196">
        <ele>224.6</ele>
        <time>2022-11-13T08:53:20.000Z</time>
      </trkpt>
      <trkpt lat="43.29734" lon="6.14198">
        <ele>224.9</ele>
        <time>2022-11-13T08:53:27.000Z</time>
      </trkpt>
      <trkpt lat="43.29743" lon="6.142">
        <ele>225.5</ele>
        <time>2022-11-13T08:53:35.000Z</time>
      </trkpt>
      <trkpt lat="43.29753" lon="6.14202">
        <ele>226.3</ele>
        <time>2022-11-13T08:53:44.000Z</time>
      </trkpt>
      <trkpt lat="43.29763" lon="6.14203">
        <ele>227.3</ele>
        <time>2022-11-13T08:53:55.000Z</time>
      </trkpt>
      <trkpt lat="43.29771" lon="6.14207">
        <ele>229.1</ele>
        <time>2022-11-13T08:54:06.000Z</time>
      </trkpt>
      <trkpt lat="43.29781" lon="6.14208">
        <ele>230.3</ele>
        <time>2022-11-13T08:54:20.000Z</time>
      </trkpt>
      <trkpt lat="43.29789" lon="6.14204">
        <ele>231.4</ele>
        <time>2022-11-13T08:54:28.000Z</time>
      </trkpt>
      <trkpt lat="43.29799" lon="6.14201">
        <ele>232.1</ele>
        <time>2022-11-13T08:54:37.000Z</time>
      </trkpt>
      <trkpt lat="43.29808" lon="6.14195">
        <ele>231.7</ele>
        <time>2022-11-13T08:54:43.000Z</time>
      </trkpt>
      <trkpt lat="43.29816" lon="6.14189">
        <ele>231.4</ele>
        <time>2022-11-13T08:54:49.000Z</time>
      </trkpt>
      <trkpt lat="43.29821" lon="6.14182">
        <ele>231.3</ele>
        <time>2022-11-13T08:55:00.000Z</time>
      </trkpt>
      <trkpt lat="43.29821" lon="6.14182">
        <ele>231.3</ele>
        <time>2022-11-13T08:55:06.000Z</time>
      </trkpt>
      <trkpt lat="43.2982" lon="6.14185">
        <ele>231.5</ele>
        <time>2022-11-13T08:55:10.000Z</time>
      </trkpt>
      <trkpt lat="43.2982" lon="6.14185">
        <ele>231.4</ele>
        <time>2022-11-13T08:55:11.000Z</time>
      </trkpt>
      <trkpt lat="43.2982" lon="6.14185">
        <ele>231.3</ele>
        <time>2022-11-13T08:55:12.000Z</time>
      </trkpt>
      <trkpt lat="43.29819" lon="6.14185">
        <ele>231.1</ele>
        <time>2022-11-13T08:55:23.000Z</time>
      </trkpt>
      <trkpt lat="43.29825" lon="6.14174">
        <ele>231.4</ele>
        <time>2022-11-13T08:55:39.000Z</time>
      </trkpt>
      <trkpt lat="43.29832" lon="6.14166">
        <ele>231.4</ele>
        <time>2022-11-13T08:55:48.000Z</time>
      </trkpt>
      <trkpt lat="43.2984" lon="6.14157">
        <ele>231</ele>
        <time>2022-11-13T08:55:57.000Z</time>
      </trkpt>
      <trkpt lat="43.29845" lon="6.14146">
        <ele>230.3</ele>
        <time>2022-11-13T08:56:04.000Z</time>
      </trkpt>
      <trkpt lat="43.29853" lon="6.14139">
        <ele>230.1</ele>
        <time>2022-11-13T08:56:12.000Z</time>
      </trkpt>
      <trkpt lat="43.29861" lon="6.14132">
        <ele>229.4</ele>
        <time>2022-11-13T08:56:19.000Z</time>
      </trkpt>
      <trkpt lat="43.29867" lon="6.14121">
        <ele>228.9</ele>
        <time>2022-11-13T08:56:27.000Z</time>
      </trkpt>
      <trkpt lat="43.29874" lon="6.14113">
        <ele>228.9</ele>
        <time>2022-11-13T08:56:36.000Z</time>
      </trkpt>
      <trkpt lat="43.29881" lon="6.14104">
        <ele>228.9</ele>
        <time>2022-11-13T08:56:45.000Z</time>
      </trkpt>
      <trkpt lat="43.29887" lon="6.14094">
        <ele>228.5</ele>
        <time>2022-11-13T08:56:52.000Z</time>
      </trkpt>
      <trkpt lat="43.29892" lon="6.14083">
        <ele>228.4</ele>
        <time>2022-11-13T08:57:00.000Z</time>
      </trkpt>
      <trkpt lat="43.29899" lon="6.14074">
        <ele>228.5</ele>
        <time>2022-11-13T08:57:09.000Z</time>
      </trkpt>
      <trkpt lat="43.29906" lon="6.14064">
        <ele>228.7</ele>
        <time>2022-11-13T08:57:17.000Z</time>
      </trkpt>
      <trkpt lat="43.29912" lon="6.14054">
        <ele>228.6</ele>
        <time>2022-11-13T08:57:25.000Z</time>
      </trkpt>
      <trkpt lat="43.29921" lon="6.14051">
        <ele>228.9</ele>
        <time>2022-11-13T08:57:34.000Z</time>
      </trkpt>
      <trkpt lat="43.2993" lon="6.14046">
        <ele>229</ele>
        <time>2022-11-13T08:57:42.000Z</time>
      </trkpt>
      <trkpt lat="43.29937" lon="6.14038">
        <ele>229.8</ele>
        <time>2022-11-13T08:57:49.000Z</time>
      </trkpt>
      <trkpt lat="43.29945" lon="6.14029">
        <ele>231.3</ele>
        <time>2022-11-13T08:57:59.000Z</time>
      </trkpt>
      <trkpt lat="43.29952" lon="6.14021">
        <ele>232.3</ele>
        <time>2022-11-13T08:58:12.000Z</time>
      </trkpt>
      <trkpt lat="43.29961" lon="6.14015">
        <ele>233.2</ele>
        <time>2022-11-13T08:58:21.000Z</time>
      </trkpt>
      <trkpt lat="43.29964" lon="6.14013">
        <ele>233.1</ele>
        <time>2022-11-13T08:58:26.000Z</time>
      </trkpt>
      <trkpt lat="43.29963" lon="6.14013">
        <ele>233</ele>
        <time>2022-11-13T08:58:28.000Z</time>
      </trkpt>
      <trkpt lat="43.29964" lon="6.14014">
        <ele>233</ele>
        <time>2022-11-13T08:58:32.000Z</time>
      </trkpt>
      <trkpt lat="43.29964" lon="6.14014">
        <ele>232.6</ele>
        <time>2022-11-13T08:58:42.000Z</time>
      </trkpt>
      <trkpt lat="43.29966" lon="6.14007">
        <ele>233.2</ele>
        <time>2022-11-13T08:58:53.000Z</time>
      </trkpt>
      <trkpt lat="43.29966" lon="6.14008">
        <ele>233.2</ele>
        <time>2022-11-13T08:58:55.000Z</time>
      </trkpt>
      <trkpt lat="43.29965" lon="6.14008">
        <ele>233.1</ele>
        <time>2022-11-13T08:58:57.000Z</time>
      </trkpt>
      <trkpt lat="43.29966" lon="6.14008">
        <ele>233</ele>
        <time>2022-11-13T08:59:08.000Z</time>
      </trkpt>
      <trkpt lat="43.29965" lon="6.14007">
        <ele>232.9</ele>
        <time>2022-11-13T08:59:10.000Z</time>
      </trkpt>
      <trkpt lat="43.29966" lon="6.14007">
        <ele>233.1</ele>
        <time>2022-11-13T08:59:19.000Z</time>
      </trkpt>
      <trkpt lat="43.29966" lon="6.14006">
        <ele>232.9</ele>
        <time>2022-11-13T08:59:23.000Z</time>
      </trkpt>
      <trkpt lat="43.29967" lon="6.14006">
        <ele>233</ele>
        <time>2022-11-13T08:59:39.000Z</time>
      </trkpt>
      <trkpt lat="43.29976" lon="6.14005">
        <ele>233.5</ele>
        <time>2022-11-13T08:59:50.000Z</time>
      </trkpt>
      <trkpt lat="43.29985" lon="6.14009">
        <ele>233.7</ele>
        <time>2022-11-13T08:59:56.000Z</time>
      </trkpt>
      <trkpt lat="43.29993" lon="6.14016">
        <ele>235.5</ele>
        <time>2022-11-13T09:00:10.000Z</time>
      </trkpt>
      <trkpt lat="43.29994" lon="6.14029">
        <ele>237.3</ele>
        <time>2022-11-13T09:00:24.000Z</time>
      </trkpt>
      <trkpt lat="43.30001" lon="6.14038">
        <ele>238.7</ele>
        <time>2022-11-13T09:00:33.000Z</time>
      </trkpt>
      <trkpt lat="43.30009" lon="6.14044">
        <ele>239.9</ele>
        <time>2022-11-13T09:00:42.000Z</time>
      </trkpt>
      <trkpt lat="43.30008" lon="6.14044">
        <ele>239.8</ele>
        <time>2022-11-13T09:00:43.000Z</time>
      </trkpt>
      <trkpt lat="43.30016" lon="6.1405">
        <ele>241.2</ele>
        <time>2022-11-13T09:00:57.000Z</time>
      </trkpt>
      <trkpt lat="43.30025" lon="6.14055">
        <ele>241.8</ele>
        <time>2022-11-13T09:01:05.000Z</time>
      </trkpt>
      <trkpt lat="43.30034" lon="6.14061">
        <ele>243.3</ele>
        <time>2022-11-13T09:01:14.000Z</time>
      </trkpt>
      <trkpt lat="43.3004" lon="6.1407">
        <ele>243.8</ele>
        <time>2022-11-13T09:01:24.000Z</time>
      </trkpt>
      <trkpt lat="43.30046" lon="6.14081">
        <ele>244.7</ele>
        <time>2022-11-13T09:01:33.000Z</time>
      </trkpt>
      <trkpt lat="43.30054" lon="6.14087">
        <ele>245.6</ele>
        <time>2022-11-13T09:01:43.000Z</time>
      </trkpt>
      <trkpt lat="43.30063" lon="6.14093">
        <ele>245.9</ele>
        <time>2022-11-13T09:01:52.000Z</time>
      </trkpt>
      <trkpt lat="43.30071" lon="6.14099">
        <ele>246.9</ele>
        <time>2022-11-13T09:02:02.000Z</time>
      </trkpt>
      <trkpt lat="43.30081" lon="6.14101">
        <ele>247.9</ele>
        <time>2022-11-13T09:02:12.000Z</time>
      </trkpt>
      <trkpt lat="43.30089" lon="6.14107">
        <ele>248.4</ele>
        <time>2022-11-13T09:02:22.000Z</time>
      </trkpt>
      <trkpt lat="43.30099" lon="6.14107">
        <ele>249.3</ele>
        <time>2022-11-13T09:02:31.000Z</time>
      </trkpt>
      <trkpt lat="43.30108" lon="6.14104">
        <ele>250.6</ele>
        <time>2022-11-13T09:02:40.000Z</time>
      </trkpt>
      <trkpt lat="43.30117" lon="6.14101">
        <ele>251.7</ele>
        <time>2022-11-13T09:02:50.000Z</time>
      </trkpt>
      <trkpt lat="43.30126" lon="6.14104">
        <ele>253.2</ele>
        <time>2022-11-13T09:03:02.000Z</time>
      </trkpt>
      <trkpt lat="43.30132" lon="6.14115">
        <ele>254.6</ele>
        <time>2022-11-13T09:03:14.000Z</time>
      </trkpt>
      <trkpt lat="43.30138" lon="6.14125">
        <ele>256.6</ele>
        <time>2022-11-13T09:03:27.000Z</time>
      </trkpt>
      <trkpt lat="43.30146" lon="6.14131">
        <ele>258.7</ele>
        <time>2022-11-13T09:03:42.000Z</time>
      </trkpt>
      <trkpt lat="43.30156" lon="6.14131">
        <ele>261.2</ele>
        <time>2022-11-13T09:03:59.000Z</time>
      </trkpt>
      <trkpt lat="43.30165" lon="6.14132">
        <ele>262.6</ele>
        <time>2022-11-13T09:04:11.000Z</time>
      </trkpt>
      <trkpt lat="43.30175" lon="6.14133">
        <ele>264.8</ele>
        <time>2022-11-13T09:04:27.000Z</time>
      </trkpt>
      <trkpt lat="43.30183" lon="6.14139">
        <ele>267.1</ele>
        <time>2022-11-13T09:04:46.000Z</time>
      </trkpt>
      <trkpt lat="43.30189" lon="6.14149">
        <ele>269.1</ele>
        <time>2022-11-13T09:05:03.000Z</time>
      </trkpt>
      <trkpt lat="43.30192" lon="6.1416">
        <ele>270.3</ele>
        <time>2022-11-13T09:05:17.000Z</time>
      </trkpt>
      <trkpt lat="43.30196" lon="6.14171">
        <ele>272</ele>
        <time>2022-11-13T09:05:31.000Z</time>
      </trkpt>
      <trkpt lat="43.30205" lon="6.14177">
        <ele>273.8</ele>
        <time>2022-11-13T09:05:45.000Z</time>
      </trkpt>
      <trkpt lat="43.30212" lon="6.14185">
        <ele>275</ele>
        <time>2022-11-13T09:05:57.000Z</time>
      </trkpt>
      <trkpt lat="43.30212" lon="6.14186">
        <ele>275.3</ele>
        <time>2022-11-13T09:06:01.000Z</time>
      </trkpt>
      <trkpt lat="43.30212" lon="6.14186">
        <ele>275.5</ele>
        <time>2022-11-13T09:06:12.000Z</time>
      </trkpt>
      <trkpt lat="43.30217" lon="6.14186">
        <ele>275.6</ele>
        <time>2022-11-13T09:06:20.000Z</time>
      </trkpt>
      <trkpt lat="43.30217" lon="6.14186">
        <ele>275.8</ele>
        <time>2022-11-13T09:06:22.000Z</time>
      </trkpt>
      <trkpt lat="43.30216" lon="6.14183">
        <ele>275.7</ele>
        <time>2022-11-13T09:06:26.000Z</time>
      </trkpt>
      <trkpt lat="43.30216" lon="6.14183">
        <ele>276.4</ele>
        <time>2022-11-13T09:06:29.000Z</time>
      </trkpt>
      <trkpt lat="43.30216" lon="6.14183">
        <ele>276.7</ele>
        <time>2022-11-13T09:06:30.000Z</time>
      </trkpt>
      <trkpt lat="43.30216" lon="6.14183">
        <ele>276.5</ele>
        <time>2022-11-13T09:06:31.000Z</time>
      </trkpt>
      <trkpt lat="43.30217" lon="6.14185">
        <ele>276.4</ele>
        <time>2022-11-13T09:06:34.000Z</time>
      </trkpt>
      <trkpt lat="43.30217" lon="6.14185">
        <ele>276.2</ele>
        <time>2022-11-13T09:06:40.000Z</time>
      </trkpt>
      <trkpt lat="43.30217" lon="6.14185">
        <ele>276.1</ele>
        <time>2022-11-13T09:06:42.000Z</time>
      </trkpt>
      <trkpt lat="43.30217" lon="6.14185">
        <ele>276.1</ele>
        <time>2022-11-13T09:06:43.000Z</time>
      </trkpt>
      <trkpt lat="43.30218" lon="6.14191">
        <ele>276.5</ele>
        <time>2022-11-13T09:06:58.000Z</time>
      </trkpt>
      <trkpt lat="43.30218" lon="6.14191">
        <ele>276.5</ele>
        <time>2022-11-13T09:07:02.000Z</time>
      </trkpt>
      <trkpt lat="43.30218" lon="6.14191">
        <ele>276.6</ele>
        <time>2022-11-13T09:07:06.000Z</time>
      </trkpt>
      <trkpt lat="43.30219" lon="6.14192">
        <ele>276.5</ele>
        <time>2022-11-13T09:07:07.000Z</time>
      </trkpt>
      <trkpt lat="43.30219" lon="6.14193">
        <ele>276.6</ele>
        <time>2022-11-13T09:07:08.000Z</time>
      </trkpt>
      <trkpt lat="43.30219" lon="6.14193">
        <ele>276.7</ele>
        <time>2022-11-13T09:07:09.000Z</time>
      </trkpt>
      <trkpt lat="43.30219" lon="6.14192">
        <ele>276.9</ele>
        <time>2022-11-13T09:07:10.000Z</time>
      </trkpt>
      <trkpt lat="43.30219" lon="6.14193">
        <ele>276.7</ele>
        <time>2022-11-13T09:07:21.000Z</time>
      </trkpt>
      <trkpt lat="43.30219" lon="6.14193">
        <ele>276.8</ele>
        <time>2022-11-13T09:07:22.000Z</time>
      </trkpt>
      <trkpt lat="43.30219" lon="6.14193">
        <ele>276.7</ele>
        <time>2022-11-13T09:07:33.000Z</time>
      </trkpt>
      <trkpt lat="43.30226" lon="6.14202">
        <ele>278.1</ele>
        <time>2022-11-13T09:07:46.000Z</time>
      </trkpt>
      <trkpt lat="43.30233" lon="6.14211">
        <ele>280.2</ele>
        <time>2022-11-13T09:07:57.000Z</time>
      </trkpt>
      <trkpt lat="43.30238" lon="6.14222">
        <ele>282.6</ele>
        <time>2022-11-13T09:08:08.000Z</time>
      </trkpt>
      <trkpt lat="43.30244" lon="6.14232">
        <ele>283.9</ele>
        <time>2022-11-13T09:08:17.000Z</time>
      </trkpt>
      <trkpt lat="43.3025" lon="6.14241">
        <ele>285.2</ele>
        <time>2022-11-13T09:08:27.000Z</time>
      </trkpt>
      <trkpt lat="43.30258" lon="6.14249">
        <ele>287.1</ele>
        <time>2022-11-13T09:08:38.000Z</time>
      </trkpt>
      <trkpt lat="43.30266" lon="6.14256">
        <ele>289.3</ele>
        <time>2022-11-13T09:08:51.000Z</time>
      </trkpt>
      <trkpt lat="43.30272" lon="6.14266">
        <ele>290.5</ele>
        <time>2022-11-13T09:09:03.000Z</time>
      </trkpt>
      <trkpt lat="43.30278" lon="6.14266">
        <ele>291.8</ele>
        <time>2022-11-13T09:09:11.000Z</time>
      </trkpt>
      <trkpt lat="43.30279" lon="6.14266">
        <ele>291.8</ele>
        <time>2022-11-13T09:09:12.000Z</time>
      </trkpt>
      <trkpt lat="43.3028" lon="6.14265">
        <ele>291.6</ele>
        <time>2022-11-13T09:09:17.000Z</time>
      </trkpt>
      <trkpt lat="43.3028" lon="6.14265">
        <ele>291.6</ele>
        <time>2022-11-13T09:09:18.000Z</time>
      </trkpt>
      <trkpt lat="43.3028" lon="6.14265">
        <ele>291.7</ele>
        <time>2022-11-13T09:09:19.000Z</time>
      </trkpt>
      <trkpt lat="43.3028" lon="6.14265">
        <ele>291.6</ele>
        <time>2022-11-13T09:09:32.000Z</time>
      </trkpt>
      <trkpt lat="43.3028" lon="6.14265">
        <ele>291.6</ele>
        <time>2022-11-13T09:09:33.000Z</time>
      </trkpt>
      <trkpt lat="43.3028" lon="6.14264">
        <ele>291.9</ele>
        <time>2022-11-13T09:10:04.000Z</time>
      </trkpt>
      <trkpt lat="43.3028" lon="6.14264">
        <ele>291.9</ele>
        <time>2022-11-13T09:10:05.000Z</time>
      </trkpt>
      <trkpt lat="43.3028" lon="6.14264">
        <ele>292</ele>
        <time>2022-11-13T09:10:12.000Z</time>
      </trkpt>
      <trkpt lat="43.3028" lon="6.14264">
        <ele>291.9</ele>
        <time>2022-11-13T09:10:13.000Z</time>
      </trkpt>
      <trkpt lat="43.30281" lon="6.14264">
        <ele>291.8</ele>
        <time>2022-11-13T09:10:18.000Z</time>
      </trkpt>
      <trkpt lat="43.30281" lon="6.14264">
        <ele>291.8</ele>
        <time>2022-11-13T09:10:19.000Z</time>
      </trkpt>
      <trkpt lat="43.30281" lon="6.14264">
        <ele>292.1</ele>
        <time>2022-11-13T09:10:22.000Z</time>
      </trkpt>
      <trkpt lat="43.30281" lon="6.14265">
        <ele>292.1</ele>
        <time>2022-11-13T09:10:25.000Z</time>
      </trkpt>
      <trkpt lat="43.30281" lon="6.14266">
        <ele>292.1</ele>
        <time>2022-11-13T09:10:28.000Z</time>
      </trkpt>
      <trkpt lat="43.30281" lon="6.14265">
        <ele>292.6</ele>
        <time>2022-11-13T09:10:33.000Z</time>
      </trkpt>
      <trkpt lat="43.30281" lon="6.14264">
        <ele>292.2</ele>
        <time>2022-11-13T09:11:00.000Z</time>
      </trkpt>
      <trkpt lat="43.3028" lon="6.14265">
        <ele>292</ele>
        <time>2022-11-13T09:11:04.000Z</time>
      </trkpt>
      <trkpt lat="43.3028" lon="6.14265">
        <ele>291.9</ele>
        <time>2022-11-13T09:11:05.000Z</time>
      </trkpt>
      <trkpt lat="43.3028" lon="6.14265">
        <ele>292</ele>
        <time>2022-11-13T09:11:06.000Z</time>
      </trkpt>
      <trkpt lat="43.3028" lon="6.14264">
        <ele>292.1</ele>
        <time>2022-11-13T09:11:07.000Z</time>
      </trkpt>
      <trkpt lat="43.3028" lon="6.14264">
        <ele>292.3</ele>
        <time>2022-11-13T09:11:09.000Z</time>
      </trkpt>
      <trkpt lat="43.3028" lon="6.14265">
        <ele>292</ele>
        <time>2022-11-13T09:11:16.000Z</time>
      </trkpt>
      <trkpt lat="43.30289" lon="6.14267">
        <ele>293.4</ele>
        <time>2022-11-13T09:11:30.000Z</time>
      </trkpt>
      <trkpt lat="43.30297" lon="6.14272">
        <ele>294.5</ele>
        <time>2022-11-13T09:11:44.000Z</time>
      </trkpt>
      <trkpt lat="43.30305" lon="6.1428">
        <ele>296.2</ele>
        <time>2022-11-13T09:12:00.000Z</time>
      </trkpt>
      <trkpt lat="43.30313" lon="6.14284">
        <ele>297.9</ele>
        <time>2022-11-13T09:12:12.000Z</time>
      </trkpt>
      <trkpt lat="43.30322" lon="6.14289">
        <ele>299.9</ele>
        <time>2022-11-13T09:12:30.000Z</time>
      </trkpt>
      <trkpt lat="43.30331" lon="6.14294">
        <ele>302.7</ele>
        <time>2022-11-13T09:12:51.000Z</time>
      </trkpt>
      <trkpt lat="43.3034" lon="6.14298">
        <ele>305.4</ele>
        <time>2022-11-13T09:13:09.000Z</time>
      </trkpt>
      <trkpt lat="43.3035" lon="6.14298">
        <ele>307.4</ele>
        <time>2022-11-13T09:13:23.000Z</time>
      </trkpt>
      <trkpt lat="43.3036" lon="6.14296">
        <ele>308.7</ele>
        <time>2022-11-13T09:13:35.000Z</time>
      </trkpt>
      <trkpt lat="43.30367" lon="6.14289">
        <ele>310</ele>
        <time>2022-11-13T09:13:47.000Z</time>
      </trkpt>
      <trkpt lat="43.30376" lon="6.14291">
        <ele>312.3</ele>
        <time>2022-11-13T09:14:08.000Z</time>
      </trkpt>
      <trkpt lat="43.30376" lon="6.14291">
        <ele>312.4</ele>
        <time>2022-11-13T09:14:09.000Z</time>
      </trkpt>
      <trkpt lat="43.30382" lon="6.14301">
        <ele>314.6</ele>
        <time>2022-11-13T09:14:26.000Z</time>
      </trkpt>
      <trkpt lat="43.30386" lon="6.14306">
        <ele>316.1</ele>
        <time>2022-11-13T09:14:39.000Z</time>
      </trkpt>
      <trkpt lat="43.30386" lon="6.14307">
        <ele>316.1</ele>
        <time>2022-11-13T09:14:40.000Z</time>
      </trkpt>
      <trkpt lat="43.30394" lon="6.14302">
        <ele>318</ele>
        <time>2022-11-13T09:14:54.000Z</time>
      </trkpt>
      <trkpt lat="43.30397" lon="6.14303">
        <ele>319.3</ele>
        <time>2022-11-13T09:15:04.000Z</time>
      </trkpt>
      <trkpt lat="43.30398" lon="6.14303">
        <ele>319.1</ele>
        <time>2022-11-13T09:15:06.000Z</time>
      </trkpt>
      <trkpt lat="43.30402" lon="6.14298">
        <ele>320.3</ele>
        <time>2022-11-13T09:15:18.000Z</time>
      </trkpt>
      <trkpt lat="43.30403" lon="6.14298">
        <ele>320.4</ele>
        <time>2022-11-13T09:15:19.000Z</time>
      </trkpt>
      <trkpt lat="43.30405" lon="6.14297">
        <ele>321</ele>
        <time>2022-11-13T09:15:25.000Z</time>
      </trkpt>
      <trkpt lat="43.30406" lon="6.14297">
        <ele>321.1</ele>
        <time>2022-11-13T09:15:26.000Z</time>
      </trkpt>
      <trkpt lat="43.30411" lon="6.14299">
        <ele>322.3</ele>
        <time>2022-11-13T09:15:40.000Z</time>
      </trkpt>
      <trkpt lat="43.30412" lon="6.14299">
        <ele>322.2</ele>
        <time>2022-11-13T09:15:41.000Z</time>
      </trkpt>
      <trkpt lat="43.3042" lon="6.14304">
        <ele>325.6</ele>
        <time>2022-11-13T09:16:07.000Z</time>
      </trkpt>
      <trkpt lat="43.30429" lon="6.14309">
        <ele>329</ele>
        <time>2022-11-13T09:16:32.000Z</time>
      </trkpt>
      <trkpt lat="43.30433" lon="6.14321">
        <ele>331.6</ele>
        <time>2022-11-13T09:16:48.000Z</time>
      </trkpt>
      <trkpt lat="43.30441" lon="6.1432">
        <ele>333</ele>
        <time>2022-11-13T09:17:03.000Z</time>
      </trkpt>
      <trkpt lat="43.30441" lon="6.1432">
        <ele>333.1</ele>
        <time>2022-11-13T09:17:05.000Z</time>
      </trkpt>
      <trkpt lat="43.30442" lon="6.14321">
        <ele>333.5</ele>
        <time>2022-11-13T09:17:10.000Z</time>
      </trkpt>
      <trkpt lat="43.30442" lon="6.1432">
        <ele>333.9</ele>
        <time>2022-11-13T09:17:11.000Z</time>
      </trkpt>
      <trkpt lat="43.30443" lon="6.14318">
        <ele>333.4</ele>
        <time>2022-11-13T09:17:17.000Z</time>
      </trkpt>
      <trkpt lat="43.30443" lon="6.14318">
        <ele>333.3</ele>
        <time>2022-11-13T09:17:18.000Z</time>
      </trkpt>
      <trkpt lat="43.30443" lon="6.14318">
        <ele>333.3</ele>
        <time>2022-11-13T09:17:19.000Z</time>
      </trkpt>
      <trkpt lat="43.30443" lon="6.14318">
        <ele>333.4</ele>
        <time>2022-11-13T09:17:20.000Z</time>
      </trkpt>
      <trkpt lat="43.30443" lon="6.14318">
        <ele>333.4</ele>
        <time>2022-11-13T09:17:21.000Z</time>
      </trkpt>
      <trkpt lat="43.30443" lon="6.14318">
        <ele>333.4</ele>
        <time>2022-11-13T09:17:35.000Z</time>
      </trkpt>
      <trkpt lat="43.30443" lon="6.14318">
        <ele>333.4</ele>
        <time>2022-11-13T09:17:36.000Z</time>
      </trkpt>
      <trkpt lat="43.30443" lon="6.14318">
        <ele>333.4</ele>
        <time>2022-11-13T09:17:38.000Z</time>
      </trkpt>
      <trkpt lat="43.30443" lon="6.14318">
        <ele>333.7</ele>
        <time>2022-11-13T09:17:41.000Z</time>
      </trkpt>
      <trkpt lat="43.30444" lon="6.14318">
        <ele>333.5</ele>
        <time>2022-11-13T09:18:22.000Z</time>
      </trkpt>
      <trkpt lat="43.30444" lon="6.14318">
        <ele>333.4</ele>
        <time>2022-11-13T09:18:23.000Z</time>
      </trkpt>
      <trkpt lat="43.30443" lon="6.14318">
        <ele>333.7</ele>
        <time>2022-11-13T09:18:29.000Z</time>
      </trkpt>
      <trkpt lat="43.30443" lon="6.14318">
        <ele>333.7</ele>
        <time>2022-11-13T09:18:30.000Z</time>
      </trkpt>
      <trkpt lat="43.30444" lon="6.14318">
        <ele>333.7</ele>
        <time>2022-11-13T09:18:31.000Z</time>
      </trkpt>
      <trkpt lat="43.30444" lon="6.14319">
        <ele>333.9</ele>
        <time>2022-11-13T09:18:34.000Z</time>
      </trkpt>
      <trkpt lat="43.30444" lon="6.14319">
        <ele>333.9</ele>
        <time>2022-11-13T09:18:42.000Z</time>
      </trkpt>
      <trkpt lat="43.30444" lon="6.14319">
        <ele>334.1</ele>
        <time>2022-11-13T09:18:43.000Z</time>
      </trkpt>
      <trkpt lat="43.30444" lon="6.14319">
        <ele>335.1</ele>
        <time>2022-11-13T09:18:59.000Z</time>
      </trkpt>
      <trkpt lat="43.30444" lon="6.14319">
        <ele>334.9</ele>
        <time>2022-11-13T09:19:00.000Z</time>
      </trkpt>
      <trkpt lat="43.30444" lon="6.14319">
        <ele>334.8</ele>
        <time>2022-11-13T09:19:01.000Z</time>
      </trkpt>
      <trkpt lat="43.30444" lon="6.14319">
        <ele>335</ele>
        <time>2022-11-13T09:19:02.000Z</time>
      </trkpt>
      <trkpt lat="43.30444" lon="6.14319">
        <ele>335</ele>
        <time>2022-11-13T09:19:04.000Z</time>
      </trkpt>
      <trkpt lat="43.30444" lon="6.1432">
        <ele>335</ele>
        <time>2022-11-13T09:19:09.000Z</time>
      </trkpt>
      <trkpt lat="43.30444" lon="6.1432">
        <ele>334.9</ele>
        <time>2022-11-13T09:19:10.000Z</time>
      </trkpt>
      <trkpt lat="43.30444" lon="6.1432">
        <ele>335</ele>
        <time>2022-11-13T09:19:11.000Z</time>
      </trkpt>
      <trkpt lat="43.30444" lon="6.1432">
        <ele>334.9</ele>
        <time>2022-11-13T09:19:14.000Z</time>
      </trkpt>
      <trkpt lat="43.3045" lon="6.14331">
        <ele>336.9</ele>
        <time>2022-11-13T09:19:32.000Z</time>
      </trkpt>
      <trkpt lat="43.30458" lon="6.14338">
        <ele>340</ele>
        <time>2022-11-13T09:19:48.000Z</time>
      </trkpt>
      <trkpt lat="43.30464" lon="6.14347">
        <ele>342.1</ele>
        <time>2022-11-13T09:20:00.000Z</time>
      </trkpt>
      <trkpt lat="43.30472" lon="6.14355">
        <ele>344.1</ele>
        <time>2022-11-13T09:20:18.000Z</time>
      </trkpt>
      <trkpt lat="43.3048" lon="6.14362">
        <ele>345.8</ele>
        <time>2022-11-13T09:20:31.000Z</time>
      </trkpt>
      <trkpt lat="43.30486" lon="6.14372">
        <ele>349</ele>
        <time>2022-11-13T09:20:50.000Z</time>
      </trkpt>
      <trkpt lat="43.30494" lon="6.14379">
        <ele>350.7</ele>
        <time>2022-11-13T09:21:02.000Z</time>
      </trkpt>
      <trkpt lat="43.305" lon="6.14384">
        <ele>353.1</ele>
        <time>2022-11-13T09:21:24.000Z</time>
      </trkpt>
      <trkpt lat="43.305" lon="6.14384">
        <ele>353.5</ele>
        <time>2022-11-13T09:21:26.000Z</time>
      </trkpt>
      <trkpt lat="43.30501" lon="6.14384">
        <ele>353.8</ele>
        <time>2022-11-13T09:21:28.000Z</time>
      </trkpt>
      <trkpt lat="43.30501" lon="6.14384">
        <ele>353.8</ele>
        <time>2022-11-13T09:21:29.000Z</time>
      </trkpt>
      <trkpt lat="43.30501" lon="6.14384">
        <ele>353.9</ele>
        <time>2022-11-13T09:21:30.000Z</time>
      </trkpt>
      <trkpt lat="43.30501" lon="6.14384">
        <ele>354.2</ele>
        <time>2022-11-13T09:21:31.000Z</time>
      </trkpt>
      <trkpt lat="43.30505" lon="6.14385">
        <ele>355.5</ele>
        <time>2022-11-13T09:21:40.000Z</time>
      </trkpt>
      <trkpt lat="43.30505" lon="6.14385">
        <ele>355.5</ele>
        <time>2022-11-13T09:21:42.000Z</time>
      </trkpt>
      <trkpt lat="43.30507" lon="6.14386">
        <ele>356.2</ele>
        <time>2022-11-13T09:21:46.000Z</time>
      </trkpt>
      <trkpt lat="43.30507" lon="6.14386">
        <ele>356.1</ele>
        <time>2022-11-13T09:21:49.000Z</time>
      </trkpt>
      <trkpt lat="43.30516" lon="6.14391">
        <ele>359.2</ele>
        <time>2022-11-13T09:22:15.000Z</time>
      </trkpt>
      <trkpt lat="43.30522" lon="6.14401">
        <ele>360.5</ele>
        <time>2022-11-13T09:22:30.000Z</time>
      </trkpt>
      <trkpt lat="43.30529" lon="6.14408">
        <ele>362.3</ele>
        <time>2022-11-13T09:22:47.000Z</time>
      </trkpt>
      <trkpt lat="43.30538" lon="6.14412">
        <ele>363.7</ele>
        <time>2022-11-13T09:23:02.000Z</time>
      </trkpt>
      <trkpt lat="43.30543" lon="6.14422">
        <ele>364.4</ele>
        <time>2022-11-13T09:23:18.000Z</time>
      </trkpt>
      <trkpt lat="43.3055" lon="6.14428">
        <ele>365.5</ele>
        <time>2022-11-13T09:23:34.000Z</time>
      </trkpt>
      <trkpt lat="43.3055" lon="6.14427">
        <ele>365.5</ele>
        <time>2022-11-13T09:23:36.000Z</time>
      </trkpt>
      <trkpt lat="43.30559" lon="6.14432">
        <ele>368.1</ele>
        <time>2022-11-13T09:23:59.000Z</time>
      </trkpt>
      <trkpt lat="43.3056" lon="6.14435">
        <ele>368.7</ele>
        <time>2022-11-13T09:24:07.000Z</time>
      </trkpt>
      <trkpt lat="43.3056" lon="6.14435">
        <ele>369</ele>
        <time>2022-11-13T09:24:08.000Z</time>
      </trkpt>
      <trkpt lat="43.30561" lon="6.14433">
        <ele>369.2</ele>
        <time>2022-11-13T09:24:12.000Z</time>
      </trkpt>
      <trkpt lat="43.30561" lon="6.14433">
        <ele>369.1</ele>
        <time>2022-11-13T09:24:13.000Z</time>
      </trkpt>
      <trkpt lat="43.30568" lon="6.14443">
        <ele>371.8</ele>
        <time>2022-11-13T09:24:36.000Z</time>
      </trkpt>
      <trkpt lat="43.30573" lon="6.14453">
        <ele>372.9</ele>
        <time>2022-11-13T09:24:51.000Z</time>
      </trkpt>
      <trkpt lat="43.30578" lon="6.14454">
        <ele>374.6</ele>
        <time>2022-11-13T09:25:03.000Z</time>
      </trkpt>
      <trkpt lat="43.30578" lon="6.14455">
        <ele>374.6</ele>
        <time>2022-11-13T09:25:05.000Z</time>
      </trkpt>
      <trkpt lat="43.3058" lon="6.14456">
        <ele>375.3</ele>
        <time>2022-11-13T09:25:12.000Z</time>
      </trkpt>
      <trkpt lat="43.30581" lon="6.14456">
        <ele>375.3</ele>
        <time>2022-11-13T09:25:13.000Z</time>
      </trkpt>
      <trkpt lat="43.30581" lon="6.14456">
        <ele>375.2</ele>
        <time>2022-11-13T09:25:14.000Z</time>
      </trkpt>
      <trkpt lat="43.30581" lon="6.14456">
        <ele>375.7</ele>
        <time>2022-11-13T09:25:17.000Z</time>
      </trkpt>
      <trkpt lat="43.30589" lon="6.14463">
        <ele>377.5</ele>
        <time>2022-11-13T09:25:32.000Z</time>
      </trkpt>
      <trkpt lat="43.30595" lon="6.14473">
        <ele>379.5</ele>
        <time>2022-11-13T09:25:52.000Z</time>
      </trkpt>
      <trkpt lat="43.30603" lon="6.1448">
        <ele>380.6</ele>
        <time>2022-11-13T09:26:06.000Z</time>
      </trkpt>
      <trkpt lat="43.30612" lon="6.14485">
        <ele>382.4</ele>
        <time>2022-11-13T09:26:24.000Z</time>
      </trkpt>
      <trkpt lat="43.30616" lon="6.14488">
        <ele>384.2</ele>
        <time>2022-11-13T09:26:35.000Z</time>
      </trkpt>
      <trkpt lat="43.30616" lon="6.14489">
        <ele>384.4</ele>
        <time>2022-11-13T09:26:36.000Z</time>
      </trkpt>
      <trkpt lat="43.30616" lon="6.14489">
        <ele>384.5</ele>
        <time>2022-11-13T09:26:37.000Z</time>
      </trkpt>
      <trkpt lat="43.30616" lon="6.1449">
        <ele>384.2</ele>
        <time>2022-11-13T09:26:41.000Z</time>
      </trkpt>
      <trkpt lat="43.30624" lon="6.14496">
        <ele>386.2</ele>
        <time>2022-11-13T09:26:56.000Z</time>
      </trkpt>
      <trkpt lat="43.3063" lon="6.14506">
        <ele>387.5</ele>
        <time>2022-11-13T09:27:14.000Z</time>
      </trkpt>
      <trkpt lat="43.30636" lon="6.14516">
        <ele>388.1</ele>
        <time>2022-11-13T09:27:26.000Z</time>
      </trkpt>
      <trkpt lat="43.30641" lon="6.14524">
        <ele>390.3</ele>
        <time>2022-11-13T09:27:45.000Z</time>
      </trkpt>
      <trkpt lat="43.30641" lon="6.14525">
        <ele>390.5</ele>
        <time>2022-11-13T09:27:47.000Z</time>
      </trkpt>
      <trkpt lat="43.30648" lon="6.14534">
        <ele>392.5</ele>
        <time>2022-11-13T09:28:03.000Z</time>
      </trkpt>
      <trkpt lat="43.30653" lon="6.14544">
        <ele>394.5</ele>
        <time>2022-11-13T09:28:19.000Z</time>
      </trkpt>
      <trkpt lat="43.30659" lon="6.14553">
        <ele>397.5</ele>
        <time>2022-11-13T09:28:44.000Z</time>
      </trkpt>
      <trkpt lat="43.30663" lon="6.14556">
        <ele>398.6</ele>
        <time>2022-11-13T09:28:55.000Z</time>
      </trkpt>
      <trkpt lat="43.30663" lon="6.14556">
        <ele>398.7</ele>
        <time>2022-11-13T09:28:56.000Z</time>
      </trkpt>
      <trkpt lat="43.30663" lon="6.14558">
        <ele>399.8</ele>
        <time>2022-11-13T09:29:04.000Z</time>
      </trkpt>
      <trkpt lat="43.30663" lon="6.14558">
        <ele>399.8</ele>
        <time>2022-11-13T09:29:05.000Z</time>
      </trkpt>
      <trkpt lat="43.30664" lon="6.14558">
        <ele>400.4</ele>
        <time>2022-11-13T09:29:09.000Z</time>
      </trkpt>
      <trkpt lat="43.30664" lon="6.14558">
        <ele>400.7</ele>
        <time>2022-11-13T09:29:11.000Z</time>
      </trkpt>
      <trkpt lat="43.30664" lon="6.14558">
        <ele>400.4</ele>
        <time>2022-11-13T09:29:12.000Z</time>
      </trkpt>
      <trkpt lat="43.30664" lon="6.14559">
        <ele>400.5</ele>
        <time>2022-11-13T09:29:20.000Z</time>
      </trkpt>
      <trkpt lat="43.30665" lon="6.14561">
        <ele>400.8</ele>
        <time>2022-11-13T09:29:26.000Z</time>
      </trkpt>
      <trkpt lat="43.30665" lon="6.14561">
        <ele>400.6</ele>
        <time>2022-11-13T09:29:31.000Z</time>
      </trkpt>
      <trkpt lat="43.30666" lon="6.14562">
        <ele>400.6</ele>
        <time>2022-11-13T09:29:33.000Z</time>
      </trkpt>
      <trkpt lat="43.30666" lon="6.14562">
        <ele>400.6</ele>
        <time>2022-11-13T09:29:40.000Z</time>
      </trkpt>
      <trkpt lat="43.30666" lon="6.14562">
        <ele>400.7</ele>
        <time>2022-11-13T09:29:42.000Z</time>
      </trkpt>
      <trkpt lat="43.30666" lon="6.14562">
        <ele>400.6</ele>
        <time>2022-11-13T09:29:43.000Z</time>
      </trkpt>
      <trkpt lat="43.30666" lon="6.14563">
        <ele>400.5</ele>
        <time>2022-11-13T09:29:46.000Z</time>
      </trkpt>
      <trkpt lat="43.30666" lon="6.14563">
        <ele>400.8</ele>
        <time>2022-11-13T09:29:57.000Z</time>
      </trkpt>
      <trkpt lat="43.30665" lon="6.14563">
        <ele>400.7</ele>
        <time>2022-11-13T09:30:00.000Z</time>
      </trkpt>
      <trkpt lat="43.30666" lon="6.14563">
        <ele>400.8</ele>
        <time>2022-11-13T09:30:10.000Z</time>
      </trkpt>
      <trkpt lat="43.30666" lon="6.14563">
        <ele>400.9</ele>
        <time>2022-11-13T09:30:11.000Z</time>
      </trkpt>
      <trkpt lat="43.30666" lon="6.14563">
        <ele>400.9</ele>
        <time>2022-11-13T09:30:13.000Z</time>
      </trkpt>
      <trkpt lat="43.30666" lon="6.14563">
        <ele>400.8</ele>
        <time>2022-11-13T09:30:14.000Z</time>
      </trkpt>
      <trkpt lat="43.30666" lon="6.14563">
        <ele>400.7</ele>
        <time>2022-11-13T09:30:16.000Z</time>
      </trkpt>
      <trkpt lat="43.30665" lon="6.14564">
        <ele>400.7</ele>
        <time>2022-11-13T09:30:21.000Z</time>
      </trkpt>
      <trkpt lat="43.30665" lon="6.14564">
        <ele>400.7</ele>
        <time>2022-11-13T09:30:22.000Z</time>
      </trkpt>
      <trkpt lat="43.30666" lon="6.14562">
        <ele>401.5</ele>
        <time>2022-11-13T09:30:27.000Z</time>
      </trkpt>
      <trkpt lat="43.30666" lon="6.14562">
        <ele>401.4</ele>
        <time>2022-11-13T09:30:35.000Z</time>
      </trkpt>
      <trkpt lat="43.30666" lon="6.14562">
        <ele>401.5</ele>
        <time>2022-11-13T09:30:36.000Z</time>
      </trkpt>
      <trkpt lat="43.30666" lon="6.14562">
        <ele>401.3</ele>
        <time>2022-11-13T09:30:56.000Z</time>
      </trkpt>
      <trkpt lat="43.30667" lon="6.14563">
        <ele>401.1</ele>
        <time>2022-11-13T09:31:01.000Z</time>
      </trkpt>
      <trkpt lat="43.30667" lon="6.14563">
        <ele>401.2</ele>
        <time>2022-11-13T09:31:02.000Z</time>
      </trkpt>
      <trkpt lat="43.30668" lon="6.14566">
        <ele>401.4</ele>
        <time>2022-11-13T09:31:08.000Z</time>
      </trkpt>
      <trkpt lat="43.30668" lon="6.14566">
        <ele>401.4</ele>
        <time>2022-11-13T09:31:17.000Z</time>
      </trkpt>
      <trkpt lat="43.30666" lon="6.14569">
        <ele>401.7</ele>
        <time>2022-11-13T09:31:24.000Z</time>
      </trkpt>
      <trkpt lat="43.30666" lon="6.14569">
        <ele>401.6</ele>
        <time>2022-11-13T09:31:25.000Z</time>
      </trkpt>
      <trkpt lat="43.30666" lon="6.14569">
        <ele>401.4</ele>
        <time>2022-11-13T09:31:27.000Z</time>
      </trkpt>
      <trkpt lat="43.30666" lon="6.1457">
        <ele>401.6</ele>
        <time>2022-11-13T09:31:28.000Z</time>
      </trkpt>
      <trkpt lat="43.30667" lon="6.1457">
        <ele>401.9</ele>
        <time>2022-11-13T09:31:31.000Z</time>
      </trkpt>
      <trkpt lat="43.30667" lon="6.1457">
        <ele>401.8</ele>
        <time>2022-11-13T09:31:32.000Z</time>
      </trkpt>
      <trkpt lat="43.3067" lon="6.14571">
        <ele>403.4</ele>
        <time>2022-11-13T09:32:00.000Z</time>
      </trkpt>
      <trkpt lat="43.3067" lon="6.14572">
        <ele>403.5</ele>
        <time>2022-11-13T09:32:01.000Z</time>
      </trkpt>
      <trkpt lat="43.3067" lon="6.14572">
        <ele>403.8</ele>
        <time>2022-11-13T09:32:02.000Z</time>
      </trkpt>
      <trkpt lat="43.30671" lon="6.14572">
        <ele>404</ele>
        <time>2022-11-13T09:32:03.000Z</time>
      </trkpt>
      <trkpt lat="43.30675" lon="6.14583">
        <ele>406.3</ele>
        <time>2022-11-13T09:32:23.000Z</time>
      </trkpt>
      <trkpt lat="43.30675" lon="6.14584">
        <ele>406.4</ele>
        <time>2022-11-13T09:32:28.000Z</time>
      </trkpt>
      <trkpt lat="43.30675" lon="6.14585">
        <ele>406.4</ele>
        <time>2022-11-13T09:32:30.000Z</time>
      </trkpt>
      <trkpt lat="43.30683" lon="6.14578">
        <ele>408.4</ele>
        <time>2022-11-13T09:32:45.000Z</time>
      </trkpt>
      <trkpt lat="43.30682" lon="6.14579">
        <ele>409.2</ele>
        <time>2022-11-13T09:32:50.000Z</time>
      </trkpt>
      <trkpt lat="43.30682" lon="6.1458">
        <ele>409.3</ele>
        <time>2022-11-13T09:32:51.000Z</time>
      </trkpt>
      <trkpt lat="43.30682" lon="6.1458">
        <ele>409.4</ele>
        <time>2022-11-13T09:32:52.000Z</time>
      </trkpt>
      <trkpt lat="43.30682" lon="6.1458">
        <ele>409.7</ele>
        <time>2022-11-13T09:32:54.000Z</time>
      </trkpt>
      <trkpt lat="43.30682" lon="6.14581">
        <ele>410</ele>
        <time>2022-11-13T09:32:56.000Z</time>
      </trkpt>
      <trkpt lat="43.30682" lon="6.14581">
        <ele>410.1</ele>
        <time>2022-11-13T09:32:57.000Z</time>
      </trkpt>
      <trkpt lat="43.30682" lon="6.14582">
        <ele>410.4</ele>
        <time>2022-11-13T09:32:59.000Z</time>
      </trkpt>
      <trkpt lat="43.30683" lon="6.14582">
        <ele>410.5</ele>
        <time>2022-11-13T09:33:00.000Z</time>
      </trkpt>
      <trkpt lat="43.30683" lon="6.14584">
        <ele>411</ele>
        <time>2022-11-13T09:33:07.000Z</time>
      </trkpt>
      <trkpt lat="43.30683" lon="6.14584">
        <ele>411.5</ele>
        <time>2022-11-13T09:33:10.000Z</time>
      </trkpt>
      <trkpt lat="43.30684" lon="6.14596">
        <ele>413.9</ele>
        <time>2022-11-13T09:33:32.000Z</time>
      </trkpt>
      <trkpt lat="43.30677" lon="6.14605">
        <ele>415.1</ele>
        <time>2022-11-13T09:33:49.000Z</time>
      </trkpt>
      <trkpt lat="43.30675" lon="6.14613">
        <ele>416.6</ele>
        <time>2022-11-13T09:34:03.000Z</time>
      </trkpt>
      <trkpt lat="43.30675" lon="6.14613">
        <ele>416.7</ele>
        <time>2022-11-13T09:34:04.000Z</time>
      </trkpt>
      <trkpt lat="43.30676" lon="6.14614">
        <ele>417.2</ele>
        <time>2022-11-13T09:34:07.000Z</time>
      </trkpt>
      <trkpt lat="43.30676" lon="6.14614">
        <ele>417.3</ele>
        <time>2022-11-13T09:34:08.000Z</time>
      </trkpt>
      <trkpt lat="43.30678" lon="6.1462">
        <ele>418.9</ele>
        <time>2022-11-13T09:34:23.000Z</time>
      </trkpt>
      <trkpt lat="43.30678" lon="6.1462">
        <ele>419</ele>
        <time>2022-11-13T09:34:24.000Z</time>
      </trkpt>
      <trkpt lat="43.30678" lon="6.1462">
        <ele>419.1</ele>
        <time>2022-11-13T09:34:25.000Z</time>
      </trkpt>
      <trkpt lat="43.30678" lon="6.14621">
        <ele>419.1</ele>
        <time>2022-11-13T09:34:30.000Z</time>
      </trkpt>
      <trkpt lat="43.30677" lon="6.14623">
        <ele>420.3</ele>
        <time>2022-11-13T09:34:39.000Z</time>
      </trkpt>
      <trkpt lat="43.30677" lon="6.14622">
        <ele>420.4</ele>
        <time>2022-11-13T09:34:40.000Z</time>
      </trkpt>
      <trkpt lat="43.30677" lon="6.14622">
        <ele>420.6</ele>
        <time>2022-11-13T09:34:43.000Z</time>
      </trkpt>
      <trkpt lat="43.30677" lon="6.14622">
        <ele>420.4</ele>
        <time>2022-11-13T09:34:47.000Z</time>
      </trkpt>
      <trkpt lat="43.30677" lon="6.14621">
        <ele>420.3</ele>
        <time>2022-11-13T09:34:51.000Z</time>
      </trkpt>
      <trkpt lat="43.30676" lon="6.14621">
        <ele>420.4</ele>
        <time>2022-11-13T09:34:52.000Z</time>
      </trkpt>
      <trkpt lat="43.3068" lon="6.14632">
        <ele>423.6</ele>
        <time>2022-11-13T09:35:14.000Z</time>
      </trkpt>
      <trkpt lat="43.3068" lon="6.14632">
        <ele>423.6</ele>
        <time>2022-11-13T09:35:15.000Z</time>
      </trkpt>
      <trkpt lat="43.30679" lon="6.14633">
        <ele>424</ele>
        <time>2022-11-13T09:35:19.000Z</time>
      </trkpt>
      <trkpt lat="43.3068" lon="6.14634">
        <ele>424</ele>
        <time>2022-11-13T09:35:21.000Z</time>
      </trkpt>
      <trkpt lat="43.30689" lon="6.14635">
        <ele>424.9</ele>
        <time>2022-11-13T09:35:40.000Z</time>
      </trkpt>
      <trkpt lat="43.30692" lon="6.14635">
        <ele>426</ele>
        <time>2022-11-13T09:35:49.000Z</time>
      </trkpt>
      <trkpt lat="43.30692" lon="6.14635">
        <ele>426.1</ele>
        <time>2022-11-13T09:35:50.000Z</time>
      </trkpt>
      <trkpt lat="43.30692" lon="6.14636">
        <ele>426.3</ele>
        <time>2022-11-13T09:35:52.000Z</time>
      </trkpt>
      <trkpt lat="43.30692" lon="6.14636">
        <ele>426.4</ele>
        <time>2022-11-13T09:35:53.000Z</time>
      </trkpt>
      <trkpt lat="43.30692" lon="6.14636">
        <ele>426.5</ele>
        <time>2022-11-13T09:35:54.000Z</time>
      </trkpt>
      <trkpt lat="43.30693" lon="6.14636">
        <ele>426.5</ele>
        <time>2022-11-13T09:35:55.000Z</time>
      </trkpt>
      <trkpt lat="43.30693" lon="6.14636">
        <ele>426.6</ele>
        <time>2022-11-13T09:35:56.000Z</time>
      </trkpt>
      <trkpt lat="43.30693" lon="6.14635">
        <ele>426.6</ele>
        <time>2022-11-13T09:35:57.000Z</time>
      </trkpt>
      <trkpt lat="43.30693" lon="6.14635">
        <ele>426.9</ele>
        <time>2022-11-13T09:35:58.000Z</time>
      </trkpt>
      <trkpt lat="43.30693" lon="6.14635">
        <ele>427.2</ele>
        <time>2022-11-13T09:35:59.000Z</time>
      </trkpt>
      <trkpt lat="43.30693" lon="6.14635">
        <ele>427.5</ele>
        <time>2022-11-13T09:36:01.000Z</time>
      </trkpt>
      <trkpt lat="43.30693" lon="6.14635">
        <ele>427.8</ele>
        <time>2022-11-13T09:36:04.000Z</time>
      </trkpt>
      <trkpt lat="43.30693" lon="6.14634">
        <ele>428</ele>
        <time>2022-11-13T09:36:07.000Z</time>
      </trkpt>
      <trkpt lat="43.30692" lon="6.14634">
        <ele>428</ele>
        <time>2022-11-13T09:36:08.000Z</time>
      </trkpt>
      <trkpt lat="43.30695" lon="6.14646">
        <ele>429.7</ele>
        <time>2022-11-13T09:36:27.000Z</time>
      </trkpt>
      <trkpt lat="43.30694" lon="6.14649">
        <ele>430.4</ele>
        <time>2022-11-13T09:36:34.000Z</time>
      </trkpt>
      <trkpt lat="43.30694" lon="6.1465">
        <ele>430.6</ele>
        <time>2022-11-13T09:36:37.000Z</time>
      </trkpt>
      <trkpt lat="43.30702" lon="6.14655">
        <ele>433</ele>
        <time>2022-11-13T09:36:56.000Z</time>
      </trkpt>
      <trkpt lat="43.30702" lon="6.14655">
        <ele>433</ele>
        <time>2022-11-13T09:36:57.000Z</time>
      </trkpt>
      <trkpt lat="43.30702" lon="6.14655">
        <ele>432.7</ele>
        <time>2022-11-13T09:36:59.000Z</time>
      </trkpt>
      <trkpt lat="43.30703" lon="6.14654">
        <ele>432.9</ele>
        <time>2022-11-13T09:37:02.000Z</time>
      </trkpt>
      <trkpt lat="43.30703" lon="6.14654">
        <ele>433.3</ele>
        <time>2022-11-13T09:37:04.000Z</time>
      </trkpt>
      <trkpt lat="43.30703" lon="6.14654">
        <ele>433.3</ele>
        <time>2022-11-13T09:37:05.000Z</time>
      </trkpt>
      <trkpt lat="43.3071" lon="6.14654">
        <ele>435</ele>
        <time>2022-11-13T09:37:20.000Z</time>
      </trkpt>
      <trkpt lat="43.3071" lon="6.14653">
        <ele>435</ele>
        <time>2022-11-13T09:37:22.000Z</time>
      </trkpt>
      <trkpt lat="43.3071" lon="6.14652">
        <ele>434.9</ele>
        <time>2022-11-13T09:37:26.000Z</time>
      </trkpt>
      <trkpt lat="43.30711" lon="6.14653">
        <ele>435.4</ele>
        <time>2022-11-13T09:37:32.000Z</time>
      </trkpt>
      <trkpt lat="43.30711" lon="6.14654">
        <ele>434.9</ele>
        <time>2022-11-13T09:37:36.000Z</time>
      </trkpt>
      <trkpt lat="43.30711" lon="6.14654">
        <ele>434.9</ele>
        <time>2022-11-13T09:37:42.000Z</time>
      </trkpt>
      <trkpt lat="43.30711" lon="6.14654">
        <ele>435.1</ele>
        <time>2022-11-13T09:37:45.000Z</time>
      </trkpt>
      <trkpt lat="43.30711" lon="6.14654">
        <ele>435.2</ele>
        <time>2022-11-13T09:37:53.000Z</time>
      </trkpt>
      <trkpt lat="43.30711" lon="6.14654">
        <ele>435.1</ele>
        <time>2022-11-13T09:37:54.000Z</time>
      </trkpt>
      <trkpt lat="43.30712" lon="6.14654">
        <ele>435.1</ele>
        <time>2022-11-13T09:37:55.000Z</time>
      </trkpt>
      <trkpt lat="43.30712" lon="6.14654">
        <ele>435.1</ele>
        <time>2022-11-13T09:37:56.000Z</time>
      </trkpt>
      <trkpt lat="43.30712" lon="6.14654">
        <ele>435</ele>
        <time>2022-11-13T09:37:57.000Z</time>
      </trkpt>
      <trkpt lat="43.30712" lon="6.14654">
        <ele>434.9</ele>
        <time>2022-11-13T09:37:58.000Z</time>
      </trkpt>
      <trkpt lat="43.30713" lon="6.14654">
        <ele>434.8</ele>
        <time>2022-11-13T09:38:05.000Z</time>
      </trkpt>
      <trkpt lat="43.30713" lon="6.14653">
        <ele>435</ele>
        <time>2022-11-13T09:38:13.000Z</time>
      </trkpt>
      <trkpt lat="43.30714" lon="6.14653">
        <ele>434.8</ele>
        <time>2022-11-13T09:38:14.000Z</time>
      </trkpt>
      <trkpt lat="43.30716" lon="6.14652">
        <ele>434.9</ele>
        <time>2022-11-13T09:38:22.000Z</time>
      </trkpt>
      <trkpt lat="43.30717" lon="6.14651">
        <ele>435</ele>
        <time>2022-11-13T09:38:23.000Z</time>
      </trkpt>
      <trkpt lat="43.30717" lon="6.14651">
        <ele>435</ele>
        <time>2022-11-13T09:38:26.000Z</time>
      </trkpt>
      <trkpt lat="43.30717" lon="6.14651">
        <ele>435.1</ele>
        <time>2022-11-13T09:38:30.000Z</time>
      </trkpt>
      <trkpt lat="43.30717" lon="6.1465">
        <ele>434.9</ele>
        <time>2022-11-13T09:38:33.000Z</time>
      </trkpt>
      <trkpt lat="43.30717" lon="6.1465">
        <ele>434.8</ele>
        <time>2022-11-13T09:38:35.000Z</time>
      </trkpt>
      <trkpt lat="43.30718" lon="6.1465">
        <ele>435.2</ele>
        <time>2022-11-13T09:38:37.000Z</time>
      </trkpt>
      <trkpt lat="43.30718" lon="6.1465">
        <ele>435.2</ele>
        <time>2022-11-13T09:38:38.000Z</time>
      </trkpt>
      <trkpt lat="43.30715" lon="6.14651">
        <ele>435</ele>
        <time>2022-11-13T09:38:42.000Z</time>
      </trkpt>
      <trkpt lat="43.30714" lon="6.14651">
        <ele>435.3</ele>
        <time>2022-11-13T09:38:46.000Z</time>
      </trkpt>
      <trkpt lat="43.30714" lon="6.14651">
        <ele>435.2</ele>
        <time>2022-11-13T09:38:47.000Z</time>
      </trkpt>
      <trkpt lat="43.30714" lon="6.14651">
        <ele>434.9</ele>
        <time>2022-11-13T09:38:56.000Z</time>
      </trkpt>
      <trkpt lat="43.30714" lon="6.14652">
        <ele>434.6</ele>
        <time>2022-11-13T09:38:59.000Z</time>
      </trkpt>
      <trkpt lat="43.30714" lon="6.14652">
        <ele>434.7</ele>
        <time>2022-11-13T09:39:03.000Z</time>
      </trkpt>
      <trkpt lat="43.30714" lon="6.14652">
        <ele>434.4</ele>
        <time>2022-11-13T09:39:05.000Z</time>
      </trkpt>
      <trkpt lat="43.30714" lon="6.14652">
        <ele>434.5</ele>
        <time>2022-11-13T09:39:07.000Z</time>
      </trkpt>
      <trkpt lat="43.30714" lon="6.1465">
        <ele>434.9</ele>
        <time>2022-11-13T09:39:15.000Z</time>
      </trkpt>
      <trkpt lat="43.30714" lon="6.1465">
        <ele>434.6</ele>
        <time>2022-11-13T09:39:24.000Z</time>
      </trkpt>
      <trkpt lat="43.30716" lon="6.14649">
        <ele>434.7</ele>
        <time>2022-11-13T09:39:29.000Z</time>
      </trkpt>
      <trkpt lat="43.30716" lon="6.14649">
        <ele>434.4</ele>
        <time>2022-11-13T09:39:32.000Z</time>
      </trkpt>
      <trkpt lat="43.30716" lon="6.14648">
        <ele>434.3</ele>
        <time>2022-11-13T09:39:34.000Z</time>
      </trkpt>
      <trkpt lat="43.30716" lon="6.14648">
        <ele>434.3</ele>
        <time>2022-11-13T09:39:37.000Z</time>
      </trkpt>
      <trkpt lat="43.30716" lon="6.14648">
        <ele>434.2</ele>
        <time>2022-11-13T09:39:38.000Z</time>
      </trkpt>
      <trkpt lat="43.30716" lon="6.14648">
        <ele>434.2</ele>
        <time>2022-11-13T09:40:09.000Z</time>
      </trkpt>
      <trkpt lat="43.30716" lon="6.14648">
        <ele>434.3</ele>
        <time>2022-11-13T09:40:10.000Z</time>
      </trkpt>
      <trkpt lat="43.30716" lon="6.14648">
        <ele>434.5</ele>
        <time>2022-11-13T09:40:11.000Z</time>
      </trkpt>
      <trkpt lat="43.30716" lon="6.14648">
        <ele>434.3</ele>
        <time>2022-11-13T09:40:12.000Z</time>
      </trkpt>
      <trkpt lat="43.30715" lon="6.14648">
        <ele>434.3</ele>
        <time>2022-11-13T09:40:19.000Z</time>
      </trkpt>
      <trkpt lat="43.30715" lon="6.14647">
        <ele>434.4</ele>
        <time>2022-11-13T09:40:21.000Z</time>
      </trkpt>
      <trkpt lat="43.30715" lon="6.14647">
        <ele>434.6</ele>
        <time>2022-11-13T09:40:25.000Z</time>
      </trkpt>
      <trkpt lat="43.30715" lon="6.14647">
        <ele>434.4</ele>
        <time>2022-11-13T09:40:27.000Z</time>
      </trkpt>
      <trkpt lat="43.30715" lon="6.14647">
        <ele>434.6</ele>
        <time>2022-11-13T09:40:42.000Z</time>
      </trkpt>
      <trkpt lat="43.30715" lon="6.14647">
        <ele>434.5</ele>
        <time>2022-11-13T09:40:43.000Z</time>
      </trkpt>
      <trkpt lat="43.30714" lon="6.14647">
        <ele>434.4</ele>
        <time>2022-11-13T09:40:44.000Z</time>
      </trkpt>
      <trkpt lat="43.30714" lon="6.14647">
        <ele>434.4</ele>
        <time>2022-11-13T09:40:45.000Z</time>
      </trkpt>
      <trkpt lat="43.30714" lon="6.14646">
        <ele>434.6</ele>
        <time>2022-11-13T09:41:17.000Z</time>
      </trkpt>
      <trkpt lat="43.30714" lon="6.14646">
        <ele>434.4</ele>
        <time>2022-11-13T09:41:18.000Z</time>
      </trkpt>
      <trkpt lat="43.30714" lon="6.14646">
        <ele>434.5</ele>
        <time>2022-11-13T09:42:16.000Z</time>
      </trkpt>
      <trkpt lat="43.30713" lon="6.14645">
        <ele>434.5</ele>
        <time>2022-11-13T09:42:19.000Z</time>
      </trkpt>
      <trkpt lat="43.30713" lon="6.14645">
        <ele>434.6</ele>
        <time>2022-11-13T09:42:28.000Z</time>
      </trkpt>
      <trkpt lat="43.30713" lon="6.14645">
        <ele>434.6</ele>
        <time>2022-11-13T09:42:29.000Z</time>
      </trkpt>
      <trkpt lat="43.30713" lon="6.14645">
        <ele>434.3</ele>
        <time>2022-11-13T09:42:34.000Z</time>
      </trkpt>
      <trkpt lat="43.30713" lon="6.14642">
        <ele>434.7</ele>
        <time>2022-11-13T09:42:39.000Z</time>
      </trkpt>
      <trkpt lat="43.30713" lon="6.14642">
        <ele>434.7</ele>
        <time>2022-11-13T09:42:40.000Z</time>
      </trkpt>
      <trkpt lat="43.30713" lon="6.14642">
        <ele>434.8</ele>
        <time>2022-11-13T09:42:42.000Z</time>
      </trkpt>
      <trkpt lat="43.30713" lon="6.14641">
        <ele>434.8</ele>
        <time>2022-11-13T09:42:43.000Z</time>
      </trkpt>
      <trkpt lat="43.30708" lon="6.1464">
        <ele>435.7</ele>
        <time>2022-11-13T09:42:54.000Z</time>
      </trkpt>
      <trkpt lat="43.30708" lon="6.1464">
        <ele>435.5</ele>
        <time>2022-11-13T09:42:57.000Z</time>
      </trkpt>
      <trkpt lat="43.30708" lon="6.1464">
        <ele>435.6</ele>
        <time>2022-11-13T09:42:58.000Z</time>
      </trkpt>
      <trkpt lat="43.30708" lon="6.1464">
        <ele>435.7</ele>
        <time>2022-11-13T09:43:04.000Z</time>
      </trkpt>
      <trkpt lat="43.30708" lon="6.1464">
        <ele>435.6</ele>
        <time>2022-11-13T09:43:05.000Z</time>
      </trkpt>
      <trkpt lat="43.30708" lon="6.1464">
        <ele>435.7</ele>
        <time>2022-11-13T09:43:06.000Z</time>
      </trkpt>
      <trkpt lat="43.30709" lon="6.14642">
        <ele>435.3</ele>
        <time>2022-11-13T09:43:12.000Z</time>
      </trkpt>
      <trkpt lat="43.30709" lon="6.14643">
        <ele>435.4</ele>
        <time>2022-11-13T09:43:15.000Z</time>
      </trkpt>
      <trkpt lat="43.30715" lon="6.14632">
        <ele>434.3</ele>
        <time>2022-11-13T09:43:26.000Z</time>
      </trkpt>
      <trkpt lat="43.30718" lon="6.14623">
        <ele>434.4</ele>
        <time>2022-11-13T09:43:35.000Z</time>
      </trkpt>
      <trkpt lat="43.30718" lon="6.14623">
        <ele>434.2</ele>
        <time>2022-11-13T09:43:36.000Z</time>
      </trkpt>
      <trkpt lat="43.30718" lon="6.14623">
        <ele>434.1</ele>
        <time>2022-11-13T09:43:38.000Z</time>
      </trkpt>
      <trkpt lat="43.30718" lon="6.14623">
        <ele>434.1</ele>
        <time>2022-11-13T09:43:40.000Z</time>
      </trkpt>
      <trkpt lat="43.30717" lon="6.14623">
        <ele>434.3</ele>
        <time>2022-11-13T09:43:42.000Z</time>
      </trkpt>
      <trkpt lat="43.30717" lon="6.14623">
        <ele>434.4</ele>
        <time>2022-11-13T09:43:44.000Z</time>
      </trkpt>
      <trkpt lat="43.30717" lon="6.14623">
        <ele>434.5</ele>
        <time>2022-11-13T09:43:45.000Z</time>
      </trkpt>
      <trkpt lat="43.30717" lon="6.14623">
        <ele>434.4</ele>
        <time>2022-11-13T09:43:49.000Z</time>
      </trkpt>
      <trkpt lat="43.30717" lon="6.14623">
        <ele>434.3</ele>
        <time>2022-11-13T09:43:50.000Z</time>
      </trkpt>
      <trkpt lat="43.30717" lon="6.14623">
        <ele>434.3</ele>
        <time>2022-11-13T09:43:58.000Z</time>
      </trkpt>
      <trkpt lat="43.30717" lon="6.14623">
        <ele>434.3</ele>
        <time>2022-11-13T09:43:59.000Z</time>
      </trkpt>
      <trkpt lat="43.30717" lon="6.14623">
        <ele>434.3</ele>
        <time>2022-11-13T09:44:02.000Z</time>
      </trkpt>
      <trkpt lat="43.30717" lon="6.14623">
        <ele>434.2</ele>
        <time>2022-11-13T09:44:04.000Z</time>
      </trkpt>
      <trkpt lat="43.30717" lon="6.14623">
        <ele>434.2</ele>
        <time>2022-11-13T09:44:06.000Z</time>
      </trkpt>
      <trkpt lat="43.30717" lon="6.14623">
        <ele>434.1</ele>
        <time>2022-11-13T09:44:07.000Z</time>
      </trkpt>
      <trkpt lat="43.30717" lon="6.14623">
        <ele>434.1</ele>
        <time>2022-11-13T09:44:17.000Z</time>
      </trkpt>
      <trkpt lat="43.3072" lon="6.14611">
        <ele>433.3</ele>
        <time>2022-11-13T09:44:30.000Z</time>
      </trkpt>
      <trkpt lat="43.30719" lon="6.14598">
        <ele>433.7</ele>
        <time>2022-11-13T09:44:41.000Z</time>
      </trkpt>
      <trkpt lat="43.30722" lon="6.14586">
        <ele>433.3</ele>
        <time>2022-11-13T09:44:54.000Z</time>
      </trkpt>
      <trkpt lat="43.30727" lon="6.14575">
        <ele>433.5</ele>
        <time>2022-11-13T09:45:01.000Z</time>
      </trkpt>
      <trkpt lat="43.30727" lon="6.14562">
        <ele>434.1</ele>
        <time>2022-11-13T09:45:14.000Z</time>
      </trkpt>
      <trkpt lat="43.30729" lon="6.14549">
        <ele>434.1</ele>
        <time>2022-11-13T09:45:27.000Z</time>
      </trkpt>
      <trkpt lat="43.30729" lon="6.14536">
        <ele>434.6</ele>
        <time>2022-11-13T09:45:37.000Z</time>
      </trkpt>
      <trkpt lat="43.30728" lon="6.14523">
        <ele>435.5</ele>
        <time>2022-11-13T09:45:50.000Z</time>
      </trkpt>
      <trkpt lat="43.30728" lon="6.1451">
        <ele>436.8</ele>
        <time>2022-11-13T09:46:03.000Z</time>
      </trkpt>
      <trkpt lat="43.30727" lon="6.14498">
        <ele>437.8</ele>
        <time>2022-11-13T09:46:16.000Z</time>
      </trkpt>
      <trkpt lat="43.30725" lon="6.14487">
        <ele>438.6</ele>
        <time>2022-11-13T09:46:32.000Z</time>
      </trkpt>
      <trkpt lat="43.30724" lon="6.14487">
        <ele>439</ele>
        <time>2022-11-13T09:46:39.000Z</time>
      </trkpt>
      <trkpt lat="43.30724" lon="6.14487">
        <ele>439.1</ele>
        <time>2022-11-13T09:46:40.000Z</time>
      </trkpt>
      <trkpt lat="43.30724" lon="6.14486">
        <ele>439.3</ele>
        <time>2022-11-13T09:46:44.000Z</time>
      </trkpt>
      <trkpt lat="43.30722" lon="6.14484">
        <ele>439.1</ele>
        <time>2022-11-13T09:46:50.000Z</time>
      </trkpt>
      <trkpt lat="43.30722" lon="6.14483">
        <ele>439.2</ele>
        <time>2022-11-13T09:46:59.000Z</time>
      </trkpt>
      <trkpt lat="43.30722" lon="6.14483">
        <ele>439.3</ele>
        <time>2022-11-13T09:47:00.000Z</time>
      </trkpt>
      <trkpt lat="43.30722" lon="6.14483">
        <ele>439.2</ele>
        <time>2022-11-13T09:47:29.000Z</time>
      </trkpt>
      <trkpt lat="43.30722" lon="6.14483">
        <ele>439.2</ele>
        <time>2022-11-13T09:47:30.000Z</time>
      </trkpt>
      <trkpt lat="43.30721" lon="6.14483">
        <ele>439.1</ele>
        <time>2022-11-13T09:48:00.000Z</time>
      </trkpt>
      <trkpt lat="43.30721" lon="6.14482">
        <ele>439.2</ele>
        <time>2022-11-13T09:48:02.000Z</time>
      </trkpt>
      <trkpt lat="43.30721" lon="6.14483">
        <ele>439.4</ele>
        <time>2022-11-13T09:48:03.000Z</time>
      </trkpt>
      <trkpt lat="43.30721" lon="6.14483">
        <ele>439.4</ele>
        <time>2022-11-13T09:48:04.000Z</time>
      </trkpt>
      <trkpt lat="43.30721" lon="6.14482">
        <ele>439.3</ele>
        <time>2022-11-13T09:48:20.000Z</time>
      </trkpt>
      <trkpt lat="43.30721" lon="6.14483">
        <ele>439.3</ele>
        <time>2022-11-13T09:48:21.000Z</time>
      </trkpt>
      <trkpt lat="43.30721" lon="6.14483">
        <ele>439.3</ele>
        <time>2022-11-13T09:48:27.000Z</time>
      </trkpt>
      <trkpt lat="43.30721" lon="6.14483">
        <ele>439.5</ele>
        <time>2022-11-13T09:48:28.000Z</time>
      </trkpt>
      <trkpt lat="43.3072" lon="6.14482">
        <ele>439.5</ele>
        <time>2022-11-13T09:48:42.000Z</time>
      </trkpt>
      <trkpt lat="43.3072" lon="6.14482">
        <ele>439.3</ele>
        <time>2022-11-13T09:48:44.000Z</time>
      </trkpt>
      <trkpt lat="43.3072" lon="6.14482">
        <ele>439.6</ele>
        <time>2022-11-13T09:48:58.000Z</time>
      </trkpt>
      <trkpt lat="43.3072" lon="6.14482">
        <ele>439.6</ele>
        <time>2022-11-13T09:49:00.000Z</time>
      </trkpt>
      <trkpt lat="43.3072" lon="6.14482">
        <ele>439.6</ele>
        <time>2022-11-13T09:49:06.000Z</time>
      </trkpt>
      <trkpt lat="43.3072" lon="6.14482">
        <ele>439.5</ele>
        <time>2022-11-13T09:49:07.000Z</time>
      </trkpt>
      <trkpt lat="43.3072" lon="6.14482">
        <ele>439.9</ele>
        <time>2022-11-13T09:49:09.000Z</time>
      </trkpt>
      <trkpt lat="43.3072" lon="6.14482">
        <ele>439.9</ele>
        <time>2022-11-13T09:49:10.000Z</time>
      </trkpt>
      <trkpt lat="43.3072" lon="6.14482">
        <ele>439.8</ele>
        <time>2022-11-13T09:49:11.000Z</time>
      </trkpt>
      <trkpt lat="43.3072" lon="6.14482">
        <ele>439.6</ele>
        <time>2022-11-13T09:49:12.000Z</time>
      </trkpt>
      <trkpt lat="43.3072" lon="6.14481">
        <ele>439.6</ele>
        <time>2022-11-13T09:49:13.000Z</time>
      </trkpt>
      <trkpt lat="43.30722" lon="6.14469">
        <ele>441.3</ele>
        <time>2022-11-13T09:49:30.000Z</time>
      </trkpt>
      <trkpt lat="43.30723" lon="6.14456">
        <ele>443</ele>
        <time>2022-11-13T09:49:46.000Z</time>
      </trkpt>
      <trkpt lat="43.30723" lon="6.14444">
        <ele>444.9</ele>
        <time>2022-11-13T09:50:02.000Z</time>
      </trkpt>
      <trkpt lat="43.30722" lon="6.14431">
        <ele>447.2</ele>
        <time>2022-11-13T09:50:21.000Z</time>
      </trkpt>
      <trkpt lat="43.30724" lon="6.14419">
        <ele>449.2</ele>
        <time>2022-11-13T09:50:39.000Z</time>
      </trkpt>
      <trkpt lat="43.30722" lon="6.14407">
        <ele>451</ele>
        <time>2022-11-13T09:50:52.000Z</time>
      </trkpt>
      <trkpt lat="43.30718" lon="6.14395">
        <ele>453.5</ele>
        <time>2022-11-13T09:51:14.000Z</time>
      </trkpt>
      <trkpt lat="43.30714" lon="6.14383">
        <ele>455.7</ele>
        <time>2022-11-13T09:51:30.000Z</time>
      </trkpt>
      <trkpt lat="43.30713" lon="6.14374">
        <ele>456.6</ele>
        <time>2022-11-13T09:51:42.000Z</time>
      </trkpt>
      <trkpt lat="43.30713" lon="6.14374">
        <ele>456.6</ele>
        <time>2022-11-13T09:51:43.000Z</time>
      </trkpt>
      <trkpt lat="43.30712" lon="6.14373">
        <ele>456.8</ele>
        <time>2022-11-13T09:51:45.000Z</time>
      </trkpt>
      <trkpt lat="43.30712" lon="6.14373">
        <ele>456.9</ele>
        <time>2022-11-13T09:51:56.000Z</time>
      </trkpt>
      <trkpt lat="43.30712" lon="6.14373">
        <ele>456.9</ele>
        <time>2022-11-13T09:51:58.000Z</time>
      </trkpt>
      <trkpt lat="43.30712" lon="6.14373">
        <ele>457</ele>
        <time>2022-11-13T09:52:07.000Z</time>
      </trkpt>
      <trkpt lat="43.3071" lon="6.14373">
        <ele>456.8</ele>
        <time>2022-11-13T09:52:11.000Z</time>
      </trkpt>
      <trkpt lat="43.3071" lon="6.14373">
        <ele>456.8</ele>
        <time>2022-11-13T09:52:13.000Z</time>
      </trkpt>
      <trkpt lat="43.3071" lon="6.14373">
        <ele>456.8</ele>
        <time>2022-11-13T09:52:14.000Z</time>
      </trkpt>
      <trkpt lat="43.3071" lon="6.14373">
        <ele>457.1</ele>
        <time>2022-11-13T09:52:21.000Z</time>
      </trkpt>
      <trkpt lat="43.3071" lon="6.14373">
        <ele>457.2</ele>
        <time>2022-11-13T09:52:22.000Z</time>
      </trkpt>
      <trkpt lat="43.3071" lon="6.14373">
        <ele>457</ele>
        <time>2022-11-13T09:52:27.000Z</time>
      </trkpt>
      <trkpt lat="43.3071" lon="6.14373">
        <ele>457</ele>
        <time>2022-11-13T09:52:28.000Z</time>
      </trkpt>
      <trkpt lat="43.30709" lon="6.14373">
        <ele>457</ele>
        <time>2022-11-13T09:52:46.000Z</time>
      </trkpt>
      <trkpt lat="43.3071" lon="6.14373">
        <ele>457</ele>
        <time>2022-11-13T09:52:49.000Z</time>
      </trkpt>
      <trkpt lat="43.3071" lon="6.14372">
        <ele>456.7</ele>
        <time>2022-11-13T09:52:58.000Z</time>
      </trkpt>
      <trkpt lat="43.3071" lon="6.14372">
        <ele>456.7</ele>
        <time>2022-11-13T09:52:59.000Z</time>
      </trkpt>
      <trkpt lat="43.3071" lon="6.14372">
        <ele>456.7</ele>
        <time>2022-11-13T09:53:00.000Z</time>
      </trkpt>
      <trkpt lat="43.3071" lon="6.14372">
        <ele>456.8</ele>
        <time>2022-11-13T09:53:01.000Z</time>
      </trkpt>
      <trkpt lat="43.3071" lon="6.14372">
        <ele>457.1</ele>
        <time>2022-11-13T09:53:05.000Z</time>
      </trkpt>
      <trkpt lat="43.3071" lon="6.14372">
        <ele>457.1</ele>
        <time>2022-11-13T09:53:08.000Z</time>
      </trkpt>
      <trkpt lat="43.30709" lon="6.14372">
        <ele>455.9</ele>
        <time>2022-11-13T09:53:30.000Z</time>
      </trkpt>
      <trkpt lat="43.30709" lon="6.14372">
        <ele>456</ele>
        <time>2022-11-13T09:53:32.000Z</time>
      </trkpt>
      <trkpt lat="43.30709" lon="6.14373">
        <ele>455.5</ele>
        <time>2022-11-13T09:53:49.000Z</time>
      </trkpt>
      <trkpt lat="43.30709" lon="6.14373">
        <ele>455.4</ele>
        <time>2022-11-13T09:53:50.000Z</time>
      </trkpt>
      <trkpt lat="43.30709" lon="6.14373">
        <ele>455.6</ele>
        <time>2022-11-13T09:54:14.000Z</time>
      </trkpt>
      <trkpt lat="43.30709" lon="6.14373">
        <ele>455.7</ele>
        <time>2022-11-13T09:54:15.000Z</time>
      </trkpt>
      <trkpt lat="43.30709" lon="6.14373">
        <ele>455.8</ele>
        <time>2022-11-13T09:54:17.000Z</time>
      </trkpt>
      <trkpt lat="43.30709" lon="6.14371">
        <ele>456.2</ele>
        <time>2022-11-13T09:54:21.000Z</time>
      </trkpt>
      <trkpt lat="43.30709" lon="6.1437">
        <ele>456.2</ele>
        <time>2022-11-13T09:54:22.000Z</time>
      </trkpt>
      <trkpt lat="43.3071" lon="6.14358">
        <ele>458</ele>
        <time>2022-11-13T09:54:35.000Z</time>
      </trkpt>
      <trkpt lat="43.30707" lon="6.14346">
        <ele>459.9</ele>
        <time>2022-11-13T09:54:49.000Z</time>
      </trkpt>
      <trkpt lat="43.30702" lon="6.14334">
        <ele>461.9</ele>
        <time>2022-11-13T09:55:06.000Z</time>
      </trkpt>
      <trkpt lat="43.30703" lon="6.14328">
        <ele>462.8</ele>
        <time>2022-11-13T09:55:16.000Z</time>
      </trkpt>
      <trkpt lat="43.30703" lon="6.14327">
        <ele>462.8</ele>
        <time>2022-11-13T09:55:17.000Z</time>
      </trkpt>
      <trkpt lat="43.30703" lon="6.14326">
        <ele>462.9</ele>
        <time>2022-11-13T09:55:20.000Z</time>
      </trkpt>
      <trkpt lat="43.30703" lon="6.14326">
        <ele>463.2</ele>
        <time>2022-11-13T09:55:23.000Z</time>
      </trkpt>
      <trkpt lat="43.30704" lon="6.14319">
        <ele>463.8</ele>
        <time>2022-11-13T09:55:34.000Z</time>
      </trkpt>
      <trkpt lat="43.30704" lon="6.14318">
        <ele>464.2</ele>
        <time>2022-11-13T09:55:36.000Z</time>
      </trkpt>
      <trkpt lat="43.30706" lon="6.14306">
        <ele>465.8</ele>
        <time>2022-11-13T09:55:49.000Z</time>
      </trkpt>
      <trkpt lat="43.3071" lon="6.14294">
        <ele>466.7</ele>
        <time>2022-11-13T09:55:59.000Z</time>
      </trkpt>
      <trkpt lat="43.30709" lon="6.14281">
        <ele>468</ele>
        <time>2022-11-13T09:56:10.000Z</time>
      </trkpt>
      <trkpt lat="43.30708" lon="6.14267">
        <ele>468.8</ele>
        <time>2022-11-13T09:56:24.000Z</time>
      </trkpt>
      <trkpt lat="43.30708" lon="6.14265">
        <ele>469.1</ele>
        <time>2022-11-13T09:56:27.000Z</time>
      </trkpt>
      <trkpt lat="43.30708" lon="6.14265">
        <ele>469.1</ele>
        <time>2022-11-13T09:56:28.000Z</time>
      </trkpt>
      <trkpt lat="43.3071" lon="6.14252">
        <ele>469.4</ele>
        <time>2022-11-13T09:56:39.000Z</time>
      </trkpt>
      <trkpt lat="43.3071" lon="6.14239">
        <ele>470.5</ele>
        <time>2022-11-13T09:56:50.000Z</time>
      </trkpt>
      <trkpt lat="43.30711" lon="6.14226">
        <ele>471.4</ele>
        <time>2022-11-13T09:57:03.000Z</time>
      </trkpt>
      <trkpt lat="43.30712" lon="6.14213">
        <ele>471.3</ele>
        <time>2022-11-13T09:57:14.000Z</time>
      </trkpt>
      <trkpt lat="43.30712" lon="6.14209">
        <ele>471.7</ele>
        <time>2022-11-13T09:57:19.000Z</time>
      </trkpt>
      <trkpt lat="43.30712" lon="6.14209">
        <ele>471.8</ele>
        <time>2022-11-13T09:57:23.000Z</time>
      </trkpt>
      <trkpt lat="43.30712" lon="6.14209">
        <ele>471.8</ele>
        <time>2022-11-13T09:57:24.000Z</time>
      </trkpt>
      <trkpt lat="43.30713" lon="6.14208">
        <ele>472.1</ele>
        <time>2022-11-13T09:57:29.000Z</time>
      </trkpt>
      <trkpt lat="43.30712" lon="6.14207">
        <ele>471.9</ele>
        <time>2022-11-13T09:57:31.000Z</time>
      </trkpt>
      <trkpt lat="43.30712" lon="6.14207">
        <ele>471.8</ele>
        <time>2022-11-13T09:57:37.000Z</time>
      </trkpt>
      <trkpt lat="43.30712" lon="6.14207">
        <ele>471.8</ele>
        <time>2022-11-13T09:57:39.000Z</time>
      </trkpt>
      <trkpt lat="43.30712" lon="6.14206">
        <ele>471.9</ele>
        <time>2022-11-13T09:57:41.000Z</time>
      </trkpt>
      <trkpt lat="43.30712" lon="6.14206">
        <ele>472</ele>
        <time>2022-11-13T09:57:42.000Z</time>
      </trkpt>
      <trkpt lat="43.30712" lon="6.14206">
        <ele>471.7</ele>
        <time>2022-11-13T09:57:54.000Z</time>
      </trkpt>
      <trkpt lat="43.30712" lon="6.14206">
        <ele>471.6</ele>
        <time>2022-11-13T09:57:56.000Z</time>
      </trkpt>
      <trkpt lat="43.30712" lon="6.14205">
        <ele>471.9</ele>
        <time>2022-11-13T09:58:03.000Z</time>
      </trkpt>
      <trkpt lat="43.30711" lon="6.14206">
        <ele>472</ele>
        <time>2022-11-13T09:58:10.000Z</time>
      </trkpt>
      <trkpt lat="43.30711" lon="6.14206">
        <ele>471.9</ele>
        <time>2022-11-13T09:58:27.000Z</time>
      </trkpt>
      <trkpt lat="43.30711" lon="6.14206">
        <ele>472</ele>
        <time>2022-11-13T09:58:30.000Z</time>
      </trkpt>
      <trkpt lat="43.30711" lon="6.14205">
        <ele>471.9</ele>
        <time>2022-11-13T09:58:31.000Z</time>
      </trkpt>
      <trkpt lat="43.30711" lon="6.14205">
        <ele>472.1</ele>
        <time>2022-11-13T09:58:33.000Z</time>
      </trkpt>
      <trkpt lat="43.30711" lon="6.14205">
        <ele>472</ele>
        <time>2022-11-13T09:58:45.000Z</time>
      </trkpt>
      <trkpt lat="43.30711" lon="6.14205">
        <ele>472</ele>
        <time>2022-11-13T09:58:46.000Z</time>
      </trkpt>
      <trkpt lat="43.30711" lon="6.14204">
        <ele>471.7</ele>
        <time>2022-11-13T09:58:49.000Z</time>
      </trkpt>
      <trkpt lat="43.30714" lon="6.14191">
        <ele>472.9</ele>
        <time>2022-11-13T09:59:02.000Z</time>
      </trkpt>
      <trkpt lat="43.30713" lon="6.14179">
        <ele>473.3</ele>
        <time>2022-11-13T09:59:12.000Z</time>
      </trkpt>
      <trkpt lat="43.30714" lon="6.14166">
        <ele>473.6</ele>
        <time>2022-11-13T09:59:21.000Z</time>
      </trkpt>
      <trkpt lat="43.30715" lon="6.14154">
        <ele>473.7</ele>
        <time>2022-11-13T09:59:30.000Z</time>
      </trkpt>
      <trkpt lat="43.30715" lon="6.14141">
        <ele>474.1</ele>
        <time>2022-11-13T09:59:38.000Z</time>
      </trkpt>
      <trkpt lat="43.30715" lon="6.14128">
        <ele>474.1</ele>
        <time>2022-11-13T09:59:45.000Z</time>
      </trkpt>
      <trkpt lat="43.30714" lon="6.14115">
        <ele>474.6</ele>
        <time>2022-11-13T09:59:54.000Z</time>
      </trkpt>
      <trkpt lat="43.30713" lon="6.14102">
        <ele>474.6</ele>
        <time>2022-11-13T10:00:02.000Z</time>
      </trkpt>
      <trkpt lat="43.30712" lon="6.14098">
        <ele>474.6</ele>
        <time>2022-11-13T10:00:08.000Z</time>
      </trkpt>
      <trkpt lat="43.30712" lon="6.14098">
        <ele>474.6</ele>
        <time>2022-11-13T10:00:10.000Z</time>
      </trkpt>
      <trkpt lat="43.30716" lon="6.14085">
        <ele>473.8</ele>
        <time>2022-11-13T10:00:20.000Z</time>
      </trkpt>
      <trkpt lat="43.30725" lon="6.1408">
        <ele>473.6</ele>
        <time>2022-11-13T10:00:28.000Z</time>
      </trkpt>
      <trkpt lat="43.30729" lon="6.14069">
        <ele>472.8</ele>
        <time>2022-11-13T10:00:37.000Z</time>
      </trkpt>
      <trkpt lat="43.30731" lon="6.14056">
        <ele>472.6</ele>
        <time>2022-11-13T10:00:46.000Z</time>
      </trkpt>
      <trkpt lat="43.30732" lon="6.14042">
        <ele>471.8</ele>
        <time>2022-11-13T10:00:55.000Z</time>
      </trkpt>
      <trkpt lat="43.30736" lon="6.1403">
        <ele>471.2</ele>
        <time>2022-11-13T10:01:05.000Z</time>
      </trkpt>
      <trkpt lat="43.30739" lon="6.14017">
        <ele>470.4</ele>
        <time>2022-11-13T10:01:13.000Z</time>
      </trkpt>
      <trkpt lat="43.30742" lon="6.14006">
        <ele>469.9</ele>
        <time>2022-11-13T10:01:21.000Z</time>
      </trkpt>
      <trkpt lat="43.30746" lon="6.13994">
        <ele>468.7</ele>
        <time>2022-11-13T10:01:29.000Z</time>
      </trkpt>
      <trkpt lat="43.30749" lon="6.13981">
        <ele>468.4</ele>
        <time>2022-11-13T10:01:37.000Z</time>
      </trkpt>
      <trkpt lat="43.3075" lon="6.13968">
        <ele>467.8</ele>
        <time>2022-11-13T10:01:46.000Z</time>
      </trkpt>
      <trkpt lat="43.30755" lon="6.13956">
        <ele>467.7</ele>
        <time>2022-11-13T10:01:54.000Z</time>
      </trkpt>
      <trkpt lat="43.30761" lon="6.13945">
        <ele>467.6</ele>
        <time>2022-11-13T10:02:01.000Z</time>
      </trkpt>
      <trkpt lat="43.30767" lon="6.13934">
        <ele>467.1</ele>
        <time>2022-11-13T10:02:09.000Z</time>
      </trkpt>
      <trkpt lat="43.30769" lon="6.13931">
        <ele>467.4</ele>
        <time>2022-11-13T10:02:13.000Z</time>
      </trkpt>
      <trkpt lat="43.30769" lon="6.1393">
        <ele>467.4</ele>
        <time>2022-11-13T10:02:16.000Z</time>
      </trkpt>
      <trkpt lat="43.30769" lon="6.1393">
        <ele>467.4</ele>
        <time>2022-11-13T10:02:17.000Z</time>
      </trkpt>
      <trkpt lat="43.30769" lon="6.1393">
        <ele>467.2</ele>
        <time>2022-11-13T10:02:18.000Z</time>
      </trkpt>
      <trkpt lat="43.30769" lon="6.1393">
        <ele>467.2</ele>
        <time>2022-11-13T10:02:20.000Z</time>
      </trkpt>
      <trkpt lat="43.30769" lon="6.13929">
        <ele>467.1</ele>
        <time>2022-11-13T10:02:23.000Z</time>
      </trkpt>
      <trkpt lat="43.30769" lon="6.13929">
        <ele>467.1</ele>
        <time>2022-11-13T10:02:25.000Z</time>
      </trkpt>
      <trkpt lat="43.30769" lon="6.13929">
        <ele>467</ele>
        <time>2022-11-13T10:02:32.000Z</time>
      </trkpt>
      <trkpt lat="43.30769" lon="6.13929">
        <ele>467</ele>
        <time>2022-11-13T10:02:34.000Z</time>
      </trkpt>
      <trkpt lat="43.30769" lon="6.13928">
        <ele>466.9</ele>
        <time>2022-11-13T10:02:36.000Z</time>
      </trkpt>
      <trkpt lat="43.30769" lon="6.13928">
        <ele>466.8</ele>
        <time>2022-11-13T10:02:39.000Z</time>
      </trkpt>
      <trkpt lat="43.30769" lon="6.13927">
        <ele>466.9</ele>
        <time>2022-11-13T10:02:42.000Z</time>
      </trkpt>
      <trkpt lat="43.30769" lon="6.13927">
        <ele>466.8</ele>
        <time>2022-11-13T10:02:43.000Z</time>
      </trkpt>
      <trkpt lat="43.30769" lon="6.13927">
        <ele>466.8</ele>
        <time>2022-11-13T10:02:52.000Z</time>
      </trkpt>
      <trkpt lat="43.30769" lon="6.13927">
        <ele>467</ele>
        <time>2022-11-13T10:02:55.000Z</time>
      </trkpt>
      <trkpt lat="43.3077" lon="6.13927">
        <ele>466.7</ele>
        <time>2022-11-13T10:02:59.000Z</time>
      </trkpt>
      <trkpt lat="43.3077" lon="6.13927">
        <ele>466.7</ele>
        <time>2022-11-13T10:03:00.000Z</time>
      </trkpt>
      <trkpt lat="43.3077" lon="6.13928">
        <ele>466.7</ele>
        <time>2022-11-13T10:03:11.000Z</time>
      </trkpt>
      <trkpt lat="43.3077" lon="6.13928">
        <ele>466.8</ele>
        <time>2022-11-13T10:03:13.000Z</time>
      </trkpt>
      <trkpt lat="43.30769" lon="6.13928">
        <ele>466.5</ele>
        <time>2022-11-13T10:03:18.000Z</time>
      </trkpt>
      <trkpt lat="43.30769" lon="6.13928">
        <ele>466.6</ele>
        <time>2022-11-13T10:03:19.000Z</time>
      </trkpt>
      <trkpt lat="43.30769" lon="6.13928">
        <ele>466.7</ele>
        <time>2022-11-13T10:03:22.000Z</time>
      </trkpt>
      <trkpt lat="43.30769" lon="6.13928">
        <ele>466.7</ele>
        <time>2022-11-13T10:03:23.000Z</time>
      </trkpt>
      <trkpt lat="43.30769" lon="6.13927">
        <ele>466.7</ele>
        <time>2022-11-13T10:03:38.000Z</time>
      </trkpt>
      <trkpt lat="43.30776" lon="6.13918">
        <ele>467</ele>
        <time>2022-11-13T10:03:47.000Z</time>
      </trkpt>
      <trkpt lat="43.30783" lon="6.1391">
        <ele>467.4</ele>
        <time>2022-11-13T10:03:56.000Z</time>
      </trkpt>
      <trkpt lat="43.30789" lon="6.13899">
        <ele>467.9</ele>
        <time>2022-11-13T10:04:05.000Z</time>
      </trkpt>
      <trkpt lat="43.30795" lon="6.1389">
        <ele>469.9</ele>
        <time>2022-11-13T10:04:18.000Z</time>
      </trkpt>
      <trkpt lat="43.308" lon="6.13878">
        <ele>472</ele>
        <time>2022-11-13T10:04:34.000Z</time>
      </trkpt>
      <trkpt lat="43.30806" lon="6.13868">
        <ele>474.3</ele>
        <time>2022-11-13T10:04:48.000Z</time>
      </trkpt>
      <trkpt lat="43.30803" lon="6.13856">
        <ele>476.1</ele>
        <time>2022-11-13T10:05:02.000Z</time>
      </trkpt>
      <trkpt lat="43.30803" lon="6.13843">
        <ele>478</ele>
        <time>2022-11-13T10:05:18.000Z</time>
      </trkpt>
      <trkpt lat="43.30806" lon="6.13831">
        <ele>479.6</ele>
        <time>2022-11-13T10:05:31.000Z</time>
      </trkpt>
      <trkpt lat="43.3081" lon="6.1382">
        <ele>481.1</ele>
        <time>2022-11-13T10:05:47.000Z</time>
      </trkpt>
      <trkpt lat="43.3081" lon="6.13807">
        <ele>482.3</ele>
        <time>2022-11-13T10:05:59.000Z</time>
      </trkpt>
      <trkpt lat="43.30809" lon="6.13795">
        <ele>483.8</ele>
        <time>2022-11-13T10:06:12.000Z</time>
      </trkpt>
      <trkpt lat="43.30808" lon="6.13795">
        <ele>483.8</ele>
        <time>2022-11-13T10:06:16.000Z</time>
      </trkpt>
      <trkpt lat="43.30808" lon="6.13794">
        <ele>483.7</ele>
        <time>2022-11-13T10:06:22.000Z</time>
      </trkpt>
      <trkpt lat="43.30808" lon="6.13793">
        <ele>484</ele>
        <time>2022-11-13T10:06:25.000Z</time>
      </trkpt>
      <trkpt lat="43.30808" lon="6.13793">
        <ele>484.1</ele>
        <time>2022-11-13T10:06:27.000Z</time>
      </trkpt>
      <trkpt lat="43.30808" lon="6.13793">
        <ele>484.2</ele>
        <time>2022-11-13T10:06:29.000Z</time>
      </trkpt>
      <trkpt lat="43.30807" lon="6.13793">
        <ele>484</ele>
        <time>2022-11-13T10:06:31.000Z</time>
      </trkpt>
      <trkpt lat="43.30807" lon="6.13794">
        <ele>484.1</ele>
        <time>2022-11-13T10:06:32.000Z</time>
      </trkpt>
      <trkpt lat="43.30807" lon="6.13793">
        <ele>483.9</ele>
        <time>2022-11-13T10:06:52.000Z</time>
      </trkpt>
      <trkpt lat="43.30807" lon="6.13793">
        <ele>484.1</ele>
        <time>2022-11-13T10:06:53.000Z</time>
      </trkpt>
      <trkpt lat="43.30807" lon="6.13794">
        <ele>484.2</ele>
        <time>2022-11-13T10:06:58.000Z</time>
      </trkpt>
      <trkpt lat="43.30807" lon="6.13794">
        <ele>484.3</ele>
        <time>2022-11-13T10:06:59.000Z</time>
      </trkpt>
      <trkpt lat="43.30807" lon="6.13794">
        <ele>484.4</ele>
        <time>2022-11-13T10:07:18.000Z</time>
      </trkpt>
      <trkpt lat="43.30807" lon="6.13794">
        <ele>484.4</ele>
        <time>2022-11-13T10:07:21.000Z</time>
      </trkpt>
      <trkpt lat="43.30807" lon="6.13794">
        <ele>484.3</ele>
        <time>2022-11-13T10:07:26.000Z</time>
      </trkpt>
      <trkpt lat="43.30807" lon="6.13794">
        <ele>484.3</ele>
        <time>2022-11-13T10:07:27.000Z</time>
      </trkpt>
      <trkpt lat="43.30806" lon="6.13794">
        <ele>484.3</ele>
        <time>2022-11-13T10:07:41.000Z</time>
      </trkpt>
      <trkpt lat="43.30799" lon="6.13791">
        <ele>484.5</ele>
        <time>2022-11-13T10:07:55.000Z</time>
      </trkpt>
      <trkpt lat="43.30799" lon="6.13791">
        <ele>484.7</ele>
        <time>2022-11-13T10:07:56.000Z</time>
      </trkpt>
      <trkpt lat="43.308" lon="6.13791">
        <ele>484.6</ele>
        <time>2022-11-13T10:08:00.000Z</time>
      </trkpt>
      <trkpt lat="43.308" lon="6.13791">
        <ele>484.5</ele>
        <time>2022-11-13T10:08:19.000Z</time>
      </trkpt>
      <trkpt lat="43.308" lon="6.13791">
        <ele>484.7</ele>
        <time>2022-11-13T10:08:20.000Z</time>
      </trkpt>
      <trkpt lat="43.308" lon="6.13791">
        <ele>484.5</ele>
        <time>2022-11-13T10:09:42.000Z</time>
      </trkpt>
      <trkpt lat="43.308" lon="6.13791">
        <ele>484.6</ele>
        <time>2022-11-13T10:09:43.000Z</time>
      </trkpt>
      <trkpt lat="43.308" lon="6.13791">
        <ele>484.4</ele>
        <time>2022-11-13T10:09:50.000Z</time>
      </trkpt>
      <trkpt lat="43.308" lon="6.13791">
        <ele>484.4</ele>
        <time>2022-11-13T10:09:51.000Z</time>
      </trkpt>
      <trkpt lat="43.30801" lon="6.13791">
        <ele>484.5</ele>
        <time>2022-11-13T10:09:52.000Z</time>
      </trkpt>
      <trkpt lat="43.30801" lon="6.13791">
        <ele>484.4</ele>
        <time>2022-11-13T10:09:53.000Z</time>
      </trkpt>
      <trkpt lat="43.30801" lon="6.1379">
        <ele>484.5</ele>
        <time>2022-11-13T10:10:25.000Z</time>
      </trkpt>
      <trkpt lat="43.30808" lon="6.13786">
        <ele>484</ele>
        <time>2022-11-13T10:10:40.000Z</time>
      </trkpt>
      <trkpt lat="43.30808" lon="6.13786">
        <ele>484.5</ele>
        <time>2022-11-13T10:10:49.000Z</time>
      </trkpt>
      <trkpt lat="43.30808" lon="6.13785">
        <ele>484.6</ele>
        <time>2022-11-13T10:10:51.000Z</time>
      </trkpt>
      <trkpt lat="43.30808" lon="6.13785">
        <ele>484.7</ele>
        <time>2022-11-13T10:10:56.000Z</time>
      </trkpt>
      <trkpt lat="43.30814" lon="6.13773">
        <ele>485.3</ele>
        <time>2022-11-13T10:11:09.000Z</time>
      </trkpt>
      <trkpt lat="43.3082" lon="6.13764">
        <ele>485.5</ele>
        <time>2022-11-13T10:11:19.000Z</time>
      </trkpt>
      <trkpt lat="43.30819" lon="6.13751">
        <ele>486</ele>
        <time>2022-11-13T10:11:29.000Z</time>
      </trkpt>
      <trkpt lat="43.30816" lon="6.1374">
        <ele>486.5</ele>
        <time>2022-11-13T10:11:40.000Z</time>
      </trkpt>
      <trkpt lat="43.30816" lon="6.1374">
        <ele>486.5</ele>
        <time>2022-11-13T10:11:42.000Z</time>
      </trkpt>
      <trkpt lat="43.30819" lon="6.1373">
        <ele>486.3</ele>
        <time>2022-11-13T10:11:57.000Z</time>
      </trkpt>
      <trkpt lat="43.30819" lon="6.13729">
        <ele>486.3</ele>
        <time>2022-11-13T10:11:58.000Z</time>
      </trkpt>
      <trkpt lat="43.30822" lon="6.13717">
        <ele>485.7</ele>
        <time>2022-11-13T10:12:10.000Z</time>
      </trkpt>
      <trkpt lat="43.30824" lon="6.13711">
        <ele>485.8</ele>
        <time>2022-11-13T10:12:18.000Z</time>
      </trkpt>
      <trkpt lat="43.30824" lon="6.1371">
        <ele>485.8</ele>
        <time>2022-11-13T10:12:19.000Z</time>
      </trkpt>
      <trkpt lat="43.30831" lon="6.13702">
        <ele>484.7</ele>
        <time>2022-11-13T10:12:29.000Z</time>
      </trkpt>
      <trkpt lat="43.30835" lon="6.13699">
        <ele>484.5</ele>
        <time>2022-11-13T10:12:40.000Z</time>
      </trkpt>
      <trkpt lat="43.30835" lon="6.13699">
        <ele>484.3</ele>
        <time>2022-11-13T10:12:46.000Z</time>
      </trkpt>
      <trkpt lat="43.30835" lon="6.13698">
        <ele>484.1</ele>
        <time>2022-11-13T10:12:50.000Z</time>
      </trkpt>
      <trkpt lat="43.30835" lon="6.13698">
        <ele>483.7</ele>
        <time>2022-11-13T10:12:58.000Z</time>
      </trkpt>
      <trkpt lat="43.30835" lon="6.13698">
        <ele>483.8</ele>
        <time>2022-11-13T10:12:59.000Z</time>
      </trkpt>
      <trkpt lat="43.30835" lon="6.13698">
        <ele>483.8</ele>
        <time>2022-11-13T10:13:01.000Z</time>
      </trkpt>
      <trkpt lat="43.30841" lon="6.13688">
        <ele>484.2</ele>
        <time>2022-11-13T10:13:17.000Z</time>
      </trkpt>
      <trkpt lat="43.30846" lon="6.13677">
        <ele>483.5</ele>
        <time>2022-11-13T10:13:28.000Z</time>
      </trkpt>
      <trkpt lat="43.3085" lon="6.13665">
        <ele>482.4</ele>
        <time>2022-11-13T10:13:43.000Z</time>
      </trkpt>
      <trkpt lat="43.30856" lon="6.13655">
        <ele>481.6</ele>
        <time>2022-11-13T10:13:54.000Z</time>
      </trkpt>
      <trkpt lat="43.30853" lon="6.13642">
        <ele>480.4</ele>
        <time>2022-11-13T10:14:06.000Z</time>
      </trkpt>
      <trkpt lat="43.30856" lon="6.13631">
        <ele>479.1</ele>
        <time>2022-11-13T10:14:20.000Z</time>
      </trkpt>
      <trkpt lat="43.30858" lon="6.13618">
        <ele>478</ele>
        <time>2022-11-13T10:14:35.000Z</time>
      </trkpt>
      <trkpt lat="43.3086" lon="6.13606">
        <ele>476.5</ele>
        <time>2022-11-13T10:14:48.000Z</time>
      </trkpt>
      <trkpt lat="43.30861" lon="6.13593">
        <ele>475.3</ele>
        <time>2022-11-13T10:14:59.000Z</time>
      </trkpt>
      <trkpt lat="43.30859" lon="6.1358">
        <ele>473.6</ele>
        <time>2022-11-13T10:15:14.000Z</time>
      </trkpt>
      <trkpt lat="43.30863" lon="6.13569">
        <ele>472.1</ele>
        <time>2022-11-13T10:15:26.000Z</time>
      </trkpt>
      <trkpt lat="43.30865" lon="6.13556">
        <ele>471.1</ele>
        <time>2022-11-13T10:15:38.000Z</time>
      </trkpt>
      <trkpt lat="43.30869" lon="6.13545">
        <ele>470</ele>
        <time>2022-11-13T10:15:50.000Z</time>
      </trkpt>
      <trkpt lat="43.30871" lon="6.13532">
        <ele>469.3</ele>
        <time>2022-11-13T10:16:01.000Z</time>
      </trkpt>
      <trkpt lat="43.30874" lon="6.13519">
        <ele>468.2</ele>
        <time>2022-11-13T10:16:12.000Z</time>
      </trkpt>
      <trkpt lat="43.30874" lon="6.1352">
        <ele>468.1</ele>
        <time>2022-11-13T10:16:13.000Z</time>
      </trkpt>
      <trkpt lat="43.30873" lon="6.13519">
        <ele>468.1</ele>
        <time>2022-11-13T10:16:15.000Z</time>
      </trkpt>
      <trkpt lat="43.30874" lon="6.13506">
        <ele>466.9</ele>
        <time>2022-11-13T10:16:27.000Z</time>
      </trkpt>
      <trkpt lat="43.30877" lon="6.13494">
        <ele>466.1</ele>
        <time>2022-11-13T10:16:39.000Z</time>
      </trkpt>
      <trkpt lat="43.30881" lon="6.13483">
        <ele>465.5</ele>
        <time>2022-11-13T10:16:49.000Z</time>
      </trkpt>
      <trkpt lat="43.30882" lon="6.1347">
        <ele>464.7</ele>
        <time>2022-11-13T10:17:01.000Z</time>
      </trkpt>
      <trkpt lat="43.30888" lon="6.13459">
        <ele>464.3</ele>
        <time>2022-11-13T10:17:11.000Z</time>
      </trkpt>
      <trkpt lat="43.30893" lon="6.13448">
        <ele>463.9</ele>
        <time>2022-11-13T10:17:20.000Z</time>
      </trkpt>
      <trkpt lat="43.30895" lon="6.13435">
        <ele>463.3</ele>
        <time>2022-11-13T10:17:30.000Z</time>
      </trkpt>
      <trkpt lat="43.30899" lon="6.13424">
        <ele>462.8</ele>
        <time>2022-11-13T10:17:41.000Z</time>
      </trkpt>
      <trkpt lat="43.30901" lon="6.13412">
        <ele>462.5</ele>
        <time>2022-11-13T10:17:52.000Z</time>
      </trkpt>
      <trkpt lat="43.30899" lon="6.13399">
        <ele>462.4</ele>
        <time>2022-11-13T10:18:01.000Z</time>
      </trkpt>
      <trkpt lat="43.30896" lon="6.13386">
        <ele>462.1</ele>
        <time>2022-11-13T10:18:10.000Z</time>
      </trkpt>
      <trkpt lat="43.30895" lon="6.13374">
        <ele>462</ele>
        <time>2022-11-13T10:18:19.000Z</time>
      </trkpt>
      <trkpt lat="43.30897" lon="6.13361">
        <ele>461.5</ele>
        <time>2022-11-13T10:18:30.000Z</time>
      </trkpt>
      <trkpt lat="43.30898" lon="6.13348">
        <ele>461.4</ele>
        <time>2022-11-13T10:18:40.000Z</time>
      </trkpt>
      <trkpt lat="43.30899" lon="6.13335">
        <ele>461.7</ele>
        <time>2022-11-13T10:18:50.000Z</time>
      </trkpt>
      <trkpt lat="43.309" lon="6.13322">
        <ele>462</ele>
        <time>2022-11-13T10:19:01.000Z</time>
      </trkpt>
      <trkpt lat="43.30905" lon="6.1331">
        <ele>461.9</ele>
        <time>2022-11-13T10:19:11.000Z</time>
      </trkpt>
      <trkpt lat="43.30909" lon="6.13299">
        <ele>461.8</ele>
        <time>2022-11-13T10:19:23.000Z</time>
      </trkpt>
      <trkpt lat="43.30918" lon="6.13294">
        <ele>461.5</ele>
        <time>2022-11-13T10:19:36.000Z</time>
      </trkpt>
      <trkpt lat="43.30925" lon="6.13287">
        <ele>461</ele>
        <time>2022-11-13T10:19:46.000Z</time>
      </trkpt>
      <trkpt lat="43.30928" lon="6.13274">
        <ele>461.1</ele>
        <time>2022-11-13T10:19:55.000Z</time>
      </trkpt>
      <trkpt lat="43.30935" lon="6.13266">
        <ele>461.3</ele>
        <time>2022-11-13T10:20:03.000Z</time>
      </trkpt>
      <trkpt lat="43.30942" lon="6.13258">
        <ele>460.9</ele>
        <time>2022-11-13T10:20:13.000Z</time>
      </trkpt>
      <trkpt lat="43.30946" lon="6.13246">
        <ele>460.8</ele>
        <time>2022-11-13T10:20:22.000Z</time>
      </trkpt>
      <trkpt lat="43.30953" lon="6.13238">
        <ele>460.5</ele>
        <time>2022-11-13T10:20:31.000Z</time>
      </trkpt>
      <trkpt lat="43.3096" lon="6.13229">
        <ele>460.2</ele>
        <time>2022-11-13T10:20:41.000Z</time>
      </trkpt>
      <trkpt lat="43.30968" lon="6.13222">
        <ele>459.7</ele>
        <time>2022-11-13T10:20:52.000Z</time>
      </trkpt>
      <trkpt lat="43.3097" lon="6.1321">
        <ele>459.3</ele>
        <time>2022-11-13T10:21:01.000Z</time>
      </trkpt>
      <trkpt lat="43.30969" lon="6.13207">
        <ele>459.3</ele>
        <time>2022-11-13T10:21:05.000Z</time>
      </trkpt>
      <trkpt lat="43.30969" lon="6.13207">
        <ele>459.2</ele>
        <time>2022-11-13T10:21:16.000Z</time>
      </trkpt>
      <trkpt lat="43.30969" lon="6.13207">
        <ele>459.3</ele>
        <time>2022-11-13T10:21:18.000Z</time>
      </trkpt>
      <trkpt lat="43.30969" lon="6.13207">
        <ele>459.2</ele>
        <time>2022-11-13T10:21:42.000Z</time>
      </trkpt>
      <trkpt lat="43.30969" lon="6.13207">
        <ele>459.2</ele>
        <time>2022-11-13T10:21:43.000Z</time>
      </trkpt>
      <trkpt lat="43.30969" lon="6.13207">
        <ele>459.1</ele>
        <time>2022-11-13T10:21:45.000Z</time>
      </trkpt>
      <trkpt lat="43.30968" lon="6.13206">
        <ele>459</ele>
        <time>2022-11-13T10:21:49.000Z</time>
      </trkpt>
      <trkpt lat="43.30968" lon="6.13206">
        <ele>458.9</ele>
        <time>2022-11-13T10:21:51.000Z</time>
      </trkpt>
      <trkpt lat="43.30968" lon="6.13206">
        <ele>458.9</ele>
        <time>2022-11-13T10:21:52.000Z</time>
      </trkpt>
      <trkpt lat="43.30968" lon="6.13206">
        <ele>458.9</ele>
        <time>2022-11-13T10:22:00.000Z</time>
      </trkpt>
      <trkpt lat="43.30968" lon="6.13206">
        <ele>458.9</ele>
        <time>2022-11-13T10:22:01.000Z</time>
      </trkpt>
      <trkpt lat="43.30968" lon="6.13206">
        <ele>459</ele>
        <time>2022-11-13T10:22:02.000Z</time>
      </trkpt>
      <trkpt lat="43.30968" lon="6.13205">
        <ele>459.1</ele>
        <time>2022-11-13T10:22:04.000Z</time>
      </trkpt>
      <trkpt lat="43.30967" lon="6.13205">
        <ele>459.2</ele>
        <time>2022-11-13T10:22:17.000Z</time>
      </trkpt>
      <trkpt lat="43.30967" lon="6.13205">
        <ele>459.2</ele>
        <time>2022-11-13T10:22:20.000Z</time>
      </trkpt>
      <trkpt lat="43.30967" lon="6.13205">
        <ele>459.5</ele>
        <time>2022-11-13T10:22:34.000Z</time>
      </trkpt>
      <trkpt lat="43.30967" lon="6.13205">
        <ele>459.3</ele>
        <time>2022-11-13T10:22:35.000Z</time>
      </trkpt>
      <trkpt lat="43.30967" lon="6.13204">
        <ele>459.4</ele>
        <time>2022-11-13T10:22:39.000Z</time>
      </trkpt>
      <trkpt lat="43.30967" lon="6.13204">
        <ele>459.4</ele>
        <time>2022-11-13T10:22:41.000Z</time>
      </trkpt>
      <trkpt lat="43.30966" lon="6.13204">
        <ele>459.6</ele>
        <time>2022-11-13T10:22:56.000Z</time>
      </trkpt>
      <trkpt lat="43.30966" lon="6.13204">
        <ele>459.7</ele>
        <time>2022-11-13T10:22:57.000Z</time>
      </trkpt>
      <trkpt lat="43.30966" lon="6.13203">
        <ele>459.9</ele>
        <time>2022-11-13T10:23:01.000Z</time>
      </trkpt>
      <trkpt lat="43.30966" lon="6.13203">
        <ele>459.8</ele>
        <time>2022-11-13T10:23:03.000Z</time>
      </trkpt>
      <trkpt lat="43.30966" lon="6.13202">
        <ele>460.3</ele>
        <time>2022-11-13T10:23:16.000Z</time>
      </trkpt>
      <trkpt lat="43.30967" lon="6.132">
        <ele>460.3</ele>
        <time>2022-11-13T10:23:22.000Z</time>
      </trkpt>
      <trkpt lat="43.30967" lon="6.132">
        <ele>459.9</ele>
        <time>2022-11-13T10:23:24.000Z</time>
      </trkpt>
      <trkpt lat="43.30967" lon="6.13197">
        <ele>460.2</ele>
        <time>2022-11-13T10:23:30.000Z</time>
      </trkpt>
      <trkpt lat="43.30967" lon="6.13197">
        <ele>460.1</ele>
        <time>2022-11-13T10:23:32.000Z</time>
      </trkpt>
      <trkpt lat="43.30967" lon="6.13197">
        <ele>459.9</ele>
        <time>2022-11-13T10:23:33.000Z</time>
      </trkpt>
      <trkpt lat="43.30968" lon="6.13197">
        <ele>460</ele>
        <time>2022-11-13T10:23:35.000Z</time>
      </trkpt>
      <trkpt lat="43.30968" lon="6.13196">
        <ele>460.2</ele>
        <time>2022-11-13T10:23:38.000Z</time>
      </trkpt>
      <trkpt lat="43.30968" lon="6.13196">
        <ele>460.2</ele>
        <time>2022-11-13T10:23:39.000Z</time>
      </trkpt>
      <trkpt lat="43.30968" lon="6.13196">
        <ele>460.2</ele>
        <time>2022-11-13T10:23:40.000Z</time>
      </trkpt>
      <trkpt lat="43.30968" lon="6.13196">
        <ele>459.9</ele>
        <time>2022-11-13T10:23:43.000Z</time>
      </trkpt>
      <trkpt lat="43.30964" lon="6.13184">
        <ele>460.1</ele>
        <time>2022-11-13T10:23:55.000Z</time>
      </trkpt>
      <trkpt lat="43.30962" lon="6.13172">
        <ele>460.3</ele>
        <time>2022-11-13T10:24:06.000Z</time>
      </trkpt>
      <trkpt lat="43.30961" lon="6.13159">
        <ele>459.8</ele>
        <time>2022-11-13T10:24:17.000Z</time>
      </trkpt>
      <trkpt lat="43.30962" lon="6.13146">
        <ele>459.5</ele>
        <time>2022-11-13T10:24:28.000Z</time>
      </trkpt>
      <trkpt lat="43.30966" lon="6.13134">
        <ele>459.4</ele>
        <time>2022-11-13T10:24:39.000Z</time>
      </trkpt>
      <trkpt lat="43.30966" lon="6.13122">
        <ele>459.3</ele>
        <time>2022-11-13T10:24:48.000Z</time>
      </trkpt>
      <trkpt lat="43.30962" lon="6.13109">
        <ele>459.5</ele>
        <time>2022-11-13T10:24:59.000Z</time>
      </trkpt>
      <trkpt lat="43.3096" lon="6.13096">
        <ele>459.6</ele>
        <time>2022-11-13T10:25:07.000Z</time>
      </trkpt>
      <trkpt lat="43.3096" lon="6.13084">
        <ele>459.6</ele>
        <time>2022-11-13T10:25:19.000Z</time>
      </trkpt>
      <trkpt lat="43.3096" lon="6.13082">
        <ele>459.5</ele>
        <time>2022-11-13T10:25:22.000Z</time>
      </trkpt>
      <trkpt lat="43.3096" lon="6.13082">
        <ele>459.6</ele>
        <time>2022-11-13T10:25:29.000Z</time>
      </trkpt>
      <trkpt lat="43.30961" lon="6.13069">
        <ele>459.8</ele>
        <time>2022-11-13T10:25:40.000Z</time>
      </trkpt>
      <trkpt lat="43.30962" lon="6.13056">
        <ele>460.9</ele>
        <time>2022-11-13T10:25:51.000Z</time>
      </trkpt>
      <trkpt lat="43.30956" lon="6.13045">
        <ele>461.4</ele>
        <time>2022-11-13T10:26:02.000Z</time>
      </trkpt>
      <trkpt lat="43.30953" lon="6.13033">
        <ele>462.6</ele>
        <time>2022-11-13T10:26:15.000Z</time>
      </trkpt>
      <trkpt lat="43.30949" lon="6.13022">
        <ele>463.7</ele>
        <time>2022-11-13T10:26:26.000Z</time>
      </trkpt>
      <trkpt lat="43.30946" lon="6.13009">
        <ele>464.6</ele>
        <time>2022-11-13T10:26:38.000Z</time>
      </trkpt>
      <trkpt lat="43.30945" lon="6.12996">
        <ele>465.7</ele>
        <time>2022-11-13T10:26:50.000Z</time>
      </trkpt>
      <trkpt lat="43.3094" lon="6.12985">
        <ele>467.4</ele>
        <time>2022-11-13T10:27:04.000Z</time>
      </trkpt>
      <trkpt lat="43.30931" lon="6.1298">
        <ele>468.1</ele>
        <time>2022-11-13T10:27:14.000Z</time>
      </trkpt>
      <trkpt lat="43.30928" lon="6.12968">
        <ele>469.3</ele>
        <time>2022-11-13T10:27:29.000Z</time>
      </trkpt>
      <trkpt lat="43.30919" lon="6.12963">
        <ele>470</ele>
        <time>2022-11-13T10:27:40.000Z</time>
      </trkpt>
      <trkpt lat="43.30912" lon="6.12955">
        <ele>470.8</ele>
        <time>2022-11-13T10:27:52.000Z</time>
      </trkpt>
      <trkpt lat="43.30909" lon="6.12945">
        <ele>472</ele>
        <time>2022-11-13T10:28:08.000Z</time>
      </trkpt>
      <trkpt lat="43.30908" lon="6.12944">
        <ele>472</ele>
        <time>2022-11-13T10:28:09.000Z</time>
      </trkpt>
      <trkpt lat="43.30911" lon="6.12932">
        <ele>473.3</ele>
        <time>2022-11-13T10:28:23.000Z</time>
      </trkpt>
      <trkpt lat="43.30911" lon="6.12919">
        <ele>475.1</ele>
        <time>2022-11-13T10:28:40.000Z</time>
      </trkpt>
      <trkpt lat="43.30907" lon="6.12907">
        <ele>475.8</ele>
        <time>2022-11-13T10:28:52.000Z</time>
      </trkpt>
      <trkpt lat="43.30904" lon="6.12899">
        <ele>476.3</ele>
        <time>2022-11-13T10:29:03.000Z</time>
      </trkpt>
      <trkpt lat="43.30904" lon="6.12898">
        <ele>476.3</ele>
        <time>2022-11-13T10:29:15.000Z</time>
      </trkpt>
      <trkpt lat="43.30904" lon="6.12895">
        <ele>476.5</ele>
        <time>2022-11-13T10:29:20.000Z</time>
      </trkpt>
      <trkpt lat="43.30904" lon="6.12895">
        <ele>476.4</ele>
        <time>2022-11-13T10:29:21.000Z</time>
      </trkpt>
      <trkpt lat="43.30904" lon="6.12895">
        <ele>476.5</ele>
        <time>2022-11-13T10:29:22.000Z</time>
      </trkpt>
      <trkpt lat="43.30904" lon="6.12895">
        <ele>476.5</ele>
        <time>2022-11-13T10:29:27.000Z</time>
      </trkpt>
      <trkpt lat="43.30905" lon="6.12893">
        <ele>476.4</ele>
        <time>2022-11-13T10:29:31.000Z</time>
      </trkpt>
      <trkpt lat="43.30904" lon="6.12893">
        <ele>476.6</ele>
        <time>2022-11-13T10:29:46.000Z</time>
      </trkpt>
      <trkpt lat="43.30904" lon="6.12893">
        <ele>476.6</ele>
        <time>2022-11-13T10:29:47.000Z</time>
      </trkpt>
      <trkpt lat="43.30904" lon="6.12893">
        <ele>476.5</ele>
        <time>2022-11-13T10:29:49.000Z</time>
      </trkpt>
      <trkpt lat="43.30904" lon="6.12892">
        <ele>476.5</ele>
        <time>2022-11-13T10:29:51.000Z</time>
      </trkpt>
      <trkpt lat="43.30904" lon="6.12892">
        <ele>476.4</ele>
        <time>2022-11-13T10:29:52.000Z</time>
      </trkpt>
      <trkpt lat="43.30904" lon="6.12892">
        <ele>476.5</ele>
        <time>2022-11-13T10:29:53.000Z</time>
      </trkpt>
      <trkpt lat="43.30904" lon="6.12892">
        <ele>476.6</ele>
        <time>2022-11-13T10:29:54.000Z</time>
      </trkpt>
      <trkpt lat="43.30903" lon="6.12885">
        <ele>477.5</ele>
        <time>2022-11-13T10:30:04.000Z</time>
      </trkpt>
      <trkpt lat="43.30903" lon="6.12885">
        <ele>477.6</ele>
        <time>2022-11-13T10:30:06.000Z</time>
      </trkpt>
      <trkpt lat="43.30904" lon="6.12872">
        <ele>478.5</ele>
        <time>2022-11-13T10:30:19.000Z</time>
      </trkpt>
      <trkpt lat="43.30904" lon="6.12859">
        <ele>478.3</ele>
        <time>2022-11-13T10:30:34.000Z</time>
      </trkpt>
      <trkpt lat="43.30908" lon="6.12847">
        <ele>479</ele>
        <time>2022-11-13T10:30:47.000Z</time>
      </trkpt>
      <trkpt lat="43.3091" lon="6.12835">
        <ele>478.4</ele>
        <time>2022-11-13T10:30:58.000Z</time>
      </trkpt>
      <trkpt lat="43.30904" lon="6.12825">
        <ele>477.9</ele>
        <time>2022-11-13T10:31:11.000Z</time>
      </trkpt>
      <trkpt lat="43.309" lon="6.12813">
        <ele>477</ele>
        <time>2022-11-13T10:31:27.000Z</time>
      </trkpt>
      <trkpt lat="43.30896" lon="6.12801">
        <ele>476.1</ele>
        <time>2022-11-13T10:31:37.000Z</time>
      </trkpt>
      <trkpt lat="43.30896" lon="6.128">
        <ele>475.9</ele>
        <time>2022-11-13T10:31:40.000Z</time>
      </trkpt>
      <trkpt lat="43.30896" lon="6.128">
        <ele>475.9</ele>
        <time>2022-11-13T10:31:41.000Z</time>
      </trkpt>
      <trkpt lat="43.30899" lon="6.12788">
        <ele>475.4</ele>
        <time>2022-11-13T10:31:54.000Z</time>
      </trkpt>
      <trkpt lat="43.30903" lon="6.12776">
        <ele>474.4</ele>
        <time>2022-11-13T10:32:11.000Z</time>
      </trkpt>
      <trkpt lat="43.30903" lon="6.12776">
        <ele>474.4</ele>
        <time>2022-11-13T10:32:13.000Z</time>
      </trkpt>
      <trkpt lat="43.30903" lon="6.12776">
        <ele>474.4</ele>
        <time>2022-11-13T10:32:14.000Z</time>
      </trkpt>
      <trkpt lat="43.30903" lon="6.12773">
        <ele>473.6</ele>
        <time>2022-11-13T10:32:21.000Z</time>
      </trkpt>
      <trkpt lat="43.30903" lon="6.12773">
        <ele>473.8</ele>
        <time>2022-11-13T10:32:22.000Z</time>
      </trkpt>
      <trkpt lat="43.30908" lon="6.12762">
        <ele>473.3</ele>
        <time>2022-11-13T10:32:38.000Z</time>
      </trkpt>
      <trkpt lat="43.30913" lon="6.12751">
        <ele>473.3</ele>
        <time>2022-11-13T10:32:52.000Z</time>
      </trkpt>
      <trkpt lat="43.30916" lon="6.12739">
        <ele>471.8</ele>
        <time>2022-11-13T10:33:07.000Z</time>
      </trkpt>
      <trkpt lat="43.30919" lon="6.12726">
        <ele>470.8</ele>
        <time>2022-11-13T10:33:17.000Z</time>
      </trkpt>
      <trkpt lat="43.3092" lon="6.12718">
        <ele>469.8</ele>
        <time>2022-11-13T10:33:29.000Z</time>
      </trkpt>
      <trkpt lat="43.3092" lon="6.12718">
        <ele>469.7</ele>
        <time>2022-11-13T10:33:32.000Z</time>
      </trkpt>
      <trkpt lat="43.30919" lon="6.12705">
        <ele>468.6</ele>
        <time>2022-11-13T10:33:43.000Z</time>
      </trkpt>
      <trkpt lat="43.3092" lon="6.12693">
        <ele>468</ele>
        <time>2022-11-13T10:33:54.000Z</time>
      </trkpt>
      <trkpt lat="43.30919" lon="6.1268">
        <ele>466.9</ele>
        <time>2022-11-13T10:34:06.000Z</time>
      </trkpt>
      <trkpt lat="43.30919" lon="6.12666">
        <ele>465.7</ele>
        <time>2022-11-13T10:34:18.000Z</time>
      </trkpt>
      <trkpt lat="43.30916" lon="6.12653">
        <ele>464.9</ele>
        <time>2022-11-13T10:34:30.000Z</time>
      </trkpt>
      <trkpt lat="43.30916" lon="6.1264">
        <ele>463.9</ele>
        <time>2022-11-13T10:34:41.000Z</time>
      </trkpt>
      <trkpt lat="43.30915" lon="6.12627">
        <ele>462.9</ele>
        <time>2022-11-13T10:34:54.000Z</time>
      </trkpt>
      <trkpt lat="43.30916" lon="6.12614">
        <ele>462</ele>
        <time>2022-11-13T10:35:06.000Z</time>
      </trkpt>
      <trkpt lat="43.30915" lon="6.12602">
        <ele>461.1</ele>
        <time>2022-11-13T10:35:17.000Z</time>
      </trkpt>
      <trkpt lat="43.30912" lon="6.12589">
        <ele>460.8</ele>
        <time>2022-11-13T10:35:30.000Z</time>
      </trkpt>
      <trkpt lat="43.30911" lon="6.12584">
        <ele>460.8</ele>
        <time>2022-11-13T10:35:37.000Z</time>
      </trkpt>
      <trkpt lat="43.30911" lon="6.12584">
        <ele>460.6</ele>
        <time>2022-11-13T10:35:41.000Z</time>
      </trkpt>
      <trkpt lat="43.30907" lon="6.12579">
        <ele>460.5</ele>
        <time>2022-11-13T10:35:51.000Z</time>
      </trkpt>
      <trkpt lat="43.30906" lon="6.12579">
        <ele>460.6</ele>
        <time>2022-11-13T10:35:52.000Z</time>
      </trkpt>
      <trkpt lat="43.30906" lon="6.12579">
        <ele>460.7</ele>
        <time>2022-11-13T10:35:53.000Z</time>
      </trkpt>
      <trkpt lat="43.30906" lon="6.12579">
        <ele>460.4</ele>
        <time>2022-11-13T10:35:56.000Z</time>
      </trkpt>
      <trkpt lat="43.30904" lon="6.12576">
        <ele>460.3</ele>
        <time>2022-11-13T10:36:10.000Z</time>
      </trkpt>
      <trkpt lat="43.30904" lon="6.12576">
        <ele>460.3</ele>
        <time>2022-11-13T10:36:22.000Z</time>
      </trkpt>
      <trkpt lat="43.30902" lon="6.12573">
        <ele>460.3</ele>
        <time>2022-11-13T10:36:30.000Z</time>
      </trkpt>
      <trkpt lat="43.30902" lon="6.12573">
        <ele>460.4</ele>
        <time>2022-11-13T10:36:48.000Z</time>
      </trkpt>
      <trkpt lat="43.30902" lon="6.12573">
        <ele>460.4</ele>
        <time>2022-11-13T10:36:49.000Z</time>
      </trkpt>
      <trkpt lat="43.30902" lon="6.12572">
        <ele>460.7</ele>
        <time>2022-11-13T10:36:59.000Z</time>
      </trkpt>
      <trkpt lat="43.30902" lon="6.12571">
        <ele>460.6</ele>
        <time>2022-11-13T10:37:05.000Z</time>
      </trkpt>
      <trkpt lat="43.30901" lon="6.12571">
        <ele>460.5</ele>
        <time>2022-11-13T10:37:06.000Z</time>
      </trkpt>
      <trkpt lat="43.30898" lon="6.1256">
        <ele>460.4</ele>
        <time>2022-11-13T10:37:18.000Z</time>
      </trkpt>
      <trkpt lat="43.30895" lon="6.12547">
        <ele>460.5</ele>
        <time>2022-11-13T10:37:30.000Z</time>
      </trkpt>
      <trkpt lat="43.30893" lon="6.12534">
        <ele>460.7</ele>
        <time>2022-11-13T10:37:40.000Z</time>
      </trkpt>
      <trkpt lat="43.30894" lon="6.12521">
        <ele>461.4</ele>
        <time>2022-11-13T10:37:52.000Z</time>
      </trkpt>
      <trkpt lat="43.30892" lon="6.12508">
        <ele>461.9</ele>
        <time>2022-11-13T10:38:02.000Z</time>
      </trkpt>
      <trkpt lat="43.30885" lon="6.12499">
        <ele>463</ele>
        <time>2022-11-13T10:38:14.000Z</time>
      </trkpt>
      <trkpt lat="43.30881" lon="6.12487">
        <ele>463.6</ele>
        <time>2022-11-13T10:38:24.000Z</time>
      </trkpt>
      <trkpt lat="43.30874" lon="6.12479">
        <ele>464.1</ele>
        <time>2022-11-13T10:38:31.000Z</time>
      </trkpt>
      <trkpt lat="43.30867" lon="6.12471">
        <ele>464.8</ele>
        <time>2022-11-13T10:38:42.000Z</time>
      </trkpt>
      <trkpt lat="43.3086" lon="6.12462">
        <ele>466.7</ele>
        <time>2022-11-13T10:38:53.000Z</time>
      </trkpt>
      <trkpt lat="43.30858" lon="6.12449">
        <ele>467.8</ele>
        <time>2022-11-13T10:39:07.000Z</time>
      </trkpt>
      <trkpt lat="43.30855" lon="6.12437">
        <ele>469</ele>
        <time>2022-11-13T10:39:18.000Z</time>
      </trkpt>
      <trkpt lat="43.30852" lon="6.12425">
        <ele>470.5</ele>
        <time>2022-11-13T10:39:31.000Z</time>
      </trkpt>
      <trkpt lat="43.30845" lon="6.12415">
        <ele>471.8</ele>
        <time>2022-11-13T10:39:46.000Z</time>
      </trkpt>
      <trkpt lat="43.3084" lon="6.12404">
        <ele>473.3</ele>
        <time>2022-11-13T10:39:59.000Z</time>
      </trkpt>
      <trkpt lat="43.30841" lon="6.12392">
        <ele>474.6</ele>
        <time>2022-11-13T10:40:16.000Z</time>
      </trkpt>
      <trkpt lat="43.30838" lon="6.1238">
        <ele>475.8</ele>
        <time>2022-11-13T10:40:28.000Z</time>
      </trkpt>
      <trkpt lat="43.30831" lon="6.12372">
        <ele>477.2</ele>
        <time>2022-11-13T10:40:42.000Z</time>
      </trkpt>
      <trkpt lat="43.30825" lon="6.12363">
        <ele>478.4</ele>
        <time>2022-11-13T10:40:55.000Z</time>
      </trkpt>
      <trkpt lat="43.30825" lon="6.1235">
        <ele>479.8</ele>
        <time>2022-11-13T10:41:11.000Z</time>
      </trkpt>
      <trkpt lat="43.30822" lon="6.12338">
        <ele>480.9</ele>
        <time>2022-11-13T10:41:25.000Z</time>
      </trkpt>
      <trkpt lat="43.30824" lon="6.12325">
        <ele>481.5</ele>
        <time>2022-11-13T10:41:36.000Z</time>
      </trkpt>
      <trkpt lat="43.30829" lon="6.12314">
        <ele>481.5</ele>
        <time>2022-11-13T10:41:47.000Z</time>
      </trkpt>
      <trkpt lat="43.30833" lon="6.12303">
        <ele>480.9</ele>
        <time>2022-11-13T10:41:57.000Z</time>
      </trkpt>
      <trkpt lat="43.30831" lon="6.1229">
        <ele>480.8</ele>
        <time>2022-11-13T10:42:07.000Z</time>
      </trkpt>
      <trkpt lat="43.30832" lon="6.12278">
        <ele>480.8</ele>
        <time>2022-11-13T10:42:19.000Z</time>
      </trkpt>
      <trkpt lat="43.30832" lon="6.12266">
        <ele>480.5</ele>
        <time>2022-11-13T10:42:33.000Z</time>
      </trkpt>
      <trkpt lat="43.30832" lon="6.12265">
        <ele>480.3</ele>
        <time>2022-11-13T10:42:35.000Z</time>
      </trkpt>
      <trkpt lat="43.30835" lon="6.12253">
        <ele>478.9</ele>
        <time>2022-11-13T10:42:47.000Z</time>
      </trkpt>
      <trkpt lat="43.30837" lon="6.12241">
        <ele>477.9</ele>
        <time>2022-11-13T10:42:59.000Z</time>
      </trkpt>
      <trkpt lat="43.30839" lon="6.12236">
        <ele>477.5</ele>
        <time>2022-11-13T10:43:06.000Z</time>
      </trkpt>
      <trkpt lat="43.3084" lon="6.12236">
        <ele>477.4</ele>
        <time>2022-11-13T10:43:17.000Z</time>
      </trkpt>
      <trkpt lat="43.30845" lon="6.12225">
        <ele>475.9</ele>
        <time>2022-11-13T10:43:33.000Z</time>
      </trkpt>
      <trkpt lat="43.30848" lon="6.12213">
        <ele>475</ele>
        <time>2022-11-13T10:43:45.000Z</time>
      </trkpt>
      <trkpt lat="43.30851" lon="6.122">
        <ele>474.5</ele>
        <time>2022-11-13T10:43:54.000Z</time>
      </trkpt>
      <trkpt lat="43.30856" lon="6.12189">
        <ele>474.4</ele>
        <time>2022-11-13T10:44:05.000Z</time>
      </trkpt>
      <trkpt lat="43.30864" lon="6.12181">
        <ele>474.9</ele>
        <time>2022-11-13T10:44:14.000Z</time>
      </trkpt>
      <trkpt lat="43.3087" lon="6.12171">
        <ele>475.3</ele>
        <time>2022-11-13T10:44:24.000Z</time>
      </trkpt>
      <trkpt lat="43.30878" lon="6.12164">
        <ele>475.4</ele>
        <time>2022-11-13T10:44:32.000Z</time>
      </trkpt>
      <trkpt lat="43.30884" lon="6.12153">
        <ele>475.4</ele>
        <time>2022-11-13T10:44:42.000Z</time>
      </trkpt>
      <trkpt lat="43.30888" lon="6.12141">
        <ele>476.1</ele>
        <time>2022-11-13T10:44:51.000Z</time>
      </trkpt>
      <trkpt lat="43.30891" lon="6.12128">
        <ele>478</ele>
        <time>2022-11-13T10:45:03.000Z</time>
      </trkpt>
      <trkpt lat="43.3089" lon="6.12115">
        <ele>479</ele>
        <time>2022-11-13T10:45:15.000Z</time>
      </trkpt>
      <trkpt lat="43.30893" lon="6.12103">
        <ele>479.6</ele>
        <time>2022-11-13T10:45:25.000Z</time>
      </trkpt>
      <trkpt lat="43.30894" lon="6.12099">
        <ele>479.9</ele>
        <time>2022-11-13T10:45:33.000Z</time>
      </trkpt>
      <trkpt lat="43.30894" lon="6.121">
        <ele>480</ele>
        <time>2022-11-13T10:45:34.000Z</time>
      </trkpt>
      <trkpt lat="43.30894" lon="6.121">
        <ele>479.9</ele>
        <time>2022-11-13T10:45:35.000Z</time>
      </trkpt>
      <trkpt lat="43.30894" lon="6.121">
        <ele>479.9</ele>
        <time>2022-11-13T10:45:36.000Z</time>
      </trkpt>
      <trkpt lat="43.30893" lon="6.121">
        <ele>479.7</ele>
        <time>2022-11-13T10:45:38.000Z</time>
      </trkpt>
      <trkpt lat="43.30893" lon="6.121">
        <ele>479.8</ele>
        <time>2022-11-13T10:45:40.000Z</time>
      </trkpt>
      <trkpt lat="43.30892" lon="6.12101">
        <ele>479.5</ele>
        <time>2022-11-13T10:45:44.000Z</time>
      </trkpt>
      <trkpt lat="43.30892" lon="6.12101">
        <ele>480.1</ele>
        <time>2022-11-13T10:46:22.000Z</time>
      </trkpt>
      <trkpt lat="43.30892" lon="6.12101">
        <ele>480.1</ele>
        <time>2022-11-13T10:46:24.000Z</time>
      </trkpt>
      <trkpt lat="43.30893" lon="6.12101">
        <ele>480.2</ele>
        <time>2022-11-13T10:46:26.000Z</time>
      </trkpt>
      <trkpt lat="43.30894" lon="6.121">
        <ele>480.2</ele>
        <time>2022-11-13T10:46:30.000Z</time>
      </trkpt>
      <trkpt lat="43.30895" lon="6.121">
        <ele>480.2</ele>
        <time>2022-11-13T10:46:38.000Z</time>
      </trkpt>
      <trkpt lat="43.30894" lon="6.12101">
        <ele>480.3</ele>
        <time>2022-11-13T10:46:44.000Z</time>
      </trkpt>
      <trkpt lat="43.30894" lon="6.12101">
        <ele>480.4</ele>
        <time>2022-11-13T10:46:46.000Z</time>
      </trkpt>
      <trkpt lat="43.30894" lon="6.12101">
        <ele>480.1</ele>
        <time>2022-11-13T10:46:48.000Z</time>
      </trkpt>
      <trkpt lat="43.30894" lon="6.121">
        <ele>480</ele>
        <time>2022-11-13T10:47:13.000Z</time>
      </trkpt>
      <trkpt lat="43.30896" lon="6.12088">
        <ele>480.6</ele>
        <time>2022-11-13T10:47:25.000Z</time>
      </trkpt>
      <trkpt lat="43.30896" lon="6.12076">
        <ele>481.7</ele>
        <time>2022-11-13T10:47:41.000Z</time>
      </trkpt>
      <trkpt lat="43.30897" lon="6.12063">
        <ele>482.6</ele>
        <time>2022-11-13T10:47:58.000Z</time>
      </trkpt>
      <trkpt lat="43.30894" lon="6.1205">
        <ele>484.1</ele>
        <time>2022-11-13T10:48:18.000Z</time>
      </trkpt>
      <trkpt lat="43.30893" lon="6.12038">
        <ele>485.4</ele>
        <time>2022-11-13T10:48:34.000Z</time>
      </trkpt>
      <trkpt lat="43.30895" lon="6.12025">
        <ele>486.7</ele>
        <time>2022-11-13T10:48:47.000Z</time>
      </trkpt>
      <trkpt lat="43.30894" lon="6.12024">
        <ele>486.8</ele>
        <time>2022-11-13T10:48:50.000Z</time>
      </trkpt>
      <trkpt lat="43.30894" lon="6.12024">
        <ele>486.8</ele>
        <time>2022-11-13T10:48:52.000Z</time>
      </trkpt>
      <trkpt lat="43.30894" lon="6.12022">
        <ele>487.6</ele>
        <time>2022-11-13T10:48:57.000Z</time>
      </trkpt>
      <trkpt lat="43.30894" lon="6.12022">
        <ele>487.2</ele>
        <time>2022-11-13T10:49:02.000Z</time>
      </trkpt>
      <trkpt lat="43.30894" lon="6.12021">
        <ele>486.8</ele>
        <time>2022-11-13T10:49:04.000Z</time>
      </trkpt>
      <trkpt lat="43.30894" lon="6.12021">
        <ele>486.8</ele>
        <time>2022-11-13T10:49:05.000Z</time>
      </trkpt>
      <trkpt lat="43.30892" lon="6.12008">
        <ele>488.3</ele>
        <time>2022-11-13T10:49:18.000Z</time>
      </trkpt>
      <trkpt lat="43.30896" lon="6.11997">
        <ele>489.5</ele>
        <time>2022-11-13T10:49:30.000Z</time>
      </trkpt>
      <trkpt lat="43.30897" lon="6.11984">
        <ele>489.9</ele>
        <time>2022-11-13T10:49:42.000Z</time>
      </trkpt>
      <trkpt lat="43.30897" lon="6.11983">
        <ele>490.1</ele>
        <time>2022-11-13T10:49:45.000Z</time>
      </trkpt>
      <trkpt lat="43.30897" lon="6.11982">
        <ele>490.3</ele>
        <time>2022-11-13T10:49:46.000Z</time>
      </trkpt>
      <trkpt lat="43.30896" lon="6.11968">
        <ele>490.6</ele>
        <time>2022-11-13T10:49:55.000Z</time>
      </trkpt>
      <trkpt lat="43.30896" lon="6.11955">
        <ele>491.2</ele>
        <time>2022-11-13T10:50:07.000Z</time>
      </trkpt>
      <trkpt lat="43.30895" lon="6.11942">
        <ele>491.7</ele>
        <time>2022-11-13T10:50:19.000Z</time>
      </trkpt>
      <trkpt lat="43.30895" lon="6.11929">
        <ele>491.4</ele>
        <time>2022-11-13T10:50:30.000Z</time>
      </trkpt>
      <trkpt lat="43.30899" lon="6.11918">
        <ele>491.2</ele>
        <time>2022-11-13T10:50:41.000Z</time>
      </trkpt>
      <trkpt lat="43.30899" lon="6.11905">
        <ele>490.9</ele>
        <time>2022-11-13T10:50:51.000Z</time>
      </trkpt>
      <trkpt lat="43.30897" lon="6.11892">
        <ele>490.8</ele>
        <time>2022-11-13T10:51:01.000Z</time>
      </trkpt>
      <trkpt lat="43.3089" lon="6.11884">
        <ele>491.3</ele>
        <time>2022-11-13T10:51:09.000Z</time>
      </trkpt>
      <trkpt lat="43.30883" lon="6.11875">
        <ele>491.7</ele>
        <time>2022-11-13T10:51:19.000Z</time>
      </trkpt>
      <trkpt lat="43.30877" lon="6.11864">
        <ele>491</ele>
        <time>2022-11-13T10:51:29.000Z</time>
      </trkpt>
      <trkpt lat="43.30874" lon="6.11853">
        <ele>491.8</ele>
        <time>2022-11-13T10:51:43.000Z</time>
      </trkpt>
      <trkpt lat="43.30873" lon="6.11852">
        <ele>492.1</ele>
        <time>2022-11-13T10:51:46.000Z</time>
      </trkpt>
      <trkpt lat="43.30873" lon="6.11851">
        <ele>492.3</ele>
        <time>2022-11-13T10:51:47.000Z</time>
      </trkpt>
      <trkpt lat="43.3087" lon="6.11839">
        <ele>493.5</ele>
        <time>2022-11-13T10:52:01.000Z</time>
      </trkpt>
      <trkpt lat="43.30868" lon="6.11827">
        <ele>494.8</ele>
        <time>2022-11-13T10:52:13.000Z</time>
      </trkpt>
      <trkpt lat="43.30864" lon="6.11815">
        <ele>495.4</ele>
        <time>2022-11-13T10:52:26.000Z</time>
      </trkpt>
      <trkpt lat="43.30855" lon="6.11811">
        <ele>496</ele>
        <time>2022-11-13T10:52:37.000Z</time>
      </trkpt>
      <trkpt lat="43.30846" lon="6.11806">
        <ele>496.1</ele>
        <time>2022-11-13T10:52:49.000Z</time>
      </trkpt>
      <trkpt lat="43.30843" lon="6.11795">
        <ele>495.9</ele>
        <time>2022-11-13T10:53:01.000Z</time>
      </trkpt>
      <trkpt lat="43.30839" lon="6.11783">
        <ele>495.9</ele>
        <time>2022-11-13T10:53:13.000Z</time>
      </trkpt>
      <trkpt lat="43.30829" lon="6.11779">
        <ele>495.4</ele>
        <time>2022-11-13T10:53:26.000Z</time>
      </trkpt>
      <trkpt lat="43.30823" lon="6.1177">
        <ele>495</ele>
        <time>2022-11-13T10:53:38.000Z</time>
      </trkpt>
      <trkpt lat="43.30821" lon="6.11775">
        <ele>494.7</ele>
        <time>2022-11-13T10:53:47.000Z</time>
      </trkpt>
      <trkpt lat="43.3082" lon="6.11775">
        <ele>494.9</ele>
        <time>2022-11-13T10:54:28.000Z</time>
      </trkpt>
      <trkpt lat="43.3082" lon="6.11775">
        <ele>495</ele>
        <time>2022-11-13T10:54:29.000Z</time>
      </trkpt>
      <trkpt lat="43.30821" lon="6.11775">
        <ele>494.7</ele>
        <time>2022-11-13T10:54:37.000Z</time>
      </trkpt>
      <trkpt lat="43.30825" lon="6.11763">
        <ele>495.1</ele>
        <time>2022-11-13T10:54:50.000Z</time>
      </trkpt>
      <trkpt lat="43.30827" lon="6.1176">
        <ele>495.1</ele>
        <time>2022-11-13T10:54:56.000Z</time>
      </trkpt>
      <trkpt lat="43.30827" lon="6.1176">
        <ele>495</ele>
        <time>2022-11-13T10:55:00.000Z</time>
      </trkpt>
      <trkpt lat="43.30827" lon="6.1176">
        <ele>494.9</ele>
        <time>2022-11-13T10:55:01.000Z</time>
      </trkpt>
      <trkpt lat="43.30827" lon="6.1176">
        <ele>495.1</ele>
        <time>2022-11-13T10:55:04.000Z</time>
      </trkpt>
      <trkpt lat="43.30827" lon="6.1176">
        <ele>495.1</ele>
        <time>2022-11-13T10:55:05.000Z</time>
      </trkpt>
      <trkpt lat="43.30826" lon="6.1176">
        <ele>495</ele>
        <time>2022-11-13T10:55:13.000Z</time>
      </trkpt>
      <trkpt lat="43.30826" lon="6.1176">
        <ele>495</ele>
        <time>2022-11-13T10:55:14.000Z</time>
      </trkpt>
      <trkpt lat="43.30826" lon="6.1176">
        <ele>495</ele>
        <time>2022-11-13T10:55:24.000Z</time>
      </trkpt>
      <trkpt lat="43.30826" lon="6.1176">
        <ele>495.2</ele>
        <time>2022-11-13T10:55:25.000Z</time>
      </trkpt>
      <trkpt lat="43.30827" lon="6.1176">
        <ele>495.1</ele>
        <time>2022-11-13T10:55:56.000Z</time>
      </trkpt>
      <trkpt lat="43.30833" lon="6.1175">
        <ele>494.8</ele>
        <time>2022-11-13T10:56:09.000Z</time>
      </trkpt>
      <trkpt lat="43.30837" lon="6.11739">
        <ele>494.7</ele>
        <time>2022-11-13T10:56:19.000Z</time>
      </trkpt>
      <trkpt lat="43.30841" lon="6.11727">
        <ele>494.4</ele>
        <time>2022-11-13T10:56:27.000Z</time>
      </trkpt>
      <trkpt lat="43.30845" lon="6.11716">
        <ele>494.6</ele>
        <time>2022-11-13T10:56:36.000Z</time>
      </trkpt>
      <trkpt lat="43.30848" lon="6.11704">
        <ele>494</ele>
        <time>2022-11-13T10:56:45.000Z</time>
      </trkpt>
      <trkpt lat="43.3085" lon="6.11692">
        <ele>493.4</ele>
        <time>2022-11-13T10:56:53.000Z</time>
      </trkpt>
      <trkpt lat="43.30847" lon="6.11679">
        <ele>493</ele>
        <time>2022-11-13T10:57:04.000Z</time>
      </trkpt>
      <trkpt lat="43.30848" lon="6.11666">
        <ele>492.3</ele>
        <time>2022-11-13T10:57:14.000Z</time>
      </trkpt>
      <trkpt lat="43.3085" lon="6.11654">
        <ele>491.5</ele>
        <time>2022-11-13T10:57:25.000Z</time>
      </trkpt>
      <trkpt lat="43.30852" lon="6.11641">
        <ele>491.2</ele>
        <time>2022-11-13T10:57:35.000Z</time>
      </trkpt>
      <trkpt lat="43.30855" lon="6.11629">
        <ele>490.4</ele>
        <time>2022-11-13T10:57:47.000Z</time>
      </trkpt>
      <trkpt lat="43.30862" lon="6.11619">
        <ele>489.6</ele>
        <time>2022-11-13T10:57:57.000Z</time>
      </trkpt>
      <trkpt lat="43.3087" lon="6.11615">
        <ele>489.5</ele>
        <time>2022-11-13T10:58:07.000Z</time>
      </trkpt>
      <trkpt lat="43.30879" lon="6.11609">
        <ele>488.8</ele>
        <time>2022-11-13T10:58:17.000Z</time>
      </trkpt>
      <trkpt lat="43.30887" lon="6.11602">
        <ele>488.6</ele>
        <time>2022-11-13T10:58:27.000Z</time>
      </trkpt>
      <trkpt lat="43.30895" lon="6.11595">
        <ele>487.7</ele>
        <time>2022-11-13T10:58:38.000Z</time>
      </trkpt>
      <trkpt lat="43.30901" lon="6.11585">
        <ele>487.6</ele>
        <time>2022-11-13T10:58:47.000Z</time>
      </trkpt>
      <trkpt lat="43.3091" lon="6.11578">
        <ele>487.3</ele>
        <time>2022-11-13T10:58:58.000Z</time>
      </trkpt>
      <trkpt lat="43.30917" lon="6.11569">
        <ele>487</ele>
        <time>2022-11-13T10:59:07.000Z</time>
      </trkpt>
      <trkpt lat="43.30924" lon="6.11562">
        <ele>486.9</ele>
        <time>2022-11-13T10:59:14.000Z</time>
      </trkpt>
      <trkpt lat="43.3093" lon="6.11551">
        <ele>487.3</ele>
        <time>2022-11-13T10:59:25.000Z</time>
      </trkpt>
      <trkpt lat="43.30931" lon="6.11539">
        <ele>487.6</ele>
        <time>2022-11-13T10:59:34.000Z</time>
      </trkpt>
      <trkpt lat="43.3094" lon="6.11536">
        <ele>487.9</ele>
        <time>2022-11-13T10:59:46.000Z</time>
      </trkpt>
      <trkpt lat="43.30949" lon="6.11531">
        <ele>487.8</ele>
        <time>2022-11-13T10:59:55.000Z</time>
      </trkpt>
      <trkpt lat="43.30952" lon="6.11528">
        <ele>487.7</ele>
        <time>2022-11-13T11:00:02.000Z</time>
      </trkpt>
      <trkpt lat="43.30951" lon="6.11529">
        <ele>487.9</ele>
        <time>2022-11-13T11:00:03.000Z</time>
      </trkpt>
      <trkpt lat="43.30956" lon="6.11518">
        <ele>488.3</ele>
        <time>2022-11-13T11:00:15.000Z</time>
      </trkpt>
      <trkpt lat="43.30965" lon="6.11515">
        <ele>488.7</ele>
        <time>2022-11-13T11:00:25.000Z</time>
      </trkpt>
      <trkpt lat="43.30966" lon="6.11515">
        <ele>488.9</ele>
        <time>2022-11-13T11:00:27.000Z</time>
      </trkpt>
      <trkpt lat="43.30966" lon="6.11516">
        <ele>488.9</ele>
        <time>2022-11-13T11:00:28.000Z</time>
      </trkpt>
      <trkpt lat="43.30976" lon="6.11514">
        <ele>489.6</ele>
        <time>2022-11-13T11:00:41.000Z</time>
      </trkpt>
      <trkpt lat="43.30985" lon="6.11507">
        <ele>490.2</ele>
        <time>2022-11-13T11:00:51.000Z</time>
      </trkpt>
      <trkpt lat="43.30993" lon="6.115">
        <ele>490.8</ele>
        <time>2022-11-13T11:01:03.000Z</time>
      </trkpt>
      <trkpt lat="43.31001" lon="6.11496">
        <ele>491.3</ele>
        <time>2022-11-13T11:01:19.000Z</time>
      </trkpt>
      <trkpt lat="43.3101" lon="6.11493">
        <ele>492</ele>
        <time>2022-11-13T11:01:29.000Z</time>
      </trkpt>
      <trkpt lat="43.31018" lon="6.11487">
        <ele>492.5</ele>
        <time>2022-11-13T11:01:41.000Z</time>
      </trkpt>
      <trkpt lat="43.31026" lon="6.11482">
        <ele>493.5</ele>
        <time>2022-11-13T11:01:56.000Z</time>
      </trkpt>
      <trkpt lat="43.31034" lon="6.11474">
        <ele>493.9</ele>
        <time>2022-11-13T11:02:06.000Z</time>
      </trkpt>
      <trkpt lat="43.31042" lon="6.11468">
        <ele>494.9</ele>
        <time>2022-11-13T11:02:21.000Z</time>
      </trkpt>
      <trkpt lat="43.31051" lon="6.11464">
        <ele>496</ele>
        <time>2022-11-13T11:02:42.000Z</time>
      </trkpt>
      <trkpt lat="43.31051" lon="6.11464">
        <ele>496.5</ele>
        <time>2022-11-13T11:02:49.000Z</time>
      </trkpt>
      <trkpt lat="43.31052" lon="6.11463">
        <ele>496.4</ele>
        <time>2022-11-13T11:02:50.000Z</time>
      </trkpt>
      <trkpt lat="43.31061" lon="6.11461">
        <ele>496.9</ele>
        <time>2022-11-13T11:02:58.000Z</time>
      </trkpt>
      <trkpt lat="43.3107" lon="6.1146">
        <ele>497.8</ele>
        <time>2022-11-13T11:03:09.000Z</time>
      </trkpt>
      <trkpt lat="43.31079" lon="6.11461">
        <ele>497.9</ele>
        <time>2022-11-13T11:03:19.000Z</time>
      </trkpt>
      <trkpt lat="43.3108" lon="6.11463">
        <ele>498.2</ele>
        <time>2022-11-13T11:03:22.000Z</time>
      </trkpt>
      <trkpt lat="43.3108" lon="6.11462">
        <ele>498.3</ele>
        <time>2022-11-13T11:03:23.000Z</time>
      </trkpt>
      <trkpt lat="43.31089" lon="6.1146">
        <ele>498.7</ele>
        <time>2022-11-13T11:03:39.000Z</time>
      </trkpt>
      <trkpt lat="43.31098" lon="6.1146">
        <ele>499.5</ele>
        <time>2022-11-13T11:03:54.000Z</time>
      </trkpt>
      <trkpt lat="43.31107" lon="6.11457">
        <ele>500</ele>
        <time>2022-11-13T11:04:05.000Z</time>
      </trkpt>
      <trkpt lat="43.31109" lon="6.11457">
        <ele>500.3</ele>
        <time>2022-11-13T11:04:10.000Z</time>
      </trkpt>
      <trkpt lat="43.31109" lon="6.11456">
        <ele>500.5</ele>
        <time>2022-11-13T11:04:11.000Z</time>
      </trkpt>
      <trkpt lat="43.31118" lon="6.11454">
        <ele>501.1</ele>
        <time>2022-11-13T11:04:24.000Z</time>
      </trkpt>
      <trkpt lat="43.31126" lon="6.11452">
        <ele>501.8</ele>
        <time>2022-11-13T11:04:33.000Z</time>
      </trkpt>
      <trkpt lat="43.31126" lon="6.11451">
        <ele>501.9</ele>
        <time>2022-11-13T11:04:34.000Z</time>
      </trkpt>
      <trkpt lat="43.31131" lon="6.1145">
        <ele>502.5</ele>
        <time>2022-11-13T11:04:43.000Z</time>
      </trkpt>
      <trkpt lat="43.31132" lon="6.1145">
        <ele>502.5</ele>
        <time>2022-11-13T11:04:44.000Z</time>
      </trkpt>
      <trkpt lat="43.31137" lon="6.1145">
        <ele>502.9</ele>
        <time>2022-11-13T11:04:52.000Z</time>
      </trkpt>
      <trkpt lat="43.31137" lon="6.1145">
        <ele>503.1</ele>
        <time>2022-11-13T11:04:53.000Z</time>
      </trkpt>
      <trkpt lat="43.31147" lon="6.11449">
        <ele>503.9</ele>
        <time>2022-11-13T11:05:07.000Z</time>
      </trkpt>
      <trkpt lat="43.31155" lon="6.11445">
        <ele>504.3</ele>
        <time>2022-11-13T11:05:15.000Z</time>
      </trkpt>
      <trkpt lat="43.31164" lon="6.11438">
        <ele>505.9</ele>
        <time>2022-11-13T11:05:35.000Z</time>
      </trkpt>
      <trkpt lat="43.31172" lon="6.11435">
        <ele>506.2</ele>
        <time>2022-11-13T11:05:55.000Z</time>
      </trkpt>
      <trkpt lat="43.31172" lon="6.11435">
        <ele>506.1</ele>
        <time>2022-11-13T11:05:57.000Z</time>
      </trkpt>
      <trkpt lat="43.31172" lon="6.11435">
        <ele>506.3</ele>
        <time>2022-11-13T11:05:58.000Z</time>
      </trkpt>
      <trkpt lat="43.31172" lon="6.11435">
        <ele>506.4</ele>
        <time>2022-11-13T11:06:45.000Z</time>
      </trkpt>
      <trkpt lat="43.31172" lon="6.11434">
        <ele>506.4</ele>
        <time>2022-11-13T11:06:46.000Z</time>
      </trkpt>
      <trkpt lat="43.31172" lon="6.11434">
        <ele>506.3</ele>
        <time>2022-11-13T11:06:53.000Z</time>
      </trkpt>
      <trkpt lat="43.31172" lon="6.11434">
        <ele>506.4</ele>
        <time>2022-11-13T11:06:54.000Z</time>
      </trkpt>
      <trkpt lat="43.31172" lon="6.11433">
        <ele>506.4</ele>
        <time>2022-11-13T11:06:55.000Z</time>
      </trkpt>
      <trkpt lat="43.31172" lon="6.11433">
        <ele>506.4</ele>
        <time>2022-11-13T11:06:56.000Z</time>
      </trkpt>
      <trkpt lat="43.31172" lon="6.11433">
        <ele>506.4</ele>
        <time>2022-11-13T11:06:57.000Z</time>
      </trkpt>
      <trkpt lat="43.31171" lon="6.11432">
        <ele>506.4</ele>
        <time>2022-11-13T11:07:03.000Z</time>
      </trkpt>
      <trkpt lat="43.31171" lon="6.11432">
        <ele>506.5</ele>
        <time>2022-11-13T11:07:04.000Z</time>
      </trkpt>
      <trkpt lat="43.31181" lon="6.11429">
        <ele>507.8</ele>
        <time>2022-11-13T11:07:19.000Z</time>
      </trkpt>
      <trkpt lat="43.31189" lon="6.11425">
        <ele>508.4</ele>
        <time>2022-11-13T11:07:30.000Z</time>
      </trkpt>
      <trkpt lat="43.31198" lon="6.11427">
        <ele>508.7</ele>
        <time>2022-11-13T11:07:43.000Z</time>
      </trkpt>
      <trkpt lat="43.31208" lon="6.11427">
        <ele>509.7</ele>
        <time>2022-11-13T11:07:55.000Z</time>
      </trkpt>
      <trkpt lat="43.31216" lon="6.11418">
        <ele>510.1</ele>
        <time>2022-11-13T11:08:07.000Z</time>
      </trkpt>
      <trkpt lat="43.31225" lon="6.11416">
        <ele>510.7</ele>
        <time>2022-11-13T11:08:20.000Z</time>
      </trkpt>
      <trkpt lat="43.31234" lon="6.11418">
        <ele>511.8</ele>
        <time>2022-11-13T11:08:33.000Z</time>
      </trkpt>
      <trkpt lat="43.31245" lon="6.11415">
        <ele>512.4</ele>
        <time>2022-11-13T11:08:42.000Z</time>
      </trkpt>
      <trkpt lat="43.31254" lon="6.11414">
        <ele>513.1</ele>
        <time>2022-11-13T11:08:51.000Z</time>
      </trkpt>
      <trkpt lat="43.31264" lon="6.11411">
        <ele>514.2</ele>
        <time>2022-11-13T11:09:08.000Z</time>
      </trkpt>
      <trkpt lat="43.3127" lon="6.11401">
        <ele>515.1</ele>
        <time>2022-11-13T11:09:19.000Z</time>
      </trkpt>
      <trkpt lat="43.31279" lon="6.114">
        <ele>515.4</ele>
        <time>2022-11-13T11:09:30.000Z</time>
      </trkpt>
      <trkpt lat="43.3128" lon="6.114">
        <ele>515.4</ele>
        <time>2022-11-13T11:09:32.000Z</time>
      </trkpt>
      <trkpt lat="43.3128" lon="6.114">
        <ele>515.5</ele>
        <time>2022-11-13T11:09:33.000Z</time>
      </trkpt>
      <trkpt lat="43.31285" lon="6.1139">
        <ele>515.6</ele>
        <time>2022-11-13T11:09:44.000Z</time>
      </trkpt>
      <trkpt lat="43.31291" lon="6.11379">
        <ele>516.1</ele>
        <time>2022-11-13T11:09:57.000Z</time>
      </trkpt>
      <trkpt lat="43.31292" lon="6.11366">
        <ele>516.8</ele>
        <time>2022-11-13T11:10:07.000Z</time>
      </trkpt>
      <trkpt lat="43.31292" lon="6.11354">
        <ele>517.7</ele>
        <time>2022-11-13T11:10:17.000Z</time>
      </trkpt>
      <trkpt lat="43.31291" lon="6.11341">
        <ele>518.8</ele>
        <time>2022-11-13T11:10:29.000Z</time>
      </trkpt>
      <trkpt lat="43.31293" lon="6.11328">
        <ele>519.8</ele>
        <time>2022-11-13T11:10:41.000Z</time>
      </trkpt>
      <trkpt lat="43.31296" lon="6.1132">
        <ele>520.1</ele>
        <time>2022-11-13T11:10:53.000Z</time>
      </trkpt>
      <trkpt lat="43.31296" lon="6.1132">
        <ele>520.1</ele>
        <time>2022-11-13T11:10:56.000Z</time>
      </trkpt>
      <trkpt lat="43.31297" lon="6.1132">
        <ele>520.2</ele>
        <time>2022-11-13T11:10:59.000Z</time>
      </trkpt>
      <trkpt lat="43.31298" lon="6.1132">
        <ele>520.2</ele>
        <time>2022-11-13T11:11:01.000Z</time>
      </trkpt>
      <trkpt lat="43.31298" lon="6.1132">
        <ele>520.2</ele>
        <time>2022-11-13T11:11:02.000Z</time>
      </trkpt>
      <trkpt lat="43.31298" lon="6.1132">
        <ele>520.6</ele>
        <time>2022-11-13T11:11:28.000Z</time>
      </trkpt>
      <trkpt lat="43.31299" lon="6.11318">
        <ele>520.6</ele>
        <time>2022-11-13T11:11:34.000Z</time>
      </trkpt>
      <trkpt lat="43.31299" lon="6.11318">
        <ele>520.5</ele>
        <time>2022-11-13T11:11:35.000Z</time>
      </trkpt>
      <trkpt lat="43.31299" lon="6.11318">
        <ele>520.5</ele>
        <time>2022-11-13T11:11:38.000Z</time>
      </trkpt>
      <trkpt lat="43.31299" lon="6.11318">
        <ele>520.9</ele>
        <time>2022-11-13T11:11:44.000Z</time>
      </trkpt>
      <trkpt lat="43.313" lon="6.11319">
        <ele>520.7</ele>
        <time>2022-11-13T11:11:47.000Z</time>
      </trkpt>
      <trkpt lat="43.313" lon="6.11319">
        <ele>520.7</ele>
        <time>2022-11-13T11:11:48.000Z</time>
      </trkpt>
      <trkpt lat="43.31301" lon="6.11318">
        <ele>520.7</ele>
        <time>2022-11-13T11:11:50.000Z</time>
      </trkpt>
      <trkpt lat="43.31301" lon="6.11318">
        <ele>520.8</ele>
        <time>2022-11-13T11:11:55.000Z</time>
      </trkpt>
      <trkpt lat="43.31308" lon="6.11309">
        <ele>522.1</ele>
        <time>2022-11-13T11:12:07.000Z</time>
      </trkpt>
      <trkpt lat="43.3131" lon="6.11307">
        <ele>522.1</ele>
        <time>2022-11-13T11:12:11.000Z</time>
      </trkpt>
      <trkpt lat="43.31311" lon="6.11307">
        <ele>522.2</ele>
        <time>2022-11-13T11:12:14.000Z</time>
      </trkpt>
      <trkpt lat="43.31311" lon="6.11307">
        <ele>522.2</ele>
        <time>2022-11-13T11:12:15.000Z</time>
      </trkpt>
      <trkpt lat="43.3131" lon="6.11307">
        <ele>522.3</ele>
        <time>2022-11-13T11:12:16.000Z</time>
      </trkpt>
      <trkpt lat="43.31311" lon="6.11306">
        <ele>522.2</ele>
        <time>2022-11-13T11:12:26.000Z</time>
      </trkpt>
      <trkpt lat="43.31311" lon="6.11305">
        <ele>522.3</ele>
        <time>2022-11-13T11:12:29.000Z</time>
      </trkpt>
      <trkpt lat="43.31308" lon="6.11306">
        <ele>522.4</ele>
        <time>2022-11-13T11:12:33.000Z</time>
      </trkpt>
      <trkpt lat="43.31308" lon="6.11306">
        <ele>522.5</ele>
        <time>2022-11-13T11:12:37.000Z</time>
      </trkpt>
      <trkpt lat="43.31307" lon="6.11307">
        <ele>522.2</ele>
        <time>2022-11-13T11:12:39.000Z</time>
      </trkpt>
      <trkpt lat="43.31306" lon="6.11307">
        <ele>521.9</ele>
        <time>2022-11-13T11:12:40.000Z</time>
      </trkpt>
      <trkpt lat="43.31306" lon="6.11307">
        <ele>521.9</ele>
        <time>2022-11-13T11:12:41.000Z</time>
      </trkpt>
      <trkpt lat="43.31306" lon="6.11307">
        <ele>522.1</ele>
        <time>2022-11-13T11:12:42.000Z</time>
      </trkpt>
      <trkpt lat="43.31306" lon="6.11307">
        <ele>522.3</ele>
        <time>2022-11-13T11:12:43.000Z</time>
      </trkpt>
      <trkpt lat="43.31306" lon="6.11307">
        <ele>522.4</ele>
        <time>2022-11-13T11:12:44.000Z</time>
      </trkpt>
      <trkpt lat="43.31305" lon="6.11308">
        <ele>523.2</ele>
        <time>2022-11-13T11:12:51.000Z</time>
      </trkpt>
      <trkpt lat="43.31305" lon="6.11307">
        <ele>523.1</ele>
        <time>2022-11-13T11:12:53.000Z</time>
      </trkpt>
      <trkpt lat="43.31305" lon="6.11308">
        <ele>523.2</ele>
        <time>2022-11-13T11:12:55.000Z</time>
      </trkpt>
      <trkpt lat="43.31305" lon="6.11308">
        <ele>523.2</ele>
        <time>2022-11-13T11:13:08.000Z</time>
      </trkpt>
      <trkpt lat="43.31305" lon="6.11308">
        <ele>523.3</ele>
        <time>2022-11-13T11:13:10.000Z</time>
      </trkpt>
      <trkpt lat="43.31305" lon="6.11308">
        <ele>523.3</ele>
        <time>2022-11-13T11:13:48.000Z</time>
      </trkpt>
      <trkpt lat="43.31305" lon="6.11308">
        <ele>523.3</ele>
        <time>2022-11-13T11:13:49.000Z</time>
      </trkpt>
      <trkpt lat="43.31305" lon="6.11308">
        <ele>523</ele>
        <time>2022-11-13T11:13:54.000Z</time>
      </trkpt>
      <trkpt lat="43.31305" lon="6.11308">
        <ele>523</ele>
        <time>2022-11-13T11:13:55.000Z</time>
      </trkpt>
      <trkpt lat="43.31305" lon="6.11308">
        <ele>523.1</ele>
        <time>2022-11-13T11:13:57.000Z</time>
      </trkpt>
      <trkpt lat="43.31305" lon="6.11308">
        <ele>523.3</ele>
        <time>2022-11-13T11:13:58.000Z</time>
      </trkpt>
      <trkpt lat="43.31305" lon="6.11308">
        <ele>522.8</ele>
        <time>2022-11-13T11:14:14.000Z</time>
      </trkpt>
      <trkpt lat="43.31302" lon="6.11304">
        <ele>522.4</ele>
        <time>2022-11-13T11:14:22.000Z</time>
      </trkpt>
      <trkpt lat="43.31302" lon="6.11303">
        <ele>522.4</ele>
        <time>2022-11-13T11:14:24.000Z</time>
      </trkpt>
      <trkpt lat="43.31302" lon="6.11304">
        <ele>522.2</ele>
        <time>2022-11-13T11:14:25.000Z</time>
      </trkpt>
      <trkpt lat="43.31302" lon="6.11304">
        <ele>522.2</ele>
        <time>2022-11-13T11:14:26.000Z</time>
      </trkpt>
      <trkpt lat="43.3131" lon="6.11298">
        <ele>523</ele>
        <time>2022-11-13T11:14:36.000Z</time>
      </trkpt>
      <trkpt lat="43.31315" lon="6.11291">
        <ele>524.1</ele>
        <time>2022-11-13T11:14:46.000Z</time>
      </trkpt>
      <trkpt lat="43.31316" lon="6.11291">
        <ele>524.3</ele>
        <time>2022-11-13T11:14:49.000Z</time>
      </trkpt>
      <trkpt lat="43.31316" lon="6.11291">
        <ele>524.3</ele>
        <time>2022-11-13T11:14:50.000Z</time>
      </trkpt>
      <trkpt lat="43.31316" lon="6.11291">
        <ele>524.4</ele>
        <time>2022-11-13T11:14:51.000Z</time>
      </trkpt>
      <trkpt lat="43.31316" lon="6.11291">
        <ele>524.4</ele>
        <time>2022-11-13T11:14:54.000Z</time>
      </trkpt>
      <trkpt lat="43.31315" lon="6.11291">
        <ele>524.5</ele>
        <time>2022-11-13T11:14:57.000Z</time>
      </trkpt>
      <trkpt lat="43.31315" lon="6.11291">
        <ele>524.5</ele>
        <time>2022-11-13T11:14:58.000Z</time>
      </trkpt>
      <trkpt lat="43.31315" lon="6.11291">
        <ele>524.5</ele>
        <time>2022-11-13T11:14:59.000Z</time>
      </trkpt>
      <trkpt lat="43.31315" lon="6.11286">
        <ele>525.3</ele>
        <time>2022-11-13T11:15:06.000Z</time>
      </trkpt>
      <trkpt lat="43.31315" lon="6.11286">
        <ele>525.3</ele>
        <time>2022-11-13T11:15:07.000Z</time>
      </trkpt>
      <trkpt lat="43.31315" lon="6.11283">
        <ele>525.6</ele>
        <time>2022-11-13T11:15:14.000Z</time>
      </trkpt>
      <trkpt lat="43.31315" lon="6.11282">
        <ele>525.6</ele>
        <time>2022-11-13T11:15:15.000Z</time>
      </trkpt>
      <trkpt lat="43.31321" lon="6.11272">
        <ele>527.5</ele>
        <time>2022-11-13T11:15:29.000Z</time>
      </trkpt>
      <trkpt lat="43.31324" lon="6.1126">
        <ele>529.2</ele>
        <time>2022-11-13T11:15:41.000Z</time>
      </trkpt>
      <trkpt lat="43.31322" lon="6.11248">
        <ele>530.5</ele>
        <time>2022-11-13T11:15:53.000Z</time>
      </trkpt>
      <trkpt lat="43.31322" lon="6.11246">
        <ele>530.8</ele>
        <time>2022-11-13T11:15:57.000Z</time>
      </trkpt>
      <trkpt lat="43.31321" lon="6.11246">
        <ele>530.6</ele>
        <time>2022-11-13T11:16:03.000Z</time>
      </trkpt>
      <trkpt lat="43.31321" lon="6.11246">
        <ele>530.6</ele>
        <time>2022-11-13T11:16:04.000Z</time>
      </trkpt>
      <trkpt lat="43.31322" lon="6.11245">
        <ele>530.8</ele>
        <time>2022-11-13T11:16:16.000Z</time>
      </trkpt>
      <trkpt lat="43.31329" lon="6.11237">
        <ele>531.6</ele>
        <time>2022-11-13T11:16:28.000Z</time>
      </trkpt>
      <trkpt lat="43.31333" lon="6.11225">
        <ele>532.4</ele>
        <time>2022-11-13T11:16:40.000Z</time>
      </trkpt>
      <trkpt lat="43.31335" lon="6.11213">
        <ele>534</ele>
        <time>2022-11-13T11:16:54.000Z</time>
      </trkpt>
      <trkpt lat="43.31341" lon="6.11203">
        <ele>535.8</ele>
        <time>2022-11-13T11:17:09.000Z</time>
      </trkpt>
      <trkpt lat="43.31345" lon="6.11191">
        <ele>537.8</ele>
        <time>2022-11-13T11:17:24.000Z</time>
      </trkpt>
      <trkpt lat="43.31344" lon="6.1118">
        <ele>539.5</ele>
        <time>2022-11-13T11:17:39.000Z</time>
      </trkpt>
      <trkpt lat="43.31344" lon="6.11179">
        <ele>539.6</ele>
        <time>2022-11-13T11:17:40.000Z</time>
      </trkpt>
      <trkpt lat="43.31344" lon="6.11179">
        <ele>539.8</ele>
        <time>2022-11-13T11:17:42.000Z</time>
      </trkpt>
      <trkpt lat="43.31344" lon="6.11178">
        <ele>539.8</ele>
        <time>2022-11-13T11:17:43.000Z</time>
      </trkpt>
      <trkpt lat="43.31341" lon="6.11167">
        <ele>541.1</ele>
        <time>2022-11-13T11:17:55.000Z</time>
      </trkpt>
      <trkpt lat="43.31341" lon="6.11154">
        <ele>542.9</ele>
        <time>2022-11-13T11:18:09.000Z</time>
      </trkpt>
      <trkpt lat="43.3134" lon="6.11142">
        <ele>544.4</ele>
        <time>2022-11-13T11:18:24.000Z</time>
      </trkpt>
      <trkpt lat="43.3134" lon="6.11129">
        <ele>546</ele>
        <time>2022-11-13T11:18:37.000Z</time>
      </trkpt>
      <trkpt lat="43.31341" lon="6.11117">
        <ele>547.5</ele>
        <time>2022-11-13T11:18:51.000Z</time>
      </trkpt>
      <trkpt lat="43.3134" lon="6.11103">
        <ele>549.1</ele>
        <time>2022-11-13T11:19:06.000Z</time>
      </trkpt>
      <trkpt lat="43.31337" lon="6.11092">
        <ele>550.3</ele>
        <time>2022-11-13T11:19:17.000Z</time>
      </trkpt>
      <trkpt lat="43.31336" lon="6.11079">
        <ele>552.7</ele>
        <time>2022-11-13T11:19:36.000Z</time>
      </trkpt>
      <trkpt lat="43.31335" lon="6.11066">
        <ele>555</ele>
        <time>2022-11-13T11:19:53.000Z</time>
      </trkpt>
      <trkpt lat="43.31333" lon="6.11054">
        <ele>557</ele>
        <time>2022-11-13T11:20:09.000Z</time>
      </trkpt>
      <trkpt lat="43.31332" lon="6.11041">
        <ele>558.9</ele>
        <time>2022-11-13T11:20:23.000Z</time>
      </trkpt>
      <trkpt lat="43.31327" lon="6.1103">
        <ele>561.1</ele>
        <time>2022-11-13T11:20:41.000Z</time>
      </trkpt>
      <trkpt lat="43.31326" lon="6.11018">
        <ele>562.5</ele>
        <time>2022-11-13T11:20:56.000Z</time>
      </trkpt>
      <trkpt lat="43.31324" lon="6.11005">
        <ele>564.8</ele>
        <time>2022-11-13T11:21:13.000Z</time>
      </trkpt>
      <trkpt lat="43.31327" lon="6.10993">
        <ele>566.1</ele>
        <time>2022-11-13T11:21:27.000Z</time>
      </trkpt>
      <trkpt lat="43.31324" lon="6.1098">
        <ele>567.9</ele>
        <time>2022-11-13T11:21:44.000Z</time>
      </trkpt>
      <trkpt lat="43.31323" lon="6.10967">
        <ele>571.8</ele>
        <time>2022-11-13T11:22:11.000Z</time>
      </trkpt>
      <trkpt lat="43.31325" lon="6.10955">
        <ele>572.7</ele>
        <time>2022-11-13T11:22:25.000Z</time>
      </trkpt>
      <trkpt lat="43.31326" lon="6.10942">
        <ele>573.7</ele>
        <time>2022-11-13T11:22:36.000Z</time>
      </trkpt>
      <trkpt lat="43.31324" lon="6.1093">
        <ele>574.5</ele>
        <time>2022-11-13T11:22:48.000Z</time>
      </trkpt>
      <trkpt lat="43.31321" lon="6.10922">
        <ele>575</ele>
        <time>2022-11-13T11:22:58.000Z</time>
      </trkpt>
      <trkpt lat="43.31321" lon="6.10922">
        <ele>575</ele>
        <time>2022-11-13T11:23:00.000Z</time>
      </trkpt>
      <trkpt lat="43.31319" lon="6.10918">
        <ele>575.4</ele>
        <time>2022-11-13T11:23:09.000Z</time>
      </trkpt>
      <trkpt lat="43.31319" lon="6.10917">
        <ele>575.3</ele>
        <time>2022-11-13T11:23:10.000Z</time>
      </trkpt>
      <trkpt lat="43.3132" lon="6.10913">
        <ele>574.2</ele>
        <time>2022-11-13T11:23:19.000Z</time>
      </trkpt>
      <trkpt lat="43.3132" lon="6.10913">
        <ele>574.2</ele>
        <time>2022-11-13T11:23:40.000Z</time>
      </trkpt>
      <trkpt lat="43.31318" lon="6.10912">
        <ele>573.9</ele>
        <time>2022-11-13T11:23:43.000Z</time>
      </trkpt>
      <trkpt lat="43.31318" lon="6.10912">
        <ele>573.7</ele>
        <time>2022-11-13T11:23:47.000Z</time>
      </trkpt>
      <trkpt lat="43.31318" lon="6.10912">
        <ele>574</ele>
        <time>2022-11-13T11:23:50.000Z</time>
      </trkpt>
      <trkpt lat="43.31318" lon="6.10911">
        <ele>574</ele>
        <time>2022-11-13T11:23:53.000Z</time>
      </trkpt>
      <trkpt lat="43.31318" lon="6.10911">
        <ele>574.1</ele>
        <time>2022-11-13T11:23:55.000Z</time>
      </trkpt>
      <trkpt lat="43.31317" lon="6.10912">
        <ele>574</ele>
        <time>2022-11-13T11:23:57.000Z</time>
      </trkpt>
      <trkpt lat="43.31317" lon="6.10912">
        <ele>573.9</ele>
        <time>2022-11-13T11:24:00.000Z</time>
      </trkpt>
      <trkpt lat="43.31317" lon="6.10912">
        <ele>573.9</ele>
        <time>2022-11-13T11:24:02.000Z</time>
      </trkpt>
      <trkpt lat="43.31317" lon="6.10911">
        <ele>574</ele>
        <time>2022-11-13T11:24:03.000Z</time>
      </trkpt>
      <trkpt lat="43.31317" lon="6.10911">
        <ele>574</ele>
        <time>2022-11-13T11:24:05.000Z</time>
      </trkpt>
      <trkpt lat="43.31317" lon="6.10911">
        <ele>573.8</ele>
        <time>2022-11-13T11:24:06.000Z</time>
      </trkpt>
      <trkpt lat="43.31317" lon="6.10911">
        <ele>574.1</ele>
        <time>2022-11-13T11:24:09.000Z</time>
      </trkpt>
      <trkpt lat="43.31317" lon="6.10911">
        <ele>573.8</ele>
        <time>2022-11-13T11:24:11.000Z</time>
      </trkpt>
      <trkpt lat="43.31317" lon="6.1091">
        <ele>573.9</ele>
        <time>2022-11-13T11:24:12.000Z</time>
      </trkpt>
      <trkpt lat="43.31317" lon="6.1091">
        <ele>573.7</ele>
        <time>2022-11-13T11:24:17.000Z</time>
      </trkpt>
      <trkpt lat="43.31317" lon="6.1091">
        <ele>573.8</ele>
        <time>2022-11-13T11:24:19.000Z</time>
      </trkpt>
      <trkpt lat="43.31317" lon="6.1091">
        <ele>574</ele>
        <time>2022-11-13T11:24:21.000Z</time>
      </trkpt>
      <trkpt lat="43.31317" lon="6.10909">
        <ele>574</ele>
        <time>2022-11-13T11:24:31.000Z</time>
      </trkpt>
      <trkpt lat="43.31317" lon="6.10909">
        <ele>574</ele>
        <time>2022-11-13T11:24:32.000Z</time>
      </trkpt>
      <trkpt lat="43.31316" lon="6.10909">
        <ele>574.2</ele>
        <time>2022-11-13T11:24:47.000Z</time>
      </trkpt>
      <trkpt lat="43.31316" lon="6.10909">
        <ele>574.2</ele>
        <time>2022-11-13T11:24:48.000Z</time>
      </trkpt>
      <trkpt lat="43.31317" lon="6.10909">
        <ele>574.2</ele>
        <time>2022-11-13T11:24:55.000Z</time>
      </trkpt>
      <trkpt lat="43.31316" lon="6.10909">
        <ele>573.9</ele>
        <time>2022-11-13T11:24:58.000Z</time>
      </trkpt>
      <trkpt lat="43.31316" lon="6.10909">
        <ele>574.1</ele>
        <time>2022-11-13T11:24:59.000Z</time>
      </trkpt>
      <trkpt lat="43.31316" lon="6.10909">
        <ele>574.1</ele>
        <time>2022-11-13T11:25:00.000Z</time>
      </trkpt>
      <trkpt lat="43.31316" lon="6.10909">
        <ele>574.2</ele>
        <time>2022-11-13T11:25:02.000Z</time>
      </trkpt>
      <trkpt lat="43.31315" lon="6.10906">
        <ele>573.7</ele>
        <time>2022-11-13T11:25:12.000Z</time>
      </trkpt>
      <trkpt lat="43.31315" lon="6.10906">
        <ele>573.8</ele>
        <time>2022-11-13T11:25:16.000Z</time>
      </trkpt>
      <trkpt lat="43.31315" lon="6.10907">
        <ele>574.2</ele>
        <time>2022-11-13T11:25:19.000Z</time>
      </trkpt>
      <trkpt lat="43.31315" lon="6.10907">
        <ele>574.2</ele>
        <time>2022-11-13T11:25:20.000Z</time>
      </trkpt>
      <trkpt lat="43.31315" lon="6.10907">
        <ele>574.3</ele>
        <time>2022-11-13T11:25:23.000Z</time>
      </trkpt>
      <trkpt lat="43.31315" lon="6.10907">
        <ele>574.1</ele>
        <time>2022-11-13T11:25:27.000Z</time>
      </trkpt>
      <trkpt lat="43.31315" lon="6.10907">
        <ele>574.1</ele>
        <time>2022-11-13T11:25:28.000Z</time>
      </trkpt>
      <trkpt lat="43.31315" lon="6.10907">
        <ele>574</ele>
        <time>2022-11-13T11:25:30.000Z</time>
      </trkpt>
      <trkpt lat="43.31315" lon="6.10907">
        <ele>574</ele>
        <time>2022-11-13T11:25:31.000Z</time>
      </trkpt>
      <trkpt lat="43.31315" lon="6.10907">
        <ele>574.3</ele>
        <time>2022-11-13T11:25:43.000Z</time>
      </trkpt>
      <trkpt lat="43.31315" lon="6.10907">
        <ele>574.4</ele>
        <time>2022-11-13T11:25:44.000Z</time>
      </trkpt>
      <trkpt lat="43.31315" lon="6.10907">
        <ele>574.4</ele>
        <time>2022-11-13T11:25:46.000Z</time>
      </trkpt>
      <trkpt lat="43.31315" lon="6.10907">
        <ele>574.6</ele>
        <time>2022-11-13T11:25:47.000Z</time>
      </trkpt>
      <trkpt lat="43.31315" lon="6.10907">
        <ele>574.3</ele>
        <time>2022-11-13T11:25:51.000Z</time>
      </trkpt>
      <trkpt lat="43.31315" lon="6.10907">
        <ele>574.3</ele>
        <time>2022-11-13T11:25:52.000Z</time>
      </trkpt>
      <trkpt lat="43.31315" lon="6.10907">
        <ele>574.4</ele>
        <time>2022-11-13T11:25:53.000Z</time>
      </trkpt>
      <trkpt lat="43.31316" lon="6.10908">
        <ele>574.3</ele>
        <time>2022-11-13T11:26:03.000Z</time>
      </trkpt>
      <trkpt lat="43.31316" lon="6.10908">
        <ele>574.4</ele>
        <time>2022-11-13T11:26:04.000Z</time>
      </trkpt>
      <trkpt lat="43.31316" lon="6.10908">
        <ele>574.5</ele>
        <time>2022-11-13T11:26:05.000Z</time>
      </trkpt>
      <trkpt lat="43.31316" lon="6.10908">
        <ele>574.4</ele>
        <time>2022-11-13T11:26:08.000Z</time>
      </trkpt>
      <trkpt lat="43.31316" lon="6.10907">
        <ele>574.5</ele>
        <time>2022-11-13T11:26:09.000Z</time>
      </trkpt>
      <trkpt lat="43.31316" lon="6.10907">
        <ele>574.4</ele>
        <time>2022-11-13T11:26:20.000Z</time>
      </trkpt>
      <trkpt lat="43.31315" lon="6.10907">
        <ele>574.5</ele>
        <time>2022-11-13T11:26:22.000Z</time>
      </trkpt>
      <trkpt lat="43.31315" lon="6.10908">
        <ele>574.7</ele>
        <time>2022-11-13T11:26:34.000Z</time>
      </trkpt>
      <trkpt lat="43.31315" lon="6.10908">
        <ele>574.8</ele>
        <time>2022-11-13T11:26:35.000Z</time>
      </trkpt>
      <trkpt lat="43.31315" lon="6.10908">
        <ele>574.8</ele>
        <time>2022-11-13T11:26:36.000Z</time>
      </trkpt>
      <trkpt lat="43.31315" lon="6.10907">
        <ele>574.9</ele>
        <time>2022-11-13T11:26:38.000Z</time>
      </trkpt>
      <trkpt lat="43.31315" lon="6.10907">
        <ele>574.8</ele>
        <time>2022-11-13T11:26:42.000Z</time>
      </trkpt>
      <trkpt lat="43.31315" lon="6.10907">
        <ele>574.8</ele>
        <time>2022-11-13T11:26:43.000Z</time>
      </trkpt>
      <trkpt lat="43.31314" lon="6.10907">
        <ele>574.7</ele>
        <time>2022-11-13T11:26:45.000Z</time>
      </trkpt>
      <trkpt lat="43.31314" lon="6.10908">
        <ele>574.9</ele>
        <time>2022-11-13T11:26:48.000Z</time>
      </trkpt>
      <trkpt lat="43.31314" lon="6.10908">
        <ele>574.7</ele>
        <time>2022-11-13T11:26:51.000Z</time>
      </trkpt>
      <trkpt lat="43.31314" lon="6.10908">
        <ele>574.7</ele>
        <time>2022-11-13T11:26:52.000Z</time>
      </trkpt>
      <trkpt lat="43.31314" lon="6.10907">
        <ele>574.8</ele>
        <time>2022-11-13T11:26:53.000Z</time>
      </trkpt>
      <trkpt lat="43.31313" lon="6.10907">
        <ele>574.8</ele>
        <time>2022-11-13T11:26:56.000Z</time>
      </trkpt>
      <trkpt lat="43.31314" lon="6.10908">
        <ele>574.8</ele>
        <time>2022-11-13T11:26:58.000Z</time>
      </trkpt>
      <trkpt lat="43.31314" lon="6.10908">
        <ele>574.7</ele>
        <time>2022-11-13T11:26:59.000Z</time>
      </trkpt>
      <trkpt lat="43.31314" lon="6.10908">
        <ele>575.1</ele>
        <time>2022-11-13T11:28:48.000Z</time>
      </trkpt>
      <trkpt lat="43.31314" lon="6.10908">
        <ele>575</ele>
        <time>2022-11-13T11:28:49.000Z</time>
      </trkpt>
      <trkpt lat="43.31314" lon="6.10908">
        <ele>575.1</ele>
        <time>2022-11-13T11:28:50.000Z</time>
      </trkpt>
      <trkpt lat="43.31315" lon="6.10908">
        <ele>574.6</ele>
        <time>2022-11-13T11:28:57.000Z</time>
      </trkpt>
      <trkpt lat="43.31315" lon="6.10908">
        <ele>575</ele>
        <time>2022-11-13T11:28:58.000Z</time>
      </trkpt>
      <trkpt lat="43.31315" lon="6.10908">
        <ele>575.2</ele>
        <time>2022-11-13T11:28:59.000Z</time>
      </trkpt>
      <trkpt lat="43.31314" lon="6.10908">
        <ele>575</ele>
        <time>2022-11-13T11:29:09.000Z</time>
      </trkpt>
      <trkpt lat="43.31314" lon="6.10907">
        <ele>575.1</ele>
        <time>2022-11-13T11:29:12.000Z</time>
      </trkpt>
      <trkpt lat="43.31314" lon="6.10907">
        <ele>575.2</ele>
        <time>2022-11-13T11:29:23.000Z</time>
      </trkpt>
      <trkpt lat="43.31314" lon="6.10908">
        <ele>575.3</ele>
        <time>2022-11-13T11:29:25.000Z</time>
      </trkpt>
      <trkpt lat="43.31314" lon="6.10908">
        <ele>575.2</ele>
        <time>2022-11-13T11:29:26.000Z</time>
      </trkpt>
      <trkpt lat="43.31313" lon="6.10907">
        <ele>574.9</ele>
        <time>2022-11-13T11:29:28.000Z</time>
      </trkpt>
      <trkpt lat="43.31314" lon="6.10907">
        <ele>574.8</ele>
        <time>2022-11-13T11:29:29.000Z</time>
      </trkpt>
      <trkpt lat="43.31314" lon="6.10907">
        <ele>575</ele>
        <time>2022-11-13T11:29:30.000Z</time>
      </trkpt>
      <trkpt lat="43.31313" lon="6.10908">
        <ele>575.2</ele>
        <time>2022-11-13T11:29:31.000Z</time>
      </trkpt>
      <trkpt lat="43.31313" lon="6.10908">
        <ele>575.1</ele>
        <time>2022-11-13T11:29:32.000Z</time>
      </trkpt>
      <trkpt lat="43.31313" lon="6.10908">
        <ele>575.4</ele>
        <time>2022-11-13T11:32:35.000Z</time>
      </trkpt>
      <trkpt lat="43.31314" lon="6.10907">
        <ele>575</ele>
        <time>2022-11-13T11:32:37.000Z</time>
      </trkpt>
      <trkpt lat="43.31314" lon="6.10907">
        <ele>576.1</ele>
        <time>2022-11-13T11:33:20.000Z</time>
      </trkpt>
      <trkpt lat="43.31314" lon="6.10907">
        <ele>576.1</ele>
        <time>2022-11-13T11:33:21.000Z</time>
      </trkpt>
      <trkpt lat="43.31314" lon="6.10908">
        <ele>574.2</ele>
        <time>2022-11-13T11:36:55.000Z</time>
      </trkpt>
      <trkpt lat="43.31314" lon="6.10908">
        <ele>574.1</ele>
        <time>2022-11-13T11:36:56.000Z</time>
      </trkpt>
      <trkpt lat="43.31313" lon="6.10908">
        <ele>574.2</ele>
        <time>2022-11-13T11:37:22.000Z</time>
      </trkpt>
      <trkpt lat="43.31313" lon="6.10909">
        <ele>573.9</ele>
        <time>2022-11-13T11:37:25.000Z</time>
      </trkpt>
      <trkpt lat="43.31313" lon="6.10909">
        <ele>574.1</ele>
        <time>2022-11-13T11:37:26.000Z</time>
      </trkpt>
      <trkpt lat="43.31313" lon="6.10909">
        <ele>574.2</ele>
        <time>2022-11-13T11:37:29.000Z</time>
      </trkpt>
      <trkpt lat="43.31313" lon="6.10909">
        <ele>574.2</ele>
        <time>2022-11-13T11:38:02.000Z</time>
      </trkpt>
      <trkpt lat="43.31313" lon="6.10908">
        <ele>574</ele>
        <time>2022-11-13T11:38:07.000Z</time>
      </trkpt>
      <trkpt lat="43.31313" lon="6.10908">
        <ele>574.2</ele>
        <time>2022-11-13T11:38:15.000Z</time>
      </trkpt>
      <trkpt lat="43.31313" lon="6.10908">
        <ele>574.3</ele>
        <time>2022-11-13T11:38:18.000Z</time>
      </trkpt>
      <trkpt lat="43.31313" lon="6.10908">
        <ele>574.5</ele>
        <time>2022-11-13T11:38:25.000Z</time>
      </trkpt>
      <trkpt lat="43.31313" lon="6.10909">
        <ele>574.6</ele>
        <time>2022-11-13T11:38:27.000Z</time>
      </trkpt>
      <trkpt lat="43.31313" lon="6.10908">
        <ele>574.6</ele>
        <time>2022-11-13T11:38:40.000Z</time>
      </trkpt>
      <trkpt lat="43.31313" lon="6.10908">
        <ele>574.6</ele>
        <time>2022-11-13T11:38:41.000Z</time>
      </trkpt>
      <trkpt lat="43.31313" lon="6.10909">
        <ele>574.2</ele>
        <time>2022-11-13T11:39:06.000Z</time>
      </trkpt>
      <trkpt lat="43.31313" lon="6.10909">
        <ele>574.5</ele>
        <time>2022-11-13T11:39:08.000Z</time>
      </trkpt>
      <trkpt lat="43.31313" lon="6.10909">
        <ele>574.6</ele>
        <time>2022-11-13T11:39:13.000Z</time>
      </trkpt>
      <trkpt lat="43.31312" lon="6.10909">
        <ele>574.7</ele>
        <time>2022-11-13T11:39:17.000Z</time>
      </trkpt>
      <trkpt lat="43.31313" lon="6.10909">
        <ele>574.3</ele>
        <time>2022-11-13T11:39:26.000Z</time>
      </trkpt>
      <trkpt lat="43.31313" lon="6.10909">
        <ele>574.3</ele>
        <time>2022-11-13T11:39:27.000Z</time>
      </trkpt>
      <trkpt lat="43.31313" lon="6.10909">
        <ele>574</ele>
        <time>2022-11-13T11:39:39.000Z</time>
      </trkpt>
      <trkpt lat="43.31313" lon="6.1091">
        <ele>574.3</ele>
        <time>2022-11-13T11:39:44.000Z</time>
      </trkpt>
      <trkpt lat="43.31314" lon="6.1091">
        <ele>574.4</ele>
        <time>2022-11-13T11:39:45.000Z</time>
      </trkpt>
      <trkpt lat="43.31314" lon="6.1091">
        <ele>574.4</ele>
        <time>2022-11-13T11:39:48.000Z</time>
      </trkpt>
      <trkpt lat="43.31314" lon="6.10909">
        <ele>574.4</ele>
        <time>2022-11-13T11:39:56.000Z</time>
      </trkpt>
      <trkpt lat="43.31314" lon="6.10909">
        <ele>574.8</ele>
        <time>2022-11-13T11:39:59.000Z</time>
      </trkpt>
      <trkpt lat="43.31314" lon="6.10909">
        <ele>575</ele>
        <time>2022-11-13T11:40:05.000Z</time>
      </trkpt>
      <trkpt lat="43.31314" lon="6.10908">
        <ele>574.6</ele>
        <time>2022-11-13T11:40:09.000Z</time>
      </trkpt>
      <trkpt lat="43.31314" lon="6.10908">
        <ele>575.1</ele>
        <time>2022-11-13T11:40:35.000Z</time>
      </trkpt>
      <trkpt lat="43.31315" lon="6.10908">
        <ele>574.9</ele>
        <time>2022-11-13T11:40:43.000Z</time>
      </trkpt>
      <trkpt lat="43.31316" lon="6.10908">
        <ele>574.7</ele>
        <time>2022-11-13T11:40:49.000Z</time>
      </trkpt>
      <trkpt lat="43.31316" lon="6.10907">
        <ele>574.7</ele>
        <time>2022-11-13T11:40:54.000Z</time>
      </trkpt>
      <trkpt lat="43.31316" lon="6.10906">
        <ele>574.7</ele>
        <time>2022-11-13T11:41:00.000Z</time>
      </trkpt>
      <trkpt lat="43.31316" lon="6.10906">
        <ele>574.4</ele>
        <time>2022-11-13T11:41:01.000Z</time>
      </trkpt>
      <trkpt lat="43.31316" lon="6.10906">
        <ele>574.5</ele>
        <time>2022-11-13T11:41:05.000Z</time>
      </trkpt>
      <trkpt lat="43.31315" lon="6.10908">
        <ele>574.6</ele>
        <time>2022-11-13T11:41:08.000Z</time>
      </trkpt>
      <trkpt lat="43.31315" lon="6.10908">
        <ele>574.6</ele>
        <time>2022-11-13T11:41:09.000Z</time>
      </trkpt>
      <trkpt lat="43.31314" lon="6.10908">
        <ele>574.6</ele>
        <time>2022-11-13T11:41:13.000Z</time>
      </trkpt>
      <trkpt lat="43.31314" lon="6.10908">
        <ele>574.5</ele>
        <time>2022-11-13T11:41:16.000Z</time>
      </trkpt>
      <trkpt lat="43.31314" lon="6.10908">
        <ele>574.9</ele>
        <time>2022-11-13T11:41:19.000Z</time>
      </trkpt>
      <trkpt lat="43.31315" lon="6.10908">
        <ele>575.1</ele>
        <time>2022-11-13T11:41:44.000Z</time>
      </trkpt>
      <trkpt lat="43.31315" lon="6.10908">
        <ele>575.1</ele>
        <time>2022-11-13T11:41:45.000Z</time>
      </trkpt>
      <trkpt lat="43.31314" lon="6.10907">
        <ele>574.7</ele>
        <time>2022-11-13T11:42:37.000Z</time>
      </trkpt>
      <trkpt lat="43.31314" lon="6.10907">
        <ele>574.9</ele>
        <time>2022-11-13T11:42:38.000Z</time>
      </trkpt>
      <trkpt lat="43.31315" lon="6.10908">
        <ele>574.8</ele>
        <time>2022-11-13T11:42:59.000Z</time>
      </trkpt>
      <trkpt lat="43.31315" lon="6.10908">
        <ele>574.8</ele>
        <time>2022-11-13T11:43:00.000Z</time>
      </trkpt>
      <trkpt lat="43.31315" lon="6.10907">
        <ele>574.7</ele>
        <time>2022-11-13T11:43:03.000Z</time>
      </trkpt>
      <trkpt lat="43.31315" lon="6.10907">
        <ele>574.6</ele>
        <time>2022-11-13T11:43:05.000Z</time>
      </trkpt>
      <trkpt lat="43.31315" lon="6.10907">
        <ele>575.1</ele>
        <time>2022-11-13T11:45:19.000Z</time>
      </trkpt>
      <trkpt lat="43.31315" lon="6.10907">
        <ele>575.3</ele>
        <time>2022-11-13T11:45:20.000Z</time>
      </trkpt>
      <trkpt lat="43.31315" lon="6.10907">
        <ele>575.2</ele>
        <time>2022-11-13T11:45:21.000Z</time>
      </trkpt>
      <trkpt lat="43.31315" lon="6.10907">
        <ele>575</ele>
        <time>2022-11-13T11:45:22.000Z</time>
      </trkpt>
      <trkpt lat="43.31315" lon="6.10907">
        <ele>575</ele>
        <time>2022-11-13T11:45:23.000Z</time>
      </trkpt>
      <trkpt lat="43.31315" lon="6.10907">
        <ele>575.1</ele>
        <time>2022-11-13T11:45:24.000Z</time>
      </trkpt>
      <trkpt lat="43.31315" lon="6.10907">
        <ele>575.2</ele>
        <time>2022-11-13T11:46:18.000Z</time>
      </trkpt>
      <trkpt lat="43.31315" lon="6.10907">
        <ele>575.2</ele>
        <time>2022-11-13T11:46:19.000Z</time>
      </trkpt>
      <trkpt lat="43.31315" lon="6.10907">
        <ele>575.5</ele>
        <time>2022-11-13T11:46:22.000Z</time>
      </trkpt>
      <trkpt lat="43.31315" lon="6.10907">
        <ele>575.4</ele>
        <time>2022-11-13T11:46:23.000Z</time>
      </trkpt>
      <trkpt lat="43.31315" lon="6.10907">
        <ele>574.6</ele>
        <time>2022-11-13T11:47:30.000Z</time>
      </trkpt>
      <trkpt lat="43.31314" lon="6.10907">
        <ele>575.3</ele>
        <time>2022-11-13T11:47:32.000Z</time>
      </trkpt>
      <trkpt lat="43.31314" lon="6.10907">
        <ele>575.4</ele>
        <time>2022-11-13T11:47:57.000Z</time>
      </trkpt>
      <trkpt lat="43.31315" lon="6.10911">
        <ele>575.9</ele>
        <time>2022-11-13T11:48:04.000Z</time>
      </trkpt>
      <trkpt lat="43.31315" lon="6.10911">
        <ele>575.9</ele>
        <time>2022-11-13T11:48:08.000Z</time>
      </trkpt>
      <trkpt lat="43.31315" lon="6.1091">
        <ele>575.6</ele>
        <time>2022-11-13T11:48:13.000Z</time>
      </trkpt>
      <trkpt lat="43.31315" lon="6.1091">
        <ele>575.4</ele>
        <time>2022-11-13T11:48:14.000Z</time>
      </trkpt>
      <trkpt lat="43.31315" lon="6.1091">
        <ele>575.7</ele>
        <time>2022-11-13T11:48:17.000Z</time>
      </trkpt>
      <trkpt lat="43.31316" lon="6.1091">
        <ele>575.5</ele>
        <time>2022-11-13T11:48:19.000Z</time>
      </trkpt>
      <trkpt lat="43.31316" lon="6.1091">
        <ele>575.2</ele>
        <time>2022-11-13T11:48:24.000Z</time>
      </trkpt>
      <trkpt lat="43.31317" lon="6.10909">
        <ele>575.2</ele>
        <time>2022-11-13T11:48:35.000Z</time>
      </trkpt>
      <trkpt lat="43.31317" lon="6.10909">
        <ele>575.2</ele>
        <time>2022-11-13T11:48:36.000Z</time>
      </trkpt>
      <trkpt lat="43.31316" lon="6.10909">
        <ele>575.2</ele>
        <time>2022-11-13T11:48:53.000Z</time>
      </trkpt>
      <trkpt lat="43.31316" lon="6.1091">
        <ele>575.3</ele>
        <time>2022-11-13T11:48:58.000Z</time>
      </trkpt>
      <trkpt lat="43.31316" lon="6.10909">
        <ele>575.3</ele>
        <time>2022-11-13T11:49:03.000Z</time>
      </trkpt>
      <trkpt lat="43.31316" lon="6.10909">
        <ele>575.3</ele>
        <time>2022-11-13T11:49:05.000Z</time>
      </trkpt>
      <trkpt lat="43.31316" lon="6.1091">
        <ele>575.1</ele>
        <time>2022-11-13T11:49:14.000Z</time>
      </trkpt>
      <trkpt lat="43.31316" lon="6.1091">
        <ele>575</ele>
        <time>2022-11-13T11:49:15.000Z</time>
      </trkpt>
      <trkpt lat="43.31316" lon="6.1091">
        <ele>574.9</ele>
        <time>2022-11-13T11:49:16.000Z</time>
      </trkpt>
      <trkpt lat="43.31316" lon="6.1091">
        <ele>574.9</ele>
        <time>2022-11-13T11:49:17.000Z</time>
      </trkpt>
      <trkpt lat="43.31316" lon="6.1091">
        <ele>574.9</ele>
        <time>2022-11-13T11:49:23.000Z</time>
      </trkpt>
      <trkpt lat="43.31316" lon="6.1091">
        <ele>575</ele>
        <time>2022-11-13T11:49:24.000Z</time>
      </trkpt>
      <trkpt lat="43.31316" lon="6.1091">
        <ele>575.2</ele>
        <time>2022-11-13T11:49:27.000Z</time>
      </trkpt>
      <trkpt lat="43.31316" lon="6.1091">
        <ele>575</ele>
        <time>2022-11-13T11:49:28.000Z</time>
      </trkpt>
      <trkpt lat="43.31316" lon="6.1091">
        <ele>575.4</ele>
        <time>2022-11-13T11:49:40.000Z</time>
      </trkpt>
      <trkpt lat="43.31315" lon="6.1091">
        <ele>575.5</ele>
        <time>2022-11-13T11:49:44.000Z</time>
      </trkpt>
      <trkpt lat="43.31316" lon="6.10909">
        <ele>575.6</ele>
        <time>2022-11-13T11:49:57.000Z</time>
      </trkpt>
      <trkpt lat="43.31316" lon="6.10909">
        <ele>575.6</ele>
        <time>2022-11-13T11:49:58.000Z</time>
      </trkpt>
      <trkpt lat="43.31315" lon="6.10909">
        <ele>575.5</ele>
        <time>2022-11-13T11:50:02.000Z</time>
      </trkpt>
      <trkpt lat="43.31315" lon="6.10909">
        <ele>575.6</ele>
        <time>2022-11-13T11:50:03.000Z</time>
      </trkpt>
      <trkpt lat="43.31315" lon="6.1091">
        <ele>575.8</ele>
        <time>2022-11-13T11:50:04.000Z</time>
      </trkpt>
      <trkpt lat="43.31315" lon="6.10909">
        <ele>575.7</ele>
        <time>2022-11-13T11:50:07.000Z</time>
      </trkpt>
      <trkpt lat="43.31315" lon="6.10909">
        <ele>575.3</ele>
        <time>2022-11-13T11:50:09.000Z</time>
      </trkpt>
      <trkpt lat="43.31314" lon="6.10909">
        <ele>575.7</ele>
        <time>2022-11-13T11:50:13.000Z</time>
      </trkpt>
      <trkpt lat="43.31314" lon="6.10909">
        <ele>575.8</ele>
        <time>2022-11-13T11:50:48.000Z</time>
      </trkpt>
      <trkpt lat="43.31314" lon="6.10909">
        <ele>575.8</ele>
        <time>2022-11-13T11:50:49.000Z</time>
      </trkpt>
      <trkpt lat="43.31314" lon="6.10909">
        <ele>575.7</ele>
        <time>2022-11-13T11:51:14.000Z</time>
      </trkpt>
      <trkpt lat="43.31314" lon="6.10909">
        <ele>575.6</ele>
        <time>2022-11-13T11:51:15.000Z</time>
      </trkpt>
      <trkpt lat="43.31315" lon="6.10908">
        <ele>575.5</ele>
        <time>2022-11-13T11:51:35.000Z</time>
      </trkpt>
      <trkpt lat="43.31315" lon="6.10908">
        <ele>575.7</ele>
        <time>2022-11-13T11:51:36.000Z</time>
      </trkpt>
      <trkpt lat="43.31315" lon="6.10908">
        <ele>575.8</ele>
        <time>2022-11-13T11:51:45.000Z</time>
      </trkpt>
      <trkpt lat="43.31315" lon="6.10908">
        <ele>575.7</ele>
        <time>2022-11-13T11:51:47.000Z</time>
      </trkpt>
      <trkpt lat="43.31315" lon="6.10909">
        <ele>575.7</ele>
        <time>2022-11-13T11:51:48.000Z</time>
      </trkpt>
      <trkpt lat="43.31315" lon="6.10909">
        <ele>575.7</ele>
        <time>2022-11-13T11:51:49.000Z</time>
      </trkpt>
      <trkpt lat="43.31315" lon="6.10909">
        <ele>575.6</ele>
        <time>2022-11-13T11:51:50.000Z</time>
      </trkpt>
      <trkpt lat="43.31315" lon="6.10909">
        <ele>575.6</ele>
        <time>2022-11-13T11:51:51.000Z</time>
      </trkpt>
      <trkpt lat="43.31315" lon="6.10909">
        <ele>575.8</ele>
        <time>2022-11-13T11:51:59.000Z</time>
      </trkpt>
      <trkpt lat="43.31315" lon="6.10909">
        <ele>575.8</ele>
        <time>2022-11-13T11:52:02.000Z</time>
      </trkpt>
      <trkpt lat="43.31315" lon="6.10909">
        <ele>575.7</ele>
        <time>2022-11-13T11:52:03.000Z</time>
      </trkpt>
      <trkpt lat="43.31315" lon="6.10909">
        <ele>575.8</ele>
        <time>2022-11-13T11:52:06.000Z</time>
      </trkpt>
      <trkpt lat="43.31315" lon="6.10909">
        <ele>575.8</ele>
        <time>2022-11-13T11:52:13.000Z</time>
      </trkpt>
      <trkpt lat="43.31315" lon="6.10909">
        <ele>575.8</ele>
        <time>2022-11-13T11:52:14.000Z</time>
      </trkpt>
      <trkpt lat="43.31315" lon="6.10909">
        <ele>576.1</ele>
        <time>2022-11-13T11:52:22.000Z</time>
      </trkpt>
      <trkpt lat="43.31315" lon="6.10909">
        <ele>575.9</ele>
        <time>2022-11-13T11:52:23.000Z</time>
      </trkpt>
      <trkpt lat="43.31316" lon="6.10908">
        <ele>576.1</ele>
        <time>2022-11-13T11:52:50.000Z</time>
      </trkpt>
      <trkpt lat="43.31316" lon="6.10908">
        <ele>576.1</ele>
        <time>2022-11-13T11:52:51.000Z</time>
      </trkpt>
      <trkpt lat="43.31316" lon="6.10908">
        <ele>576.3</ele>
        <time>2022-11-13T11:52:55.000Z</time>
      </trkpt>
      <trkpt lat="43.31316" lon="6.10908">
        <ele>576.4</ele>
        <time>2022-11-13T11:52:57.000Z</time>
      </trkpt>
      <trkpt lat="43.31316" lon="6.10908">
        <ele>576.5</ele>
        <time>2022-11-13T11:52:58.000Z</time>
      </trkpt>
      <trkpt lat="43.31316" lon="6.10908">
        <ele>576.4</ele>
        <time>2022-11-13T11:53:02.000Z</time>
      </trkpt>
      <trkpt lat="43.31316" lon="6.10908">
        <ele>576.5</ele>
        <time>2022-11-13T11:53:03.000Z</time>
      </trkpt>
      <trkpt lat="43.31315" lon="6.1091">
        <ele>576.8</ele>
        <time>2022-11-13T11:53:07.000Z</time>
      </trkpt>
      <trkpt lat="43.31315" lon="6.1091">
        <ele>576.6</ele>
        <time>2022-11-13T11:53:58.000Z</time>
      </trkpt>
      <trkpt lat="43.31315" lon="6.1091">
        <ele>576.7</ele>
        <time>2022-11-13T11:53:59.000Z</time>
      </trkpt>
      <trkpt lat="43.31314" lon="6.1091">
        <ele>576.5</ele>
        <time>2022-11-13T11:54:23.000Z</time>
      </trkpt>
      <trkpt lat="43.31314" lon="6.1091">
        <ele>576.4</ele>
        <time>2022-11-13T11:54:24.000Z</time>
      </trkpt>
      <trkpt lat="43.31314" lon="6.1091">
        <ele>576.4</ele>
        <time>2022-11-13T11:54:36.000Z</time>
      </trkpt>
      <trkpt lat="43.31314" lon="6.1091">
        <ele>576.6</ele>
        <time>2022-11-13T11:54:38.000Z</time>
      </trkpt>
      <trkpt lat="43.31314" lon="6.1091">
        <ele>576.6</ele>
        <time>2022-11-13T11:54:42.000Z</time>
      </trkpt>
      <trkpt lat="43.31314" lon="6.1091">
        <ele>576.7</ele>
        <time>2022-11-13T11:54:43.000Z</time>
      </trkpt>
      <trkpt lat="43.31314" lon="6.1091">
        <ele>576.7</ele>
        <time>2022-11-13T11:55:18.000Z</time>
      </trkpt>
      <trkpt lat="43.31314" lon="6.1091">
        <ele>576.7</ele>
        <time>2022-11-13T11:55:19.000Z</time>
      </trkpt>
      <trkpt lat="43.31313" lon="6.1091">
        <ele>577</ele>
        <time>2022-11-13T11:56:22.000Z</time>
      </trkpt>
      <trkpt lat="43.31313" lon="6.1091">
        <ele>576.9</ele>
        <time>2022-11-13T11:56:23.000Z</time>
      </trkpt>
      <trkpt lat="43.31313" lon="6.1091">
        <ele>576.8</ele>
        <time>2022-11-13T11:56:50.000Z</time>
      </trkpt>
      <trkpt lat="43.31313" lon="6.1091">
        <ele>576.7</ele>
        <time>2022-11-13T11:56:51.000Z</time>
      </trkpt>
      <trkpt lat="43.31313" lon="6.10909">
        <ele>576.9</ele>
        <time>2022-11-13T11:57:32.000Z</time>
      </trkpt>
      <trkpt lat="43.31313" lon="6.10909">
        <ele>576.7</ele>
        <time>2022-11-13T11:57:34.000Z</time>
      </trkpt>
      <trkpt lat="43.31313" lon="6.10909">
        <ele>576.7</ele>
        <time>2022-11-13T11:58:49.000Z</time>
      </trkpt>
      <trkpt lat="43.31313" lon="6.10909">
        <ele>576.7</ele>
        <time>2022-11-13T11:58:50.000Z</time>
      </trkpt>
      <trkpt lat="43.31313" lon="6.10909">
        <ele>576.6</ele>
        <time>2022-11-13T11:59:17.000Z</time>
      </trkpt>
      <trkpt lat="43.31313" lon="6.10909">
        <ele>576.6</ele>
        <time>2022-11-13T11:59:18.000Z</time>
      </trkpt>
      <trkpt lat="43.31313" lon="6.10909">
        <ele>576.6</ele>
        <time>2022-11-13T12:00:11.000Z</time>
      </trkpt>
      <trkpt lat="43.31313" lon="6.10909">
        <ele>576.6</ele>
        <time>2022-11-13T12:00:12.000Z</time>
      </trkpt>
      <trkpt lat="43.31313" lon="6.10909">
        <ele>576.6</ele>
        <time>2022-11-13T12:00:17.000Z</time>
      </trkpt>
      <trkpt lat="43.31313" lon="6.10909">
        <ele>576.5</ele>
        <time>2022-11-13T12:00:19.000Z</time>
      </trkpt>
      <trkpt lat="43.31313" lon="6.10909">
        <ele>576.5</ele>
        <time>2022-11-13T12:00:37.000Z</time>
      </trkpt>
      <trkpt lat="43.31313" lon="6.10909">
        <ele>576.4</ele>
        <time>2022-11-13T12:00:38.000Z</time>
      </trkpt>
      <trkpt lat="43.31313" lon="6.10909">
        <ele>576.8</ele>
        <time>2022-11-13T12:01:13.000Z</time>
      </trkpt>
      <trkpt lat="43.31313" lon="6.10909">
        <ele>576.8</ele>
        <time>2022-11-13T12:01:14.000Z</time>
      </trkpt>
      <trkpt lat="43.31313" lon="6.1091">
        <ele>576.4</ele>
        <time>2022-11-13T12:03:35.000Z</time>
      </trkpt>
      <trkpt lat="43.31313" lon="6.1091">
        <ele>576.4</ele>
        <time>2022-11-13T12:03:36.000Z</time>
      </trkpt>
      <trkpt lat="43.31313" lon="6.1091">
        <ele>576.4</ele>
        <time>2022-11-13T12:03:44.000Z</time>
      </trkpt>
      <trkpt lat="43.31313" lon="6.1091">
        <ele>576.4</ele>
        <time>2022-11-13T12:03:45.000Z</time>
      </trkpt>
      <trkpt lat="43.31313" lon="6.10909">
        <ele>576.2</ele>
        <time>2022-11-13T12:03:46.000Z</time>
      </trkpt>
      <trkpt lat="43.31315" lon="6.10909">
        <ele>575.8</ele>
        <time>2022-11-13T12:03:56.000Z</time>
      </trkpt>
      <trkpt lat="43.31315" lon="6.10909">
        <ele>575.8</ele>
        <time>2022-11-13T12:03:57.000Z</time>
      </trkpt>
      <trkpt lat="43.31315" lon="6.10909">
        <ele>575.8</ele>
        <time>2022-11-13T12:03:58.000Z</time>
      </trkpt>
      <trkpt lat="43.31315" lon="6.10909">
        <ele>575.8</ele>
        <time>2022-11-13T12:04:01.000Z</time>
      </trkpt>
      <trkpt lat="43.31315" lon="6.10909">
        <ele>575.8</ele>
        <time>2022-11-13T12:04:03.000Z</time>
      </trkpt>
      <trkpt lat="43.31315" lon="6.10909">
        <ele>575.8</ele>
        <time>2022-11-13T12:04:04.000Z</time>
      </trkpt>
      <trkpt lat="43.31315" lon="6.10909">
        <ele>575.9</ele>
        <time>2022-11-13T12:04:06.000Z</time>
      </trkpt>
      <trkpt lat="43.31315" lon="6.10909">
        <ele>575.8</ele>
        <time>2022-11-13T12:04:10.000Z</time>
      </trkpt>
      <trkpt lat="43.31315" lon="6.10909">
        <ele>575.9</ele>
        <time>2022-11-13T12:04:11.000Z</time>
      </trkpt>
      <trkpt lat="43.31316" lon="6.10908">
        <ele>576.3</ele>
        <time>2022-11-13T12:04:25.000Z</time>
      </trkpt>
      <trkpt lat="43.31316" lon="6.10908">
        <ele>576.3</ele>
        <time>2022-11-13T12:04:26.000Z</time>
      </trkpt>
      <trkpt lat="43.31316" lon="6.10908">
        <ele>576.1</ele>
        <time>2022-11-13T12:04:29.000Z</time>
      </trkpt>
      <trkpt lat="43.31316" lon="6.10908">
        <ele>576.2</ele>
        <time>2022-11-13T12:04:32.000Z</time>
      </trkpt>
      <trkpt lat="43.31316" lon="6.10908">
        <ele>575.9</ele>
        <time>2022-11-13T12:04:36.000Z</time>
      </trkpt>
      <trkpt lat="43.31315" lon="6.10909">
        <ele>576</ele>
        <time>2022-11-13T12:04:40.000Z</time>
      </trkpt>
      <trkpt lat="43.31315" lon="6.10909">
        <ele>576.1</ele>
        <time>2022-11-13T12:04:41.000Z</time>
      </trkpt>
      <trkpt lat="43.31315" lon="6.10908">
        <ele>576.2</ele>
        <time>2022-11-13T12:04:44.000Z</time>
      </trkpt>
      <trkpt lat="43.31315" lon="6.10908">
        <ele>576.2</ele>
        <time>2022-11-13T12:04:46.000Z</time>
      </trkpt>
      <trkpt lat="43.31315" lon="6.10908">
        <ele>576.4</ele>
        <time>2022-11-13T12:04:48.000Z</time>
      </trkpt>
      <trkpt lat="43.31315" lon="6.10909">
        <ele>576.1</ele>
        <time>2022-11-13T12:05:01.000Z</time>
      </trkpt>
      <trkpt lat="43.31315" lon="6.10909">
        <ele>577.5</ele>
        <time>2022-11-13T12:05:04.000Z</time>
      </trkpt>
      <trkpt lat="43.31316" lon="6.10909">
        <ele>577.3</ele>
        <time>2022-11-13T12:05:05.000Z</time>
      </trkpt>
      <trkpt lat="43.31315" lon="6.10909">
        <ele>577.2</ele>
        <time>2022-11-13T12:05:08.000Z</time>
      </trkpt>
      <trkpt lat="43.31315" lon="6.10909">
        <ele>577.1</ele>
        <time>2022-11-13T12:05:11.000Z</time>
      </trkpt>
      <trkpt lat="43.31314" lon="6.10909">
        <ele>577.2</ele>
        <time>2022-11-13T12:05:13.000Z</time>
      </trkpt>
      <trkpt lat="43.31315" lon="6.10909">
        <ele>577.8</ele>
        <time>2022-11-13T12:05:34.000Z</time>
      </trkpt>
      <trkpt lat="43.31315" lon="6.10909">
        <ele>577.8</ele>
        <time>2022-11-13T12:05:35.000Z</time>
      </trkpt>
      <trkpt lat="43.31315" lon="6.10909">
        <ele>578.3</ele>
        <time>2022-11-13T12:06:01.000Z</time>
      </trkpt>
      <trkpt lat="43.31315" lon="6.10909">
        <ele>578.4</ele>
        <time>2022-11-13T12:06:04.000Z</time>
      </trkpt>
      <trkpt lat="43.31315" lon="6.10909">
        <ele>578.3</ele>
        <time>2022-11-13T12:06:09.000Z</time>
      </trkpt>
      <trkpt lat="43.31315" lon="6.10909">
        <ele>578.4</ele>
        <time>2022-11-13T12:06:10.000Z</time>
      </trkpt>
      <trkpt lat="43.31316" lon="6.10909">
        <ele>578.3</ele>
        <time>2022-11-13T12:06:35.000Z</time>
      </trkpt>
      <trkpt lat="43.31316" lon="6.10909">
        <ele>578.2</ele>
        <time>2022-11-13T12:06:36.000Z</time>
      </trkpt>
      <trkpt lat="43.31316" lon="6.10909">
        <ele>578.4</ele>
        <time>2022-11-13T12:06:39.000Z</time>
      </trkpt>
      <trkpt lat="43.31316" lon="6.10909">
        <ele>578.3</ele>
        <time>2022-11-13T12:06:40.000Z</time>
      </trkpt>
      <trkpt lat="43.31316" lon="6.10909">
        <ele>578.2</ele>
        <time>2022-11-13T12:06:42.000Z</time>
      </trkpt>
      <trkpt lat="43.31316" lon="6.10909">
        <ele>578.2</ele>
        <time>2022-11-13T12:06:44.000Z</time>
      </trkpt>
      <trkpt lat="43.31316" lon="6.1091">
        <ele>578.3</ele>
        <time>2022-11-13T12:06:45.000Z</time>
      </trkpt>
      <trkpt lat="43.31316" lon="6.1091">
        <ele>578.5</ele>
        <time>2022-11-13T12:06:46.000Z</time>
      </trkpt>
      <trkpt lat="43.31316" lon="6.1091">
        <ele>578.6</ele>
        <time>2022-11-13T12:06:47.000Z</time>
      </trkpt>
      <trkpt lat="43.31317" lon="6.1091">
        <ele>578.7</ele>
        <time>2022-11-13T12:06:52.000Z</time>
      </trkpt>
      <trkpt lat="43.31317" lon="6.1091">
        <ele>578.6</ele>
        <time>2022-11-13T12:06:57.000Z</time>
      </trkpt>
      <trkpt lat="43.31317" lon="6.1091">
        <ele>578.5</ele>
        <time>2022-11-13T12:06:59.000Z</time>
      </trkpt>
      <trkpt lat="43.31317" lon="6.1091">
        <ele>578.8</ele>
        <time>2022-11-13T12:07:46.000Z</time>
      </trkpt>
      <trkpt lat="43.31317" lon="6.1091">
        <ele>578.8</ele>
        <time>2022-11-13T12:07:47.000Z</time>
      </trkpt>
      <trkpt lat="43.31317" lon="6.1091">
        <ele>578.6</ele>
        <time>2022-11-13T12:07:55.000Z</time>
      </trkpt>
      <trkpt lat="43.31317" lon="6.1091">
        <ele>578.6</ele>
        <time>2022-11-13T12:07:56.000Z</time>
      </trkpt>
      <trkpt lat="43.31317" lon="6.1091">
        <ele>578.6</ele>
        <time>2022-11-13T12:08:16.000Z</time>
      </trkpt>
      <trkpt lat="43.31317" lon="6.1091">
        <ele>578.6</ele>
        <time>2022-11-13T12:08:18.000Z</time>
      </trkpt>
      <trkpt lat="43.31317" lon="6.1091">
        <ele>578.5</ele>
        <time>2022-11-13T12:08:19.000Z</time>
      </trkpt>
      <trkpt lat="43.31317" lon="6.1091">
        <ele>578.4</ele>
        <time>2022-11-13T12:08:20.000Z</time>
      </trkpt>
      <trkpt lat="43.31317" lon="6.1091">
        <ele>578.2</ele>
        <time>2022-11-13T12:08:23.000Z</time>
      </trkpt>
      <trkpt lat="43.31318" lon="6.10897">
        <ele>576.4</ele>
        <time>2022-11-13T12:08:40.000Z</time>
      </trkpt>
      <trkpt lat="43.31327" lon="6.1089">
        <ele>574</ele>
        <time>2022-11-13T12:08:58.000Z</time>
      </trkpt>
      <trkpt lat="43.31331" lon="6.10879">
        <ele>571.8</ele>
        <time>2022-11-13T12:09:15.000Z</time>
      </trkpt>
      <trkpt lat="43.31326" lon="6.10868">
        <ele>570.1</ele>
        <time>2022-11-13T12:09:29.000Z</time>
      </trkpt>
      <trkpt lat="43.3132" lon="6.10858">
        <ele>568.2</ele>
        <time>2022-11-13T12:09:46.000Z</time>
      </trkpt>
      <trkpt lat="43.31311" lon="6.10853">
        <ele>566.7</ele>
        <time>2022-11-13T12:10:00.000Z</time>
      </trkpt>
      <trkpt lat="43.31307" lon="6.10851">
        <ele>564.9</ele>
        <time>2022-11-13T12:10:16.000Z</time>
      </trkpt>
      <trkpt lat="43.31307" lon="6.1085">
        <ele>564.8</ele>
        <time>2022-11-13T12:10:19.000Z</time>
      </trkpt>
      <trkpt lat="43.31306" lon="6.10849">
        <ele>564.7</ele>
        <time>2022-11-13T12:10:22.000Z</time>
      </trkpt>
      <trkpt lat="43.31306" lon="6.10849">
        <ele>564.3</ele>
        <time>2022-11-13T12:10:25.000Z</time>
      </trkpt>
      <trkpt lat="43.313" lon="6.10844">
        <ele>562.8</ele>
        <time>2022-11-13T12:10:40.000Z</time>
      </trkpt>
      <trkpt lat="43.313" lon="6.10844">
        <ele>562.9</ele>
        <time>2022-11-13T12:10:42.000Z</time>
      </trkpt>
      <trkpt lat="43.31299" lon="6.10843">
        <ele>562.6</ele>
        <time>2022-11-13T12:10:45.000Z</time>
      </trkpt>
      <trkpt lat="43.31299" lon="6.10843">
        <ele>562.4</ele>
        <time>2022-11-13T12:10:48.000Z</time>
      </trkpt>
      <trkpt lat="43.31294" lon="6.10839">
        <ele>560.8</ele>
        <time>2022-11-13T12:11:02.000Z</time>
      </trkpt>
      <trkpt lat="43.31294" lon="6.10839">
        <ele>560.9</ele>
        <time>2022-11-13T12:11:03.000Z</time>
      </trkpt>
      <trkpt lat="43.31294" lon="6.10839">
        <ele>560.8</ele>
        <time>2022-11-13T12:11:04.000Z</time>
      </trkpt>
      <trkpt lat="43.31294" lon="6.10839">
        <ele>560.7</ele>
        <time>2022-11-13T12:11:05.000Z</time>
      </trkpt>
      <trkpt lat="43.3129" lon="6.10836">
        <ele>559.5</ele>
        <time>2022-11-13T12:11:15.000Z</time>
      </trkpt>
      <trkpt lat="43.3129" lon="6.10836">
        <ele>559.3</ele>
        <time>2022-11-13T12:11:22.000Z</time>
      </trkpt>
      <trkpt lat="43.31285" lon="6.10826">
        <ele>557</ele>
        <time>2022-11-13T12:11:39.000Z</time>
      </trkpt>
      <trkpt lat="43.31295" lon="6.10826">
        <ele>554.5</ele>
        <time>2022-11-13T12:12:16.000Z</time>
      </trkpt>
      <trkpt lat="43.31303" lon="6.10819">
        <ele>551.9</ele>
        <time>2022-11-13T12:12:38.000Z</time>
      </trkpt>
      <trkpt lat="43.3131" lon="6.10812">
        <ele>550.2</ele>
        <time>2022-11-13T12:12:50.000Z</time>
      </trkpt>
      <trkpt lat="43.31313" lon="6.10809">
        <ele>549.9</ele>
        <time>2022-11-13T12:12:58.000Z</time>
      </trkpt>
      <trkpt lat="43.31313" lon="6.10808">
        <ele>549.8</ele>
        <time>2022-11-13T12:13:01.000Z</time>
      </trkpt>
      <trkpt lat="43.31321" lon="6.10801">
        <ele>548.5</ele>
        <time>2022-11-13T12:13:18.000Z</time>
      </trkpt>
      <trkpt lat="43.31326" lon="6.10791">
        <ele>546.8</ele>
        <time>2022-11-13T12:13:35.000Z</time>
      </trkpt>
      <trkpt lat="43.31333" lon="6.10781">
        <ele>546.5</ele>
        <time>2022-11-13T12:13:45.000Z</time>
      </trkpt>
      <trkpt lat="43.31339" lon="6.10771">
        <ele>545.7</ele>
        <time>2022-11-13T12:13:55.000Z</time>
      </trkpt>
      <trkpt lat="43.31343" lon="6.1076">
        <ele>543.8</ele>
        <time>2022-11-13T12:14:06.000Z</time>
      </trkpt>
      <trkpt lat="43.31348" lon="6.1075">
        <ele>541.8</ele>
        <time>2022-11-13T12:14:25.000Z</time>
      </trkpt>
      <trkpt lat="43.31349" lon="6.10748">
        <ele>541.5</ele>
        <time>2022-11-13T12:14:29.000Z</time>
      </trkpt>
      <trkpt lat="43.31349" lon="6.10748">
        <ele>541.5</ele>
        <time>2022-11-13T12:14:32.000Z</time>
      </trkpt>
      <trkpt lat="43.31349" lon="6.10746">
        <ele>541.2</ele>
        <time>2022-11-13T12:14:37.000Z</time>
      </trkpt>
      <trkpt lat="43.31349" lon="6.10746">
        <ele>541.2</ele>
        <time>2022-11-13T12:14:42.000Z</time>
      </trkpt>
      <trkpt lat="43.3135" lon="6.10744">
        <ele>540.6</ele>
        <time>2022-11-13T12:14:46.000Z</time>
      </trkpt>
      <trkpt lat="43.3135" lon="6.10744">
        <ele>540.5</ele>
        <time>2022-11-13T12:14:47.000Z</time>
      </trkpt>
      <trkpt lat="43.3135" lon="6.10744">
        <ele>540.5</ele>
        <time>2022-11-13T12:14:48.000Z</time>
      </trkpt>
      <trkpt lat="43.3135" lon="6.10744">
        <ele>540.5</ele>
        <time>2022-11-13T12:14:49.000Z</time>
      </trkpt>
      <trkpt lat="43.3135" lon="6.10743">
        <ele>540.3</ele>
        <time>2022-11-13T12:14:54.000Z</time>
      </trkpt>
      <trkpt lat="43.3135" lon="6.10742">
        <ele>540.1</ele>
        <time>2022-11-13T12:14:56.000Z</time>
      </trkpt>
      <trkpt lat="43.31353" lon="6.10741">
        <ele>539.9</ele>
        <time>2022-11-13T12:15:05.000Z</time>
      </trkpt>
      <trkpt lat="43.31353" lon="6.10741">
        <ele>539.7</ele>
        <time>2022-11-13T12:15:07.000Z</time>
      </trkpt>
      <trkpt lat="43.31352" lon="6.1074">
        <ele>539.4</ele>
        <time>2022-11-13T12:15:13.000Z</time>
      </trkpt>
      <trkpt lat="43.31352" lon="6.1074">
        <ele>539.4</ele>
        <time>2022-11-13T12:15:14.000Z</time>
      </trkpt>
      <trkpt lat="43.31352" lon="6.1074">
        <ele>539.3</ele>
        <time>2022-11-13T12:15:15.000Z</time>
      </trkpt>
      <trkpt lat="43.31352" lon="6.10739">
        <ele>539.1</ele>
        <time>2022-11-13T12:15:18.000Z</time>
      </trkpt>
      <trkpt lat="43.31352" lon="6.10739">
        <ele>539</ele>
        <time>2022-11-13T12:15:19.000Z</time>
      </trkpt>
      <trkpt lat="43.31352" lon="6.10739">
        <ele>538.9</ele>
        <time>2022-11-13T12:15:22.000Z</time>
      </trkpt>
      <trkpt lat="43.31351" lon="6.10737">
        <ele>538.3</ele>
        <time>2022-11-13T12:15:28.000Z</time>
      </trkpt>
      <trkpt lat="43.31352" lon="6.10737">
        <ele>538.3</ele>
        <time>2022-11-13T12:15:30.000Z</time>
      </trkpt>
      <trkpt lat="43.31351" lon="6.10732">
        <ele>536.6</ele>
        <time>2022-11-13T12:15:45.000Z</time>
      </trkpt>
      <trkpt lat="43.31351" lon="6.10731">
        <ele>536.2</ele>
        <time>2022-11-13T12:15:47.000Z</time>
      </trkpt>
      <trkpt lat="43.31349" lon="6.10729">
        <ele>535.5</ele>
        <time>2022-11-13T12:15:52.000Z</time>
      </trkpt>
      <trkpt lat="43.31348" lon="6.10729">
        <ele>535.2</ele>
        <time>2022-11-13T12:15:54.000Z</time>
      </trkpt>
      <trkpt lat="43.31345" lon="6.10729">
        <ele>534.3</ele>
        <time>2022-11-13T12:16:02.000Z</time>
      </trkpt>
      <trkpt lat="43.31344" lon="6.10729">
        <ele>534.4</ele>
        <time>2022-11-13T12:16:03.000Z</time>
      </trkpt>
      <trkpt lat="43.31344" lon="6.10729">
        <ele>534.3</ele>
        <time>2022-11-13T12:16:06.000Z</time>
      </trkpt>
      <trkpt lat="43.31343" lon="6.10729">
        <ele>534.4</ele>
        <time>2022-11-13T12:16:14.000Z</time>
      </trkpt>
      <trkpt lat="43.31343" lon="6.10729">
        <ele>534.3</ele>
        <time>2022-11-13T12:16:15.000Z</time>
      </trkpt>
      <trkpt lat="43.31343" lon="6.10728">
        <ele>534.2</ele>
        <time>2022-11-13T12:16:17.000Z</time>
      </trkpt>
      <trkpt lat="43.31343" lon="6.10728">
        <ele>534.2</ele>
        <time>2022-11-13T12:16:18.000Z</time>
      </trkpt>
      <trkpt lat="43.31343" lon="6.10728">
        <ele>534.7</ele>
        <time>2022-11-13T12:16:34.000Z</time>
      </trkpt>
      <trkpt lat="43.31343" lon="6.10728">
        <ele>534.7</ele>
        <time>2022-11-13T12:16:36.000Z</time>
      </trkpt>
      <trkpt lat="43.31343" lon="6.10728">
        <ele>534.5</ele>
        <time>2022-11-13T12:16:38.000Z</time>
      </trkpt>
      <trkpt lat="43.31344" lon="6.10729">
        <ele>534</ele>
        <time>2022-11-13T12:16:42.000Z</time>
      </trkpt>
      <trkpt lat="43.31344" lon="6.10729">
        <ele>533.8</ele>
        <time>2022-11-13T12:16:43.000Z</time>
      </trkpt>
      <trkpt lat="43.31344" lon="6.10729">
        <ele>533.6</ele>
        <time>2022-11-13T12:16:45.000Z</time>
      </trkpt>
      <trkpt lat="43.31344" lon="6.10729">
        <ele>533.3</ele>
        <time>2022-11-13T12:16:47.000Z</time>
      </trkpt>
      <trkpt lat="43.31348" lon="6.10718">
        <ele>530.5</ele>
        <time>2022-11-13T12:17:01.000Z</time>
      </trkpt>
      <trkpt lat="43.31351" lon="6.10708">
        <ele>529.5</ele>
        <time>2022-11-13T12:17:15.000Z</time>
      </trkpt>
      <trkpt lat="43.31351" lon="6.10708">
        <ele>529.4</ele>
        <time>2022-11-13T12:17:16.000Z</time>
      </trkpt>
      <trkpt lat="43.31353" lon="6.10702">
        <ele>528.6</ele>
        <time>2022-11-13T12:17:24.000Z</time>
      </trkpt>
      <trkpt lat="43.31353" lon="6.10702">
        <ele>528.6</ele>
        <time>2022-11-13T12:17:26.000Z</time>
      </trkpt>
      <trkpt lat="43.31348" lon="6.10696">
        <ele>527.2</ele>
        <time>2022-11-13T12:17:42.000Z</time>
      </trkpt>
      <trkpt lat="43.31348" lon="6.10696">
        <ele>527.1</ele>
        <time>2022-11-13T12:17:44.000Z</time>
      </trkpt>
      <trkpt lat="43.31347" lon="6.10695">
        <ele>526.9</ele>
        <time>2022-11-13T12:17:47.000Z</time>
      </trkpt>
      <trkpt lat="43.31347" lon="6.10695">
        <ele>526.7</ele>
        <time>2022-11-13T12:17:56.000Z</time>
      </trkpt>
      <trkpt lat="43.31344" lon="6.10695">
        <ele>525.6</ele>
        <time>2022-11-13T12:18:04.000Z</time>
      </trkpt>
      <trkpt lat="43.31343" lon="6.10695">
        <ele>525.6</ele>
        <time>2022-11-13T12:18:05.000Z</time>
      </trkpt>
      <trkpt lat="43.31343" lon="6.10695">
        <ele>525.5</ele>
        <time>2022-11-13T12:18:08.000Z</time>
      </trkpt>
      <trkpt lat="43.31343" lon="6.10695">
        <ele>525.5</ele>
        <time>2022-11-13T12:18:12.000Z</time>
      </trkpt>
      <trkpt lat="43.31343" lon="6.10695">
        <ele>525.3</ele>
        <time>2022-11-13T12:18:13.000Z</time>
      </trkpt>
      <trkpt lat="43.31343" lon="6.10695">
        <ele>525.6</ele>
        <time>2022-11-13T12:18:18.000Z</time>
      </trkpt>
      <trkpt lat="43.31343" lon="6.10695">
        <ele>525.5</ele>
        <time>2022-11-13T12:18:21.000Z</time>
      </trkpt>
      <trkpt lat="43.31342" lon="6.10695">
        <ele>525.2</ele>
        <time>2022-11-13T12:18:30.000Z</time>
      </trkpt>
      <trkpt lat="43.31339" lon="6.10693">
        <ele>523.8</ele>
        <time>2022-11-13T12:18:39.000Z</time>
      </trkpt>
      <trkpt lat="43.31339" lon="6.10693">
        <ele>523.7</ele>
        <time>2022-11-13T12:18:40.000Z</time>
      </trkpt>
      <trkpt lat="43.31344" lon="6.10683">
        <ele>521.2</ele>
        <time>2022-11-13T12:19:05.000Z</time>
      </trkpt>
      <trkpt lat="43.31346" lon="6.10678">
        <ele>520.2</ele>
        <time>2022-11-13T12:19:14.000Z</time>
      </trkpt>
      <trkpt lat="43.31346" lon="6.10677">
        <ele>520.1</ele>
        <time>2022-11-13T12:19:15.000Z</time>
      </trkpt>
      <trkpt lat="43.31345" lon="6.10674">
        <ele>519.1</ele>
        <time>2022-11-13T12:19:22.000Z</time>
      </trkpt>
      <trkpt lat="43.31345" lon="6.10674">
        <ele>518.8</ele>
        <time>2022-11-13T12:19:23.000Z</time>
      </trkpt>
      <trkpt lat="43.31348" lon="6.10661">
        <ele>517</ele>
        <time>2022-11-13T12:19:38.000Z</time>
      </trkpt>
      <trkpt lat="43.31352" lon="6.10649">
        <ele>515.3</ele>
        <time>2022-11-13T12:19:51.000Z</time>
      </trkpt>
      <trkpt lat="43.31351" lon="6.10637">
        <ele>511.9</ele>
        <time>2022-11-13T12:20:06.000Z</time>
      </trkpt>
      <trkpt lat="43.31351" lon="6.10635">
        <ele>510.8</ele>
        <time>2022-11-13T12:20:10.000Z</time>
      </trkpt>
      <trkpt lat="43.3135" lon="6.10635">
        <ele>510.2</ele>
        <time>2022-11-13T12:20:12.000Z</time>
      </trkpt>
      <trkpt lat="43.31351" lon="6.10622">
        <ele>507.7</ele>
        <time>2022-11-13T12:20:25.000Z</time>
      </trkpt>
      <trkpt lat="43.31355" lon="6.1061">
        <ele>505.6</ele>
        <time>2022-11-13T12:20:39.000Z</time>
      </trkpt>
      <trkpt lat="43.31362" lon="6.106">
        <ele>505.1</ele>
        <time>2022-11-13T12:20:49.000Z</time>
      </trkpt>
      <trkpt lat="43.31369" lon="6.10591">
        <ele>504.8</ele>
        <time>2022-11-13T12:20:57.000Z</time>
      </trkpt>
      <trkpt lat="43.31377" lon="6.10583">
        <ele>504.8</ele>
        <time>2022-11-13T12:21:07.000Z</time>
      </trkpt>
      <trkpt lat="43.31385" lon="6.10577">
        <ele>504.7</ele>
        <time>2022-11-13T12:21:15.000Z</time>
      </trkpt>
      <trkpt lat="43.31393" lon="6.10568">
        <ele>504.8</ele>
        <time>2022-11-13T12:21:23.000Z</time>
      </trkpt>
      <trkpt lat="43.31398" lon="6.10557">
        <ele>504.9</ele>
        <time>2022-11-13T12:21:33.000Z</time>
      </trkpt>
      <trkpt lat="43.31405" lon="6.10548">
        <ele>503.2</ele>
        <time>2022-11-13T12:21:42.000Z</time>
      </trkpt>
      <trkpt lat="43.3141" lon="6.10537">
        <ele>501.2</ele>
        <time>2022-11-13T12:21:55.000Z</time>
      </trkpt>
      <trkpt lat="43.3141" lon="6.10536">
        <ele>500.6</ele>
        <time>2022-11-13T12:21:59.000Z</time>
      </trkpt>
      <trkpt lat="43.31411" lon="6.10536">
        <ele>500.5</ele>
        <time>2022-11-13T12:22:00.000Z</time>
      </trkpt>
      <trkpt lat="43.31418" lon="6.10526">
        <ele>498.3</ele>
        <time>2022-11-13T12:22:13.000Z</time>
      </trkpt>
      <trkpt lat="43.31426" lon="6.10518">
        <ele>496.7</ele>
        <time>2022-11-13T12:22:22.000Z</time>
      </trkpt>
      <trkpt lat="43.31432" lon="6.10509">
        <ele>493.8</ele>
        <time>2022-11-13T12:22:34.000Z</time>
      </trkpt>
      <trkpt lat="43.31438" lon="6.10499">
        <ele>491.3</ele>
        <time>2022-11-13T12:22:49.000Z</time>
      </trkpt>
      <trkpt lat="43.31436" lon="6.1049">
        <ele>488.7</ele>
        <time>2022-11-13T12:23:05.000Z</time>
      </trkpt>
      <trkpt lat="43.31437" lon="6.10489">
        <ele>488.6</ele>
        <time>2022-11-13T12:23:06.000Z</time>
      </trkpt>
      <trkpt lat="43.31439" lon="6.10488">
        <ele>487.6</ele>
        <time>2022-11-13T12:23:11.000Z</time>
      </trkpt>
      <trkpt lat="43.3144" lon="6.10488">
        <ele>487.5</ele>
        <time>2022-11-13T12:23:12.000Z</time>
      </trkpt>
      <trkpt lat="43.31447" lon="6.1048">
        <ele>485.2</ele>
        <time>2022-11-13T12:23:25.000Z</time>
      </trkpt>
      <trkpt lat="43.31454" lon="6.10471">
        <ele>482.3</ele>
        <time>2022-11-13T12:23:41.000Z</time>
      </trkpt>
      <trkpt lat="43.31451" lon="6.10459">
        <ele>478.8</ele>
        <time>2022-11-13T12:23:59.000Z</time>
      </trkpt>
      <trkpt lat="43.31453" lon="6.10453">
        <ele>476.8</ele>
        <time>2022-11-13T12:24:12.000Z</time>
      </trkpt>
      <trkpt lat="43.31453" lon="6.10452">
        <ele>476.5</ele>
        <time>2022-11-13T12:24:14.000Z</time>
      </trkpt>
      <trkpt lat="43.31457" lon="6.10441">
        <ele>473.8</ele>
        <time>2022-11-13T12:24:27.000Z</time>
      </trkpt>
      <trkpt lat="43.31464" lon="6.10432">
        <ele>470.5</ele>
        <time>2022-11-13T12:24:43.000Z</time>
      </trkpt>
      <trkpt lat="43.31467" lon="6.10426">
        <ele>468.1</ele>
        <time>2022-11-13T12:24:56.000Z</time>
      </trkpt>
      <trkpt lat="43.31467" lon="6.10425">
        <ele>467.9</ele>
        <time>2022-11-13T12:24:57.000Z</time>
      </trkpt>
      <trkpt lat="43.31473" lon="6.10416">
        <ele>465.2</ele>
        <time>2022-11-13T12:25:15.000Z</time>
      </trkpt>
      <trkpt lat="43.31481" lon="6.10407">
        <ele>462.2</ele>
        <time>2022-11-13T12:25:33.000Z</time>
      </trkpt>
      <trkpt lat="43.31481" lon="6.10406">
        <ele>461.7</ele>
        <time>2022-11-13T12:25:37.000Z</time>
      </trkpt>
      <trkpt lat="43.31481" lon="6.10405">
        <ele>461.3</ele>
        <time>2022-11-13T12:25:38.000Z</time>
      </trkpt>
      <trkpt lat="43.31481" lon="6.10403">
        <ele>460.1</ele>
        <time>2022-11-13T12:25:54.000Z</time>
      </trkpt>
      <trkpt lat="43.31481" lon="6.10403">
        <ele>459.9</ele>
        <time>2022-11-13T12:26:23.000Z</time>
      </trkpt>
      <trkpt lat="43.31481" lon="6.10403">
        <ele>459.5</ele>
        <time>2022-11-13T12:26:27.000Z</time>
      </trkpt>
      <trkpt lat="43.31481" lon="6.10403">
        <ele>459.4</ele>
        <time>2022-11-13T12:26:28.000Z</time>
      </trkpt>
      <trkpt lat="43.31481" lon="6.10403">
        <ele>459.1</ele>
        <time>2022-11-13T12:26:30.000Z</time>
      </trkpt>
      <trkpt lat="43.31482" lon="6.10403">
        <ele>458.9</ele>
        <time>2022-11-13T12:26:31.000Z</time>
      </trkpt>
      <trkpt lat="43.31489" lon="6.10404">
        <ele>457.2</ele>
        <time>2022-11-13T12:26:42.000Z</time>
      </trkpt>
      <trkpt lat="43.31489" lon="6.10405">
        <ele>457.1</ele>
        <time>2022-11-13T12:26:43.000Z</time>
      </trkpt>
      <trkpt lat="43.31492" lon="6.10406">
        <ele>456.4</ele>
        <time>2022-11-13T12:26:50.000Z</time>
      </trkpt>
      <trkpt lat="43.31493" lon="6.10406">
        <ele>456.2</ele>
        <time>2022-11-13T12:26:51.000Z</time>
      </trkpt>
      <trkpt lat="43.315" lon="6.104">
        <ele>454.3</ele>
        <time>2022-11-13T12:27:06.000Z</time>
      </trkpt>
      <trkpt lat="43.31501" lon="6.104">
        <ele>454.3</ele>
        <time>2022-11-13T12:27:07.000Z</time>
      </trkpt>
      <trkpt lat="43.31504" lon="6.10388">
        <ele>451.8</ele>
        <time>2022-11-13T12:27:25.000Z</time>
      </trkpt>
      <trkpt lat="43.31508" lon="6.10376">
        <ele>449.7</ele>
        <time>2022-11-13T12:27:37.000Z</time>
      </trkpt>
      <trkpt lat="43.3151" lon="6.10364">
        <ele>447.3</ele>
        <time>2022-11-13T12:27:51.000Z</time>
      </trkpt>
      <trkpt lat="43.3151" lon="6.10352">
        <ele>446</ele>
        <time>2022-11-13T12:28:01.000Z</time>
      </trkpt>
      <trkpt lat="43.31507" lon="6.1034">
        <ele>444.9</ele>
        <time>2022-11-13T12:28:08.000Z</time>
      </trkpt>
      <trkpt lat="43.31506" lon="6.10336">
        <ele>443.8</ele>
        <time>2022-11-13T12:28:16.000Z</time>
      </trkpt>
      <trkpt lat="43.31507" lon="6.10336">
        <ele>443.8</ele>
        <time>2022-11-13T12:28:17.000Z</time>
      </trkpt>
      <trkpt lat="43.31514" lon="6.10337">
        <ele>442.3</ele>
        <time>2022-11-13T12:28:35.000Z</time>
      </trkpt>
      <trkpt lat="43.31514" lon="6.10337">
        <ele>442.3</ele>
        <time>2022-11-13T12:28:37.000Z</time>
      </trkpt>
      <trkpt lat="43.31517" lon="6.10333">
        <ele>441.7</ele>
        <time>2022-11-13T12:28:44.000Z</time>
      </trkpt>
      <trkpt lat="43.31517" lon="6.10333">
        <ele>441.7</ele>
        <time>2022-11-13T12:28:57.000Z</time>
      </trkpt>
      <trkpt lat="43.31516" lon="6.10333">
        <ele>441.6</ele>
        <time>2022-11-13T12:28:59.000Z</time>
      </trkpt>
      <trkpt lat="43.31516" lon="6.10333">
        <ele>441.3</ele>
        <time>2022-11-13T12:29:04.000Z</time>
      </trkpt>
      <trkpt lat="43.31516" lon="6.10333">
        <ele>441.4</ele>
        <time>2022-11-13T12:29:05.000Z</time>
      </trkpt>
      <trkpt lat="43.31516" lon="6.10333">
        <ele>441.6</ele>
        <time>2022-11-13T12:29:09.000Z</time>
      </trkpt>
      <trkpt lat="43.31516" lon="6.10333">
        <ele>441.5</ele>
        <time>2022-11-13T12:29:10.000Z</time>
      </trkpt>
      <trkpt lat="43.31516" lon="6.10333">
        <ele>441.7</ele>
        <time>2022-11-13T12:29:36.000Z</time>
      </trkpt>
      <trkpt lat="43.31516" lon="6.10333">
        <ele>441.6</ele>
        <time>2022-11-13T12:29:37.000Z</time>
      </trkpt>
      <trkpt lat="43.31516" lon="6.10333">
        <ele>441.4</ele>
        <time>2022-11-13T12:29:38.000Z</time>
      </trkpt>
      <trkpt lat="43.31516" lon="6.10333">
        <ele>441.4</ele>
        <time>2022-11-13T12:29:39.000Z</time>
      </trkpt>
      <trkpt lat="43.31516" lon="6.10333">
        <ele>441.4</ele>
        <time>2022-11-13T12:29:41.000Z</time>
      </trkpt>
      <trkpt lat="43.31517" lon="6.10333">
        <ele>441.6</ele>
        <time>2022-11-13T12:29:43.000Z</time>
      </trkpt>
      <trkpt lat="43.31517" lon="6.10333">
        <ele>441.3</ele>
        <time>2022-11-13T12:30:00.000Z</time>
      </trkpt>
      <trkpt lat="43.31523" lon="6.10324">
        <ele>439.8</ele>
        <time>2022-11-13T12:30:20.000Z</time>
      </trkpt>
      <trkpt lat="43.31529" lon="6.10313">
        <ele>438</ele>
        <time>2022-11-13T12:30:34.000Z</time>
      </trkpt>
      <trkpt lat="43.31536" lon="6.10305">
        <ele>436.6</ele>
        <time>2022-11-13T12:30:47.000Z</time>
      </trkpt>
      <trkpt lat="43.3154" lon="6.10299">
        <ele>435.7</ele>
        <time>2022-11-13T12:30:56.000Z</time>
      </trkpt>
      <trkpt lat="43.3154" lon="6.10298">
        <ele>435.7</ele>
        <time>2022-11-13T12:30:57.000Z</time>
      </trkpt>
      <trkpt lat="43.31546" lon="6.10288">
        <ele>434.6</ele>
        <time>2022-11-13T12:31:08.000Z</time>
      </trkpt>
      <trkpt lat="43.31552" lon="6.10278">
        <ele>433.1</ele>
        <time>2022-11-13T12:31:18.000Z</time>
      </trkpt>
      <trkpt lat="43.31558" lon="6.10267">
        <ele>431.6</ele>
        <time>2022-11-13T12:31:30.000Z</time>
      </trkpt>
      <trkpt lat="43.31562" lon="6.10256">
        <ele>430.2</ele>
        <time>2022-11-13T12:31:42.000Z</time>
      </trkpt>
      <trkpt lat="43.31565" lon="6.10244">
        <ele>428.1</ele>
        <time>2022-11-13T12:31:58.000Z</time>
      </trkpt>
      <trkpt lat="43.31571" lon="6.10234">
        <ele>427.3</ele>
        <time>2022-11-13T12:32:10.000Z</time>
      </trkpt>
      <trkpt lat="43.31577" lon="6.10223">
        <ele>426.1</ele>
        <time>2022-11-13T12:32:20.000Z</time>
      </trkpt>
      <trkpt lat="43.31578" lon="6.1021">
        <ele>424.6</ele>
        <time>2022-11-13T12:32:35.000Z</time>
      </trkpt>
      <trkpt lat="43.31583" lon="6.10199">
        <ele>423.6</ele>
        <time>2022-11-13T12:32:46.000Z</time>
      </trkpt>
      <trkpt lat="43.31588" lon="6.10188">
        <ele>422.5</ele>
        <time>2022-11-13T12:32:57.000Z</time>
      </trkpt>
      <trkpt lat="43.31592" lon="6.10177">
        <ele>421.2</ele>
        <time>2022-11-13T12:33:08.000Z</time>
      </trkpt>
      <trkpt lat="43.31597" lon="6.10166">
        <ele>420.7</ele>
        <time>2022-11-13T12:33:16.000Z</time>
      </trkpt>
      <trkpt lat="43.316" lon="6.10154">
        <ele>419.8</ele>
        <time>2022-11-13T12:33:28.000Z</time>
      </trkpt>
      <trkpt lat="43.31601" lon="6.10152">
        <ele>419.8</ele>
        <time>2022-11-13T12:33:33.000Z</time>
      </trkpt>
      <trkpt lat="43.316" lon="6.10152">
        <ele>419.8</ele>
        <time>2022-11-13T12:33:35.000Z</time>
      </trkpt>
      <trkpt lat="43.316" lon="6.10152">
        <ele>419.6</ele>
        <time>2022-11-13T12:33:36.000Z</time>
      </trkpt>
      <trkpt lat="43.316" lon="6.10152">
        <ele>419.5</ele>
        <time>2022-11-13T12:33:49.000Z</time>
      </trkpt>
      <trkpt lat="43.31602" lon="6.10138">
        <ele>418.5</ele>
        <time>2022-11-13T12:34:00.000Z</time>
      </trkpt>
      <trkpt lat="43.31608" lon="6.10127">
        <ele>417.8</ele>
        <time>2022-11-13T12:34:08.000Z</time>
      </trkpt>
      <trkpt lat="43.3161" lon="6.10114">
        <ele>417.3</ele>
        <time>2022-11-13T12:34:18.000Z</time>
      </trkpt>
      <trkpt lat="43.31613" lon="6.10102">
        <ele>416.7</ele>
        <time>2022-11-13T12:34:28.000Z</time>
      </trkpt>
      <trkpt lat="43.31618" lon="6.1009">
        <ele>416.3</ele>
        <time>2022-11-13T12:34:37.000Z</time>
      </trkpt>
      <trkpt lat="43.31626" lon="6.10082">
        <ele>415</ele>
        <time>2022-11-13T12:34:48.000Z</time>
      </trkpt>
      <trkpt lat="43.31632" lon="6.10074">
        <ele>413.8</ele>
        <time>2022-11-13T12:34:56.000Z</time>
      </trkpt>
      <trkpt lat="43.31636" lon="6.10062">
        <ele>412.7</ele>
        <time>2022-11-13T12:35:06.000Z</time>
      </trkpt>
      <trkpt lat="43.31643" lon="6.10052">
        <ele>411.8</ele>
        <time>2022-11-13T12:35:15.000Z</time>
      </trkpt>
      <trkpt lat="43.31649" lon="6.10042">
        <ele>410.8</ele>
        <time>2022-11-13T12:35:25.000Z</time>
      </trkpt>
      <trkpt lat="43.31653" lon="6.10031">
        <ele>409.4</ele>
        <time>2022-11-13T12:35:35.000Z</time>
      </trkpt>
      <trkpt lat="43.31659" lon="6.10019">
        <ele>408.4</ele>
        <time>2022-11-13T12:35:45.000Z</time>
      </trkpt>
      <trkpt lat="43.31664" lon="6.10009">
        <ele>407.2</ele>
        <time>2022-11-13T12:35:55.000Z</time>
      </trkpt>
      <trkpt lat="43.3167" lon="6.09999">
        <ele>406.1</ele>
        <time>2022-11-13T12:36:06.000Z</time>
      </trkpt>
      <trkpt lat="43.31676" lon="6.09989">
        <ele>405.4</ele>
        <time>2022-11-13T12:36:15.000Z</time>
      </trkpt>
      <trkpt lat="43.31681" lon="6.09979">
        <ele>404.1</ele>
        <time>2022-11-13T12:36:25.000Z</time>
      </trkpt>
      <trkpt lat="43.31684" lon="6.09966">
        <ele>402.9</ele>
        <time>2022-11-13T12:36:37.000Z</time>
      </trkpt>
      <trkpt lat="43.31686" lon="6.09963">
        <ele>402.4</ele>
        <time>2022-11-13T12:36:42.000Z</time>
      </trkpt>
      <trkpt lat="43.31686" lon="6.09963">
        <ele>402.4</ele>
        <time>2022-11-13T12:36:48.000Z</time>
      </trkpt>
      <trkpt lat="43.31694" lon="6.09956">
        <ele>401.2</ele>
        <time>2022-11-13T12:36:58.000Z</time>
      </trkpt>
      <trkpt lat="43.31702" lon="6.09948">
        <ele>399.6</ele>
        <time>2022-11-13T12:37:11.000Z</time>
      </trkpt>
      <trkpt lat="43.31708" lon="6.09941">
        <ele>398.5</ele>
        <time>2022-11-13T12:37:22.000Z</time>
      </trkpt>
      <trkpt lat="43.31708" lon="6.09941">
        <ele>398.6</ele>
        <time>2022-11-13T12:37:27.000Z</time>
      </trkpt>
      <trkpt lat="43.31715" lon="6.09932">
        <ele>397.4</ele>
        <time>2022-11-13T12:37:38.000Z</time>
      </trkpt>
      <trkpt lat="43.31719" lon="6.09926">
        <ele>395.9</ele>
        <time>2022-11-13T12:37:47.000Z</time>
      </trkpt>
      <trkpt lat="43.31719" lon="6.09925">
        <ele>395.9</ele>
        <time>2022-11-13T12:37:48.000Z</time>
      </trkpt>
      <trkpt lat="43.31726" lon="6.09917">
        <ele>394.7</ele>
        <time>2022-11-13T12:38:00.000Z</time>
      </trkpt>
      <trkpt lat="43.31732" lon="6.09907">
        <ele>393.8</ele>
        <time>2022-11-13T12:38:13.000Z</time>
      </trkpt>
      <trkpt lat="43.31734" lon="6.09905">
        <ele>393.3</ele>
        <time>2022-11-13T12:38:19.000Z</time>
      </trkpt>
      <trkpt lat="43.31733" lon="6.09906">
        <ele>393.2</ele>
        <time>2022-11-13T12:38:25.000Z</time>
      </trkpt>
      <trkpt lat="43.31733" lon="6.09906">
        <ele>393.2</ele>
        <time>2022-11-13T12:38:26.000Z</time>
      </trkpt>
      <trkpt lat="43.31733" lon="6.09906">
        <ele>393.3</ele>
        <time>2022-11-13T12:38:39.000Z</time>
      </trkpt>
      <trkpt lat="43.31733" lon="6.09906">
        <ele>393.3</ele>
        <time>2022-11-13T12:38:40.000Z</time>
      </trkpt>
      <trkpt lat="43.31733" lon="6.09906">
        <ele>393.2</ele>
        <time>2022-11-13T12:38:45.000Z</time>
      </trkpt>
      <trkpt lat="43.31734" lon="6.09906">
        <ele>393.3</ele>
        <time>2022-11-13T12:38:47.000Z</time>
      </trkpt>
      <trkpt lat="43.31734" lon="6.09906">
        <ele>393.3</ele>
        <time>2022-11-13T12:38:48.000Z</time>
      </trkpt>
      <trkpt lat="43.31736" lon="6.09906">
        <ele>392.9</ele>
        <time>2022-11-13T12:38:54.000Z</time>
      </trkpt>
      <trkpt lat="43.31736" lon="6.09906">
        <ele>393</ele>
        <time>2022-11-13T12:39:05.000Z</time>
      </trkpt>
      <trkpt lat="43.31736" lon="6.09906">
        <ele>392.9</ele>
        <time>2022-11-13T12:39:06.000Z</time>
      </trkpt>
      <trkpt lat="43.31736" lon="6.09906">
        <ele>393.2</ele>
        <time>2022-11-13T12:39:09.000Z</time>
      </trkpt>
      <trkpt lat="43.31737" lon="6.09905">
        <ele>393.2</ele>
        <time>2022-11-13T12:39:12.000Z</time>
      </trkpt>
      <trkpt lat="43.31737" lon="6.09905">
        <ele>393.1</ele>
        <time>2022-11-13T12:39:17.000Z</time>
      </trkpt>
      <trkpt lat="43.31737" lon="6.09905">
        <ele>393.2</ele>
        <time>2022-11-13T12:39:18.000Z</time>
      </trkpt>
      <trkpt lat="43.31737" lon="6.09905">
        <ele>392.8</ele>
        <time>2022-11-13T12:39:24.000Z</time>
      </trkpt>
      <trkpt lat="43.31737" lon="6.09905">
        <ele>392.8</ele>
        <time>2022-11-13T12:39:25.000Z</time>
      </trkpt>
      <trkpt lat="43.31737" lon="6.09905">
        <ele>392.8</ele>
        <time>2022-11-13T12:39:26.000Z</time>
      </trkpt>
      <trkpt lat="43.31737" lon="6.09905">
        <ele>392.8</ele>
        <time>2022-11-13T12:39:27.000Z</time>
      </trkpt>
      <trkpt lat="43.31737" lon="6.09904">
        <ele>393</ele>
        <time>2022-11-13T12:39:29.000Z</time>
      </trkpt>
      <trkpt lat="43.31737" lon="6.09904">
        <ele>393</ele>
        <time>2022-11-13T12:39:30.000Z</time>
      </trkpt>
      <trkpt lat="43.31738" lon="6.09903">
        <ele>392.9</ele>
        <time>2022-11-13T12:40:21.000Z</time>
      </trkpt>
      <trkpt lat="43.31739" lon="6.09903">
        <ele>393</ele>
        <time>2022-11-13T12:40:27.000Z</time>
      </trkpt>
      <trkpt lat="43.31739" lon="6.09903">
        <ele>393</ele>
        <time>2022-11-13T12:40:46.000Z</time>
      </trkpt>
      <trkpt lat="43.31738" lon="6.09902">
        <ele>392.8</ele>
        <time>2022-11-13T12:40:49.000Z</time>
      </trkpt>
      <trkpt lat="43.31738" lon="6.09902">
        <ele>392.8</ele>
        <time>2022-11-13T12:40:54.000Z</time>
      </trkpt>
      <trkpt lat="43.31738" lon="6.09902">
        <ele>392.8</ele>
        <time>2022-11-13T12:40:55.000Z</time>
      </trkpt>
      <trkpt lat="43.31738" lon="6.09902">
        <ele>392.9</ele>
        <time>2022-11-13T12:41:14.000Z</time>
      </trkpt>
      <trkpt lat="43.31738" lon="6.09902">
        <ele>392.9</ele>
        <time>2022-11-13T12:41:15.000Z</time>
      </trkpt>
      <trkpt lat="43.31738" lon="6.09902">
        <ele>392.9</ele>
        <time>2022-11-13T12:41:39.000Z</time>
      </trkpt>
      <trkpt lat="43.31738" lon="6.09902">
        <ele>393</ele>
        <time>2022-11-13T12:41:40.000Z</time>
      </trkpt>
      <trkpt lat="43.31738" lon="6.09902">
        <ele>392.8</ele>
        <time>2022-11-13T12:42:23.000Z</time>
      </trkpt>
      <trkpt lat="43.31738" lon="6.09902">
        <ele>392.8</ele>
        <time>2022-11-13T12:42:24.000Z</time>
      </trkpt>
      <trkpt lat="43.31738" lon="6.09902">
        <ele>392.8</ele>
        <time>2022-11-13T12:42:50.000Z</time>
      </trkpt>
      <trkpt lat="43.31738" lon="6.09902">
        <ele>392.9</ele>
        <time>2022-11-13T12:42:51.000Z</time>
      </trkpt>
      <trkpt lat="43.31737" lon="6.09902">
        <ele>392.7</ele>
        <time>2022-11-13T12:43:01.000Z</time>
      </trkpt>
      <trkpt lat="43.31736" lon="6.09901">
        <ele>392.8</ele>
        <time>2022-11-13T12:43:07.000Z</time>
      </trkpt>
      <trkpt lat="43.31736" lon="6.09901">
        <ele>392.9</ele>
        <time>2022-11-13T12:43:10.000Z</time>
      </trkpt>
      <trkpt lat="43.31732" lon="6.099">
        <ele>393</ele>
        <time>2022-11-13T12:43:18.000Z</time>
      </trkpt>
      <trkpt lat="43.31732" lon="6.099">
        <ele>393.3</ele>
        <time>2022-11-13T12:43:23.000Z</time>
      </trkpt>
      <trkpt lat="43.31732" lon="6.099">
        <ele>393.3</ele>
        <time>2022-11-13T12:43:24.000Z</time>
      </trkpt>
      <trkpt lat="43.31731" lon="6.09901">
        <ele>393.2</ele>
        <time>2022-11-13T12:43:27.000Z</time>
      </trkpt>
      <trkpt lat="43.31723" lon="6.09905">
        <ele>394.4</ele>
        <time>2022-11-13T12:43:38.000Z</time>
      </trkpt>
      <trkpt lat="43.31714" lon="6.09906">
        <ele>395</ele>
        <time>2022-11-13T12:43:48.000Z</time>
      </trkpt>
      <trkpt lat="43.31704" lon="6.09907">
        <ele>395.5</ele>
        <time>2022-11-13T12:43:57.000Z</time>
      </trkpt>
      <trkpt lat="43.31695" lon="6.09908">
        <ele>395.3</ele>
        <time>2022-11-13T12:44:07.000Z</time>
      </trkpt>
      <trkpt lat="43.31685" lon="6.09909">
        <ele>394.4</ele>
        <time>2022-11-13T12:44:17.000Z</time>
      </trkpt>
      <trkpt lat="43.31676" lon="6.09913">
        <ele>393.9</ele>
        <time>2022-11-13T12:44:26.000Z</time>
      </trkpt>
      <trkpt lat="43.31667" lon="6.09917">
        <ele>393.4</ele>
        <time>2022-11-13T12:44:36.000Z</time>
      </trkpt>
      <trkpt lat="43.31658" lon="6.09919">
        <ele>392.5</ele>
        <time>2022-11-13T12:44:46.000Z</time>
      </trkpt>
      <trkpt lat="43.31648" lon="6.09923">
        <ele>391.9</ele>
        <time>2022-11-13T12:44:56.000Z</time>
      </trkpt>
      <trkpt lat="43.31639" lon="6.09928">
        <ele>391.9</ele>
        <time>2022-11-13T12:45:04.000Z</time>
      </trkpt>
      <trkpt lat="43.31631" lon="6.09934">
        <ele>392.5</ele>
        <time>2022-11-13T12:45:13.000Z</time>
      </trkpt>
      <trkpt lat="43.31622" lon="6.0994">
        <ele>393.8</ele>
        <time>2022-11-13T12:45:24.000Z</time>
      </trkpt>
      <trkpt lat="43.31613" lon="6.09944">
        <ele>394.2</ele>
        <time>2022-11-13T12:45:34.000Z</time>
      </trkpt>
      <trkpt lat="43.31603" lon="6.09944">
        <ele>394</ele>
        <time>2022-11-13T12:45:42.000Z</time>
      </trkpt>
      <trkpt lat="43.31594" lon="6.09947">
        <ele>393.6</ele>
        <time>2022-11-13T12:45:52.000Z</time>
      </trkpt>
      <trkpt lat="43.31585" lon="6.09947">
        <ele>392.7</ele>
        <time>2022-11-13T12:46:03.000Z</time>
      </trkpt>
      <trkpt lat="43.31576" lon="6.09946">
        <ele>392</ele>
        <time>2022-11-13T12:46:12.000Z</time>
      </trkpt>
      <trkpt lat="43.31566" lon="6.09947">
        <ele>391.5</ele>
        <time>2022-11-13T12:46:20.000Z</time>
      </trkpt>
      <trkpt lat="43.3156" lon="6.09957">
        <ele>391.6</ele>
        <time>2022-11-13T12:46:29.000Z</time>
      </trkpt>
      <trkpt lat="43.31557" lon="6.09969">
        <ele>391.6</ele>
        <time>2022-11-13T12:46:37.000Z</time>
      </trkpt>
      <trkpt lat="43.3155" lon="6.09978">
        <ele>391.6</ele>
        <time>2022-11-13T12:46:47.000Z</time>
      </trkpt>
      <trkpt lat="43.3154" lon="6.09981">
        <ele>392.2</ele>
        <time>2022-11-13T12:46:59.000Z</time>
      </trkpt>
      <trkpt lat="43.31531" lon="6.09982">
        <ele>393.9</ele>
        <time>2022-11-13T12:47:11.000Z</time>
      </trkpt>
      <trkpt lat="43.31521" lon="6.09981">
        <ele>395.3</ele>
        <time>2022-11-13T12:47:22.000Z</time>
      </trkpt>
      <trkpt lat="43.31512" lon="6.0998">
        <ele>396.1</ele>
        <time>2022-11-13T12:47:33.000Z</time>
      </trkpt>
      <trkpt lat="43.31502" lon="6.09977">
        <ele>397.3</ele>
        <time>2022-11-13T12:47:44.000Z</time>
      </trkpt>
      <trkpt lat="43.31493" lon="6.09981">
        <ele>398.1</ele>
        <time>2022-11-13T12:47:54.000Z</time>
      </trkpt>
      <trkpt lat="43.31484" lon="6.09983">
        <ele>399.5</ele>
        <time>2022-11-13T12:48:05.000Z</time>
      </trkpt>
      <trkpt lat="43.31475" lon="6.09987">
        <ele>401.1</ele>
        <time>2022-11-13T12:48:17.000Z</time>
      </trkpt>
      <trkpt lat="43.31467" lon="6.09981">
        <ele>403.3</ele>
        <time>2022-11-13T12:48:33.000Z</time>
      </trkpt>
      <trkpt lat="43.31473" lon="6.09971">
        <ele>404</ele>
        <time>2022-11-13T12:48:47.000Z</time>
      </trkpt>
      <trkpt lat="43.3148" lon="6.09964">
        <ele>404.8</ele>
        <time>2022-11-13T12:48:58.000Z</time>
      </trkpt>
      <trkpt lat="43.31486" lon="6.09954">
        <ele>405.6</ele>
        <time>2022-11-13T12:49:09.000Z</time>
      </trkpt>
      <trkpt lat="43.3149" lon="6.09948">
        <ele>406.8</ele>
        <time>2022-11-13T12:49:19.000Z</time>
      </trkpt>
      <trkpt lat="43.3149" lon="6.09948">
        <ele>406.8</ele>
        <time>2022-11-13T12:49:20.000Z</time>
      </trkpt>
      <trkpt lat="43.3149" lon="6.09948">
        <ele>406.8</ele>
        <time>2022-11-13T12:49:21.000Z</time>
      </trkpt>
      <trkpt lat="43.3149" lon="6.09948">
        <ele>406.8</ele>
        <time>2022-11-13T12:49:22.000Z</time>
      </trkpt>
      <trkpt lat="43.3149" lon="6.09948">
        <ele>406.8</ele>
        <time>2022-11-13T12:49:23.000Z</time>
      </trkpt>
      <trkpt lat="43.3149" lon="6.09948">
        <ele>406.7</ele>
        <time>2022-11-13T12:49:24.000Z</time>
      </trkpt>
      <trkpt lat="43.3149" lon="6.09948">
        <ele>406.7</ele>
        <time>2022-11-13T12:49:25.000Z</time>
      </trkpt>
      <trkpt lat="43.3149" lon="6.09947">
        <ele>406.6</ele>
        <time>2022-11-13T12:49:28.000Z</time>
      </trkpt>
      <trkpt lat="43.3149" lon="6.09947">
        <ele>406.7</ele>
        <time>2022-11-13T12:49:30.000Z</time>
      </trkpt>
      <trkpt lat="43.3149" lon="6.09947">
        <ele>406.7</ele>
        <time>2022-11-13T12:49:38.000Z</time>
      </trkpt>
      <trkpt lat="43.3149" lon="6.09947">
        <ele>406.7</ele>
        <time>2022-11-13T12:49:40.000Z</time>
      </trkpt>
      <trkpt lat="43.3149" lon="6.09946">
        <ele>406.7</ele>
        <time>2022-11-13T12:49:43.000Z</time>
      </trkpt>
      <trkpt lat="43.31482" lon="6.0994">
        <ele>407.9</ele>
        <time>2022-11-13T12:49:59.000Z</time>
      </trkpt>
      <trkpt lat="43.31473" lon="6.09939">
        <ele>409.3</ele>
        <time>2022-11-13T12:50:11.000Z</time>
      </trkpt>
      <trkpt lat="43.31464" lon="6.09943">
        <ele>411</ele>
        <time>2022-11-13T12:50:26.000Z</time>
      </trkpt>
      <trkpt lat="43.31455" lon="6.09941">
        <ele>413</ele>
        <time>2022-11-13T12:50:40.000Z</time>
      </trkpt>
      <trkpt lat="43.31445" lon="6.0994">
        <ele>415.2</ele>
        <time>2022-11-13T12:50:56.000Z</time>
      </trkpt>
      <trkpt lat="43.31436" lon="6.09938">
        <ele>417.4</ele>
        <time>2022-11-13T12:51:11.000Z</time>
      </trkpt>
      <trkpt lat="43.31433" lon="6.09939">
        <ele>418.4</ele>
        <time>2022-11-13T12:51:21.000Z</time>
      </trkpt>
      <trkpt lat="43.31433" lon="6.09939">
        <ele>418.4</ele>
        <time>2022-11-13T12:51:22.000Z</time>
      </trkpt>
      <trkpt lat="43.31424" lon="6.09935">
        <ele>420.5</ele>
        <time>2022-11-13T12:51:45.000Z</time>
      </trkpt>
      <trkpt lat="43.31416" lon="6.0994">
        <ele>421.7</ele>
        <time>2022-11-13T12:51:57.000Z</time>
      </trkpt>
      <trkpt lat="43.31407" lon="6.09944">
        <ele>423.5</ele>
        <time>2022-11-13T12:52:09.000Z</time>
      </trkpt>
      <trkpt lat="43.31399" lon="6.09951">
        <ele>424.2</ele>
        <time>2022-11-13T12:52:20.000Z</time>
      </trkpt>
      <trkpt lat="43.3139" lon="6.09955">
        <ele>425.9</ele>
        <time>2022-11-13T12:52:33.000Z</time>
      </trkpt>
      <trkpt lat="43.3138" lon="6.09958">
        <ele>427.3</ele>
        <time>2022-11-13T12:52:45.000Z</time>
      </trkpt>
      <trkpt lat="43.31371" lon="6.09961">
        <ele>429.5</ele>
        <time>2022-11-13T12:53:00.000Z</time>
      </trkpt>
      <trkpt lat="43.31362" lon="6.09966">
        <ele>431.1</ele>
        <time>2022-11-13T12:53:14.000Z</time>
      </trkpt>
      <trkpt lat="43.31359" lon="6.09968">
        <ele>431.9</ele>
        <time>2022-11-13T12:53:21.000Z</time>
      </trkpt>
      <trkpt lat="43.31359" lon="6.09968">
        <ele>431.9</ele>
        <time>2022-11-13T12:53:23.000Z</time>
      </trkpt>
      <trkpt lat="43.31351" lon="6.09974">
        <ele>432.6</ele>
        <time>2022-11-13T12:53:34.000Z</time>
      </trkpt>
      <trkpt lat="43.31342" lon="6.09978">
        <ele>434.3</ele>
        <time>2022-11-13T12:53:47.000Z</time>
      </trkpt>
      <trkpt lat="43.31333" lon="6.09983">
        <ele>436</ele>
        <time>2022-11-13T12:54:02.000Z</time>
      </trkpt>
      <trkpt lat="43.31324" lon="6.09986">
        <ele>437.8</ele>
        <time>2022-11-13T12:54:14.000Z</time>
      </trkpt>
      <trkpt lat="43.31315" lon="6.09987">
        <ele>439.3</ele>
        <time>2022-11-13T12:54:26.000Z</time>
      </trkpt>
      <trkpt lat="43.31306" lon="6.09991">
        <ele>440.8</ele>
        <time>2022-11-13T12:54:39.000Z</time>
      </trkpt>
      <trkpt lat="43.31298" lon="6.09996">
        <ele>442.3</ele>
        <time>2022-11-13T12:54:52.000Z</time>
      </trkpt>
      <trkpt lat="43.31288" lon="6.09996">
        <ele>443.4</ele>
        <time>2022-11-13T12:55:03.000Z</time>
      </trkpt>
      <trkpt lat="43.31279" lon="6.09998">
        <ele>444.2</ele>
        <time>2022-11-13T12:55:14.000Z</time>
      </trkpt>
      <trkpt lat="43.31271" lon="6.09999">
        <ele>446</ele>
        <time>2022-11-13T12:55:32.000Z</time>
      </trkpt>
      <trkpt lat="43.31272" lon="6.1">
        <ele>446.1</ele>
        <time>2022-11-13T12:55:34.000Z</time>
      </trkpt>
      <trkpt lat="43.31272" lon="6.1">
        <ele>446.3</ele>
        <time>2022-11-13T12:55:37.000Z</time>
      </trkpt>
      <trkpt lat="43.31272" lon="6.09999">
        <ele>446.4</ele>
        <time>2022-11-13T12:55:39.000Z</time>
      </trkpt>
      <trkpt lat="43.31272" lon="6.09999">
        <ele>446.3</ele>
        <time>2022-11-13T12:55:41.000Z</time>
      </trkpt>
      <trkpt lat="43.31271" lon="6.09999">
        <ele>446.1</ele>
        <time>2022-11-13T12:55:43.000Z</time>
      </trkpt>
      <trkpt lat="43.31271" lon="6.09999">
        <ele>445.8</ele>
        <time>2022-11-13T12:55:45.000Z</time>
      </trkpt>
      <trkpt lat="43.31271" lon="6.09999">
        <ele>445.8</ele>
        <time>2022-11-13T12:55:53.000Z</time>
      </trkpt>
      <trkpt lat="43.31271" lon="6.09999">
        <ele>445.8</ele>
        <time>2022-11-13T12:55:54.000Z</time>
      </trkpt>
      <trkpt lat="43.31271" lon="6.09999">
        <ele>445.6</ele>
        <time>2022-11-13T12:56:20.000Z</time>
      </trkpt>
      <trkpt lat="43.31271" lon="6.09999">
        <ele>445.7</ele>
        <time>2022-11-13T12:56:21.000Z</time>
      </trkpt>
      <trkpt lat="43.31271" lon="6.09999">
        <ele>445.7</ele>
        <time>2022-11-13T12:56:46.000Z</time>
      </trkpt>
      <trkpt lat="43.31272" lon="6.09999">
        <ele>445.8</ele>
        <time>2022-11-13T12:56:48.000Z</time>
      </trkpt>
      <trkpt lat="43.31271" lon="6.1">
        <ele>445.4</ele>
        <time>2022-11-13T12:57:13.000Z</time>
      </trkpt>
      <trkpt lat="43.31271" lon="6.1">
        <ele>445.5</ele>
        <time>2022-11-13T12:57:14.000Z</time>
      </trkpt>
      <trkpt lat="43.31272" lon="6.1">
        <ele>445.4</ele>
        <time>2022-11-13T12:57:20.000Z</time>
      </trkpt>
      <trkpt lat="43.31272" lon="6.1">
        <ele>445.3</ele>
        <time>2022-11-13T12:57:21.000Z</time>
      </trkpt>
      <trkpt lat="43.31271" lon="6.1">
        <ele>445</ele>
        <time>2022-11-13T12:57:51.000Z</time>
      </trkpt>
      <trkpt lat="43.31271" lon="6.1">
        <ele>445.1</ele>
        <time>2022-11-13T12:57:52.000Z</time>
      </trkpt>
      <trkpt lat="43.31271" lon="6.1">
        <ele>445.2</ele>
        <time>2022-11-13T12:57:55.000Z</time>
      </trkpt>
      <trkpt lat="43.31268" lon="6.09998">
        <ele>444.9</ele>
        <time>2022-11-13T12:58:03.000Z</time>
      </trkpt>
      <trkpt lat="43.31268" lon="6.09998">
        <ele>445</ele>
        <time>2022-11-13T12:58:09.000Z</time>
      </trkpt>
      <trkpt lat="43.31268" lon="6.09998">
        <ele>445</ele>
        <time>2022-11-13T12:58:10.000Z</time>
      </trkpt>
      <trkpt lat="43.31268" lon="6.09998">
        <ele>445.2</ele>
        <time>2022-11-13T12:58:31.000Z</time>
      </trkpt>
      <trkpt lat="43.31268" lon="6.09997">
        <ele>445</ele>
        <time>2022-11-13T12:58:37.000Z</time>
      </trkpt>
      <trkpt lat="43.31268" lon="6.09997">
        <ele>445</ele>
        <time>2022-11-13T12:58:46.000Z</time>
      </trkpt>
      <trkpt lat="43.31268" lon="6.09997">
        <ele>445</ele>
        <time>2022-11-13T12:58:47.000Z</time>
      </trkpt>
      <trkpt lat="43.31268" lon="6.09997">
        <ele>444.8</ele>
        <time>2022-11-13T12:59:06.000Z</time>
      </trkpt>
      <trkpt lat="43.31268" lon="6.09997">
        <ele>444.8</ele>
        <time>2022-11-13T12:59:07.000Z</time>
      </trkpt>
      <trkpt lat="43.3127" lon="6.09997">
        <ele>444.9</ele>
        <time>2022-11-13T12:59:16.000Z</time>
      </trkpt>
      <trkpt lat="43.31271" lon="6.09998">
        <ele>444.8</ele>
        <time>2022-11-13T12:59:19.000Z</time>
      </trkpt>
      <trkpt lat="43.31271" lon="6.09998">
        <ele>445.1</ele>
        <time>2022-11-13T12:59:33.000Z</time>
      </trkpt>
      <trkpt lat="43.31269" lon="6.10001">
        <ele>444.5</ele>
        <time>2022-11-13T12:59:39.000Z</time>
      </trkpt>
      <trkpt lat="43.31269" lon="6.10001">
        <ele>444.8</ele>
        <time>2022-11-13T12:59:45.000Z</time>
      </trkpt>
      <trkpt lat="43.31269" lon="6.10001">
        <ele>444.7</ele>
        <time>2022-11-13T12:59:46.000Z</time>
      </trkpt>
      <trkpt lat="43.31269" lon="6.10001">
        <ele>444.5</ele>
        <time>2022-11-13T12:59:53.000Z</time>
      </trkpt>
      <trkpt lat="43.31269" lon="6.1">
        <ele>444.9</ele>
        <time>2022-11-13T13:00:01.000Z</time>
      </trkpt>
      <trkpt lat="43.31269" lon="6.1">
        <ele>444.8</ele>
        <time>2022-11-13T13:00:03.000Z</time>
      </trkpt>
      <trkpt lat="43.31269" lon="6.1">
        <ele>444.8</ele>
        <time>2022-11-13T13:00:04.000Z</time>
      </trkpt>
      <trkpt lat="43.31269" lon="6.1">
        <ele>444.9</ele>
        <time>2022-11-13T13:00:06.000Z</time>
      </trkpt>
      <trkpt lat="43.31259" lon="6.10001">
        <ele>444.8</ele>
        <time>2022-11-13T13:00:16.000Z</time>
      </trkpt>
      <trkpt lat="43.3125" lon="6.1">
        <ele>445.5</ele>
        <time>2022-11-13T13:00:26.000Z</time>
      </trkpt>
      <trkpt lat="43.31241" lon="6.09999">
        <ele>446.6</ele>
        <time>2022-11-13T13:00:38.000Z</time>
      </trkpt>
      <trkpt lat="43.31232" lon="6.09998">
        <ele>446.7</ele>
        <time>2022-11-13T13:00:48.000Z</time>
      </trkpt>
      <trkpt lat="43.31223" lon="6.09996">
        <ele>448.4</ele>
        <time>2022-11-13T13:01:01.000Z</time>
      </trkpt>
      <trkpt lat="43.31213" lon="6.09997">
        <ele>449.2</ele>
        <time>2022-11-13T13:01:13.000Z</time>
      </trkpt>
      <trkpt lat="43.31203" lon="6.09996">
        <ele>450.2</ele>
        <time>2022-11-13T13:01:23.000Z</time>
      </trkpt>
      <trkpt lat="43.31194" lon="6.09998">
        <ele>451.5</ele>
        <time>2022-11-13T13:01:34.000Z</time>
      </trkpt>
      <trkpt lat="43.31185" lon="6.1">
        <ele>452.3</ele>
        <time>2022-11-13T13:01:46.000Z</time>
      </trkpt>
      <trkpt lat="43.31176" lon="6.10003">
        <ele>453.7</ele>
        <time>2022-11-13T13:01:58.000Z</time>
      </trkpt>
      <trkpt lat="43.31167" lon="6.10008">
        <ele>454</ele>
        <time>2022-11-13T13:02:07.000Z</time>
      </trkpt>
      <trkpt lat="43.31157" lon="6.10008">
        <ele>454.9</ele>
        <time>2022-11-13T13:02:15.000Z</time>
      </trkpt>
      <trkpt lat="43.31148" lon="6.10012">
        <ele>456.1</ele>
        <time>2022-11-13T13:02:26.000Z</time>
      </trkpt>
      <trkpt lat="43.31139" lon="6.10016">
        <ele>456.9</ele>
        <time>2022-11-13T13:02:36.000Z</time>
      </trkpt>
      <trkpt lat="43.3113" lon="6.1002">
        <ele>458</ele>
        <time>2022-11-13T13:02:47.000Z</time>
      </trkpt>
      <trkpt lat="43.3112" lon="6.10023">
        <ele>458.7</ele>
        <time>2022-11-13T13:02:58.000Z</time>
      </trkpt>
      <trkpt lat="43.31111" lon="6.10026">
        <ele>458.8</ele>
        <time>2022-11-13T13:03:09.000Z</time>
      </trkpt>
      <trkpt lat="43.31102" lon="6.10028">
        <ele>459.2</ele>
        <time>2022-11-13T13:03:19.000Z</time>
      </trkpt>
      <trkpt lat="43.31092" lon="6.10031">
        <ele>459.5</ele>
        <time>2022-11-13T13:03:29.000Z</time>
      </trkpt>
      <trkpt lat="43.31083" lon="6.1003">
        <ele>459.6</ele>
        <time>2022-11-13T13:03:39.000Z</time>
      </trkpt>
      <trkpt lat="43.31075" lon="6.10024">
        <ele>459.9</ele>
        <time>2022-11-13T13:03:49.000Z</time>
      </trkpt>
      <trkpt lat="43.31068" lon="6.10015">
        <ele>460.8</ele>
        <time>2022-11-13T13:04:00.000Z</time>
      </trkpt>
      <trkpt lat="43.31057" lon="6.10014">
        <ele>460.7</ele>
        <time>2022-11-13T13:04:08.000Z</time>
      </trkpt>
      <trkpt lat="43.31049" lon="6.1002">
        <ele>461.4</ele>
        <time>2022-11-13T13:04:16.000Z</time>
      </trkpt>
      <trkpt lat="43.31046" lon="6.10032">
        <ele>462.1</ele>
        <time>2022-11-13T13:04:25.000Z</time>
      </trkpt>
      <trkpt lat="43.31041" lon="6.10043">
        <ele>463.1</ele>
        <time>2022-11-13T13:04:34.000Z</time>
      </trkpt>
      <trkpt lat="43.31037" lon="6.10054">
        <ele>464.6</ele>
        <time>2022-11-13T13:04:47.000Z</time>
      </trkpt>
      <trkpt lat="43.31031" lon="6.10064">
        <ele>466.1</ele>
        <time>2022-11-13T13:04:59.000Z</time>
      </trkpt>
      <trkpt lat="43.31025" lon="6.10074">
        <ele>467.1</ele>
        <time>2022-11-13T13:05:11.000Z</time>
      </trkpt>
      <trkpt lat="43.3102" lon="6.10084">
        <ele>468.6</ele>
        <time>2022-11-13T13:05:24.000Z</time>
      </trkpt>
      <trkpt lat="43.31015" lon="6.10095">
        <ele>470.2</ele>
        <time>2022-11-13T13:05:37.000Z</time>
      </trkpt>
      <trkpt lat="43.31009" lon="6.10106">
        <ele>471</ele>
        <time>2022-11-13T13:05:48.000Z</time>
      </trkpt>
      <trkpt lat="43.31004" lon="6.10116">
        <ele>471.8</ele>
        <time>2022-11-13T13:05:58.000Z</time>
      </trkpt>
      <trkpt lat="43.30999" lon="6.10128">
        <ele>472.6</ele>
        <time>2022-11-13T13:06:09.000Z</time>
      </trkpt>
      <trkpt lat="43.30993" lon="6.10138">
        <ele>473.3</ele>
        <time>2022-11-13T13:06:20.000Z</time>
      </trkpt>
      <trkpt lat="43.30987" lon="6.10146">
        <ele>474.2</ele>
        <time>2022-11-13T13:06:30.000Z</time>
      </trkpt>
      <trkpt lat="43.30983" lon="6.10159">
        <ele>474.9</ele>
        <time>2022-11-13T13:06:40.000Z</time>
      </trkpt>
      <trkpt lat="43.30982" lon="6.10171">
        <ele>475.1</ele>
        <time>2022-11-13T13:06:49.000Z</time>
      </trkpt>
      <trkpt lat="43.3098" lon="6.10184">
        <ele>476</ele>
        <time>2022-11-13T13:07:00.000Z</time>
      </trkpt>
      <trkpt lat="43.30977" lon="6.10196">
        <ele>477.1</ele>
        <time>2022-11-13T13:07:12.000Z</time>
      </trkpt>
      <trkpt lat="43.30968" lon="6.10201">
        <ele>478.3</ele>
        <time>2022-11-13T13:07:27.000Z</time>
      </trkpt>
      <trkpt lat="43.30967" lon="6.10202">
        <ele>478.5</ele>
        <time>2022-11-13T13:07:32.000Z</time>
      </trkpt>
      <trkpt lat="43.30966" lon="6.10203">
        <ele>478.3</ele>
        <time>2022-11-13T13:07:34.000Z</time>
      </trkpt>
      <trkpt lat="43.30967" lon="6.10207">
        <ele>478.6</ele>
        <time>2022-11-13T13:07:45.000Z</time>
      </trkpt>
      <trkpt lat="43.30967" lon="6.10207">
        <ele>478.7</ele>
        <time>2022-11-13T13:07:46.000Z</time>
      </trkpt>
      <trkpt lat="43.30966" lon="6.10206">
        <ele>478.6</ele>
        <time>2022-11-13T13:07:48.000Z</time>
      </trkpt>
      <trkpt lat="43.30966" lon="6.10206">
        <ele>478.4</ele>
        <time>2022-11-13T13:08:10.000Z</time>
      </trkpt>
      <trkpt lat="43.30966" lon="6.10206">
        <ele>478.4</ele>
        <time>2022-11-13T13:08:11.000Z</time>
      </trkpt>
      <trkpt lat="43.30966" lon="6.10206">
        <ele>478.2</ele>
        <time>2022-11-13T13:08:43.000Z</time>
      </trkpt>
      <trkpt lat="43.30966" lon="6.10206">
        <ele>478</ele>
        <time>2022-11-13T13:08:44.000Z</time>
      </trkpt>
      <trkpt lat="43.30966" lon="6.10206">
        <ele>478.1</ele>
        <time>2022-11-13T13:08:58.000Z</time>
      </trkpt>
      <trkpt lat="43.3096" lon="6.10196">
        <ele>478.6</ele>
        <time>2022-11-13T13:09:11.000Z</time>
      </trkpt>
      <trkpt lat="43.30958" lon="6.10194">
        <ele>478.4</ele>
        <time>2022-11-13T13:09:15.000Z</time>
      </trkpt>
      <trkpt lat="43.30958" lon="6.10194">
        <ele>478.3</ele>
        <time>2022-11-13T13:09:24.000Z</time>
      </trkpt>
      <trkpt lat="43.30951" lon="6.10185">
        <ele>478.9</ele>
        <time>2022-11-13T13:09:36.000Z</time>
      </trkpt>
      <trkpt lat="43.30944" lon="6.10176">
        <ele>479.4</ele>
        <time>2022-11-13T13:09:45.000Z</time>
      </trkpt>
      <trkpt lat="43.30936" lon="6.10168">
        <ele>479.9</ele>
        <time>2022-11-13T13:09:54.000Z</time>
      </trkpt>
      <trkpt lat="43.30928" lon="6.10162">
        <ele>479.9</ele>
        <time>2022-11-13T13:10:03.000Z</time>
      </trkpt>
      <trkpt lat="43.30919" lon="6.10161">
        <ele>479.8</ele>
        <time>2022-11-13T13:10:11.000Z</time>
      </trkpt>
      <trkpt lat="43.30909" lon="6.10158">
        <ele>478.7</ele>
        <time>2022-11-13T13:10:20.000Z</time>
      </trkpt>
      <trkpt lat="43.30902" lon="6.1015">
        <ele>477.2</ele>
        <time>2022-11-13T13:10:30.000Z</time>
      </trkpt>
      <trkpt lat="43.30901" lon="6.10137">
        <ele>476.5</ele>
        <time>2022-11-13T13:10:39.000Z</time>
      </trkpt>
      <trkpt lat="43.309" lon="6.10124">
        <ele>475.2</ele>
        <time>2022-11-13T13:10:50.000Z</time>
      </trkpt>
      <trkpt lat="43.30899" lon="6.10111">
        <ele>473.7</ele>
        <time>2022-11-13T13:10:58.000Z</time>
      </trkpt>
      <trkpt lat="43.30896" lon="6.10098">
        <ele>472.7</ele>
        <time>2022-11-13T13:11:07.000Z</time>
      </trkpt>
      <trkpt lat="43.30894" lon="6.10085">
        <ele>470.8</ele>
        <time>2022-11-13T13:11:16.000Z</time>
      </trkpt>
      <trkpt lat="43.30894" lon="6.10072">
        <ele>469.3</ele>
        <time>2022-11-13T13:11:26.000Z</time>
      </trkpt>
      <trkpt lat="43.30894" lon="6.10059">
        <ele>467.9</ele>
        <time>2022-11-13T13:11:36.000Z</time>
      </trkpt>
      <trkpt lat="43.30892" lon="6.10046">
        <ele>466.6</ele>
        <time>2022-11-13T13:11:46.000Z</time>
      </trkpt>
      <trkpt lat="43.3089" lon="6.10034">
        <ele>466</ele>
        <time>2022-11-13T13:11:54.000Z</time>
      </trkpt>
      <trkpt lat="43.30888" lon="6.10021">
        <ele>465.3</ele>
        <time>2022-11-13T13:12:02.000Z</time>
      </trkpt>
      <trkpt lat="43.30886" lon="6.10009">
        <ele>464.4</ele>
        <time>2022-11-13T13:12:10.000Z</time>
      </trkpt>
      <trkpt lat="43.30882" lon="6.09997">
        <ele>462.7</ele>
        <time>2022-11-13T13:12:19.000Z</time>
      </trkpt>
      <trkpt lat="43.30876" lon="6.09987">
        <ele>461.9</ele>
        <time>2022-11-13T13:12:29.000Z</time>
      </trkpt>
      <trkpt lat="43.30867" lon="6.09986">
        <ele>462.3</ele>
        <time>2022-11-13T13:12:35.000Z</time>
      </trkpt>
      <trkpt lat="43.30858" lon="6.09983">
        <ele>461.5</ele>
        <time>2022-11-13T13:12:42.000Z</time>
      </trkpt>
      <trkpt lat="43.30849" lon="6.09978">
        <ele>461</ele>
        <time>2022-11-13T13:12:49.000Z</time>
      </trkpt>
      <trkpt lat="43.30841" lon="6.09973">
        <ele>460.1</ele>
        <time>2022-11-13T13:12:56.000Z</time>
      </trkpt>
      <trkpt lat="43.30832" lon="6.09969">
        <ele>459.6</ele>
        <time>2022-11-13T13:13:04.000Z</time>
      </trkpt>
      <trkpt lat="43.30823" lon="6.09965">
        <ele>458.4</ele>
        <time>2022-11-13T13:13:13.000Z</time>
      </trkpt>
      <trkpt lat="43.30814" lon="6.09961">
        <ele>457.3</ele>
        <time>2022-11-13T13:13:22.000Z</time>
      </trkpt>
      <trkpt lat="43.30807" lon="6.09953">
        <ele>456</ele>
        <time>2022-11-13T13:13:33.000Z</time>
      </trkpt>
      <trkpt lat="43.308" lon="6.09943">
        <ele>454.9</ele>
        <time>2022-11-13T13:13:43.000Z</time>
      </trkpt>
      <trkpt lat="43.30792" lon="6.09935">
        <ele>453.7</ele>
        <time>2022-11-13T13:13:53.000Z</time>
      </trkpt>
      <trkpt lat="43.30783" lon="6.0993">
        <ele>453.2</ele>
        <time>2022-11-13T13:14:00.000Z</time>
      </trkpt>
      <trkpt lat="43.30776" lon="6.09923">
        <ele>452.9</ele>
        <time>2022-11-13T13:14:07.000Z</time>
      </trkpt>
      <trkpt lat="43.30768" lon="6.09916">
        <ele>452.1</ele>
        <time>2022-11-13T13:14:16.000Z</time>
      </trkpt>
      <trkpt lat="43.30761" lon="6.09908">
        <ele>451.7</ele>
        <time>2022-11-13T13:14:25.000Z</time>
      </trkpt>
      <trkpt lat="43.30754" lon="6.09899">
        <ele>451.5</ele>
        <time>2022-11-13T13:14:33.000Z</time>
      </trkpt>
      <trkpt lat="43.30748" lon="6.0989">
        <ele>450.8</ele>
        <time>2022-11-13T13:14:41.000Z</time>
      </trkpt>
      <trkpt lat="43.30742" lon="6.0988">
        <ele>450.5</ele>
        <time>2022-11-13T13:14:50.000Z</time>
      </trkpt>
      <trkpt lat="43.30737" lon="6.09868">
        <ele>449.9</ele>
        <time>2022-11-13T13:14:58.000Z</time>
      </trkpt>
      <trkpt lat="43.30734" lon="6.09856">
        <ele>448.9</ele>
        <time>2022-11-13T13:15:07.000Z</time>
      </trkpt>
      <trkpt lat="43.30733" lon="6.09843">
        <ele>447.6</ele>
        <time>2022-11-13T13:15:16.000Z</time>
      </trkpt>
      <trkpt lat="43.3073" lon="6.09829">
        <ele>446.8</ele>
        <time>2022-11-13T13:15:24.000Z</time>
      </trkpt>
      <trkpt lat="43.30722" lon="6.09824">
        <ele>446.7</ele>
        <time>2022-11-13T13:15:32.000Z</time>
      </trkpt>
      <trkpt lat="43.30713" lon="6.09822">
        <ele>444.5</ele>
        <time>2022-11-13T13:15:41.000Z</time>
      </trkpt>
      <trkpt lat="43.30703" lon="6.09819">
        <ele>442.9</ele>
        <time>2022-11-13T13:15:51.000Z</time>
      </trkpt>
      <trkpt lat="43.30695" lon="6.09814">
        <ele>442.7</ele>
        <time>2022-11-13T13:15:57.000Z</time>
      </trkpt>
      <trkpt lat="43.30686" lon="6.09812">
        <ele>441.1</ele>
        <time>2022-11-13T13:16:08.000Z</time>
      </trkpt>
      <trkpt lat="43.30677" lon="6.0981">
        <ele>440</ele>
        <time>2022-11-13T13:16:21.000Z</time>
      </trkpt>
      <trkpt lat="43.30673" lon="6.09813">
        <ele>439.8</ele>
        <time>2022-11-13T13:16:29.000Z</time>
      </trkpt>
      <trkpt lat="43.30674" lon="6.09812">
        <ele>439.7</ele>
        <time>2022-11-13T13:16:31.000Z</time>
      </trkpt>
      <trkpt lat="43.30673" lon="6.09811">
        <ele>439.7</ele>
        <time>2022-11-13T13:16:34.000Z</time>
      </trkpt>
      <trkpt lat="43.30673" lon="6.09811">
        <ele>439.9</ele>
        <time>2022-11-13T13:16:35.000Z</time>
      </trkpt>
      <trkpt lat="43.30673" lon="6.09811">
        <ele>439.9</ele>
        <time>2022-11-13T13:16:36.000Z</time>
      </trkpt>
      <trkpt lat="43.30673" lon="6.09812">
        <ele>439.8</ele>
        <time>2022-11-13T13:16:42.000Z</time>
      </trkpt>
      <trkpt lat="43.30673" lon="6.09812">
        <ele>439.8</ele>
        <time>2022-11-13T13:16:43.000Z</time>
      </trkpt>
      <trkpt lat="43.30673" lon="6.09811">
        <ele>439.7</ele>
        <time>2022-11-13T13:16:55.000Z</time>
      </trkpt>
      <trkpt lat="43.30664" lon="6.09811">
        <ele>439.2</ele>
        <time>2022-11-13T13:17:08.000Z</time>
      </trkpt>
      <trkpt lat="43.30658" lon="6.09821">
        <ele>438.7</ele>
        <time>2022-11-13T13:17:18.000Z</time>
      </trkpt>
      <trkpt lat="43.30658" lon="6.09822">
        <ele>438.6</ele>
        <time>2022-11-13T13:17:21.000Z</time>
      </trkpt>
      <trkpt lat="43.30658" lon="6.09822">
        <ele>438.6</ele>
        <time>2022-11-13T13:17:24.000Z</time>
      </trkpt>
      <trkpt lat="43.30658" lon="6.09823">
        <ele>438.6</ele>
        <time>2022-11-13T13:17:26.000Z</time>
      </trkpt>
      <trkpt lat="43.30657" lon="6.09823">
        <ele>438.6</ele>
        <time>2022-11-13T13:17:27.000Z</time>
      </trkpt>
      <trkpt lat="43.30655" lon="6.09836">
        <ele>437.2</ele>
        <time>2022-11-13T13:17:39.000Z</time>
      </trkpt>
      <trkpt lat="43.30654" lon="6.09849">
        <ele>435.7</ele>
        <time>2022-11-13T13:17:48.000Z</time>
      </trkpt>
      <trkpt lat="43.30651" lon="6.09861">
        <ele>434.4</ele>
        <time>2022-11-13T13:17:58.000Z</time>
      </trkpt>
      <trkpt lat="43.30648" lon="6.09874">
        <ele>433</ele>
        <time>2022-11-13T13:18:09.000Z</time>
      </trkpt>
      <trkpt lat="43.30644" lon="6.09886">
        <ele>431.9</ele>
        <time>2022-11-13T13:18:19.000Z</time>
      </trkpt>
      <trkpt lat="43.3064" lon="6.09897">
        <ele>431.5</ele>
        <time>2022-11-13T13:18:27.000Z</time>
      </trkpt>
      <trkpt lat="43.30635" lon="6.09908">
        <ele>430.9</ele>
        <time>2022-11-13T13:18:37.000Z</time>
      </trkpt>
      <trkpt lat="43.30631" lon="6.0992">
        <ele>430.1</ele>
        <time>2022-11-13T13:18:46.000Z</time>
      </trkpt>
      <trkpt lat="43.30629" lon="6.09933">
        <ele>429.9</ele>
        <time>2022-11-13T13:18:55.000Z</time>
      </trkpt>
      <trkpt lat="43.30628" lon="6.09946">
        <ele>429.3</ele>
        <time>2022-11-13T13:19:04.000Z</time>
      </trkpt>
      <trkpt lat="43.30627" lon="6.0996">
        <ele>429.4</ele>
        <time>2022-11-13T13:19:14.000Z</time>
      </trkpt>
      <trkpt lat="43.30629" lon="6.09972">
        <ele>429.4</ele>
        <time>2022-11-13T13:19:23.000Z</time>
      </trkpt>
      <trkpt lat="43.30629" lon="6.09985">
        <ele>428.8</ele>
        <time>2022-11-13T13:19:31.000Z</time>
      </trkpt>
      <trkpt lat="43.30627" lon="6.09998">
        <ele>427.6</ele>
        <time>2022-11-13T13:19:39.000Z</time>
      </trkpt>
      <trkpt lat="43.30627" lon="6.10011">
        <ele>426.5</ele>
        <time>2022-11-13T13:19:50.000Z</time>
      </trkpt>
      <trkpt lat="43.30628" lon="6.10025">
        <ele>424.9</ele>
        <time>2022-11-13T13:20:01.000Z</time>
      </trkpt>
      <trkpt lat="43.30628" lon="6.10038">
        <ele>423.7</ele>
        <time>2022-11-13T13:20:11.000Z</time>
      </trkpt>
      <trkpt lat="43.30629" lon="6.1005">
        <ele>422.3</ele>
        <time>2022-11-13T13:20:21.000Z</time>
      </trkpt>
      <trkpt lat="43.30626" lon="6.10063">
        <ele>421.4</ele>
        <time>2022-11-13T13:20:29.000Z</time>
      </trkpt>
      <trkpt lat="43.30623" lon="6.10076">
        <ele>420.2</ele>
        <time>2022-11-13T13:20:39.000Z</time>
      </trkpt>
      <trkpt lat="43.3062" lon="6.10089">
        <ele>419.4</ele>
        <time>2022-11-13T13:20:47.000Z</time>
      </trkpt>
      <trkpt lat="43.30618" lon="6.10101">
        <ele>418.7</ele>
        <time>2022-11-13T13:20:57.000Z</time>
      </trkpt>
      <trkpt lat="43.30615" lon="6.10113">
        <ele>417.8</ele>
        <time>2022-11-13T13:21:06.000Z</time>
      </trkpt>
      <trkpt lat="43.30615" lon="6.10126">
        <ele>416.2</ele>
        <time>2022-11-13T13:21:18.000Z</time>
      </trkpt>
      <trkpt lat="43.30613" lon="6.10138">
        <ele>415</ele>
        <time>2022-11-13T13:21:28.000Z</time>
      </trkpt>
      <trkpt lat="43.30612" lon="6.10152">
        <ele>414</ele>
        <time>2022-11-13T13:21:38.000Z</time>
      </trkpt>
      <trkpt lat="43.30613" lon="6.10164">
        <ele>412.9</ele>
        <time>2022-11-13T13:21:49.000Z</time>
      </trkpt>
      <trkpt lat="43.3061" lon="6.10177">
        <ele>410.8</ele>
        <time>2022-11-13T13:22:02.000Z</time>
      </trkpt>
      <trkpt lat="43.3061" lon="6.1019">
        <ele>409.3</ele>
        <time>2022-11-13T13:22:12.000Z</time>
      </trkpt>
      <trkpt lat="43.30611" lon="6.10203">
        <ele>406.9</ele>
        <time>2022-11-13T13:22:29.000Z</time>
      </trkpt>
      <trkpt lat="43.3061" lon="6.10216">
        <ele>405.1</ele>
        <time>2022-11-13T13:22:42.000Z</time>
      </trkpt>
      <trkpt lat="43.30607" lon="6.10228">
        <ele>403.6</ele>
        <time>2022-11-13T13:22:52.000Z</time>
      </trkpt>
      <trkpt lat="43.30606" lon="6.10241">
        <ele>402.4</ele>
        <time>2022-11-13T13:23:03.000Z</time>
      </trkpt>
      <trkpt lat="43.30607" lon="6.10255">
        <ele>400.2</ele>
        <time>2022-11-13T13:23:18.000Z</time>
      </trkpt>
      <trkpt lat="43.30604" lon="6.10267">
        <ele>398.9</ele>
        <time>2022-11-13T13:23:30.000Z</time>
      </trkpt>
      <trkpt lat="43.30604" lon="6.1028">
        <ele>397.7</ele>
        <time>2022-11-13T13:23:40.000Z</time>
      </trkpt>
      <trkpt lat="43.30603" lon="6.10293">
        <ele>395.8</ele>
        <time>2022-11-13T13:23:55.000Z</time>
      </trkpt>
      <trkpt lat="43.30601" lon="6.10306">
        <ele>394.1</ele>
        <time>2022-11-13T13:24:07.000Z</time>
      </trkpt>
      <trkpt lat="43.30602" lon="6.1031">
        <ele>393.3</ele>
        <time>2022-11-13T13:24:14.000Z</time>
      </trkpt>
      <trkpt lat="43.30602" lon="6.10311">
        <ele>393.2</ele>
        <time>2022-11-13T13:24:15.000Z</time>
      </trkpt>
      <trkpt lat="43.30602" lon="6.10324">
        <ele>391.2</ele>
        <time>2022-11-13T13:24:28.000Z</time>
      </trkpt>
      <trkpt lat="43.30598" lon="6.10336">
        <ele>390.2</ele>
        <time>2022-11-13T13:24:40.000Z</time>
      </trkpt>
      <trkpt lat="43.30594" lon="6.10348">
        <ele>388.4</ele>
        <time>2022-11-13T13:24:52.000Z</time>
      </trkpt>
      <trkpt lat="43.30594" lon="6.10362">
        <ele>387.1</ele>
        <time>2022-11-13T13:25:05.000Z</time>
      </trkpt>
      <trkpt lat="43.30597" lon="6.10374">
        <ele>385.7</ele>
        <time>2022-11-13T13:25:20.000Z</time>
      </trkpt>
      <trkpt lat="43.30594" lon="6.10386">
        <ele>384.7</ele>
        <time>2022-11-13T13:25:31.000Z</time>
      </trkpt>
      <trkpt lat="43.3059" lon="6.10397">
        <ele>383.7</ele>
        <time>2022-11-13T13:25:40.000Z</time>
      </trkpt>
      <trkpt lat="43.30586" lon="6.1041">
        <ele>382.2</ele>
        <time>2022-11-13T13:25:53.000Z</time>
      </trkpt>
      <trkpt lat="43.30585" lon="6.10422">
        <ele>380.6</ele>
        <time>2022-11-13T13:26:04.000Z</time>
      </trkpt>
      <trkpt lat="43.3058" lon="6.10433">
        <ele>379.4</ele>
        <time>2022-11-13T13:26:15.000Z</time>
      </trkpt>
      <trkpt lat="43.30577" lon="6.10445">
        <ele>377.9</ele>
        <time>2022-11-13T13:26:28.000Z</time>
      </trkpt>
      <trkpt lat="43.30572" lon="6.10456">
        <ele>375.9</ele>
        <time>2022-11-13T13:26:40.000Z</time>
      </trkpt>
      <trkpt lat="43.30568" lon="6.10467">
        <ele>374.9</ele>
        <time>2022-11-13T13:26:51.000Z</time>
      </trkpt>
      <trkpt lat="43.30561" lon="6.10477">
        <ele>373.5</ele>
        <time>2022-11-13T13:27:03.000Z</time>
      </trkpt>
      <trkpt lat="43.30556" lon="6.10487">
        <ele>372.7</ele>
        <time>2022-11-13T13:27:12.000Z</time>
      </trkpt>
      <trkpt lat="43.3055" lon="6.10497">
        <ele>371.9</ele>
        <time>2022-11-13T13:27:23.000Z</time>
      </trkpt>
      <trkpt lat="43.30551" lon="6.1051">
        <ele>370.8</ele>
        <time>2022-11-13T13:27:34.000Z</time>
      </trkpt>
      <trkpt lat="43.30548" lon="6.10522">
        <ele>369.4</ele>
        <time>2022-11-13T13:27:46.000Z</time>
      </trkpt>
      <trkpt lat="43.30548" lon="6.10535">
        <ele>368.1</ele>
        <time>2022-11-13T13:27:56.000Z</time>
      </trkpt>
      <trkpt lat="43.30541" lon="6.10544">
        <ele>366.9</ele>
        <time>2022-11-13T13:28:07.000Z</time>
      </trkpt>
      <trkpt lat="43.30537" lon="6.10556">
        <ele>365.1</ele>
        <time>2022-11-13T13:28:19.000Z</time>
      </trkpt>
      <trkpt lat="43.30534" lon="6.10568">
        <ele>363.5</ele>
        <time>2022-11-13T13:28:30.000Z</time>
      </trkpt>
      <trkpt lat="43.30533" lon="6.1057">
        <ele>363.6</ele>
        <time>2022-11-13T13:28:33.000Z</time>
      </trkpt>
      <trkpt lat="43.30533" lon="6.1057">
        <ele>363.4</ele>
        <time>2022-11-13T13:28:34.000Z</time>
      </trkpt>
      <trkpt lat="43.30529" lon="6.10582">
        <ele>361.7</ele>
        <time>2022-11-13T13:28:48.000Z</time>
      </trkpt>
      <trkpt lat="43.30522" lon="6.10591">
        <ele>360.6</ele>
        <time>2022-11-13T13:28:56.000Z</time>
      </trkpt>
      <trkpt lat="43.3052" lon="6.10603">
        <ele>359.1</ele>
        <time>2022-11-13T13:29:05.000Z</time>
      </trkpt>
      <trkpt lat="43.30517" lon="6.10616">
        <ele>356.5</ele>
        <time>2022-11-13T13:29:19.000Z</time>
      </trkpt>
      <trkpt lat="43.3051" lon="6.10626">
        <ele>355.3</ele>
        <time>2022-11-13T13:29:30.000Z</time>
      </trkpt>
      <trkpt lat="43.30506" lon="6.10638">
        <ele>352.8</ele>
        <time>2022-11-13T13:29:46.000Z</time>
      </trkpt>
      <trkpt lat="43.30502" lon="6.1065">
        <ele>350.9</ele>
        <time>2022-11-13T13:29:59.000Z</time>
      </trkpt>
      <trkpt lat="43.30495" lon="6.10658">
        <ele>349.3</ele>
        <time>2022-11-13T13:30:11.000Z</time>
      </trkpt>
      <trkpt lat="43.30488" lon="6.10666">
        <ele>347.9</ele>
        <time>2022-11-13T13:30:21.000Z</time>
      </trkpt>
      <trkpt lat="43.30481" lon="6.10676">
        <ele>346</ele>
        <time>2022-11-13T13:30:32.000Z</time>
      </trkpt>
      <trkpt lat="43.30473" lon="6.10681">
        <ele>344.7</ele>
        <time>2022-11-13T13:30:43.000Z</time>
      </trkpt>
      <trkpt lat="43.30464" lon="6.10683">
        <ele>344.3</ele>
        <time>2022-11-13T13:30:56.000Z</time>
      </trkpt>
      <trkpt lat="43.30455" lon="6.10685">
        <ele>343.8</ele>
        <time>2022-11-13T13:31:09.000Z</time>
      </trkpt>
      <trkpt lat="43.30446" lon="6.10689">
        <ele>342.8</ele>
        <time>2022-11-13T13:31:19.000Z</time>
      </trkpt>
      <trkpt lat="43.30437" lon="6.10693">
        <ele>342</ele>
        <time>2022-11-13T13:31:28.000Z</time>
      </trkpt>
      <trkpt lat="43.30428" lon="6.10695">
        <ele>341.2</ele>
        <time>2022-11-13T13:31:36.000Z</time>
      </trkpt>
      <trkpt lat="43.30419" lon="6.10694">
        <ele>341.5</ele>
        <time>2022-11-13T13:31:46.000Z</time>
      </trkpt>
      <trkpt lat="43.30412" lon="6.10704">
        <ele>342.6</ele>
        <time>2022-11-13T13:31:58.000Z</time>
      </trkpt>
      <trkpt lat="43.30408" lon="6.10708">
        <ele>343.6</ele>
        <time>2022-11-13T13:32:09.000Z</time>
      </trkpt>
      <trkpt lat="43.30408" lon="6.10708">
        <ele>343.6</ele>
        <time>2022-11-13T13:32:42.000Z</time>
      </trkpt>
      <trkpt lat="43.30408" lon="6.10708">
        <ele>343.6</ele>
        <time>2022-11-13T13:32:43.000Z</time>
      </trkpt>
      <trkpt lat="43.30407" lon="6.10708">
        <ele>343.4</ele>
        <time>2022-11-13T13:33:07.000Z</time>
      </trkpt>
      <trkpt lat="43.30407" lon="6.10708">
        <ele>343.5</ele>
        <time>2022-11-13T13:33:08.000Z</time>
      </trkpt>
      <trkpt lat="43.30408" lon="6.10708">
        <ele>343.2</ele>
        <time>2022-11-13T13:33:12.000Z</time>
      </trkpt>
      <trkpt lat="43.30408" lon="6.10708">
        <ele>343.3</ele>
        <time>2022-11-13T13:33:13.000Z</time>
      </trkpt>
      <trkpt lat="43.30408" lon="6.10708">
        <ele>343.6</ele>
        <time>2022-11-13T13:33:52.000Z</time>
      </trkpt>
      <trkpt lat="43.30408" lon="6.10708">
        <ele>343.6</ele>
        <time>2022-11-13T13:33:56.000Z</time>
      </trkpt>
      <trkpt lat="43.30408" lon="6.10708">
        <ele>344.2</ele>
        <time>2022-11-13T13:36:22.000Z</time>
      </trkpt>
      <trkpt lat="43.30407" lon="6.10708">
        <ele>344</ele>
        <time>2022-11-13T13:36:25.000Z</time>
      </trkpt>
      <trkpt lat="43.30407" lon="6.10709">
        <ele>344</ele>
        <time>2022-11-13T13:36:49.000Z</time>
      </trkpt>
      <trkpt lat="43.304" lon="6.10719">
        <ele>344</ele>
        <time>2022-11-13T13:37:01.000Z</time>
      </trkpt>
      <trkpt lat="43.30393" lon="6.10728">
        <ele>343.5</ele>
        <time>2022-11-13T13:37:12.000Z</time>
      </trkpt>
      <trkpt lat="43.30386" lon="6.10737">
        <ele>342.2</ele>
        <time>2022-11-13T13:37:22.000Z</time>
      </trkpt>
      <trkpt lat="43.30382" lon="6.10749">
        <ele>341.8</ele>
        <time>2022-11-13T13:37:31.000Z</time>
      </trkpt>
      <trkpt lat="43.30376" lon="6.10759">
        <ele>340.9</ele>
        <time>2022-11-13T13:37:40.000Z</time>
      </trkpt>
      <trkpt lat="43.30369" lon="6.10768">
        <ele>340.3</ele>
        <time>2022-11-13T13:37:48.000Z</time>
      </trkpt>
      <trkpt lat="43.30363" lon="6.10778">
        <ele>339.4</ele>
        <time>2022-11-13T13:37:58.000Z</time>
      </trkpt>
      <trkpt lat="43.30355" lon="6.10787">
        <ele>338.7</ele>
        <time>2022-11-13T13:38:07.000Z</time>
      </trkpt>
      <trkpt lat="43.3035" lon="6.10798">
        <ele>337.8</ele>
        <time>2022-11-13T13:38:17.000Z</time>
      </trkpt>
      <trkpt lat="43.30345" lon="6.10808">
        <ele>336.9</ele>
        <time>2022-11-13T13:38:26.000Z</time>
      </trkpt>
      <trkpt lat="43.30337" lon="6.10816">
        <ele>336.1</ele>
        <time>2022-11-13T13:38:34.000Z</time>
      </trkpt>
      <trkpt lat="43.30331" lon="6.10825">
        <ele>335.1</ele>
        <time>2022-11-13T13:38:43.000Z</time>
      </trkpt>
      <trkpt lat="43.30328" lon="6.10837">
        <ele>334.6</ele>
        <time>2022-11-13T13:38:49.000Z</time>
      </trkpt>
      <trkpt lat="43.30322" lon="6.10847">
        <ele>334.3</ele>
        <time>2022-11-13T13:38:57.000Z</time>
      </trkpt>
      <trkpt lat="43.30315" lon="6.10855">
        <ele>333.6</ele>
        <time>2022-11-13T13:39:07.000Z</time>
      </trkpt>
      <trkpt lat="43.30307" lon="6.10864">
        <ele>333</ele>
        <time>2022-11-13T13:39:16.000Z</time>
      </trkpt>
      <trkpt lat="43.30302" lon="6.10874">
        <ele>332.3</ele>
        <time>2022-11-13T13:39:24.000Z</time>
      </trkpt>
      <trkpt lat="43.30297" lon="6.10885">
        <ele>331</ele>
        <time>2022-11-13T13:39:32.000Z</time>
      </trkpt>
      <trkpt lat="43.30293" lon="6.10898">
        <ele>330.3</ele>
        <time>2022-11-13T13:39:40.000Z</time>
      </trkpt>
      <trkpt lat="43.30288" lon="6.10909">
        <ele>329.4</ele>
        <time>2022-11-13T13:39:53.000Z</time>
      </trkpt>
      <trkpt lat="43.30283" lon="6.10919">
        <ele>328.5</ele>
        <time>2022-11-13T13:40:02.000Z</time>
      </trkpt>
      <trkpt lat="43.30276" lon="6.10928">
        <ele>327.1</ele>
        <time>2022-11-13T13:40:13.000Z</time>
      </trkpt>
      <trkpt lat="43.30273" lon="6.10939">
        <ele>325.9</ele>
        <time>2022-11-13T13:40:23.000Z</time>
      </trkpt>
      <trkpt lat="43.30268" lon="6.1095">
        <ele>325.5</ele>
        <time>2022-11-13T13:40:33.000Z</time>
      </trkpt>
      <trkpt lat="43.30262" lon="6.10961">
        <ele>324.9</ele>
        <time>2022-11-13T13:40:41.000Z</time>
      </trkpt>
      <trkpt lat="43.30256" lon="6.10971">
        <ele>324.6</ele>
        <time>2022-11-13T13:40:49.000Z</time>
      </trkpt>
      <trkpt lat="43.3025" lon="6.10981">
        <ele>324.3</ele>
        <time>2022-11-13T13:40:56.000Z</time>
      </trkpt>
      <trkpt lat="43.30244" lon="6.1099">
        <ele>324.2</ele>
        <time>2022-11-13T13:41:04.000Z</time>
      </trkpt>
      <trkpt lat="43.30235" lon="6.10998">
        <ele>324</ele>
        <time>2022-11-13T13:41:11.000Z</time>
      </trkpt>
      <trkpt lat="43.3023" lon="6.11008">
        <ele>324.3</ele>
        <time>2022-11-13T13:41:19.000Z</time>
      </trkpt>
      <trkpt lat="43.30222" lon="6.11017">
        <ele>324.4</ele>
        <time>2022-11-13T13:41:28.000Z</time>
      </trkpt>
      <trkpt lat="43.30215" lon="6.11024">
        <ele>324.2</ele>
        <time>2022-11-13T13:41:35.000Z</time>
      </trkpt>
      <trkpt lat="43.30206" lon="6.11021">
        <ele>321.9</ele>
        <time>2022-11-13T13:41:48.000Z</time>
      </trkpt>
      <trkpt lat="43.30198" lon="6.11013">
        <ele>320.3</ele>
        <time>2022-11-13T13:41:58.000Z</time>
      </trkpt>
      <trkpt lat="43.30193" lon="6.11001">
        <ele>319.3</ele>
        <time>2022-11-13T13:42:09.000Z</time>
      </trkpt>
      <trkpt lat="43.30185" lon="6.10993">
        <ele>319.1</ele>
        <time>2022-11-13T13:42:16.000Z</time>
      </trkpt>
      <trkpt lat="43.30176" lon="6.10998">
        <ele>319.2</ele>
        <time>2022-11-13T13:42:25.000Z</time>
      </trkpt>
      <trkpt lat="43.3017" lon="6.11009">
        <ele>320.1</ele>
        <time>2022-11-13T13:42:35.000Z</time>
      </trkpt>
      <trkpt lat="43.30165" lon="6.11019">
        <ele>321.6</ele>
        <time>2022-11-13T13:42:47.000Z</time>
      </trkpt>
      <trkpt lat="43.30161" lon="6.11031">
        <ele>322.1</ele>
        <time>2022-11-13T13:42:55.000Z</time>
      </trkpt>
      <trkpt lat="43.30157" lon="6.11042">
        <ele>323.9</ele>
        <time>2022-11-13T13:43:08.000Z</time>
      </trkpt>
      <trkpt lat="43.30153" lon="6.11054">
        <ele>324.4</ele>
        <time>2022-11-13T13:43:17.000Z</time>
      </trkpt>
      <trkpt lat="43.30152" lon="6.11067">
        <ele>325.5</ele>
        <time>2022-11-13T13:43:27.000Z</time>
      </trkpt>
      <trkpt lat="43.30151" lon="6.1108">
        <ele>326.3</ele>
        <time>2022-11-13T13:43:38.000Z</time>
      </trkpt>
      <trkpt lat="43.30149" lon="6.11092">
        <ele>326.8</ele>
        <time>2022-11-13T13:43:49.000Z</time>
      </trkpt>
      <trkpt lat="43.30141" lon="6.11099">
        <ele>327.6</ele>
        <time>2022-11-13T13:43:59.000Z</time>
      </trkpt>
      <trkpt lat="43.30132" lon="6.11096">
        <ele>328.9</ele>
        <time>2022-11-13T13:44:11.000Z</time>
      </trkpt>
      <trkpt lat="43.30126" lon="6.11088">
        <ele>330.4</ele>
        <time>2022-11-13T13:44:25.000Z</time>
      </trkpt>
      <trkpt lat="43.3012" lon="6.11083">
        <ele>331.1</ele>
        <time>2022-11-13T13:44:35.000Z</time>
      </trkpt>
      <trkpt lat="43.30119" lon="6.11083">
        <ele>331.1</ele>
        <time>2022-11-13T13:44:42.000Z</time>
      </trkpt>
      <trkpt lat="43.30119" lon="6.11082">
        <ele>331.1</ele>
        <time>2022-11-13T13:44:47.000Z</time>
      </trkpt>
      <trkpt lat="43.30119" lon="6.11082">
        <ele>331.1</ele>
        <time>2022-11-13T13:44:55.000Z</time>
      </trkpt>
      <trkpt lat="43.30119" lon="6.11082">
        <ele>331.1</ele>
        <time>2022-11-13T13:44:56.000Z</time>
      </trkpt>
      <trkpt lat="43.30118" lon="6.11082">
        <ele>331.2</ele>
        <time>2022-11-13T13:44:57.000Z</time>
      </trkpt>
      <trkpt lat="43.30118" lon="6.11082">
        <ele>331.6</ele>
        <time>2022-11-13T13:44:59.000Z</time>
      </trkpt>
      <trkpt lat="43.30118" lon="6.11082">
        <ele>331.7</ele>
        <time>2022-11-13T13:45:00.000Z</time>
      </trkpt>
      <trkpt lat="43.30109" lon="6.11082">
        <ele>331.8</ele>
        <time>2022-11-13T13:45:11.000Z</time>
      </trkpt>
      <trkpt lat="43.30099" lon="6.11084">
        <ele>332.6</ele>
        <time>2022-11-13T13:45:22.000Z</time>
      </trkpt>
      <trkpt lat="43.3009" lon="6.11086">
        <ele>333.5</ele>
        <time>2022-11-13T13:45:33.000Z</time>
      </trkpt>
      <trkpt lat="43.3008" lon="6.1109">
        <ele>334.5</ele>
        <time>2022-11-13T13:45:45.000Z</time>
      </trkpt>
      <trkpt lat="43.30071" lon="6.1109">
        <ele>335.5</ele>
        <time>2022-11-13T13:45:55.000Z</time>
      </trkpt>
      <trkpt lat="43.3006" lon="6.1109">
        <ele>336.7</ele>
        <time>2022-11-13T13:46:07.000Z</time>
      </trkpt>
      <trkpt lat="43.3005" lon="6.11093">
        <ele>337.3</ele>
        <time>2022-11-13T13:46:16.000Z</time>
      </trkpt>
      <trkpt lat="43.30045" lon="6.11103">
        <ele>337.5</ele>
        <time>2022-11-13T13:46:23.000Z</time>
      </trkpt>
      <trkpt lat="43.30039" lon="6.11114">
        <ele>337.4</ele>
        <time>2022-11-13T13:46:31.000Z</time>
      </trkpt>
      <trkpt lat="43.30033" lon="6.11124">
        <ele>338</ele>
        <time>2022-11-13T13:46:41.000Z</time>
      </trkpt>
      <trkpt lat="43.30025" lon="6.1113">
        <ele>339.1</ele>
        <time>2022-11-13T13:46:52.000Z</time>
      </trkpt>
      <trkpt lat="43.30016" lon="6.11131">
        <ele>340</ele>
        <time>2022-11-13T13:47:03.000Z</time>
      </trkpt>
      <trkpt lat="43.30008" lon="6.11139">
        <ele>340.5</ele>
        <time>2022-11-13T13:47:13.000Z</time>
      </trkpt>
      <trkpt lat="43.30002" lon="6.11148">
        <ele>340.8</ele>
        <time>2022-11-13T13:47:23.000Z</time>
      </trkpt>
      <trkpt lat="43.29995" lon="6.11158">
        <ele>341.2</ele>
        <time>2022-11-13T13:47:31.000Z</time>
      </trkpt>
      <trkpt lat="43.29994" lon="6.11161">
        <ele>341.2</ele>
        <time>2022-11-13T13:47:36.000Z</time>
      </trkpt>
      <trkpt lat="43.29993" lon="6.11161">
        <ele>341.1</ele>
        <time>2022-11-13T13:47:37.000Z</time>
      </trkpt>
      <trkpt lat="43.29986" lon="6.11169">
        <ele>341.2</ele>
        <time>2022-11-13T13:47:44.000Z</time>
      </trkpt>
      <trkpt lat="43.29977" lon="6.11175">
        <ele>341.4</ele>
        <time>2022-11-13T13:47:52.000Z</time>
      </trkpt>
      <trkpt lat="43.29968" lon="6.11177">
        <ele>341.3</ele>
        <time>2022-11-13T13:48:00.000Z</time>
      </trkpt>
      <trkpt lat="43.29958" lon="6.11175">
        <ele>342.2</ele>
        <time>2022-11-13T13:48:09.000Z</time>
      </trkpt>
      <trkpt lat="43.29949" lon="6.11171">
        <ele>342.3</ele>
        <time>2022-11-13T13:48:18.000Z</time>
      </trkpt>
      <trkpt lat="43.2994" lon="6.11171">
        <ele>342.8</ele>
        <time>2022-11-13T13:48:28.000Z</time>
      </trkpt>
      <trkpt lat="43.2993" lon="6.11166">
        <ele>343.1</ele>
        <time>2022-11-13T13:48:37.000Z</time>
      </trkpt>
      <trkpt lat="43.29924" lon="6.11164">
        <ele>343.4</ele>
        <time>2022-11-13T13:48:45.000Z</time>
      </trkpt>
      <trkpt lat="43.29924" lon="6.11164">
        <ele>343.4</ele>
        <time>2022-11-13T13:48:46.000Z</time>
      </trkpt>
      <trkpt lat="43.29924" lon="6.11164">
        <ele>343.4</ele>
        <time>2022-11-13T13:48:47.000Z</time>
      </trkpt>
      <trkpt lat="43.29924" lon="6.11164">
        <ele>343.5</ele>
        <time>2022-11-13T13:48:56.000Z</time>
      </trkpt>
      <trkpt lat="43.29924" lon="6.11164">
        <ele>343.4</ele>
        <time>2022-11-13T13:48:57.000Z</time>
      </trkpt>
      <trkpt lat="43.29924" lon="6.11164">
        <ele>343.4</ele>
        <time>2022-11-13T13:49:25.000Z</time>
      </trkpt>
      <trkpt lat="43.29924" lon="6.11164">
        <ele>343.5</ele>
        <time>2022-11-13T13:49:27.000Z</time>
      </trkpt>
      <trkpt lat="43.29924" lon="6.11164">
        <ele>343.4</ele>
        <time>2022-11-13T13:49:36.000Z</time>
      </trkpt>
      <trkpt lat="43.29924" lon="6.11164">
        <ele>343.5</ele>
        <time>2022-11-13T13:49:37.000Z</time>
      </trkpt>
      <trkpt lat="43.29924" lon="6.11163">
        <ele>343.6</ele>
        <time>2022-11-13T13:49:38.000Z</time>
      </trkpt>
      <trkpt lat="43.29924" lon="6.11163">
        <ele>343.7</ele>
        <time>2022-11-13T13:49:39.000Z</time>
      </trkpt>
      <trkpt lat="43.29924" lon="6.11163">
        <ele>343.5</ele>
        <time>2022-11-13T13:50:57.000Z</time>
      </trkpt>
      <trkpt lat="43.29925" lon="6.11164">
        <ele>343.4</ele>
        <time>2022-11-13T13:51:01.000Z</time>
      </trkpt>
      <trkpt lat="43.29925" lon="6.11164">
        <ele>343.6</ele>
        <time>2022-11-13T13:51:07.000Z</time>
      </trkpt>
      <trkpt lat="43.29924" lon="6.11167">
        <ele>343.4</ele>
        <time>2022-11-13T13:51:12.000Z</time>
      </trkpt>
      <trkpt lat="43.29924" lon="6.11168">
        <ele>343.3</ele>
        <time>2022-11-13T13:51:24.000Z</time>
      </trkpt>
      <trkpt lat="43.29922" lon="6.11173">
        <ele>343.3</ele>
        <time>2022-11-13T13:51:34.000Z</time>
      </trkpt>
      <trkpt lat="43.29922" lon="6.11173">
        <ele>343.4</ele>
        <time>2022-11-13T13:52:02.000Z</time>
      </trkpt>
      <trkpt lat="43.29922" lon="6.11169">
        <ele>343.5</ele>
        <time>2022-11-13T13:52:08.000Z</time>
      </trkpt>
      <trkpt lat="43.29923" lon="6.11169">
        <ele>343.5</ele>
        <time>2022-11-13T13:52:16.000Z</time>
      </trkpt>
      <trkpt lat="43.29923" lon="6.11169">
        <ele>343.6</ele>
        <time>2022-11-13T13:52:17.000Z</time>
      </trkpt>
      <trkpt lat="43.29923" lon="6.11169">
        <ele>343.7</ele>
        <time>2022-11-13T13:52:33.000Z</time>
      </trkpt>
      <trkpt lat="43.29923" lon="6.1117">
        <ele>343.8</ele>
        <time>2022-11-13T13:52:34.000Z</time>
      </trkpt>
      <trkpt lat="43.29923" lon="6.1117">
        <ele>344.1</ele>
        <time>2022-11-13T13:52:54.000Z</time>
      </trkpt>
      <trkpt lat="43.29924" lon="6.11175">
        <ele>343.5</ele>
        <time>2022-11-13T13:53:04.000Z</time>
      </trkpt>
      <trkpt lat="43.29924" lon="6.11175">
        <ele>343.8</ele>
        <time>2022-11-13T13:53:09.000Z</time>
      </trkpt>
      <trkpt lat="43.29924" lon="6.11175">
        <ele>343.8</ele>
        <time>2022-11-13T13:53:10.000Z</time>
      </trkpt>
      <trkpt lat="43.29924" lon="6.11175">
        <ele>343.9</ele>
        <time>2022-11-13T13:53:24.000Z</time>
      </trkpt>
      <trkpt lat="43.29924" lon="6.11175">
        <ele>343.9</ele>
        <time>2022-11-13T13:53:28.000Z</time>
      </trkpt>
      <trkpt lat="43.29924" lon="6.11175">
        <ele>343.8</ele>
        <time>2022-11-13T13:53:30.000Z</time>
      </trkpt>
      <trkpt lat="43.29923" lon="6.11179">
        <ele>343.8</ele>
        <time>2022-11-13T13:53:40.000Z</time>
      </trkpt>
      <trkpt lat="43.29923" lon="6.11179">
        <ele>343.5</ele>
        <time>2022-11-13T13:53:47.000Z</time>
      </trkpt>
      <trkpt lat="43.29923" lon="6.11179">
        <ele>343.7</ele>
        <time>2022-11-13T13:53:48.000Z</time>
      </trkpt>
      <trkpt lat="43.29923" lon="6.11179">
        <ele>343.5</ele>
        <time>2022-11-13T13:53:55.000Z</time>
      </trkpt>
      <trkpt lat="43.29923" lon="6.11179">
        <ele>343.7</ele>
        <time>2022-11-13T13:53:57.000Z</time>
      </trkpt>
      <trkpt lat="43.29923" lon="6.11179">
        <ele>343.5</ele>
        <time>2022-11-13T13:54:00.000Z</time>
      </trkpt>
      <trkpt lat="43.29923" lon="6.11179">
        <ele>343.5</ele>
        <time>2022-11-13T13:54:01.000Z</time>
      </trkpt>
      <trkpt lat="43.29923" lon="6.11179">
        <ele>343.7</ele>
        <time>2022-11-13T13:54:04.000Z</time>
      </trkpt>
      <trkpt lat="43.29922" lon="6.11181">
        <ele>343.5</ele>
        <time>2022-11-13T13:54:09.000Z</time>
      </trkpt>
      <trkpt lat="43.29922" lon="6.11181">
        <ele>343.6</ele>
        <time>2022-11-13T13:54:24.000Z</time>
      </trkpt>
      <trkpt lat="43.29921" lon="6.11181">
        <ele>343.3</ele>
        <time>2022-11-13T13:54:27.000Z</time>
      </trkpt>
      <trkpt lat="43.29921" lon="6.11182">
        <ele>343.5</ele>
        <time>2022-11-13T13:54:31.000Z</time>
      </trkpt>
      <trkpt lat="43.29921" lon="6.11182">
        <ele>343.5</ele>
        <time>2022-11-13T13:54:33.000Z</time>
      </trkpt>
      <trkpt lat="43.29921" lon="6.11182">
        <ele>343.4</ele>
        <time>2022-11-13T13:54:34.000Z</time>
      </trkpt>
      <trkpt lat="43.29921" lon="6.11182">
        <ele>343.4</ele>
        <time>2022-11-13T13:54:35.000Z</time>
      </trkpt>
      <trkpt lat="43.29921" lon="6.11182">
        <ele>343.4</ele>
        <time>2022-11-13T13:54:36.000Z</time>
      </trkpt>
      <trkpt lat="43.29921" lon="6.11182">
        <ele>343.4</ele>
        <time>2022-11-13T13:54:37.000Z</time>
      </trkpt>
      <trkpt lat="43.29921" lon="6.11183">
        <ele>343.5</ele>
        <time>2022-11-13T13:54:40.000Z</time>
      </trkpt>
      <trkpt lat="43.29921" lon="6.11183">
        <ele>343.4</ele>
        <time>2022-11-13T13:54:41.000Z</time>
      </trkpt>
      <trkpt lat="43.29921" lon="6.11183">
        <ele>343.4</ele>
        <time>2022-11-13T13:54:42.000Z</time>
      </trkpt>
      <trkpt lat="43.29921" lon="6.11183">
        <ele>343.4</ele>
        <time>2022-11-13T13:54:43.000Z</time>
      </trkpt>
      <trkpt lat="43.29921" lon="6.11184">
        <ele>343.3</ele>
        <time>2022-11-13T13:54:45.000Z</time>
      </trkpt>
      <trkpt lat="43.29921" lon="6.11184">
        <ele>343.2</ele>
        <time>2022-11-13T13:54:46.000Z</time>
      </trkpt>
      <trkpt lat="43.29921" lon="6.11184">
        <ele>343.3</ele>
        <time>2022-11-13T13:54:47.000Z</time>
      </trkpt>
      <trkpt lat="43.29921" lon="6.11187">
        <ele>343.2</ele>
        <time>2022-11-13T13:54:55.000Z</time>
      </trkpt>
      <trkpt lat="43.29921" lon="6.11188">
        <ele>343.1</ele>
        <time>2022-11-13T13:54:57.000Z</time>
      </trkpt>
      <trkpt lat="43.29924" lon="6.112">
        <ele>342.2</ele>
        <time>2022-11-13T13:55:10.000Z</time>
      </trkpt>
      <trkpt lat="43.29928" lon="6.11211">
        <ele>341.2</ele>
        <time>2022-11-13T13:55:19.000Z</time>
      </trkpt>
      <trkpt lat="43.29931" lon="6.11225">
        <ele>340.1</ele>
        <time>2022-11-13T13:55:28.000Z</time>
      </trkpt>
      <trkpt lat="43.29927" lon="6.11236">
        <ele>338.2</ele>
        <time>2022-11-13T13:55:39.000Z</time>
      </trkpt>
      <trkpt lat="43.29924" lon="6.11248">
        <ele>337</ele>
        <time>2022-11-13T13:55:48.000Z</time>
      </trkpt>
      <trkpt lat="43.29924" lon="6.11262">
        <ele>335.7</ele>
        <time>2022-11-13T13:55:57.000Z</time>
      </trkpt>
      <trkpt lat="43.29921" lon="6.11274">
        <ele>334.8</ele>
        <time>2022-11-13T13:56:04.000Z</time>
      </trkpt>
      <trkpt lat="43.29916" lon="6.11285">
        <ele>333.9</ele>
        <time>2022-11-13T13:56:13.000Z</time>
      </trkpt>
      <trkpt lat="43.29918" lon="6.11298">
        <ele>332.4</ele>
        <time>2022-11-13T13:56:21.000Z</time>
      </trkpt>
      <trkpt lat="43.29915" lon="6.1131">
        <ele>331.8</ele>
        <time>2022-11-13T13:56:31.000Z</time>
      </trkpt>
      <trkpt lat="43.29912" lon="6.11322">
        <ele>331.3</ele>
        <time>2022-11-13T13:56:40.000Z</time>
      </trkpt>
      <trkpt lat="43.29907" lon="6.11334">
        <ele>331.3</ele>
        <time>2022-11-13T13:56:51.000Z</time>
      </trkpt>
      <trkpt lat="43.29905" lon="6.11347">
        <ele>330.9</ele>
        <time>2022-11-13T13:57:00.000Z</time>
      </trkpt>
      <trkpt lat="43.29903" lon="6.1136">
        <ele>329.6</ele>
        <time>2022-11-13T13:57:10.000Z</time>
      </trkpt>
      <trkpt lat="43.299" lon="6.11373">
        <ele>328.8</ele>
        <time>2022-11-13T13:57:19.000Z</time>
      </trkpt>
      <trkpt lat="43.29899" lon="6.11386">
        <ele>327.7</ele>
        <time>2022-11-13T13:57:28.000Z</time>
      </trkpt>
      <trkpt lat="43.29895" lon="6.11399">
        <ele>327.2</ele>
        <time>2022-11-13T13:57:37.000Z</time>
      </trkpt>
      <trkpt lat="43.29892" lon="6.1141">
        <ele>326.8</ele>
        <time>2022-11-13T13:57:45.000Z</time>
      </trkpt>
      <trkpt lat="43.29887" lon="6.11422">
        <ele>326.2</ele>
        <time>2022-11-13T13:57:54.000Z</time>
      </trkpt>
      <trkpt lat="43.29881" lon="6.11433">
        <ele>325.8</ele>
        <time>2022-11-13T13:58:02.000Z</time>
      </trkpt>
      <trkpt lat="43.29876" lon="6.11444">
        <ele>325.3</ele>
        <time>2022-11-13T13:58:10.000Z</time>
      </trkpt>
      <trkpt lat="43.29871" lon="6.11456">
        <ele>324.7</ele>
        <time>2022-11-13T13:58:19.000Z</time>
      </trkpt>
      <trkpt lat="43.29867" lon="6.11467">
        <ele>324.3</ele>
        <time>2022-11-13T13:58:27.000Z</time>
      </trkpt>
      <trkpt lat="43.29863" lon="6.11479">
        <ele>324.5</ele>
        <time>2022-11-13T13:58:36.000Z</time>
      </trkpt>
      <trkpt lat="43.29857" lon="6.11489">
        <ele>324.1</ele>
        <time>2022-11-13T13:58:46.000Z</time>
      </trkpt>
      <trkpt lat="43.29849" lon="6.11496">
        <ele>324.4</ele>
        <time>2022-11-13T13:58:57.000Z</time>
      </trkpt>
      <trkpt lat="43.29844" lon="6.11507">
        <ele>323</ele>
        <time>2022-11-13T13:59:11.000Z</time>
      </trkpt>
      <trkpt lat="43.2984" lon="6.11514">
        <ele>322</ele>
        <time>2022-11-13T13:59:19.000Z</time>
      </trkpt>
      <trkpt lat="43.2984" lon="6.11514">
        <ele>322</ele>
        <time>2022-11-13T13:59:21.000Z</time>
      </trkpt>
      <trkpt lat="43.29834" lon="6.11524">
        <ele>320.9</ele>
        <time>2022-11-13T13:59:30.000Z</time>
      </trkpt>
      <trkpt lat="43.29827" lon="6.11534">
        <ele>319.6</ele>
        <time>2022-11-13T13:59:40.000Z</time>
      </trkpt>
      <trkpt lat="43.29819" lon="6.11541">
        <ele>318.9</ele>
        <time>2022-11-13T13:59:52.000Z</time>
      </trkpt>
      <trkpt lat="43.29813" lon="6.11551">
        <ele>318.1</ele>
        <time>2022-11-13T14:00:01.000Z</time>
      </trkpt>
      <trkpt lat="43.29809" lon="6.11559">
        <ele>317.3</ele>
        <time>2022-11-13T14:00:09.000Z</time>
      </trkpt>
      <trkpt lat="43.29809" lon="6.1156">
        <ele>317.2</ele>
        <time>2022-11-13T14:00:10.000Z</time>
      </trkpt>
      <trkpt lat="43.29802" lon="6.11569">
        <ele>316.4</ele>
        <time>2022-11-13T14:00:23.000Z</time>
      </trkpt>
      <trkpt lat="43.29794" lon="6.11576">
        <ele>316</ele>
        <time>2022-11-13T14:00:32.000Z</time>
      </trkpt>
      <trkpt lat="43.29792" lon="6.11577">
        <ele>316.2</ele>
        <time>2022-11-13T14:00:35.000Z</time>
      </trkpt>
      <trkpt lat="43.29792" lon="6.11577">
        <ele>316.3</ele>
        <time>2022-11-13T14:00:40.000Z</time>
      </trkpt>
      <trkpt lat="43.29792" lon="6.11577">
        <ele>316.3</ele>
        <time>2022-11-13T14:00:41.000Z</time>
      </trkpt>
      <trkpt lat="43.29792" lon="6.11578">
        <ele>316</ele>
        <time>2022-11-13T14:00:48.000Z</time>
      </trkpt>
      <trkpt lat="43.29791" lon="6.11579">
        <ele>316</ele>
        <time>2022-11-13T14:00:53.000Z</time>
      </trkpt>
      <trkpt lat="43.29791" lon="6.11579">
        <ele>316</ele>
        <time>2022-11-13T14:00:54.000Z</time>
      </trkpt>
      <trkpt lat="43.29789" lon="6.11576">
        <ele>316.1</ele>
        <time>2022-11-13T14:01:01.000Z</time>
      </trkpt>
      <trkpt lat="43.29789" lon="6.11576">
        <ele>316.1</ele>
        <time>2022-11-13T14:01:02.000Z</time>
      </trkpt>
      <trkpt lat="43.29789" lon="6.11575">
        <ele>316.1</ele>
        <time>2022-11-13T14:01:04.000Z</time>
      </trkpt>
      <trkpt lat="43.29789" lon="6.11575">
        <ele>316.2</ele>
        <time>2022-11-13T14:01:07.000Z</time>
      </trkpt>
      <trkpt lat="43.29786" lon="6.11587">
        <ele>315.6</ele>
        <time>2022-11-13T14:01:22.000Z</time>
      </trkpt>
      <trkpt lat="43.2978" lon="6.11598">
        <ele>314.6</ele>
        <time>2022-11-13T14:01:32.000Z</time>
      </trkpt>
      <trkpt lat="43.29774" lon="6.11609">
        <ele>314</ele>
        <time>2022-11-13T14:01:40.000Z</time>
      </trkpt>
      <trkpt lat="43.2977" lon="6.11621">
        <ele>313.4</ele>
        <time>2022-11-13T14:01:50.000Z</time>
      </trkpt>
      <trkpt lat="43.2977" lon="6.11635">
        <ele>313</ele>
        <time>2022-11-13T14:01:58.000Z</time>
      </trkpt>
      <trkpt lat="43.29768" lon="6.11647">
        <ele>312.9</ele>
        <time>2022-11-13T14:02:04.000Z</time>
      </trkpt>
      <trkpt lat="43.29768" lon="6.1166">
        <ele>312.3</ele>
        <time>2022-11-13T14:02:13.000Z</time>
      </trkpt>
      <trkpt lat="43.29768" lon="6.11673">
        <ele>311.2</ele>
        <time>2022-11-13T14:02:23.000Z</time>
      </trkpt>
      <trkpt lat="43.29768" lon="6.11686">
        <ele>309.5</ele>
        <time>2022-11-13T14:02:34.000Z</time>
      </trkpt>
      <trkpt lat="43.29766" lon="6.11698">
        <ele>308.1</ele>
        <time>2022-11-13T14:02:44.000Z</time>
      </trkpt>
      <trkpt lat="43.29763" lon="6.1171">
        <ele>307</ele>
        <time>2022-11-13T14:02:53.000Z</time>
      </trkpt>
      <trkpt lat="43.2976" lon="6.11718">
        <ele>306.1</ele>
        <time>2022-11-13T14:03:04.000Z</time>
      </trkpt>
      <trkpt lat="43.2976" lon="6.11717">
        <ele>306</ele>
        <time>2022-11-13T14:03:10.000Z</time>
      </trkpt>
      <trkpt lat="43.2976" lon="6.11717">
        <ele>305.9</ele>
        <time>2022-11-13T14:03:11.000Z</time>
      </trkpt>
      <trkpt lat="43.2976" lon="6.11718">
        <ele>305.9</ele>
        <time>2022-11-13T14:03:13.000Z</time>
      </trkpt>
      <trkpt lat="43.29759" lon="6.11732">
        <ele>304.8</ele>
        <time>2022-11-13T14:03:23.000Z</time>
      </trkpt>
      <trkpt lat="43.29761" lon="6.11745">
        <ele>304</ele>
        <time>2022-11-13T14:03:31.000Z</time>
      </trkpt>
      <trkpt lat="43.29761" lon="6.11758">
        <ele>303</ele>
        <time>2022-11-13T14:03:40.000Z</time>
      </trkpt>
      <trkpt lat="43.2976" lon="6.11771">
        <ele>301.6</ele>
        <time>2022-11-13T14:03:48.000Z</time>
      </trkpt>
      <trkpt lat="43.29757" lon="6.11784">
        <ele>300.7</ele>
        <time>2022-11-13T14:03:57.000Z</time>
      </trkpt>
      <trkpt lat="43.29756" lon="6.11796">
        <ele>299.3</ele>
        <time>2022-11-13T14:04:06.000Z</time>
      </trkpt>
      <trkpt lat="43.29753" lon="6.11808">
        <ele>298.7</ele>
        <time>2022-11-13T14:04:14.000Z</time>
      </trkpt>
      <trkpt lat="43.29749" lon="6.1182">
        <ele>297.8</ele>
        <time>2022-11-13T14:04:22.000Z</time>
      </trkpt>
      <trkpt lat="43.29745" lon="6.11831">
        <ele>296.1</ele>
        <time>2022-11-13T14:04:33.000Z</time>
      </trkpt>
      <trkpt lat="43.29738" lon="6.11839">
        <ele>294.7</ele>
        <time>2022-11-13T14:04:43.000Z</time>
      </trkpt>
      <trkpt lat="43.29733" lon="6.1185">
        <ele>293.2</ele>
        <time>2022-11-13T14:04:54.000Z</time>
      </trkpt>
      <trkpt lat="43.29726" lon="6.11858">
        <ele>292.2</ele>
        <time>2022-11-13T14:05:02.000Z</time>
      </trkpt>
      <trkpt lat="43.29719" lon="6.11867">
        <ele>291</ele>
        <time>2022-11-13T14:05:12.000Z</time>
      </trkpt>
      <trkpt lat="43.29712" lon="6.11876">
        <ele>289.6</ele>
        <time>2022-11-13T14:05:21.000Z</time>
      </trkpt>
      <trkpt lat="43.29705" lon="6.11886">
        <ele>288.4</ele>
        <time>2022-11-13T14:05:31.000Z</time>
      </trkpt>
      <trkpt lat="43.29697" lon="6.11895">
        <ele>287.5</ele>
        <time>2022-11-13T14:05:41.000Z</time>
      </trkpt>
      <trkpt lat="43.29692" lon="6.11906">
        <ele>286.9</ele>
        <time>2022-11-13T14:05:47.000Z</time>
      </trkpt>
      <trkpt lat="43.29685" lon="6.11914">
        <ele>285.8</ele>
        <time>2022-11-13T14:05:54.000Z</time>
      </trkpt>
      <trkpt lat="43.29677" lon="6.11922">
        <ele>284.9</ele>
        <time>2022-11-13T14:06:02.000Z</time>
      </trkpt>
      <trkpt lat="43.29677" lon="6.11922">
        <ele>284.6</ele>
        <time>2022-11-13T14:06:04.000Z</time>
      </trkpt>
      <trkpt lat="43.29677" lon="6.11923">
        <ele>284.5</ele>
        <time>2022-11-13T14:06:05.000Z</time>
      </trkpt>
      <trkpt lat="43.29672" lon="6.11935">
        <ele>283.7</ele>
        <time>2022-11-13T14:06:14.000Z</time>
      </trkpt>
      <trkpt lat="43.29666" lon="6.11944">
        <ele>282.6</ele>
        <time>2022-11-13T14:06:23.000Z</time>
      </trkpt>
      <trkpt lat="43.2966" lon="6.11954">
        <ele>281.9</ele>
        <time>2022-11-13T14:06:30.000Z</time>
      </trkpt>
      <trkpt lat="43.29655" lon="6.11965">
        <ele>280.9</ele>
        <time>2022-11-13T14:06:40.000Z</time>
      </trkpt>
      <trkpt lat="43.29648" lon="6.11974">
        <ele>279.6</ele>
        <time>2022-11-13T14:06:50.000Z</time>
      </trkpt>
      <trkpt lat="43.29642" lon="6.11983">
        <ele>278.1</ele>
        <time>2022-11-13T14:06:59.000Z</time>
      </trkpt>
      <trkpt lat="43.29634" lon="6.11991">
        <ele>277.1</ele>
        <time>2022-11-13T14:07:09.000Z</time>
      </trkpt>
      <trkpt lat="43.29624" lon="6.11994">
        <ele>275.7</ele>
        <time>2022-11-13T14:07:17.000Z</time>
      </trkpt>
      <trkpt lat="43.29616" lon="6.12001">
        <ele>274.5</ele>
        <time>2022-11-13T14:07:26.000Z</time>
      </trkpt>
      <trkpt lat="43.29609" lon="6.12011">
        <ele>273.1</ele>
        <time>2022-11-13T14:07:38.000Z</time>
      </trkpt>
      <trkpt lat="43.29601" lon="6.12018">
        <ele>272.2</ele>
        <time>2022-11-13T14:07:49.000Z</time>
      </trkpt>
      <trkpt lat="43.29597" lon="6.12027">
        <ele>271</ele>
        <time>2022-11-13T14:07:59.000Z</time>
      </trkpt>
      <trkpt lat="43.29597" lon="6.12027">
        <ele>271</ele>
        <time>2022-11-13T14:08:00.000Z</time>
      </trkpt>
      <trkpt lat="43.29596" lon="6.12031">
        <ele>270.5</ele>
        <time>2022-11-13T14:08:05.000Z</time>
      </trkpt>
      <trkpt lat="43.29596" lon="6.12031">
        <ele>269.9</ele>
        <time>2022-11-13T14:08:08.000Z</time>
      </trkpt>
      <trkpt lat="43.29589" lon="6.12041">
        <ele>268.8</ele>
        <time>2022-11-13T14:08:16.000Z</time>
      </trkpt>
      <trkpt lat="43.29586" lon="6.12051">
        <ele>268.1</ele>
        <time>2022-11-13T14:08:27.000Z</time>
      </trkpt>
      <trkpt lat="43.29586" lon="6.12052">
        <ele>268</ele>
        <time>2022-11-13T14:08:28.000Z</time>
      </trkpt>
      <trkpt lat="43.29585" lon="6.12061">
        <ele>268.7</ele>
        <time>2022-11-13T14:08:42.000Z</time>
      </trkpt>
      <trkpt lat="43.29585" lon="6.12061">
        <ele>268.3</ele>
        <time>2022-11-13T14:08:47.000Z</time>
      </trkpt>
      <trkpt lat="43.29577" lon="6.12059">
        <ele>268.7</ele>
        <time>2022-11-13T14:09:01.000Z</time>
      </trkpt>
      <trkpt lat="43.29577" lon="6.12059">
        <ele>268.7</ele>
        <time>2022-11-13T14:09:02.000Z</time>
      </trkpt>
      <trkpt lat="43.29575" lon="6.1206">
        <ele>268.6</ele>
        <time>2022-11-13T14:09:14.000Z</time>
      </trkpt>
      <trkpt lat="43.29576" lon="6.12061">
        <ele>268.8</ele>
        <time>2022-11-13T14:09:46.000Z</time>
      </trkpt>
      <trkpt lat="43.29575" lon="6.12062">
        <ele>268.8</ele>
        <time>2022-11-13T14:09:48.000Z</time>
      </trkpt>
      <trkpt lat="43.29575" lon="6.12063">
        <ele>268.6</ele>
        <time>2022-11-13T14:09:50.000Z</time>
      </trkpt>
      <trkpt lat="43.29567" lon="6.12068">
        <ele>267.2</ele>
        <time>2022-11-13T14:10:01.000Z</time>
      </trkpt>
      <trkpt lat="43.29558" lon="6.12072">
        <ele>266</ele>
        <time>2022-11-13T14:10:10.000Z</time>
      </trkpt>
      <trkpt lat="43.29548" lon="6.12076">
        <ele>264.2</ele>
        <time>2022-11-13T14:10:19.000Z</time>
      </trkpt>
      <trkpt lat="43.2954" lon="6.12083">
        <ele>262.5</ele>
        <time>2022-11-13T14:10:29.000Z</time>
      </trkpt>
      <trkpt lat="43.29535" lon="6.12093">
        <ele>259.9</ele>
        <time>2022-11-13T14:10:43.000Z</time>
      </trkpt>
      <trkpt lat="43.29526" lon="6.121">
        <ele>256.9</ele>
        <time>2022-11-13T14:11:03.000Z</time>
      </trkpt>
      <trkpt lat="43.29517" lon="6.12106">
        <ele>255.8</ele>
        <time>2022-11-13T14:11:11.000Z</time>
      </trkpt>
      <trkpt lat="43.29508" lon="6.12112">
        <ele>255</ele>
        <time>2022-11-13T14:11:18.000Z</time>
      </trkpt>
      <trkpt lat="43.29499" lon="6.12116">
        <ele>254.7</ele>
        <time>2022-11-13T14:11:25.000Z</time>
      </trkpt>
      <trkpt lat="43.29491" lon="6.12125">
        <ele>253.6</ele>
        <time>2022-11-13T14:11:33.000Z</time>
      </trkpt>
      <trkpt lat="43.29483" lon="6.12131">
        <ele>253.3</ele>
        <time>2022-11-13T14:11:39.000Z</time>
      </trkpt>
      <trkpt lat="43.29473" lon="6.12134">
        <ele>253</ele>
        <time>2022-11-13T14:11:46.000Z</time>
      </trkpt>
      <trkpt lat="43.29466" lon="6.12126">
        <ele>253.8</ele>
        <time>2022-11-13T14:11:54.000Z</time>
      </trkpt>
      <trkpt lat="43.29456" lon="6.1213">
        <ele>253.3</ele>
        <time>2022-11-13T14:12:03.000Z</time>
      </trkpt>
      <trkpt lat="43.29448" lon="6.12138">
        <ele>252.1</ele>
        <time>2022-11-13T14:12:13.000Z</time>
      </trkpt>
      <trkpt lat="43.29438" lon="6.12139">
        <ele>251</ele>
        <time>2022-11-13T14:12:24.000Z</time>
      </trkpt>
      <trkpt lat="43.29429" lon="6.12144">
        <ele>249.7</ele>
        <time>2022-11-13T14:12:33.000Z</time>
      </trkpt>
      <trkpt lat="43.2942" lon="6.12148">
        <ele>248.9</ele>
        <time>2022-11-13T14:12:40.000Z</time>
      </trkpt>
      <trkpt lat="43.29412" lon="6.12155">
        <ele>247.9</ele>
        <time>2022-11-13T14:12:46.000Z</time>
      </trkpt>
      <trkpt lat="43.29403" lon="6.1216">
        <ele>247.2</ele>
        <time>2022-11-13T14:12:53.000Z</time>
      </trkpt>
      <trkpt lat="43.29395" lon="6.12166">
        <ele>246.1</ele>
        <time>2022-11-13T14:13:03.000Z</time>
      </trkpt>
      <trkpt lat="43.29387" lon="6.12174">
        <ele>245.5</ele>
        <time>2022-11-13T14:13:11.000Z</time>
      </trkpt>
      <trkpt lat="43.29378" lon="6.12175">
        <ele>244.7</ele>
        <time>2022-11-13T14:13:20.000Z</time>
      </trkpt>
      <trkpt lat="43.29368" lon="6.12181">
        <ele>243.9</ele>
        <time>2022-11-13T14:13:29.000Z</time>
      </trkpt>
      <trkpt lat="43.29359" lon="6.12184">
        <ele>243.6</ele>
        <time>2022-11-13T14:13:38.000Z</time>
      </trkpt>
      <trkpt lat="43.29352" lon="6.12192">
        <ele>242.9</ele>
        <time>2022-11-13T14:13:46.000Z</time>
      </trkpt>
      <trkpt lat="43.29342" lon="6.12195">
        <ele>241.8</ele>
        <time>2022-11-13T14:13:56.000Z</time>
      </trkpt>
      <trkpt lat="43.29333" lon="6.12194">
        <ele>241.2</ele>
        <time>2022-11-13T14:14:04.000Z</time>
      </trkpt>
      <trkpt lat="43.29324" lon="6.12196">
        <ele>240.6</ele>
        <time>2022-11-13T14:14:14.000Z</time>
      </trkpt>
      <trkpt lat="43.29315" lon="6.12201">
        <ele>240</ele>
        <time>2022-11-13T14:14:24.000Z</time>
      </trkpt>
      <trkpt lat="43.29306" lon="6.12206">
        <ele>239.8</ele>
        <time>2022-11-13T14:14:32.000Z</time>
      </trkpt>
      <trkpt lat="43.29298" lon="6.12211">
        <ele>238.7</ele>
        <time>2022-11-13T14:14:40.000Z</time>
      </trkpt>
      <trkpt lat="43.29288" lon="6.12215">
        <ele>238.4</ele>
        <time>2022-11-13T14:14:49.000Z</time>
      </trkpt>
      <trkpt lat="43.29279" lon="6.12219">
        <ele>237.8</ele>
        <time>2022-11-13T14:14:57.000Z</time>
      </trkpt>
      <trkpt lat="43.2927" lon="6.12221">
        <ele>237.1</ele>
        <time>2022-11-13T14:15:05.000Z</time>
      </trkpt>
      <trkpt lat="43.29265" lon="6.12224">
        <ele>236.5</ele>
        <time>2022-11-13T14:15:11.000Z</time>
      </trkpt>
      <trkpt lat="43.29265" lon="6.12224">
        <ele>236.8</ele>
        <time>2022-11-13T14:15:21.000Z</time>
      </trkpt>
      <trkpt lat="43.29256" lon="6.1223">
        <ele>236</ele>
        <time>2022-11-13T14:15:30.000Z</time>
      </trkpt>
      <trkpt lat="43.29247" lon="6.12234">
        <ele>235.2</ele>
        <time>2022-11-13T14:15:42.000Z</time>
      </trkpt>
      <trkpt lat="43.29245" lon="6.12235">
        <ele>235.2</ele>
        <time>2022-11-13T14:15:47.000Z</time>
      </trkpt>
      <trkpt lat="43.29245" lon="6.12235">
        <ele>235.4</ele>
        <time>2022-11-13T14:15:49.000Z</time>
      </trkpt>
      <trkpt lat="43.29245" lon="6.12235">
        <ele>235.3</ele>
        <time>2022-11-13T14:15:50.000Z</time>
      </trkpt>
      <trkpt lat="43.29245" lon="6.12235">
        <ele>235.1</ele>
        <time>2022-11-13T14:15:55.000Z</time>
      </trkpt>
      <trkpt lat="43.29236" lon="6.1224">
        <ele>234.3</ele>
        <time>2022-11-13T14:16:05.000Z</time>
      </trkpt>
      <trkpt lat="43.29227" lon="6.12245">
        <ele>233.6</ele>
        <time>2022-11-13T14:16:14.000Z</time>
      </trkpt>
      <trkpt lat="43.29218" lon="6.12247">
        <ele>233.2</ele>
        <time>2022-11-13T14:16:23.000Z</time>
      </trkpt>
      <trkpt lat="43.29209" lon="6.12252">
        <ele>232.6</ele>
        <time>2022-11-13T14:16:32.000Z</time>
      </trkpt>
      <trkpt lat="43.292" lon="6.12257">
        <ele>231.8</ele>
        <time>2022-11-13T14:16:43.000Z</time>
      </trkpt>
      <trkpt lat="43.29191" lon="6.12261">
        <ele>230.7</ele>
        <time>2022-11-13T14:16:53.000Z</time>
      </trkpt>
      <trkpt lat="43.29182" lon="6.12269">
        <ele>229.9</ele>
        <time>2022-11-13T14:17:02.000Z</time>
      </trkpt>
      <trkpt lat="43.29173" lon="6.12274">
        <ele>229.3</ele>
        <time>2022-11-13T14:17:10.000Z</time>
      </trkpt>
      <trkpt lat="43.29165" lon="6.12279">
        <ele>228.9</ele>
        <time>2022-11-13T14:17:17.000Z</time>
      </trkpt>
      <trkpt lat="43.29157" lon="6.12285">
        <ele>228.5</ele>
        <time>2022-11-13T14:17:25.000Z</time>
      </trkpt>
      <trkpt lat="43.29148" lon="6.12283">
        <ele>229.7</ele>
        <time>2022-11-13T14:17:37.000Z</time>
      </trkpt>
      <trkpt lat="43.29142" lon="6.12272">
        <ele>229.4</ele>
        <time>2022-11-13T14:17:47.000Z</time>
      </trkpt>
      <trkpt lat="43.29135" lon="6.12262">
        <ele>228.3</ele>
        <time>2022-11-13T14:17:54.000Z</time>
      </trkpt>
      <trkpt lat="43.29129" lon="6.12253">
        <ele>227.1</ele>
        <time>2022-11-13T14:18:03.000Z</time>
      </trkpt>
      <trkpt lat="43.29123" lon="6.12243">
        <ele>226</ele>
        <time>2022-11-13T14:18:11.000Z</time>
      </trkpt>
      <trkpt lat="43.29116" lon="6.12234">
        <ele>224.9</ele>
        <time>2022-11-13T14:18:19.000Z</time>
      </trkpt>
      <trkpt lat="43.29109" lon="6.12225">
        <ele>224.2</ele>
        <time>2022-11-13T14:18:28.000Z</time>
      </trkpt>
      <trkpt lat="43.29102" lon="6.12215">
        <ele>223.4</ele>
        <time>2022-11-13T14:18:37.000Z</time>
      </trkpt>
      <trkpt lat="43.29095" lon="6.12205">
        <ele>223</ele>
        <time>2022-11-13T14:18:45.000Z</time>
      </trkpt>
      <trkpt lat="43.29085" lon="6.122">
        <ele>222.8</ele>
        <time>2022-11-13T14:18:52.000Z</time>
      </trkpt>
      <trkpt lat="43.29075" lon="6.12201">
        <ele>222</ele>
        <time>2022-11-13T14:19:00.000Z</time>
      </trkpt>
      <trkpt lat="43.29067" lon="6.12205">
        <ele>221.9</ele>
        <time>2022-11-13T14:19:07.000Z</time>
      </trkpt>
      <trkpt lat="43.29058" lon="6.12208">
        <ele>221.5</ele>
        <time>2022-11-13T14:19:15.000Z</time>
      </trkpt>
      <trkpt lat="43.29049" lon="6.12212">
        <ele>221.2</ele>
        <time>2022-11-13T14:19:22.000Z</time>
      </trkpt>
      <trkpt lat="43.2904" lon="6.12216">
        <ele>221.1</ele>
        <time>2022-11-13T14:19:29.000Z</time>
      </trkpt>
      <trkpt lat="43.29031" lon="6.1222">
        <ele>220.9</ele>
        <time>2022-11-13T14:19:37.000Z</time>
      </trkpt>
      <trkpt lat="43.29022" lon="6.12225">
        <ele>220.5</ele>
        <time>2022-11-13T14:19:45.000Z</time>
      </trkpt>
      <trkpt lat="43.29014" lon="6.12233">
        <ele>220.4</ele>
        <time>2022-11-13T14:19:54.000Z</time>
      </trkpt>
      <trkpt lat="43.29006" lon="6.12242">
        <ele>220.1</ele>
        <time>2022-11-13T14:20:04.000Z</time>
      </trkpt>
      <trkpt lat="43.29" lon="6.12252">
        <ele>219.9</ele>
        <time>2022-11-13T14:20:10.000Z</time>
      </trkpt>
      <trkpt lat="43.28994" lon="6.12262">
        <ele>219.1</ele>
        <time>2022-11-13T14:20:19.000Z</time>
      </trkpt>
      <trkpt lat="43.28992" lon="6.12275">
        <ele>219.6</ele>
        <time>2022-11-13T14:20:28.000Z</time>
      </trkpt>
      <trkpt lat="43.2899" lon="6.12282">
        <ele>220</ele>
        <time>2022-11-13T14:20:41.000Z</time>
      </trkpt>
      <trkpt lat="43.2899" lon="6.12282">
        <ele>220.1</ele>
        <time>2022-11-13T14:20:42.000Z</time>
      </trkpt>
      <trkpt lat="43.28985" lon="6.12294">
        <ele>220.6</ele>
        <time>2022-11-13T14:20:52.000Z</time>
      </trkpt>
      <trkpt lat="43.28981" lon="6.12307">
        <ele>220.9</ele>
        <time>2022-11-13T14:21:01.000Z</time>
      </trkpt>
      <trkpt lat="43.2898" lon="6.12319">
        <ele>221.3</ele>
        <time>2022-11-13T14:21:08.000Z</time>
      </trkpt>
      <trkpt lat="43.28979" lon="6.12332">
        <ele>221.2</ele>
        <time>2022-11-13T14:21:15.000Z</time>
      </trkpt>
      <trkpt lat="43.28976" lon="6.12344">
        <ele>221.4</ele>
        <time>2022-11-13T14:21:23.000Z</time>
      </trkpt>
      <trkpt lat="43.28973" lon="6.12356">
        <ele>221.6</ele>
        <time>2022-11-13T14:21:32.000Z</time>
      </trkpt>
      <trkpt lat="43.28968" lon="6.12367">
        <ele>221.5</ele>
        <time>2022-11-13T14:21:41.000Z</time>
      </trkpt>
      <trkpt lat="43.28962" lon="6.12378">
        <ele>221.3</ele>
        <time>2022-11-13T14:21:49.000Z</time>
      </trkpt>
      <trkpt lat="43.28958" lon="6.12389">
        <ele>221</ele>
        <time>2022-11-13T14:21:55.000Z</time>
      </trkpt>
      <trkpt lat="43.28954" lon="6.12401">
        <ele>220.3</ele>
        <time>2022-11-13T14:22:03.000Z</time>
      </trkpt>
      <trkpt lat="43.28951" lon="6.12413">
        <ele>219.8</ele>
        <time>2022-11-13T14:22:11.000Z</time>
      </trkpt>
      <trkpt lat="43.28947" lon="6.12424">
        <ele>219</ele>
        <time>2022-11-13T14:22:18.000Z</time>
      </trkpt>
      <trkpt lat="43.28943" lon="6.12435">
        <ele>218.5</ele>
        <time>2022-11-13T14:22:26.000Z</time>
      </trkpt>
      <trkpt lat="43.28939" lon="6.12447">
        <ele>217.8</ele>
        <time>2022-11-13T14:22:33.000Z</time>
      </trkpt>
      <trkpt lat="43.28935" lon="6.12459">
        <ele>217</ele>
        <time>2022-11-13T14:22:40.000Z</time>
      </trkpt>
      <trkpt lat="43.28933" lon="6.12472">
        <ele>215.6</ele>
        <time>2022-11-13T14:22:49.000Z</time>
      </trkpt>
      <trkpt lat="43.2893" lon="6.12484">
        <ele>214.3</ele>
        <time>2022-11-13T14:22:57.000Z</time>
      </trkpt>
      <trkpt lat="43.28927" lon="6.12496">
        <ele>213.5</ele>
        <time>2022-11-13T14:23:04.000Z</time>
      </trkpt>
      <trkpt lat="43.28924" lon="6.12509">
        <ele>212.6</ele>
        <time>2022-11-13T14:23:11.000Z</time>
      </trkpt>
      <trkpt lat="43.2892" lon="6.1252">
        <ele>212.1</ele>
        <time>2022-11-13T14:23:19.000Z</time>
      </trkpt>
      <trkpt lat="43.28915" lon="6.12533">
        <ele>211.6</ele>
        <time>2022-11-13T14:23:26.000Z</time>
      </trkpt>
      <trkpt lat="43.2891" lon="6.12544">
        <ele>211.2</ele>
        <time>2022-11-13T14:23:35.000Z</time>
      </trkpt>
      <trkpt lat="43.28908" lon="6.12557">
        <ele>211</ele>
        <time>2022-11-13T14:23:47.000Z</time>
      </trkpt>
      <trkpt lat="43.28907" lon="6.1257">
        <ele>210.8</ele>
        <time>2022-11-13T14:23:58.000Z</time>
      </trkpt>
      <trkpt lat="43.28906" lon="6.12583">
        <ele>210.5</ele>
        <time>2022-11-13T14:24:07.000Z</time>
      </trkpt>
      <trkpt lat="43.28901" lon="6.12594">
        <ele>210.4</ele>
        <time>2022-11-13T14:24:15.000Z</time>
      </trkpt>
      <trkpt lat="43.28897" lon="6.12606">
        <ele>210.4</ele>
        <time>2022-11-13T14:24:22.000Z</time>
      </trkpt>
      <trkpt lat="43.28894" lon="6.12619">
        <ele>210.2</ele>
        <time>2022-11-13T14:24:31.000Z</time>
      </trkpt>
      <trkpt lat="43.28889" lon="6.1263">
        <ele>210.5</ele>
        <time>2022-11-13T14:24:40.000Z</time>
      </trkpt>
      <trkpt lat="43.28883" lon="6.1264">
        <ele>210.8</ele>
        <time>2022-11-13T14:24:49.000Z</time>
      </trkpt>
      <trkpt lat="43.28876" lon="6.1265">
        <ele>210.6</ele>
        <time>2022-11-13T14:24:58.000Z</time>
      </trkpt>
      <trkpt lat="43.28872" lon="6.12661">
        <ele>209.8</ele>
        <time>2022-11-13T14:25:05.000Z</time>
      </trkpt>
      <trkpt lat="43.28869" lon="6.12674">
        <ele>209.9</ele>
        <time>2022-11-13T14:25:13.000Z</time>
      </trkpt>
      <trkpt lat="43.28865" lon="6.12685">
        <ele>209.8</ele>
        <time>2022-11-13T14:25:20.000Z</time>
      </trkpt>
      <trkpt lat="43.28861" lon="6.12698">
        <ele>209.6</ele>
        <time>2022-11-13T14:25:28.000Z</time>
      </trkpt>
      <trkpt lat="43.28859" lon="6.12706">
        <ele>209.6</ele>
        <time>2022-11-13T14:25:39.000Z</time>
      </trkpt>
      <trkpt lat="43.28858" lon="6.12706">
        <ele>209.7</ele>
        <time>2022-11-13T14:25:42.000Z</time>
      </trkpt>
      <trkpt lat="43.28855" lon="6.12718">
        <ele>209.7</ele>
        <time>2022-11-13T14:25:51.000Z</time>
      </trkpt>
      <trkpt lat="43.28851" lon="6.1273">
        <ele>209.9</ele>
        <time>2022-11-13T14:26:00.000Z</time>
      </trkpt>
      <trkpt lat="43.28846" lon="6.12741">
        <ele>209.8</ele>
        <time>2022-11-13T14:26:08.000Z</time>
      </trkpt>
      <trkpt lat="43.28843" lon="6.12753">
        <ele>209.7</ele>
        <time>2022-11-13T14:26:16.000Z</time>
      </trkpt>
      <trkpt lat="43.2884" lon="6.12765">
        <ele>210.1</ele>
        <time>2022-11-13T14:26:26.000Z</time>
      </trkpt>
      <trkpt lat="43.28841" lon="6.12765">
        <ele>209.9</ele>
        <time>2022-11-13T14:26:28.000Z</time>
      </trkpt>
      <trkpt lat="43.28841" lon="6.12766">
        <ele>209.9</ele>
        <time>2022-11-13T14:26:32.000Z</time>
      </trkpt>
      <trkpt lat="43.28836" lon="6.12778">
        <ele>209.8</ele>
        <time>2022-11-13T14:26:40.000Z</time>
      </trkpt>
      <trkpt lat="43.28834" lon="6.12791">
        <ele>210</ele>
        <time>2022-11-13T14:26:50.000Z</time>
      </trkpt>
      <trkpt lat="43.28831" lon="6.12798">
        <ele>209.8</ele>
        <time>2022-11-13T14:26:59.000Z</time>
      </trkpt>
      <trkpt lat="43.28831" lon="6.12799">
        <ele>209.9</ele>
        <time>2022-11-13T14:27:03.000Z</time>
      </trkpt>
      <trkpt lat="43.28828" lon="6.12811">
        <ele>209.2</ele>
        <time>2022-11-13T14:27:20.000Z</time>
      </trkpt>
      <trkpt lat="43.28825" lon="6.12823">
        <ele>208.6</ele>
        <time>2022-11-13T14:27:28.000Z</time>
      </trkpt>
      <trkpt lat="43.28821" lon="6.12836">
        <ele>208.4</ele>
        <time>2022-11-13T14:27:37.000Z</time>
      </trkpt>
      <trkpt lat="43.28817" lon="6.12848">
        <ele>208</ele>
        <time>2022-11-13T14:27:44.000Z</time>
      </trkpt>
      <trkpt lat="43.28814" lon="6.1286">
        <ele>207.6</ele>
        <time>2022-11-13T14:27:52.000Z</time>
      </trkpt>
      <trkpt lat="43.28811" lon="6.12872">
        <ele>207.1</ele>
        <time>2022-11-13T14:28:01.000Z</time>
      </trkpt>
      <trkpt lat="43.28809" lon="6.12886">
        <ele>206.9</ele>
        <time>2022-11-13T14:28:11.000Z</time>
      </trkpt>
      <trkpt lat="43.28809" lon="6.12898">
        <ele>206.8</ele>
        <time>2022-11-13T14:28:19.000Z</time>
      </trkpt>
      <trkpt lat="43.28809" lon="6.12911">
        <ele>206.5</ele>
        <time>2022-11-13T14:28:28.000Z</time>
      </trkpt>
      <trkpt lat="43.28808" lon="6.12924">
        <ele>206.1</ele>
        <time>2022-11-13T14:28:37.000Z</time>
      </trkpt>
      <trkpt lat="43.28807" lon="6.12934">
        <ele>205.7</ele>
        <time>2022-11-13T14:28:48.000Z</time>
      </trkpt>
      <trkpt lat="43.28807" lon="6.12935">
        <ele>205.7</ele>
        <time>2022-11-13T14:28:55.000Z</time>
      </trkpt>
      <trkpt lat="43.28807" lon="6.12937">
        <ele>205.6</ele>
        <time>2022-11-13T14:28:59.000Z</time>
      </trkpt>
      <trkpt lat="43.28807" lon="6.12937">
        <ele>205.6</ele>
        <time>2022-11-13T14:29:00.000Z</time>
      </trkpt>
      <trkpt lat="43.28807" lon="6.12937">
        <ele>205.6</ele>
        <time>2022-11-13T14:29:01.000Z</time>
      </trkpt>
      <trkpt lat="43.28807" lon="6.12938">
        <ele>205.6</ele>
        <time>2022-11-13T14:29:03.000Z</time>
      </trkpt>
      <trkpt lat="43.28807" lon="6.1295">
        <ele>205.3</ele>
        <time>2022-11-13T14:29:16.000Z</time>
      </trkpt>
      <trkpt lat="43.28807" lon="6.12951">
        <ele>205.2</ele>
        <time>2022-11-13T14:29:17.000Z</time>
      </trkpt>
      <trkpt lat="43.28806" lon="6.12964">
        <ele>204.9</ele>
        <time>2022-11-13T14:29:27.000Z</time>
      </trkpt>
      <trkpt lat="43.28805" lon="6.12977">
        <ele>204.5</ele>
        <time>2022-11-13T14:29:35.000Z</time>
      </trkpt>
      <trkpt lat="43.28804" lon="6.12991">
        <ele>204.5</ele>
        <time>2022-11-13T14:29:44.000Z</time>
      </trkpt>
      <trkpt lat="43.28804" lon="6.13004">
        <ele>204</ele>
        <time>2022-11-13T14:29:53.000Z</time>
      </trkpt>
      <trkpt lat="43.28804" lon="6.13017">
        <ele>203.3</ele>
        <time>2022-11-13T14:30:02.000Z</time>
      </trkpt>
      <trkpt lat="43.28804" lon="6.13029">
        <ele>202.9</ele>
        <time>2022-11-13T14:30:11.000Z</time>
      </trkpt>
      <trkpt lat="43.28801" lon="6.13041">
        <ele>202.7</ele>
        <time>2022-11-13T14:30:19.000Z</time>
      </trkpt>
      <trkpt lat="43.28797" lon="6.13053">
        <ele>202.2</ele>
        <time>2022-11-13T14:30:30.000Z</time>
      </trkpt>
      <trkpt lat="43.28797" lon="6.13054">
        <ele>202.1</ele>
        <time>2022-11-13T14:30:32.000Z</time>
      </trkpt>
      <trkpt lat="43.28797" lon="6.13055">
        <ele>202.1</ele>
        <time>2022-11-13T14:30:33.000Z</time>
      </trkpt>
      <trkpt lat="43.28796" lon="6.13065">
        <ele>201.6</ele>
        <time>2022-11-13T14:30:44.000Z</time>
      </trkpt>
      <trkpt lat="43.28796" lon="6.13066">
        <ele>201.6</ele>
        <time>2022-11-13T14:30:48.000Z</time>
      </trkpt>
      <trkpt lat="43.28796" lon="6.13067">
        <ele>201.7</ele>
        <time>2022-11-13T14:30:51.000Z</time>
      </trkpt>
      <trkpt lat="43.28796" lon="6.13067">
        <ele>201.3</ele>
        <time>2022-11-13T14:30:54.000Z</time>
      </trkpt>
      <trkpt lat="43.28797" lon="6.13079">
        <ele>201.3</ele>
        <time>2022-11-13T14:31:08.000Z</time>
      </trkpt>
      <trkpt lat="43.28788" lon="6.13082">
        <ele>200.8</ele>
        <time>2022-11-13T14:31:18.000Z</time>
      </trkpt>
      <trkpt lat="43.28783" lon="6.13085">
        <ele>200.3</ele>
        <time>2022-11-13T14:31:29.000Z</time>
      </trkpt>
      <trkpt lat="43.28783" lon="6.13085">
        <ele>200.3</ele>
        <time>2022-11-13T14:31:30.000Z</time>
      </trkpt>
      <trkpt lat="43.28777" lon="6.1309">
        <ele>200.3</ele>
        <time>2022-11-13T14:31:39.000Z</time>
      </trkpt>
      <trkpt lat="43.28777" lon="6.1309">
        <ele>200.2</ele>
        <time>2022-11-13T14:31:42.000Z</time>
      </trkpt>
      <trkpt lat="43.28768" lon="6.13098">
        <ele>199.8</ele>
        <time>2022-11-13T14:31:50.000Z</time>
      </trkpt>
      <trkpt lat="43.2876" lon="6.13106">
        <ele>199.5</ele>
        <time>2022-11-13T14:31:58.000Z</time>
      </trkpt>
      <trkpt lat="43.28751" lon="6.13113">
        <ele>199.3</ele>
        <time>2022-11-13T14:32:07.000Z</time>
      </trkpt>
      <trkpt lat="43.28743" lon="6.1312">
        <ele>199.1</ele>
        <time>2022-11-13T14:32:15.000Z</time>
      </trkpt>
      <trkpt lat="43.28742" lon="6.13127">
        <ele>199.4</ele>
        <time>2022-11-13T14:32:21.000Z</time>
      </trkpt>
      <trkpt lat="43.28742" lon="6.13127">
        <ele>199.1</ele>
        <time>2022-11-13T14:32:25.000Z</time>
      </trkpt>
      <trkpt lat="43.2875" lon="6.1312">
        <ele>199.2</ele>
        <time>2022-11-13T14:32:34.000Z</time>
      </trkpt>
      <trkpt lat="43.28758" lon="6.13114">
        <ele>199.7</ele>
        <time>2022-11-13T14:32:43.000Z</time>
      </trkpt>
      <trkpt lat="43.28767" lon="6.13107">
        <ele>199.6</ele>
        <time>2022-11-13T14:32:52.000Z</time>
      </trkpt>
      <trkpt lat="43.28775" lon="6.131">
        <ele>200.2</ele>
        <time>2022-11-13T14:33:01.000Z</time>
      </trkpt>
      <trkpt lat="43.28783" lon="6.13093">
        <ele>200.5</ele>
        <time>2022-11-13T14:33:10.000Z</time>
      </trkpt>
      <trkpt lat="43.28791" lon="6.13085">
        <ele>200.6</ele>
        <time>2022-11-13T14:33:19.000Z</time>
      </trkpt>
      <trkpt lat="43.28799" lon="6.13079">
        <ele>201.2</ele>
        <time>2022-11-13T14:33:30.000Z</time>
      </trkpt>
      <trkpt lat="43.28801" lon="6.13067">
        <ele>201.5</ele>
        <time>2022-11-13T14:33:43.000Z</time>
      </trkpt>
      <trkpt lat="43.28801" lon="6.13066">
        <ele>201.6</ele>
        <time>2022-11-13T14:33:47.000Z</time>
      </trkpt>
      <trkpt lat="43.28801" lon="6.13066">
        <ele>201.5</ele>
        <time>2022-11-13T14:34:12.000Z</time>
      </trkpt>
      <trkpt lat="43.28801" lon="6.13066">
        <ele>201.4</ele>
        <time>2022-11-13T14:34:13.000Z</time>
      </trkpt>
      <trkpt lat="43.28801" lon="6.13066">
        <ele>201.5</ele>
        <time>2022-11-13T14:34:24.000Z</time>
      </trkpt>
      <trkpt lat="43.28801" lon="6.13066">
        <ele>201.4</ele>
        <time>2022-11-13T14:34:25.000Z</time>
      </trkpt>
      <trkpt lat="43.28801" lon="6.13066">
        <ele>201.5</ele>
        <time>2022-11-13T14:34:27.000Z</time>
      </trkpt>
      <trkpt lat="43.288" lon="6.13066">
        <ele>201.2</ele>
        <time>2022-11-13T14:34:30.000Z</time>
      </trkpt>
      <trkpt lat="43.288" lon="6.13066">
        <ele>201.2</ele>
        <time>2022-11-13T14:34:31.000Z</time>
      </trkpt>
      <trkpt lat="43.288" lon="6.13066">
        <ele>201.4</ele>
        <time>2022-11-13T14:34:33.000Z</time>
      </trkpt>
      <trkpt lat="43.288" lon="6.13066">
        <ele>201.4</ele>
        <time>2022-11-13T14:34:40.000Z</time>
      </trkpt>
      <trkpt lat="43.28801" lon="6.13066">
        <ele>201.5</ele>
        <time>2022-11-13T14:34:44.000Z</time>
      </trkpt>
      <trkpt lat="43.28801" lon="6.13067">
        <ele>201.3</ele>
        <time>2022-11-13T14:35:24.000Z</time>
      </trkpt>
      <trkpt lat="43.288" lon="6.13071">
        <ele>201.4</ele>
        <time>2022-11-13T14:35:30.000Z</time>
      </trkpt>
      <trkpt lat="43.288" lon="6.13071">
        <ele>201</ele>
        <time>2022-11-13T14:35:43.000Z</time>
      </trkpt>
      <trkpt lat="43.288" lon="6.13073">
        <ele>200.9</ele>
        <time>2022-11-13T14:35:49.000Z</time>
      </trkpt>
      <trkpt lat="43.288" lon="6.13074">
        <ele>201.1</ele>
        <time>2022-11-13T14:35:56.000Z</time>
      </trkpt>
      <trkpt lat="43.28803" lon="6.13086">
        <ele>200.5</ele>
        <time>2022-11-13T14:36:05.000Z</time>
      </trkpt>
      <trkpt lat="43.28806" lon="6.13098">
        <ele>199.6</ele>
        <time>2022-11-13T14:36:13.000Z</time>
      </trkpt>
      <trkpt lat="43.28811" lon="6.1311">
        <ele>198.6</ele>
        <time>2022-11-13T14:36:22.000Z</time>
      </trkpt>
      <trkpt lat="43.28815" lon="6.13122">
        <ele>197.6</ele>
        <time>2022-11-13T14:36:32.000Z</time>
      </trkpt>
      <trkpt lat="43.28821" lon="6.13133">
        <ele>197</ele>
        <time>2022-11-13T14:36:42.000Z</time>
      </trkpt>
      <trkpt lat="43.28821" lon="6.13141">
        <ele>196.2</ele>
        <time>2022-11-13T14:36:53.000Z</time>
      </trkpt>
      <trkpt lat="43.28821" lon="6.13142">
        <ele>196.1</ele>
        <time>2022-11-13T14:36:54.000Z</time>
      </trkpt>
      <trkpt lat="43.28821" lon="6.13155">
        <ele>195.8</ele>
        <time>2022-11-13T14:37:04.000Z</time>
      </trkpt>
      <trkpt lat="43.28821" lon="6.13161">
        <ele>195.1</ele>
        <time>2022-11-13T14:37:13.000Z</time>
      </trkpt>
      <trkpt lat="43.28821" lon="6.13161">
        <ele>195.3</ele>
        <time>2022-11-13T14:37:28.000Z</time>
      </trkpt>
      <trkpt lat="43.28821" lon="6.13161">
        <ele>195.4</ele>
        <time>2022-11-13T14:37:30.000Z</time>
      </trkpt>
      <trkpt lat="43.28821" lon="6.13161">
        <ele>195.5</ele>
        <time>2022-11-13T14:37:31.000Z</time>
      </trkpt>
      <trkpt lat="43.28821" lon="6.13161">
        <ele>195.5</ele>
        <time>2022-11-13T14:37:32.000Z</time>
      </trkpt>
      <trkpt lat="43.28821" lon="6.13162">
        <ele>195.6</ele>
        <time>2022-11-13T14:37:36.000Z</time>
      </trkpt>
      <trkpt lat="43.28821" lon="6.13166">
        <ele>195.4</ele>
        <time>2022-11-13T14:37:42.000Z</time>
      </trkpt>
      <trkpt lat="43.28821" lon="6.13166">
        <ele>195.4</ele>
        <time>2022-11-13T14:37:45.000Z</time>
      </trkpt>
      <trkpt lat="43.28829" lon="6.13173">
        <ele>194.9</ele>
        <time>2022-11-13T14:37:58.000Z</time>
      </trkpt>
      <trkpt lat="43.28836" lon="6.13183">
        <ele>194.5</ele>
        <time>2022-11-13T14:38:11.000Z</time>
      </trkpt>
      <trkpt lat="43.28841" lon="6.13193">
        <ele>194.2</ele>
        <time>2022-11-13T14:38:21.000Z</time>
      </trkpt>
      <trkpt lat="43.28843" lon="6.13206">
        <ele>193.6</ele>
        <time>2022-11-13T14:38:31.000Z</time>
      </trkpt>
      <trkpt lat="43.28844" lon="6.13219">
        <ele>193.3</ele>
        <time>2022-11-13T14:38:40.000Z</time>
      </trkpt>
      <trkpt lat="43.28849" lon="6.1323">
        <ele>192.8</ele>
        <time>2022-11-13T14:38:52.000Z</time>
      </trkpt>
      <trkpt lat="43.28855" lon="6.13239">
        <ele>191.7</ele>
        <time>2022-11-13T14:39:04.000Z</time>
      </trkpt>
      <trkpt lat="43.28861" lon="6.13248">
        <ele>191.8</ele>
        <time>2022-11-13T14:39:14.000Z</time>
      </trkpt>
      <trkpt lat="43.28866" lon="6.13259">
        <ele>191.8</ele>
        <time>2022-11-13T14:39:28.000Z</time>
      </trkpt>
      <trkpt lat="43.28871" lon="6.1327">
        <ele>192</ele>
        <time>2022-11-13T14:39:38.000Z</time>
      </trkpt>
      <trkpt lat="43.28879" lon="6.13277">
        <ele>191.7</ele>
        <time>2022-11-13T14:39:47.000Z</time>
      </trkpt>
      <trkpt lat="43.28884" lon="6.13288">
        <ele>192</ele>
        <time>2022-11-13T14:39:59.000Z</time>
      </trkpt>
      <trkpt lat="43.28888" lon="6.13299">
        <ele>192.4</ele>
        <time>2022-11-13T14:40:09.000Z</time>
      </trkpt>
      <trkpt lat="43.28887" lon="6.13312">
        <ele>192.7</ele>
        <time>2022-11-13T14:40:21.000Z</time>
      </trkpt>
      <trkpt lat="43.28889" lon="6.13325">
        <ele>192.9</ele>
        <time>2022-11-13T14:40:31.000Z</time>
      </trkpt>
      <trkpt lat="43.28893" lon="6.13336">
        <ele>192.9</ele>
        <time>2022-11-13T14:40:39.000Z</time>
      </trkpt>
      <trkpt lat="43.28894" lon="6.13349">
        <ele>193.3</ele>
        <time>2022-11-13T14:40:49.000Z</time>
      </trkpt>
      <trkpt lat="43.28894" lon="6.13363">
        <ele>193.7</ele>
        <time>2022-11-13T14:41:00.000Z</time>
      </trkpt>
      <trkpt lat="43.28895" lon="6.13376">
        <ele>193.6</ele>
        <time>2022-11-13T14:41:08.000Z</time>
      </trkpt>
      <trkpt lat="43.28898" lon="6.13388">
        <ele>193.2</ele>
        <time>2022-11-13T14:41:17.000Z</time>
      </trkpt>
      <trkpt lat="43.28901" lon="6.13401">
        <ele>193.3</ele>
        <time>2022-11-13T14:41:26.000Z</time>
      </trkpt>
      <trkpt lat="43.28903" lon="6.13413">
        <ele>193.1</ele>
        <time>2022-11-13T14:41:33.000Z</time>
      </trkpt>
      <trkpt lat="43.28905" lon="6.13425">
        <ele>192.8</ele>
        <time>2022-11-13T14:41:44.000Z</time>
      </trkpt>
      <trkpt lat="43.28905" lon="6.13437">
        <ele>192.6</ele>
        <time>2022-11-13T14:41:53.000Z</time>
      </trkpt>
      <trkpt lat="43.28907" lon="6.1345">
        <ele>192.6</ele>
        <time>2022-11-13T14:42:01.000Z</time>
      </trkpt>
      <trkpt lat="43.28909" lon="6.13462">
        <ele>192.2</ele>
        <time>2022-11-13T14:42:10.000Z</time>
      </trkpt>
      <trkpt lat="43.28909" lon="6.13476">
        <ele>191.9</ele>
        <time>2022-11-13T14:42:19.000Z</time>
      </trkpt>
      <trkpt lat="43.28909" lon="6.13488">
        <ele>191.6</ele>
        <time>2022-11-13T14:42:26.000Z</time>
      </trkpt>
      <trkpt lat="43.2891" lon="6.13502">
        <ele>191.6</ele>
        <time>2022-11-13T14:42:34.000Z</time>
      </trkpt>
      <trkpt lat="43.28914" lon="6.13505">
        <ele>191.4</ele>
        <time>2022-11-13T14:42:40.000Z</time>
      </trkpt>
      <trkpt lat="43.28914" lon="6.13505">
        <ele>191.5</ele>
        <time>2022-11-13T14:42:45.000Z</time>
      </trkpt>
      <trkpt lat="43.28924" lon="6.13502">
        <ele>192.2</ele>
        <time>2022-11-13T14:42:55.000Z</time>
      </trkpt>
      <trkpt lat="43.2893" lon="6.13499">
        <ele>192.3</ele>
        <time>2022-11-13T14:43:04.000Z</time>
      </trkpt>
      <trkpt lat="43.2893" lon="6.135">
        <ele>192.4</ele>
        <time>2022-11-13T14:43:05.000Z</time>
      </trkpt>
      <trkpt lat="43.28939" lon="6.13501">
        <ele>192.8</ele>
        <time>2022-11-13T14:43:17.000Z</time>
      </trkpt>
      <trkpt lat="43.28947" lon="6.13501">
        <ele>192.8</ele>
        <time>2022-11-13T14:43:32.000Z</time>
      </trkpt>
      <trkpt lat="43.28947" lon="6.13501">
        <ele>192.7</ele>
        <time>2022-11-13T14:43:38.000Z</time>
      </trkpt>
      <trkpt lat="43.28948" lon="6.13501">
        <ele>192.6</ele>
        <time>2022-11-13T14:43:40.000Z</time>
      </trkpt>
      <trkpt lat="43.28949" lon="6.13501">
        <ele>192.6</ele>
        <time>2022-11-13T14:43:48.000Z</time>
      </trkpt>
      <trkpt lat="43.2895" lon="6.135">
        <ele>192.8</ele>
        <time>2022-11-13T14:43:52.000Z</time>
      </trkpt>
      <trkpt lat="43.2895" lon="6.135">
        <ele>192.7</ele>
        <time>2022-11-13T14:44:04.000Z</time>
      </trkpt>
      <trkpt lat="43.28952" lon="6.13496">
        <ele>192.8</ele>
        <time>2022-11-13T14:44:10.000Z</time>
      </trkpt>
      <trkpt lat="43.28952" lon="6.13496">
        <ele>192.9</ele>
        <time>2022-11-13T14:44:19.000Z</time>
      </trkpt>
      <trkpt lat="43.28953" lon="6.13495">
        <ele>193.1</ele>
        <time>2022-11-13T14:44:25.000Z</time>
      </trkpt>
      <trkpt lat="43.28953" lon="6.13495">
        <ele>192.9</ele>
        <time>2022-11-13T14:44:32.000Z</time>
      </trkpt>
      <trkpt lat="43.28954" lon="6.13494">
        <ele>192.9</ele>
        <time>2022-11-13T14:44:37.000Z</time>
      </trkpt>
      <trkpt lat="43.28955" lon="6.13494">
        <ele>193.2</ele>
        <time>2022-11-13T14:44:38.000Z</time>
      </trkpt>
      <trkpt lat="43.28957" lon="6.13492">
        <ele>193.3</ele>
        <time>2022-11-13T14:44:43.000Z</time>
      </trkpt>
      <trkpt lat="43.28957" lon="6.13492">
        <ele>193.3</ele>
        <time>2022-11-13T14:44:45.000Z</time>
      </trkpt>
      <trkpt lat="43.28956" lon="6.13492">
        <ele>193.3</ele>
        <time>2022-11-13T14:44:48.000Z</time>
      </trkpt>
      <trkpt lat="43.28956" lon="6.13492">
        <ele>193.4</ele>
        <time>2022-11-13T14:44:55.000Z</time>
      </trkpt>
      <trkpt lat="43.28956" lon="6.13491">
        <ele>193.2</ele>
        <time>2022-11-13T14:44:58.000Z</time>
      </trkpt>
      <trkpt lat="43.28956" lon="6.13491">
        <ele>193.2</ele>
        <time>2022-11-13T14:44:59.000Z</time>
      </trkpt>
      <trkpt lat="43.28962" lon="6.135">
        <ele>192.8</ele>
        <time>2022-11-13T14:45:16.000Z</time>
      </trkpt>
      <trkpt lat="43.28962" lon="6.135">
        <ele>192.8</ele>
        <time>2022-11-13T14:45:17.000Z</time>
      </trkpt>
      <trkpt lat="43.2896" lon="6.13504">
        <ele>192.5</ele>
        <time>2022-11-13T14:45:22.000Z</time>
      </trkpt>
      <trkpt lat="43.2896" lon="6.13504">
        <ele>192.7</ele>
        <time>2022-11-13T14:45:24.000Z</time>
      </trkpt>
      <trkpt lat="43.2896" lon="6.13504">
        <ele>192.7</ele>
        <time>2022-11-13T14:45:25.000Z</time>
      </trkpt>
      <trkpt lat="43.2896" lon="6.13505">
        <ele>192.9</ele>
        <time>2022-11-13T14:45:49.000Z</time>
      </trkpt>
      <trkpt lat="43.28969" lon="6.13507">
        <ele>192.7</ele>
        <time>2022-11-13T14:46:00.000Z</time>
      </trkpt>
      <trkpt lat="43.28979" lon="6.13502">
        <ele>192.8</ele>
        <time>2022-11-13T14:46:07.000Z</time>
      </trkpt>
      <trkpt lat="43.28988" lon="6.13498">
        <ele>193</ele>
        <time>2022-11-13T14:46:15.000Z</time>
      </trkpt>
      <trkpt lat="43.28996" lon="6.1349">
        <ele>193</ele>
        <time>2022-11-13T14:46:24.000Z</time>
      </trkpt>
      <trkpt lat="43.29002" lon="6.13481">
        <ele>193.3</ele>
        <time>2022-11-13T14:46:32.000Z</time>
      </trkpt>
      <trkpt lat="43.2901" lon="6.13474">
        <ele>193.8</ele>
        <time>2022-11-13T14:46:44.000Z</time>
      </trkpt>
      <trkpt lat="43.2902" lon="6.13477">
        <ele>193.7</ele>
        <time>2022-11-13T14:46:54.000Z</time>
      </trkpt>
      <trkpt lat="43.29025" lon="6.13474">
        <ele>193.7</ele>
        <time>2022-11-13T14:47:03.000Z</time>
      </trkpt>
      <trkpt lat="43.29025" lon="6.13474">
        <ele>193.7</ele>
        <time>2022-11-13T14:47:04.000Z</time>
      </trkpt>
      <trkpt lat="43.29025" lon="6.13473">
        <ele>193.7</ele>
        <time>2022-11-13T14:47:05.000Z</time>
      </trkpt>
      <trkpt lat="43.29026" lon="6.13473">
        <ele>193.7</ele>
        <time>2022-11-13T14:47:06.000Z</time>
      </trkpt>
      <trkpt lat="43.29035" lon="6.1347">
        <ele>194.1</ele>
        <time>2022-11-13T14:47:14.000Z</time>
      </trkpt>
      <trkpt lat="43.29045" lon="6.13468">
        <ele>194</ele>
        <time>2022-11-13T14:47:22.000Z</time>
      </trkpt>
      <trkpt lat="43.29054" lon="6.13466">
        <ele>194.2</ele>
        <time>2022-11-13T14:47:31.000Z</time>
      </trkpt>
      <trkpt lat="43.29063" lon="6.13463">
        <ele>194.8</ele>
        <time>2022-11-13T14:47:39.000Z</time>
      </trkpt>
      <trkpt lat="43.29069" lon="6.13474">
        <ele>195.5</ele>
        <time>2022-11-13T14:47:50.000Z</time>
      </trkpt>
      <trkpt lat="43.29071" lon="6.13486">
        <ele>196</ele>
        <time>2022-11-13T14:47:59.000Z</time>
      </trkpt>
      <trkpt lat="43.29076" lon="6.13498">
        <ele>196.2</ele>
        <time>2022-11-13T14:48:09.000Z</time>
      </trkpt>
      <trkpt lat="43.2908" lon="6.13509">
        <ele>196.2</ele>
        <time>2022-11-13T14:48:18.000Z</time>
      </trkpt>
      <trkpt lat="43.29085" lon="6.1352">
        <ele>196.4</ele>
        <time>2022-11-13T14:48:28.000Z</time>
      </trkpt>
      <trkpt lat="43.2909" lon="6.13531">
        <ele>196.7</ele>
        <time>2022-11-13T14:48:37.000Z</time>
      </trkpt>
      <trkpt lat="43.29094" lon="6.13543">
        <ele>196.8</ele>
        <time>2022-11-13T14:48:46.000Z</time>
      </trkpt>
      <trkpt lat="43.29099" lon="6.13555">
        <ele>196.5</ele>
        <time>2022-11-13T14:48:55.000Z</time>
      </trkpt>
      <trkpt lat="43.29103" lon="6.13566">
        <ele>196.3</ele>
        <time>2022-11-13T14:49:05.000Z</time>
      </trkpt>
      <trkpt lat="43.29107" lon="6.13578">
        <ele>196.6</ele>
        <time>2022-11-13T14:49:14.000Z</time>
      </trkpt>
      <trkpt lat="43.29111" lon="6.13589">
        <ele>196.4</ele>
        <time>2022-11-13T14:49:23.000Z</time>
      </trkpt>
      <trkpt lat="43.29115" lon="6.13602">
        <ele>196.2</ele>
        <time>2022-11-13T14:49:32.000Z</time>
      </trkpt>
      <trkpt lat="43.29118" lon="6.13614">
        <ele>196.3</ele>
        <time>2022-11-13T14:49:41.000Z</time>
      </trkpt>
      <trkpt lat="43.29123" lon="6.13624">
        <ele>196.4</ele>
        <time>2022-11-13T14:49:49.000Z</time>
      </trkpt>
      <trkpt lat="43.29126" lon="6.13637">
        <ele>196.6</ele>
        <time>2022-11-13T14:49:57.000Z</time>
      </trkpt>
      <trkpt lat="43.29129" lon="6.13649">
        <ele>196.6</ele>
        <time>2022-11-13T14:50:05.000Z</time>
      </trkpt>
      <trkpt lat="43.29134" lon="6.1366">
        <ele>196.5</ele>
        <time>2022-11-13T14:50:13.000Z</time>
      </trkpt>
      <trkpt lat="43.29137" lon="6.13672">
        <ele>196.5</ele>
        <time>2022-11-13T14:50:21.000Z</time>
      </trkpt>
      <trkpt lat="43.29143" lon="6.13683">
        <ele>196.7</ele>
        <time>2022-11-13T14:50:30.000Z</time>
      </trkpt>
      <trkpt lat="43.29152" lon="6.13685">
        <ele>196.9</ele>
        <time>2022-11-13T14:50:37.000Z</time>
      </trkpt>
      <trkpt lat="43.29161" lon="6.13682">
        <ele>197.2</ele>
        <time>2022-11-13T14:50:46.000Z</time>
      </trkpt>
      <trkpt lat="43.2917" lon="6.13677">
        <ele>197.8</ele>
        <time>2022-11-13T14:50:53.000Z</time>
      </trkpt>
      <trkpt lat="43.29178" lon="6.13671">
        <ele>198.1</ele>
        <time>2022-11-13T14:51:00.000Z</time>
      </trkpt>
      <trkpt lat="43.29187" lon="6.13667">
        <ele>198.5</ele>
        <time>2022-11-13T14:51:08.000Z</time>
      </trkpt>
      <trkpt lat="43.29195" lon="6.1366">
        <ele>199.3</ele>
        <time>2022-11-13T14:51:17.000Z</time>
      </trkpt>
      <trkpt lat="43.29205" lon="6.13657">
        <ele>199.3</ele>
        <time>2022-11-13T14:51:26.000Z</time>
      </trkpt>
      <trkpt lat="43.29214" lon="6.13654">
        <ele>199.9</ele>
        <time>2022-11-13T14:51:36.000Z</time>
      </trkpt>
      <trkpt lat="43.29224" lon="6.1365">
        <ele>200.2</ele>
        <time>2022-11-13T14:51:46.000Z</time>
      </trkpt>
      <trkpt lat="43.29226" lon="6.13647">
        <ele>200.4</ele>
        <time>2022-11-13T14:51:50.000Z</time>
      </trkpt>
      <trkpt lat="43.29226" lon="6.13647">
        <ele>200.5</ele>
        <time>2022-11-13T14:51:51.000Z</time>
      </trkpt>
      <trkpt lat="43.29226" lon="6.13647">
        <ele>200.5</ele>
        <time>2022-11-13T14:51:52.000Z</time>
      </trkpt>
      <trkpt lat="43.29225" lon="6.13647">
        <ele>200.5</ele>
        <time>2022-11-13T14:51:53.000Z</time>
      </trkpt>
      <trkpt lat="43.29234" lon="6.13643">
        <ele>200.6</ele>
        <time>2022-11-13T14:52:02.000Z</time>
      </trkpt>
      <trkpt lat="43.29242" lon="6.13635">
        <ele>201.4</ele>
        <time>2022-11-13T14:52:11.000Z</time>
      </trkpt>
      <trkpt lat="43.29249" lon="6.13627">
        <ele>201.6</ele>
        <time>2022-11-13T14:52:21.000Z</time>
      </trkpt>
      <trkpt lat="43.29254" lon="6.1362">
        <ele>202.3</ele>
        <time>2022-11-13T14:52:30.000Z</time>
      </trkpt>
      <trkpt lat="43.29255" lon="6.13621">
        <ele>202.3</ele>
        <time>2022-11-13T14:52:31.000Z</time>
      </trkpt>
      <trkpt lat="43.29262" lon="6.13611">
        <ele>202.7</ele>
        <time>2022-11-13T14:52:41.000Z</time>
      </trkpt>
      <trkpt lat="43.2927" lon="6.13603">
        <ele>203.4</ele>
        <time>2022-11-13T14:52:51.000Z</time>
      </trkpt>
      <trkpt lat="43.29277" lon="6.13597">
        <ele>203.8</ele>
        <time>2022-11-13T14:53:02.000Z</time>
      </trkpt>
      <trkpt lat="43.29284" lon="6.13587">
        <ele>204.8</ele>
        <time>2022-11-13T14:53:11.000Z</time>
      </trkpt>
      <trkpt lat="43.29292" lon="6.1358">
        <ele>205.2</ele>
        <time>2022-11-13T14:53:23.000Z</time>
      </trkpt>
      <trkpt lat="43.29287" lon="6.13577">
        <ele>205.4</ele>
        <time>2022-11-13T14:53:34.000Z</time>
      </trkpt>
    </trkseg>
  </trk>
</gpx>